# Wetter Temperatur Luftdruck Luftfeuchtigkeit Sichtweite Windgeschwindigkeit Windrichtung Zeit
1 Clear 8 1016 76 10000 6 150 10:27 14.08.2022
2 Clear 10 1016 66 10000 5 160 08:50 14.08.2022
3 Clouds 11 1017 57 10000 5 150 06:21 14.08.2022
4 Clouds 10 1017 57 10000 5 170 02:47 14.08.2022
5 Clouds 9 1017 61 10000 5 150 23:49 13.08.2022
6 Clouds 8 1017 66 10000 3 160 22:52 13.08.2022
7 Clouds 6 1016 75 10000 3 170 20:58 13.08.2022
8 Clouds 6 1016 75 10000 3 170 20:28 13.08.2022
9 Clouds 6 1016 81 10000 2 160 19:24 13.08.2022
10 Clouds 6 1015 81 10000 2 130 17:36 13.08.2022
11 Clouds 6 1014 93 10000 1 140 15:23 13.08.2022
12 Fog 5 1013 93 10000 2 20 14:26 13.08.2022
13 Clear 5 1013 100 10000 3 10 13:38 13.08.2022
14 Clouds 8 1011 87 10000 3 70 11:52 13.08.2022
15 Clouds 17 1008 72 10000 2 290 09:58 13.08.2022
16 Clouds 19 1007 63 10000 5 20 08:23 13.08.2022
17 Clouds 21 1006 52 10000 8 300 04:21 13.08.2022
18 Clouds 14 1005 87 10000 4 310 23:47 12.08.2022
19 Clouds 12 1004 93 10000 4 300 21:42 12.08.2022
20 Clouds 12 1004 93 10000 3 280 20:40 12.08.2022
21 Clouds 12 1004 93 10000 1 280 19:36 12.08.2022
22 Clouds 11 1004 100 10000 0 0 18:46 12.08.2022
23 Rain 12 1004 93 10000 2 270 16:37 12.08.2022
24 Rain 12 1004 93 10000 0 0 15:40 12.08.2022
25 Rain 12 1004 93 10000 0 0 14:27 12.08.2022
26 Clouds 13 1004 87 10000 1 170 12:53 12.08.2022
27 Clouds 13 1004 87 10000 1 170 12:53 12.08.2022
28 Clouds 13 1004 82 10000 4 170 09:52 12.08.2022
29 Clouds 14 1004 82 10000 2 160 07:47 12.08.2022
30 Clouds 16 1004 67 10000 3 200 06:38 12.08.2022
31 Clouds 14 1006 77 10000 3 260 02:33 12.08.2022
32 Clouds 14 1006 77 10000 1 0 00:24 12.08.2022
33 Clouds 13 1007 87 10000 2 300 23:35 11.08.2022
34 Clouds 13 1000 82 10000 3 330 22:24 11.08.2022
35 Rain 12 1007 93 10000 2 350 21:40 11.08.2022
36 Clouds 12 1007 87 10000 2 340 20:45 11.08.2022
37 Clouds 12 1007 82 10000 2 340 20:18 11.08.2022
38 Clear 12 1007 82 10000 2 310 19:32 11.08.2022
39 Clear 10 1007 93 10000 2 30 17:48 11.08.2022
40 Clouds 13 1007 72 10000 2.09 279 16:35 11.08.2022
41 Clouds 13 1008 82 10000 1.4 318 15:21 11.08.2022
42 Clear 13 1008 82 10000 2 330 13:37 11.08.2022
43 Clear 17 1008 67 10000 3 140 10:27 11.08.2022
44 Clear 20 1008 56 10000 1 0 07:38 11.08.2022
45 Clear 21 1009 52 10000 5 290 03:52 11.08.2022
46 Clear 19 1009 63 10000 4 300 00:37 11.08.2022
47 Clear 16 1010 67 10000 5 310 22:32 10.08.2022
48 Clear 15 1010 77 10000 3 320 21:25 10.08.2022
49 Clear 14 1009 77 10000 2 340 20:55 10.08.2022
50 Clear 12 1009 87 10000 2 50 19:27 10.08.2022
51 Clear 14 1009 77 10000 1 0 18:22 10.08.2022
52 Clouds 14 1008 77 10000 3 260 16:36 10.08.2022
53 Clear 15 1008 72 10000 1 0 13:35 10.08.2022
54 Clear 14 1008 72 10000 2 170 12:41 10.08.2022
55 Clear 17 1008 63 10000 4 200 09:25 10.08.2022
56 Clear 18 1008 59 10000 6 210 08:33 10.08.2022
57 Clear 19 1009 52 10000 5.81 220 07:18 10.08.2022
58 Clear 16 1011 55 10000 5 180 03:28 10.08.2022
59 Clear 10 1014 71 10000 6 160 23:34 09.08.2022
60 Clear 10 1014 71 10000 7 170 22:56 09.08.2022
61 Clear 9 1015 71 10000 6 170 21:36 09.08.2022
62 Clear 10 1015 66 10000 6 160 20:30 09.08.2022
63 Clear 7 1016 81 10000 6 160 18:44 09.08.2022
64 Clear 7 1017 81 10000 4 150 17:28 09.08.2022
65 Clear 7 1017 81 10000 5 140 16:40 09.08.2022
66 Clear 7 1018 75 10000 5 160 15:58 09.08.2022
67 Clear 7 1019 65 10000 4 150 12:52 09.08.2022
68 Clear 9 1020 57 10000 4 140 09:39 09.08.2022
69 Clear 9 1020 57 10000 5 170 08:50 09.08.2022
70 Clear 10 1020 53 10000 5 170 07:53 09.08.2022
71 Clouds 10 1020 49 10000 5 170 04:25 09.08.2022
72 Clear 9 1017 57 10000 5 360 23:27 08.08.2022
73 Clear 7 1017 65 10000 4 360 22:55 08.08.2022
74 Clear 7 1017 61 10000 4 360 22:18 08.08.2022
75 Clear 5 1016 75 10000 3 20 21:18 08.08.2022
76 Clear 5 1015 86 10000 3 20 19:51 08.08.2022
77 Clear 3 1014 86 10000 2 40 18:45 08.08.2022
78 Clear 4 1013 80 10000 2 360 16:44 08.08.2022
79 Clear 5 1013 80 10000 2 340 15:40 08.08.2022
80 Clear 6 1013 70 10000 4 330 13:54 08.08.2022
81 Clear 6 1013 70 10000 4 340 12:19 08.08.2022
82 Clear 7 1012 61 10000 7 330 09:46 08.08.2022
83 Clouds 8 1011 49 10000 9 320 05:54 08.08.2022
84 Clouds 9 1011 50 10000 10 330 02:55 08.08.2022
85 Clear 6 1010 56 10000 10 330 22:42 07.08.2022
86 Clear 5 1010 65 10000 12 330 21:40 07.08.2022
87 Clouds 3 1009 69 10000 11 320 20:26 07.08.2022
88 Clouds 4 1008 69 10000 13 320 19:56 07.08.2022
89 Clouds 3 1008 69 10000 13 320 19:38 07.08.2022
90 Clouds 3 1008 75 10000 7 320 18:23 07.08.2022
91 Clear 3 1006 75 10000 9 330 16:54 07.08.2022
92 Clear 3 1006 75 10000 9 330 16:35 07.08.2022
93 Clear 3 1006 75 10000 9 330 16:35 07.08.2022
94 Clear 5 1005 70 10000 7 320 15:20 07.08.2022
95 Clear 9 1005 70 10000 6 320 13:34 07.08.2022
96 Clear 11 1003 76 10000 5 330 11:54 07.08.2022
97 Clear 13 1003 82 10000 5 310 10:34 07.08.2022
98 Clouds 11 1002 93 10000 4 300 07:36 07.08.2022
99 Clouds 13 1004 82 10000 4 180 03:20 07.08.2022
100 Clouds 13 1006 82 10000 2 190 00:57 07.08.2022
101 Clouds 11 1007 87 10000 3 170 22:25 06.08.2022
102 Clear 11 1007 76 10000 3 160 20:46 06.08.2022
103 Clouds 11 1008 76 10000 2 150 19:41 06.08.2022
104 Clear 11 1008 71 10000 2 160 18:30 06.08.2022
105 Clouds 12 1009 71 10000 2 150 17:32 06.08.2022
106 Clear 9 1010 81 10000 2 130 14:43 06.08.2022
107 Clear 9 1011 81 10000 1 140 13:44 06.08.2022
108 Clear 11 1011 81 10000 2 230 11:55 06.08.2022
109 Clear 13 1011 67 10000 1 260 10:32 06.08.2022
110 Clear 14 1011 58 10000 5 260 08:32 06.08.2022
111 Clouds 15 1011 51 10000 8 280 03:52 06.08.2022
112 Clear 12 1012 54 10000 8 320 23:36 05.08.2022
113 Clear 11 1011 57 10000 8 330 22:32 05.08.2022
114 Clear 6 1010 87 10000 4 340 19:46 05.08.2022
115 Clear 5 1010 86 10000 5 350 18:46 05.08.2022
116 Clear 5 1010 86 10000 5 350 18:22 05.08.2022
117 Mist 5 1009 93 9000 2 320 16:49 05.08.2022
118 Clouds 3 1008 100 10000 4 40 15:22 05.08.2022
119 Clear 5 1008 93 10000 3 10 14:31 05.08.2022
120 Fog 7 1007 93 10000 4 10 13:24 05.08.2022
121 Clouds 9 1006 87 10000 4 10 12:29 05.08.2022
122 Clouds 10 1004 87 10000 5 360 10:51 05.08.2022
123 Clouds 14 1002 72 10000 8 330 08:30 05.08.2022
124 Clouds 13 1001 87 10000 7 300 06:56 05.08.2022
125 Clouds 13 1001 87 10000 7 300 06:56 05.08.2022
126 Clouds 13 1002 82 10000 5 270 00:46 05.08.2022
127 Clouds 12 1003 82 10000 1 190 22:32 04.08.2022
128 Clear 11 1003 93 10000 2 180 21:27 04.08.2022
129 Fog 11 1003 93 10000 2 160 20:44 04.08.2022
130 Clear 10 1003 87 10000 3 150 19:48 04.08.2022
131 Clear 10 1003 87 10000 2 140 18:51 04.08.2022
132 Clear 10 1003 87 10000 2 140 18:32 04.08.2022
133 Clear 10 1005 93 10000 4 150 14:39 04.08.2022
134 Clear 10 1005 81 10000 3 160 13:22 04.08.2022
135 Clear 11 1005 71 10000 3 150 11:33 04.08.2022
136 Clear 14 1006 62 10000 5 180 07:56 04.08.2022
137 Clear 13 1006 76 10000 5 180 07:26 04.08.2022
138 Fog 16 1008 59 10000 6 190 02:38 04.08.2022
139 Clear 15 1009 72 10000 3 140 23:49 03.08.2022
140 Clear 17 1009 45 10000 5 140 23:27 03.08.2022
141 Clear 13 1010 67 10000 2 300 20:57 03.08.2022
142 Clear 11 1010 71 10000 2 330 19:56 03.08.2022
143 Clear 12 1010 66 10000 2 30 18:40 03.08.2022
144 Clear 13 1011 62 10000 3 100 16:26 03.08.2022
145 Clear 14 1011 58 10000 1 0 15:47 03.08.2022
146 Clear 16 1012 55 10000 3 140 13:24 03.08.2022
147 Clear 18 1012 52 10000 4 140 09:51 03.08.2022
148 Clouds 20 1013 52 10000 7 160 06:46 03.08.2022
149 Clouds 20 1014 49 10000 6 170 04:22 03.08.2022
150 Clouds 20 1014 49 10000 2 240 02:35 03.08.2022
151 Clear 16 1015 67 10000 2 300 23:54 02.08.2022
152 Clear 17 1015 59 10000 1 0 21:59 02.08.2022
153 Clear 17 1015 59 10000 1 0 21:41 02.08.2022
154 Clear 13 1014 71 10000 0 0 20:25 02.08.2022
155 Clear 7 1013 81 10000 2 140 16:51 02.08.2022
156 Clear 14 1013 71 10000 2 140 14:33 02.08.2022
157 Clear 17 1012 48 10000 3 160 10:44 02.08.2022
158 Clear 19 1012 48 10000 3 170 08:36 02.08.2022
159 Clear 19 1012 45 10000 2 190 07:51 02.08.2022
160 Clear 20 1012 34 10000 3 270 04:57 02.08.2022
161 Clear 19 1013 48 10000 3 250 02:30 02.08.2022
162 Clear 17 1013 51 10000 2 250 23:26 01.08.2022
163 Clear 14 1013 62 10000 0 0 21:49 01.08.2022
164 Clear 12 1012 66 10000 0 0 20:27 01.08.2022
165 Clear 8 1012 81 10000 1 120 18:57 01.08.2022
166 Clear 7 1012 81 10000 1 120 17:22 01.08.2022
167 Clear 6 1012 87 10000 2 130 16:48 01.08.2022
168 Clear 7 1012 87 10000 2 140 15:45 01.08.2022
169 Clear 7 1012 87 10000 2 140 15:19 01.08.2022
170 Clear 7 1012 81 10000 2 130 13:32 01.08.2022
171 Clear 9 1012 70 10000 1 120 11:18 01.08.2022
172 Clear 13 1012 58 10000 2 150 09:34 01.08.2022
173 Clear 14 1012 54 10000 4 170 08:18 01.08.2022
174 Clouds 16 1013 45 10000 5 170 04:43 01.08.2022
175 Clouds 15 1014 51 10000 5 170 02:24 01.08.2022
176 Clear 12 1015 76 10000 5 180 22:54 31.07.2022
177 Clear 12 1015 71 10000 5 180 22:35 31.07.2022
178 Clear 10 1015 76 10000 3 150 20:46 31.07.2022
179 Clear 7 1015 81 10000 1 110 18:52 31.07.2022
180 Clear 7 1015 81 10000 1 0 17:34 31.07.2022
181 Clear 4 1016 93 10000 2 120 14:57 31.07.2022
182 Clear 6 1016 87 10000 2 120 13:20 31.07.2022
183 Clear 11 1016 66 10000 3 150 11:44 31.07.2022
184 Clear 13 1016 58 10000 3 160 09:18 31.07.2022
185 Clouds 15 1016 51 10000 3 170 06:31 31.07.2022
186 Clouds 15 1018 55 10000 3 240 02:31 31.07.2022
187 Clear 12 1019 58 10000 0 0 22:50 30.07.2022
188 Clear 11 1019 66 10000 2 30 21:55 30.07.2022
189 Clear 11 1019 66 10000 2 30 21:37 30.07.2022
190 Clear 10 1019 71 10000 2 60 20:38 30.07.2022
191 Clear 6 1019 93 10000 2 80 19:57 30.07.2022
192 Clear 3 1019 87 10000 1 0 18:23 30.07.2022
193 Clear 2 1019 87 10000 1 110 16:44 30.07.2022
194 Clear 7 1020 87 10000 1 180 15:34 30.07.2022
195 Clear 6 1020 75 10000 0 0 14:26 30.07.2022
196 Clear 8 1020 87 10000 2 140 12:33 30.07.2022
197 Clear 8 1020 87 10000 2 130 11:55 30.07.2022
198 Clouds 10 1020 76 10000 3 170 10:20 30.07.2022
199 Clouds 11 1020 71 10000 3 190 09:42 30.07.2022
200 Clouds 11 1020 71 10000 4 160 07:44 30.07.2022
201 Clouds 10 1021 76 10000 3 180 02:34 30.07.2022
202 Clouds 10 1022 76 10000 3 190 01:20 30.07.2022
203 Clouds 7 1022 87 10000 3 130 21:39 29.07.2022
204 Clouds 7 1022 87 10000 3 120 20:57 29.07.2022
205 Clouds 7 1022 87 10000 3 150 19:48 29.07.2022
206 Clouds 6 1022 87 10000 3 100 17:39 29.07.2022
207 Clear 7 1022 87 10000 4 90 14:53 29.07.2022
208 Clouds 7 1022 87 10000 4 110 12:58 29.07.2022
209 Clouds 7 1022 87 10000 8 120 09:35 29.07.2022
210 Fog 7 1022 93 10000 8 110 08:46 29.07.2022
211 Fog 9 1021 81 10000 9 120 07:30 29.07.2022
212 Fog 11 1021 76 10000 8 130 01:46 29.07.2022
213 Clouds 10 1020 81 10000 5 130 21:57 28.07.2022
214 Clouds 9 1019 87 10000 5 140 20:55 28.07.2022
215 Clouds 9 1019 87 10000 5 140 20:22 28.07.2022
216 Clouds 9 1018 81 10000 5.54 133 19:41 28.07.2022
217 Clouds 10 1018 81 10000 4 120 18:26 28.07.2022
218 Clouds 8 1018 93 10000 4 120 17:42 28.07.2022
219 Clouds 8 1018 93 10000 5 130 16:41 28.07.2022
220 Clouds 8 1018 93 10000 2 110 14:58 28.07.2022
221 Clouds 7 1018 93 10000 1 0 12:49 28.07.2022
222 Clouds 9 1017 81 10000 6 90 09:45 28.07.2022
223 Clouds 8 1017 87 10000 9 100 06:24 28.07.2022
224 Clouds 10 1017 87 10000 8 110 05:26 28.07.2022
225 Clouds 12 1015 76 10000 2 90 00:45 28.07.2022
226 Clouds 8 1015 87 10000 3 10 22:31 27.07.2022
227 Rain 6 1014 87 10000 8 70 20:25 27.07.2022
228 Rain 6 1013 87 10000 11 80 19:34 27.07.2022
229 Clouds 6 1012 87 10000 12 80 17:23 27.07.2022
230 Rain 6 1013 87 10000 8 60 15:52 27.07.2022
231 Rain 6 1014 87 10000 8 60 14:48 27.07.2022
232 Rain 6 1014 87 10000 8 60 14:30 27.07.2022
233 Rain 5 1015 93 10000 5 360 12:48 27.07.2022
234 Drizzle 7 1014 87 10000 3 90 07:53 27.07.2022
235 Drizzle 7 1014 87 10000 3 90 07:53 27.07.2022
236 Drizzle 8 1014 87 10000 4 110 06:18 27.07.2022
237 Clouds 10 1011 81 10000 9 90 00:48 27.07.2022
238 Clouds 8 1011 81 10000 5 100 22:25 26.07.2022
239 Clouds 8 1010 81 10000 6 110 21:20 26.07.2022
240 Clouds 8 1010 81 10000 6 110 21:20 26.07.2022
241 Clouds 7 1010 75 10000 5 120 19:59 26.07.2022
242 Clouds 7 1010 81 10000 3 110 18:41 26.07.2022
243 Rain 7 1010 87 10000 4 120 17:57 26.07.2022
244 Rain 7 1010 87 10000 3 120 15:58 26.07.2022
245 Rain 7 1009 87 10000 3 110 14:57 26.07.2022
246 Rain 8 1009 87 10000 3 140 12:59 26.07.2022
247 Clouds 9 1008 76 10000 2 130 10:59 26.07.2022
248 Clouds 9 1008 76 10000 4 180 08:46 26.07.2022
249 Rain 10 1007 71 10000 2 240 05:49 26.07.2022
250 Clouds 8 1008 70 10000 3 180 00:28 26.07.2022
251 Clouds 7 1008 75 10000 3 170 22:53 25.07.2022
252 Clouds 7 1008 81 10000 3 160 22:22 25.07.2022
253 Clear 8 1008 76 10000 1 0 21:38 25.07.2022
254 Clear 6 1008 87 10000 0 0 20:40 25.07.2022
255 Clouds 4 1008 93 10000 2 10 19:27 25.07.2022
256 Rain 5 1008 93 10000 1 20 18:18 25.07.2022
257 Clouds 4 1008 93 10000 3 30 17:27 25.07.2022
258 Clear 6 1009 87 10000 0 0 14:32 25.07.2022
259 Clear 8 1010 76 10000 2 60 12:21 25.07.2022
260 Clouds 12 1010 58 10000 1 0 09:18 25.07.2022
261 Clouds 13 1013 54 10000 4 360 03:23 25.07.2022
262 Clear 10 1014 62 10000 4 10 23:54 24.07.2022
263 Clear 8 1014 66 10000 3 20 22:56 24.07.2022
264 Clouds 8 1014 76 10000 2 360 22:26 24.07.2022
265 Clouds 6 1014 87 10000 0 0 21:19 24.07.2022
266 Clouds 5 1014 86 10000 1 30 20:50 24.07.2022
267 Clouds 5 1014 86 10000 1 30 20:19 24.07.2022
268 Clear 5 1014 75 10000 0 0 18:38 24.07.2022
269 Clear 6 1014 75 10000 2 70 16:29 24.07.2022
270 Clear 5 1014 81 10000 2 70 15:45 24.07.2022
271 Clear 6 1014 75 10000 3 130 14:19 24.07.2022
272 Clear 8 1014 66 10000 4 150 12:54 24.07.2022
273 Clear 8 1014 76 10000 2 140 11:40 24.07.2022
274 Clouds 8 1014 76 10000 5.11 155 11:00 24.07.2022
275 Clear 11 1013 66 10000 4 160 08:32 24.07.2022
276 Clear 10 1013 71 10000 6 140 07:52 24.07.2022
277 Clouds 13 1013 47 10000 5 300 05:44 24.07.2022
278 Clouds 9 1015 66 10000 4 360 00:29 24.07.2022
279 Clouds 6 1015 87 10000 3 360 21:37 23.07.2022
280 Clouds 5 1015 93 10000 2 340 20:19 23.07.2022
281 Clouds 5 1015 87 10000 1 0 18:50 23.07.2022
282 Clouds 4 1015 87 10000 1 20 17:28 23.07.2022
283 Clouds 4 1015 87 10000 1 0 16:35 23.07.2022
284 Clouds 5 1014 80 10000 2 80 15:31 23.07.2022
285 Clouds 6 1014 75 10000 0 0 14:59 23.07.2022
286 Clouds 6 1014 75 10000 0 0 14:28 23.07.2022
287 Clouds 6 1014 93 10000 0 0 13:36 23.07.2022
288 Rain 7 1012 87 10000 6 130 10:49 23.07.2022
289 Rain 7 1012 87 10000 6 130 10:21 23.07.2022
290 Clouds 10 1011 71 10000 2 180 08:39 23.07.2022
291 Clouds 9 1011 71 10000 4.54 148 03:39 23.07.2022
292 Clouds 9 1011 70 10000 4 150 01:27 23.07.2022
293 Clouds 8 1010 76 10000 2 150 22:56 22.07.2022
294 Rain 7 1009 87 10000 1 0 20:56 22.07.2022
295 Rain 7 1009 93 10000 1 0 19:41 22.07.2022
296 Clouds 6 1009 93 10000 1.79 20 18:28 22.07.2022
297 Rain 6 1009 93 10000 2 340 16:55 22.07.2022
298 Clouds 6 1009 93 10000 2 350 14:54 22.07.2022
299 Clouds 9 1009 71 10000 4 320 11:22 22.07.2022
300 Clouds 12 1009 62 10000 6 340 09:26 22.07.2022
301 Clouds 13 1009 58 10000 7 330 08:32 22.07.2022
302 Clouds 13 1010 50 10000 5 290 05:19 22.07.2022
303 Clouds 12 1010 54 10000 7 310 02:25 22.07.2022
304 Clouds 10 1011 61 10000 5 320 22:43 21.07.2022
305 Clouds 8 1011 70 10000 4 330 21:33 21.07.2022
306 Clear 6 1011 75 10000 2 320 19:27 21.07.2022
307 Clear 4 1011 86 10000 4 10 17:41 21.07.2022
308 Clear 5 1012 81 10000 4 10 17:19 21.07.2022
309 Clouds 7 1011 75 10000 2 200 14:55 21.07.2022
310 Clouds 7 1011 75 10000 2 200 14:31 21.07.2022
311 Clouds 7 1011 81 10000 3 40 12:28 21.07.2022
312 Clear 10 1010 66 10000 2 360 11:19 21.07.2022
313 Clouds 11 1009 50 10000 8 330 09:33 21.07.2022
314 Clouds 10 1009 62 10000 7 320 08:50 21.07.2022
315 Clouds 10 1009 57 10000 8 310 07:42 21.07.2022
316 Clouds 10 1010 62 10000 7 290 05:47 21.07.2022
317 Clouds 7 1012 65 10000 5 340 00:43 21.07.2022
318 Clouds 5 1011 81 10000 4 360 22:22 20.07.2022
319 Clouds 4 1011 86 10000 3 360 20:55 20.07.2022
320 Clouds 3 1010 93 10000 3 360 19:53 20.07.2022
321 Clouds 3 1010 93 10000 3 360 19:24 20.07.2022
322 Clouds 4 1010 93 10000 3 340 18:34 20.07.2022
323 Clouds 3 1009 100 10000 3.58 60 18:00 20.07.2022
324 Clouds 4 1008 80 10000 2 80 16:45 20.07.2022
325 Clouds 6 1007 81 10000 4 350 15:32 20.07.2022
326 Clouds 6 1006 81 10000 8 330 14:20 20.07.2022
327 Clouds 6 1006 81 10000 8 330 14:20 20.07.2022
328 Clouds 6 1006 81 10000 8 330 14:20 20.07.2022
329 Clouds 10 1005 81 10000 5 290 11:34 20.07.2022
330 Clouds 9 1005 76 10000 4 310 09:41 20.07.2022
331 Rain 6 1001 93 9000 1 0 03:49 20.07.2022
332 Rain 6 996 87 10000 8 90 00:51 20.07.2022
333 Rain 9 995 81 10000 9 110 23:41 19.07.2022
334 Rain 8 995 81 10000 10 110 22:33 19.07.2022
335 Rain 8 994 81 8000 10 120 21:35 19.07.2022
336 Rain 9 996 81 9000 8 120 20:33 19.07.2022
337 Thunderstorm 11 996 62 10000 7 140 19:21 19.07.2022
338 Rain 11 997 58 10000 6 130 18:31 19.07.2022
339 Clear 10 999 71 10000 4 150 17:46 19.07.2022
340 Clear 6 1001 81 10000 2 140 14:57 19.07.2022
341 Clear 11 1002 62 10000 3 320 11:44 19.07.2022
342 Clear 13 1002 50 10000 4 320 10:55 19.07.2022
343 Clear 13 1002 50 10000 8 300 09:25 19.07.2022
344 Clear 14 1002 44 10000 8 310 08:39 19.07.2022
345 Clear 13 1002 50 10000 9 300 07:19 19.07.2022
346 Clear 15 1002 41 10000 9 300 05:48 19.07.2022
347 Clear 14 1002 44 10000 8 310 04:56 19.07.2022
348 Clear 12 1002 47 10000 9 320 01:50 19.07.2022
349 Clouds 10 1001 50 10000 13 320 23:49 18.07.2022
350 Clouds 9 1001 53 10000 12 320 23:18 18.07.2022
351 Clouds 9 1001 53 10000 12 330 22:18 18.07.2022
352 Clear 7 1001 65 10000 12 300 20:51 18.07.2022
353 Clear 7 1001 65 10000 13 290 19:33 18.07.2022
354 Clear 6 1001 65 10000 12 300 17:52 18.07.2022
355 Clear 6 1002 61 10000 9 300 15:57 18.07.2022
356 Clear 6 1002 61 10000 9 300 15:18 18.07.2022
357 Clear 5 1002 60 10000 9 300 13:26 18.07.2022
358 Clear 5 1002 60 10000 6 330 11:31 18.07.2022
359 Clear 8 1002 39 10000 7 310 09:43 18.07.2022
360 Clear 9 1002 37 10000 11 310 07:45 18.07.2022
361 Clouds 6 1003 45 10000 11 300 02:34 18.07.2022
362 Clouds 5 1002 41 10000 13 310 22:52 17.07.2022
363 Clear 5 1002 45 10000 13 310 22:25 17.07.2022
364 Clear 4 1001 52 10000 11 310 21:26 17.07.2022
365 Clear 4 1000 44 10000 13 330 20:44 17.07.2022
366 Clear 6 997 56 10000 11 340 19:49 17.07.2022
367 Clear 6 997 56 10000 11 340 19:19 17.07.2022
368 Clear 9 995 71 10000 8 330 17:39 17.07.2022
369 Clear 13 993 76 10000 8 320 16:51 17.07.2022
370 Clear 12 993 76 10000 8 320 16:27 17.07.2022
371 Clouds 13 992 82 10000 7 290 15:34 17.07.2022
372 Thunderstorm 13 993 93 2500 4 290 13:47 17.07.2022
373 Clear 14 994 72 10000 2 240 12:32 17.07.2022
374 Clear 18 994 59 10000 5 290 09:31 17.07.2022
375 Clouds 20 995 56 10000 6 280 06:58 17.07.2022
376 Clouds 20 997 60 10000 3 260 02:33 17.07.2022
377 Clouds 17 998 77 10000 0 0 23:22 16.07.2022
378 Clouds 13 999 76 10000 1 0 21:57 16.07.2022
379 Clouds 10 999 81 10000 4 140 20:28 16.07.2022
380 Rain 14 1001 67 10000 3 160 18:42 16.07.2022
381 Clouds 12 1001 71 10000 5 150 17:24 16.07.2022
382 Clear 14 1003 62 10000 8 150 15:41 16.07.2022
383 Rain 12 1006 62 10000 7 150 11:55 16.07.2022
384 Clear 13 1007 50 10000 7 130 09:41 16.07.2022
385 Clear 13 1007 50 10000 7 130 09:22 16.07.2022
386 Clouds 15 1008 51 10000 6 140 08:35 16.07.2022
387 Clear 15 1009 55 10000 7 150 06:47 16.07.2022
388 Clouds 13 1011 54 10000 5 150 03:31 16.07.2022
389 Clear 10 1014 57 10000 4 150 23:52 15.07.2022
390 Clear 9 1014 66 10000 5 150 22:44 15.07.2022
391 Clear 9 1014 66 10000 5 160 21:52 15.07.2022
392 Clear 10 1015 57 10000 2 150 20:32 15.07.2022
393 Clear 6 1015 93 10000 0 0 18:46 15.07.2022
394 Clear 5 1015 87 10000 3 30 17:51 15.07.2022
395 Clear 5 1015 93 10000 0 0 16:23 15.07.2022
396 Clouds 7 1016 87 10000 2 170 13:48 15.07.2022
397 Clouds 8 1016 87 10000 4 140 12:22 15.07.2022
398 Clouds 10 1015 76 10000 4 170 10:52 15.07.2022
399 Clouds 10 1015 76 10000 2 130 07:47 15.07.2022
400 Rain 15 1014 67 10000 4 190 02:47 15.07.2022
401 Clouds 14 1013 71 10000 3 210 00:39 15.07.2022
402 Clouds 14 1013 71 10000 3 210 00:39 15.07.2022
403 Clouds 13 1013 76 10000 2 230 22:56 14.07.2022
404 Clear 12 1012 87 10000 1 30 21:59 14.07.2022
405 Clear 12 1012 87 10000 1 30 21:37 14.07.2022
406 Clear 12 1012 87 10000 1 30 21:18 14.07.2022
407 Clouds 11 1012 93 10000 1 0 20:41 14.07.2022
408 Clouds 11 1012 93 10000 1 0 20:18 14.07.2022
409 Clouds 10 1011 93 10000 1 350 17:25 14.07.2022
410 Clouds 10 1011 93 10000 2 20 16:18 14.07.2022
411 Clouds 10 1011 100 10000 0 0 14:44 14.07.2022
412 Clouds 10 1011 100 10000 1 320 13:39 14.07.2022
413 Rain 10 1011 100 9000 1 30 12:23 14.07.2022
414 Rain 10 1011 93 10000 0 0 11:26 14.07.2022
415 Rain 11 1010 93 10000 3 120 10:49 14.07.2022
416 Rain 10 1010 93 10000 3 180 08:28 14.07.2022
417 Clouds 12 1010 82 10000 0 0 03:42 14.07.2022
418 Clouds 12 1010 82 10000 4 100 00:55 14.07.2022
419 Clouds 12 1010 87 10000 0 0 00:18 14.07.2022
420 Clouds 11 1009 93 10000 3 360 22:28 13.07.2022
421 Clouds 11 1008 93 10000 2 310 21:37 13.07.2022
422 Clouds 11 1008 93 10000 0 0 20:38 13.07.2022
423 Rain 11 1007 87 10000 2 110 18:22 13.07.2022
424 Clouds 10 1006 87 10000 2 190 17:22 13.07.2022
425 Clouds 13 1006 88 10000 1 0 15:59 13.07.2022
426 Clouds 15 1006 77 10000 2 140 13:50 13.07.2022
427 Clear 15 1005 82 10000 1 50 11:30 13.07.2022
428 Clear 17 1005 72 10000 1 0 10:44 13.07.2022
429 Clear 17 1004 67 10000 3 170 09:29 13.07.2022
430 Clear 20 1004 60 10000 2 270 08:23 13.07.2022
431 Clear 22 1004 56 10000 3 150 04:37 13.07.2022
432 Clouds 17 1005 63 10000 5 150 00:47 13.07.2022
433 Clouds 15 1006 67 10000 5 140 22:47 12.07.2022
434 Clear 15 1007 67 10000 3 130 21:49 12.07.2022
435 Clear 14 1007 67 10000 5 140 20:53 12.07.2022
436 Clear 13 1007 71 10000 6 140 19:54 12.07.2022
437 Clear 14 1008 72 10000 6 130 18:51 12.07.2022
438 Clear 11 1009 76 10000 6 140 17:23 12.07.2022
439 Clear 11 1011 81 10000 4 150 15:32 12.07.2022
440 Clear 11 1012 81 10000 4 150 13:43 12.07.2022
441 Clear 12 1013 82 10000 3 150 11:55 12.07.2022
442 Clear 13 1013 76 10000 4 150 10:45 12.07.2022
443 Clouds 14 1013 72 10000 5 160 08:59 12.07.2022
444 Clouds 14 1014 72 10000 5 170 07:55 12.07.2022
445 Clouds 17 1014 67 10000 4 200 05:53 12.07.2022
446 Clouds 16 1014 72 10000 3 210 05:34 12.07.2022
447 Clouds 13 1016 71 10000 3 230 01:32 12.07.2022
448 Clouds 12 1017 76 10000 1 0 22:48 11.07.2022
449 Clouds 11 1017 81 10000 1 0 21:37 11.07.2022
450 Clouds 10 1017 87 10000 2 340 20:33 11.07.2022
451 Clouds 10 1017 87 10000 1 70 19:28 11.07.2022
452 Clouds 9 1017 100 10000 1 50 18:30 11.07.2022
453 Clouds 8 1017 100 10000 1 360 16:34 11.07.2022
454 Clouds 9 1017 93 10000 1 0 15:34 11.07.2022
455 Clouds 8 1017 100 10000 1 340 13:37 11.07.2022
456 Clouds 9 1017 93 10000 1 250 11:33 11.07.2022
457 Clouds 9 1016 93 10000 1 220 10:18 11.07.2022
458 Clouds 10 1016 87 10000 2 30 09:40 11.07.2022
459 Clouds 10 1016 87 10000 3 30 08:33 11.07.2022
460 Clouds 10 1013 87 10000 6 30 03:23 11.07.2022
461 Clouds 10 1011 87 10000 5 20 00:20 11.07.2022
462 Clouds 8 1010 93 10000 6 20 22:55 10.07.2022
463 Clouds 8 1009 93 10000 8 20 21:39 10.07.2022
464 Clouds 8 1008 100 10000 3 10 20:47 10.07.2022
465 Rain 7 1020 100 10000 1 360 19:48 10.07.2022
466 Fog 7 1020 100 400 3 340 18:48 10.07.2022
467 Drizzle 7 1006 93 1400 5 350 17:37 10.07.2022
468 Drizzle 7 1005 100 2700 5 350 16:45 10.07.2022
469 Mist 7 1005 100 2600 5 350 15:25 10.07.2022
470 Rain 8 1004 100 2000 5 330 14:21 10.07.2022
471 Rain 11 1003 93 10000 5 330 12:27 10.07.2022
472 Rain 13 1002 94 2700 5 340 10:20 10.07.2022
473 Rain 14 1001 94 1800 2 170 08:45 10.07.2022
474 Rain 14 1001 94 1800 2 170 08:45 10.07.2022
475 Rain 14 1000 94 3200 3 160 07:30 10.07.2022
476 Rain 13 999 88 7000 6 140 01:33 10.07.2022
477 Rain 12 999 87 10000 5 150 22:43 09.07.2022
478 Rain 11 999 87 10000 5 150 22:24 09.07.2022
479 Clouds 11 999 87 10000 6 150 20:50 09.07.2022
480 Clouds 11 1000 87 10000 6 140 18:38 09.07.2022
481 Clouds 11 1000 87 10000 6 140 17:45 09.07.2022
482 Clouds 11 1001 87 10000 6 150 16:44 09.07.2022
483 Clouds 11 1001 87 10000 5 140 15:41 09.07.2022
484 Clouds 13 1001 82 10000 5 140 14:43 09.07.2022
485 Clouds 13 1002 82 10000 5 150 13:50 09.07.2022
486 Clouds 13 1002 82 10000 6 140 12:47 09.07.2022
487 Clouds 13 1002 82 10000 6 140 11:31 09.07.2022
488 Clouds 13 1002 82 10000 6 140 10:23 09.07.2022
489 Clouds 12 1002 82 10000 5 140 07:54 09.07.2022
490 Fog 10 1003 87 10000 7 110 05:24 09.07.2022
491 Rain 8 1003 93 10000 7 120 03:29 09.07.2022
492 Fog 8 1004 87 10000 2 70 22:59 08.07.2022
493 Fog 8 1004 87 10000 4 110 21:59 08.07.2022
494 Fog 8 1004 93 10000 2 20 20:55 08.07.2022
495 Fog 8 1004 93 10000 2 20 20:24 08.07.2022
496 Clouds 7 1004 93 10000 8 130 18:29 08.07.2022
497 Clouds 7 1004 93 10000 8 130 18:29 08.07.2022
498 Clouds 7 1004 93 9000 2 90 17:21 08.07.2022
499 Clouds 7 1004 93 9000 2 90 17:21 08.07.2022
500 Clouds 8 1004 81 10000 4 120 14:54 08.07.2022
501 Clouds 9 1004 81 10000 5 110 13:56 08.07.2022
502 Clouds 9 1004 81 10000 3 100 12:28 08.07.2022
503 Clear 11 1004 71 10000 3 120 10:37 08.07.2022
504 Clear 12 1004 71 10000 7 110 08:44 08.07.2022
505 Clear 14 1004 62 10000 7 120 06:54 08.07.2022
506 Clear 15 1004 55 10000 7 150 02:53 08.07.2022
507 Clear 14 1005 58 10000 6 130 23:41 07.07.2022
508 Clear 14 1005 62 10000 5 130 22:38 07.07.2022
509 Clouds 14 1004 58 10000 4 140 20:56 07.07.2022
510 Clouds 13 1004 62 10000 3 140 18:37 07.07.2022
511 Clouds 13 1004 62 10000 3 150 17:19 07.07.2022
512 Clouds 12 1004 62 10000 2 140 15:18 07.07.2022
513 Clouds 12 1004 62 10000 3 140 13:25 07.07.2022
514 Clouds 12 1004 62 10000 4 140 12:37 07.07.2022
515 Clouds 12 1004 62 10000 4 140 12:18 07.07.2022
516 Clouds 12 1004 62 10000 4 150 11:29 07.07.2022
517 Clouds 12 1004 62 10000 5 130 10:42 07.07.2022
518 Clouds 12 1004 62 10000 5 130 10:24 07.07.2022
519 Clouds 14 1003 67 10000 4 120 07:22 07.07.2022
520 Clear 15 1004 67 10000 5 170 04:18 07.07.2022
521 Clouds 9 1006 87 5740 3.58 170 23:37 06.07.2022
522 Clouds 9 1006 87 10000 4 170 23:18 06.07.2022
523 Clouds 10 1006 87 10000 4 170 22:56 06.07.2022
524 Clouds 8 1006 87 10000 4.92 150 22:38 06.07.2022
525 Clouds 9 1006 87 10000 5 150 21:27 06.07.2022
526 Clouds 7 1006 93 10000 5 150 19:35 06.07.2022
527 Clouds 7 1006 87 10000 4 140 17:32 06.07.2022
528 Clouds 7 1006 87 10000 5 170 16:19 06.07.2022
529 Clouds 8 1006 87 10000 1 0 14:46 06.07.2022
530 Clouds 8 1006 87 10000 2 150 12:35 06.07.2022
531 Clouds 9 1006 81 10000 4 150 11:48 06.07.2022
532 Clouds 10 1006 81 10000 2 120 10:18 06.07.2022
533 Clouds 10 1006 81 10000 2 180 07:44 06.07.2022
534 Clouds 10 1006 81 10000 3 170 07:23 06.07.2022
535 Clouds 9 1007 87 10000 4 180 02:55 06.07.2022
536 Clouds 9 1008 81 10000 1 0 22:45 05.07.2022
537 Clouds 8 1008 81 10000 1 0 21:36 05.07.2022
538 Clouds 7 1008 87 10000 4 40 20:38 05.07.2022
539 Clouds 7 1008 87 10000 3 80 19:41 05.07.2022
540 Clouds 7 1008 87 10000 3 80 19:21 05.07.2022
541 Clouds 6 1008 93 10000 3 120 17:46 05.07.2022
542 Fog 6 1008 93 10000 3 90 16:39 05.07.2022
543 Clouds 6 1009 93 10000 3 110 15:25 05.07.2022
544 Clouds 6 1009 93 10000 3 90 13:53 05.07.2022
545 Clouds 6 1009 93 10000 2 100 12:42 05.07.2022
546 Clouds 6 1009 93 10000 4 110 11:24 05.07.2022
547 Clouds 7 1009 87 10000 3 110 10:31 05.07.2022
548 Clouds 7 1009 93 10000 3 90 08:26 05.07.2022
549 Rain 7 1010 93 9000 4 130 07:31 05.07.2022
550 Rain 7 1010 93 10000 5 120 04:47 05.07.2022
551 Rain 7 1010 93 10000 5 110 04:20 05.07.2022
552 Rain 9 1011 87 10000 3 120 23:42 04.07.2022
553 Clouds 8 1011 87 10000 3 110 22:59 04.07.2022
554 Clouds 8 1011 81 10000 2 70 22:21 04.07.2022
555 Clouds 9 1011 87 10000 1 0 21:20 04.07.2022
556 Clouds 8 1011 81 10000 2 50 20:52 04.07.2022
557 Clouds 8 1011 81 10000 2 50 20:33 04.07.2022
558 Clouds 7 1010 87 10000 4 70 19:51 04.07.2022
559 Clouds 7 1010 87 10000 4 70 19:33 04.07.2022
560 Clouds 7 1011 87 10000 3 10 17:42 04.07.2022
561 Clouds 7 1011 87 10000 4 50 15:44 04.07.2022
562 Clouds 7 1011 87 10000 3 50 14:42 04.07.2022
563 Clouds 7 1011 87 10000 5 80 13:27 04.07.2022
564 Clouds 7 1011 87 10000 1 0 12:20 04.07.2022
565 Clouds 8 1010 87 10000 3 60 10:33 04.07.2022
566 Clouds 7 1010 87 10000 5 90 09:40 04.07.2022
567 Clouds 7 1010 93 10000 4 110 06:53 04.07.2022
568 Clouds 8 1010 81 10000 6 90 03:30 04.07.2022
569 Clouds 8 1010 81 10000 6 90 00:30 04.07.2022
570 Fog 7 1011 87 10000 2 10 22:58 03.07.2022
571 Fog 6 1010 93 10000 5 70 20:47 03.07.2022
572 Fog 6 1010 93 10000 5 70 20:21 03.07.2022
573 Fog 6 1010 93 10000 5 60 19:26 03.07.2022
574 Fog 5 1010 100 10000 5 80 18:32 03.07.2022
575 Fog 6 1010 87 10000 3 90 17:43 03.07.2022
576 Rain 6 1010 93 10000 4 90 15:29 03.07.2022
577 Clouds 5 1010 100 8000 5 100 14:58 03.07.2022
578 Clouds 5 1010 100 10000 7 110 13:59 03.07.2022
579 Clouds 5 1010 100 10000 7 110 13:27 03.07.2022
580 Clouds 5 1010 100 10000 8 110 12:22 03.07.2022
581 Fog 6 1009 93 10000 7 110 10:55 03.07.2022
582 Fog 6 1009 93 10000 7 110 10:36 03.07.2022
583 Clouds 6 1008 93 10000 9 120 08:59 03.07.2022
584 Clouds 6 1008 93 10000 9 120 07:34 03.07.2022
585 Clouds 7 1007 87 10000 10 120 01:39 03.07.2022
586 Clouds 6 1007 93 10000 7 120 23:50 02.07.2022
587 Clouds 6 1006 93 10000 8 110 22:32 02.07.2022
588 Clouds 6 1005 93 10000 8 120 20:37 02.07.2022
589 Fog 5 1005 100 10000 6 120 19:50 02.07.2022
590 Fog 5 1005 100 10000 6 120 19:19 02.07.2022
591 Fog 5 1004 93 1300 4 110 17:40 02.07.2022
592 Mist 4 1004 100 5000 6 100 16:38 02.07.2022
593 Clouds 5 1002 93 10000 6 90 13:51 02.07.2022
594 Clouds 7 1000 87 10000 7 100 11:52 02.07.2022
595 Clouds 7 1000 87 10000 5 100 10:53 02.07.2022
596 Clouds 7 1000 87 10000 5 100 10:32 02.07.2022
597 Clouds 9 998 87 10000 6 100 08:39 02.07.2022
598 Clouds 9 998 87 10000 6 100 08:19 02.07.2022
599 Drizzle 8 998 93 9000 4 130 05:59 02.07.2022
600 Mist 8 998 93 2700 7 120 00:47 02.07.2022
601 Rain 8 998 93 4600 8 110 23:31 01.07.2022
602 Rain 8 998 93 4900 8 110 22:40 01.07.2022
603 Rain 8 997 93 4000 8 100 21:40 01.07.2022
604 Rain 8 997 87 5000 9 100 20:59 01.07.2022
605 Rain 8 997 87 5000 9 100 20:37 01.07.2022
606 Mist 7 997 93 5000 8 100 19:41 01.07.2022
607 Rain 7 997 100 2000 11 110 17:45 01.07.2022
608 Rain 9 997 93 6000 10 90 15:21 01.07.2022
609 Rain 8 998 93 9000 11 90 13:54 01.07.2022
610 Rain 8 998 93 9000 11 90 13:54 01.07.2022
611 Rain 8 998 93 9000 12 100 11:49 01.07.2022
612 Rain 8 998 93 8000 13 100 10:19 01.07.2022
613 Rain 9 998 87 3700 12 100 08:46 01.07.2022
614 Rain 10 1003 87 4300 10 100 02:49 01.07.2022
615 Mist 9 1005 93 3300 6 100 00:25 01.07.2022
616 Mist 8 1005 93 3300 6 90 22:54 30.06.2022
617 Mist 7 1006 93 2700 6 100 22:32 30.06.2022
618 Rain 7 1006 93 5000 6 100 21:59 30.06.2022
619 Rain 7 1006 93 5000 6 100 21:34 30.06.2022
620 Rain 7 1006 93 3900 7 100 20:22 30.06.2022
621 Rain 6 1006 100 2700 6 110 19:53 30.06.2022
622 Rain 6 1006 100 2700 6 110 19:18 30.06.2022
623 Rain 6 1007 100 4100 6 110 18:35 30.06.2022
624 Mist 6 1007 100 4500 6 110 17:38 30.06.2022
625 Drizzle 5 1007 100 2000 6 110 16:48 30.06.2022
626 Mist 5 1007 100 2000 9 120 15:26 30.06.2022
627 Mist 5 1008 100 5000 9 110 13:30 30.06.2022
628 Mist 5 1008 100 1300 8 110 12:35 30.06.2022
629 Fog 5 1008 100 1300 8 110 12:35 30.06.2022
630 Fog 6 1008 93 10000 7 90 11:28 30.06.2022
631 Clouds 7 1007 87 10000 11 110 09:53 30.06.2022
632 Clouds 7 1007 87 10000 11 110 09:32 30.06.2022
633 Fog 8 1007 87 10000 10 110 07:51 30.06.2022
634 Clouds 11 1008 71 10000 9 120 05:57 30.06.2022
635 Clouds 9 1009 76 10000 7 100 00:32 30.06.2022
636 Clouds 9 1009 76 10000 3 90 23:34 29.06.2022
637 Clouds 10 1009 71 10000 6 130 22:39 29.06.2022
638 Clouds 9 1009 81 10000 4 90 21:37 29.06.2022
639 Clouds 8 1009 81 10000 7 110 20:33 29.06.2022
640 Clear 7 1009 87 10000 7 110 19:37 29.06.2022
641 Clear 8 1008 81 10000 8 120 17:45 29.06.2022
642 Clear 9 1008 76 10000 7 120 16:38 29.06.2022
643 Clear 11 1008 71 10000 7 130 15:19 29.06.2022
644 Clear 14 1007 58 10000 7 130 12:40 29.06.2022
645 Clear 14 1007 58 10000 8 120 11:19 29.06.2022
646 Clear 16 1006 55 10000 8 120 09:33 29.06.2022
647 Clear 17 1006 55 10000 8 120 07:44 29.06.2022
648 Clear 16 1006 59 10000 9 120 04:55 29.06.2022
649 Clear 15 1008 62 10000 9 120 01:41 29.06.2022
650 Clear 14 1008 62 10000 10 120 00:36 29.06.2022
651 Clear 13 1008 67 10000 9 140 22:55 28.06.2022
652 Clear 13 1008 67 10000 7 120 22:34 28.06.2022
653 Clear 13 1009 67 10000 7 140 21:55 28.06.2022
654 Clear 13 1009 67 10000 7 140 21:33 28.06.2022
655 Clear 11 1009 71 10000 7 150 20:44 28.06.2022
656 Clear 10 1009 76 10000 6 140 19:34 28.06.2022
657 Clear 11 1008 82 10000 7 140 18:53 28.06.2022
658 Clear 11 1008 82 10000 7 140 17:42 28.06.2022
659 Clear 12 1008 76 10000 5 140 16:21 28.06.2022
660 Clouds 12 1008 76 10000 5 140 15:42 28.06.2022
661 Clouds 13 1008 76 10000 5 140 14:21 28.06.2022
662 Clouds 14 1008 72 10000 4 140 13:54 28.06.2022
663 Clouds 14 1008 67 10000 5 140 12:57 28.06.2022
664 Clouds 13 1007 71 10000 5 110 11:18 28.06.2022
665 Rain 12 1007 76 10000 8 100 09:30 28.06.2022
666 Rain 12 1007 76 10000 9 110 08:44 28.06.2022
667 Clouds 11 1007 76 10000 5 120 07:42 28.06.2022
668 Clouds 13 1007 71 10000 5 120 07:19 28.06.2022
669 Clouds 13 1007 76 10000 7 100 01:32 28.06.2022
670 Clouds 10 1006 81 10000 4 70 23:41 27.06.2022
671 Rain 11 1006 82 10000 3 70 22:52 27.06.2022
672 Rain 8 1006 87 10000 2 80 21:38 27.06.2022
673 Rain 7 1006 93 10000 2 70 20:53 27.06.2022
674 Rain 7 1005 87 10000 1 0 19:36 27.06.2022
675 Fog 7 1005 87 10000 4 60 18:26 27.06.2022
676 Fog 6 1005 87 10000 0 0 16:27 27.06.2022
677 Fog 6 1005 93 10000 2 90 15:23 27.06.2022
678 Fog 5 1005 100 10000 1 0 13:37 27.06.2022
679 Fog 6 1005 93 10000 1 0 12:56 27.06.2022
680 Clouds 7 1004 87 10000 1 0 10:34 27.06.2022
681 Clouds 8 1003 81 10000 4 140 09:20 27.06.2022
682 Clouds 8 1004 87 10000 6 130 08:30 27.06.2022
683 Clouds 10 1004 76 10000 5 140 06:39 27.06.2022
684 Clouds 10 1004 76 10000 5 160 03:55 27.06.2022
685 Clouds 9 1004 81 10000 4 150 00:56 27.06.2022
686 Clouds 10 1005 76 10000 4 100 22:18 26.06.2022
687 Clouds 7 1005 87 10000 1 0 20:44 26.06.2022
688 Fog 6 1005 93 10000 5 50 19:42 26.06.2022
689 Fog 6 1005 87 10000 3 90 18:31 26.06.2022
690 Fog 5 1005 93 10000 1 0 16:47 26.06.2022
691 Fog 5 1005 93 10000 3 100 15:26 26.06.2022
692 Clouds 5 1006 93 10000 5 80 13:41 26.06.2022
693 Clouds 5 1006 93 10000 5 80 13:20 26.06.2022
694 Clouds 6 1005 87 10000 5 90 11:26 26.06.2022
695 Clouds 7 1005 81 10000 6 120 10:27 26.06.2022
696 Clouds 8 1005 81 10000 5 120 09:34 26.06.2022
697 Clouds 8 1005 81 10000 6 140 07:44 26.06.2022
698 Clouds 9 1005 76 10000 5 140 02:28 26.06.2022
699 Clouds 8 1005 81 10000 4 150 00:21 26.06.2022
700 Clouds 9 1005 81 10000 4 130 23:49 25.06.2022
701 Clouds 9 1005 81 10000 4 130 23:23 25.06.2022
702 Clouds 8 1005 81 10000 5 110 22:27 25.06.2022
703 Clouds 7 1005 81 10000 5 110 21:41 25.06.2022
704 Clouds 7 1005 81 10000 5 110 21:18 25.06.2022
705 Clouds 7 1005 81 10000 4 100 20:28 25.06.2022
706 Clouds 6 1014 87 10000 3 100 19:42 25.06.2022
707 Clouds 6 1005 87 10000 3 90 18:19 25.06.2022
708 Fog 5 1005 93 10000 4 90 17:24 25.06.2022
709 Fog 5 1006 93 10000 5 100 15:36 25.06.2022
710 Mist 5 1006 93 4100 4 90 13:41 25.06.2022
711 Clouds 5 1006 93 7000 3 90 12:38 25.06.2022
712 Fog 5 1007 93 10000 5 90 10:45 25.06.2022
713 Clouds 6 1008 87 10000 5 100 09:20 25.06.2022
714 Clouds 6 1008 87 10000 6 110 08:41 25.06.2022
715 Clouds 6 1008 87 10000 6 110 08:19 25.06.2022
716 Clouds 7 1009 81 10000 9 120 04:18 25.06.2022
717 Rain 5 1011 97 4822 5.84 128 00:38 25.06.2022
718 Rain 8 1010 93 10000 6 140 22:55 24.06.2022
719 Clouds 10 1010 81 10000 7 150 21:44 24.06.2022
720 Clouds 10 1010 81 10000 7 160 20:57 24.06.2022
721 Clouds 10 1010 81 10000 7 160 20:19 24.06.2022
722 Clouds 10 1010 81 10000 6 160 19:22 24.06.2022
723 Clouds 8 1010 87 10000 5 140 18:49 24.06.2022
724 Clouds 8 1010 87 10000 5 140 18:30 24.06.2022
725 Clouds 10 1010 81 10000 5 150 17:21 24.06.2022
726 Clouds 10 1010 81 10000 4 150 15:51 24.06.2022
727 Clouds 10 1010 81 10000 5 140 14:28 24.06.2022
728 Clouds 10 1009 81 10000 6 140 13:55 24.06.2022
729 Clear 11 1009 76 10000 7 140 11:45 24.06.2022
730 Clear 10 1009 76 10000 7 140 11:22 24.06.2022
731 Rain 11 1009 76 10000 7 140 10:19 24.06.2022
732 Rain 11 1008 76 10000 7 150 09:40 24.06.2022
733 Rain 11 1008 76 10000 6 140 08:52 24.06.2022
734 Clear 12 1009 76 10000 8 150 06:49 24.06.2022
735 Clear 13 1009 71 10000 9 160 06:31 24.06.2022
736 Clear 14 1009 72 10000 10 150 05:55 24.06.2022
737 Clouds 14 1010 62 10000 9 130 01:36 24.06.2022
738 Clouds 12 1011 71 10000 8 170 22:55 23.06.2022
739 Clouds 12 1011 66 10000 8 170 22:33 23.06.2022
740 Clouds 10 1012 76 10000 7 160 20:56 23.06.2022
741 Clouds 10 1012 76 10000 7 160 20:32 23.06.2022
742 Clouds 8 1012 81 10000 6 150 19:24 23.06.2022
743 Clear 8 1012 87 10000 6 170 17:50 23.06.2022
744 Clouds 8 1012 87 10000 4 150 16:50 23.06.2022
745 Rain 9 1012 87 10000 6 170 15:49 23.06.2022
746 Clouds 9 1012 87 10000 6 170 15:24 23.06.2022
747 Clouds 10 1012 81 10000 7 180 13:32 23.06.2022
748 Clouds 11 1012 76 10000 7 180 11:23 23.06.2022
749 Clouds 10 1012 76 10000 7 170 10:31 23.06.2022
750 Clouds 11 1012 76 10000 6 150 08:35 23.06.2022
751 Clouds 12 1013 76 10000 7 120 02:46 23.06.2022
752 Fog 11 1014 87 10000 5 160 00:26 23.06.2022
753 Fog 10 1014 87 10000 6 170 23:27 22.06.2022
754 Fog 10 1014 93 10000 4 160 22:39 22.06.2022
755 Clouds 11 1014 82 10000 4 150 21:22 22.06.2022
756 Clear 11 1013 87 10000 3 150 20:34 22.06.2022
757 Clear 10 1013 93 10000 2 160 19:52 22.06.2022
758 Clouds 9 1013 93 10000 2 150 18:21 22.06.2022
759 Clouds 9 1013 93 10000 2 140 17:26 22.06.2022
760 Clouds 9 1012 93 10000 2 140 16:18 22.06.2022
761 Clouds 9 1012 100 10000 2 200 15:26 22.06.2022
762 Clouds 9 1012 100 10000 2 190 14:18 22.06.2022
763 Clouds 7 1012 93 10000 2 160 13:37 22.06.2022
764 Clouds 7 1012 93 10000 2 160 13:18 22.06.2022
765 Clouds 10 1011 87 10000 2 180 11:48 22.06.2022
766 Rain 10 1011 93 10000 2 160 10:54 22.06.2022
767 Rain 10 1010 93 10000 2 170 09:59 22.06.2022
768 Rain 10 1010 87 10000 1 0 07:58 22.06.2022
769 Rain 11 1009 87 10000 2 220 03:40 22.06.2022
770 Rain 11 1008 87 10000 2 200 01:23 22.06.2022
771 Rain 10 1008 81 10000 4 100 23:42 21.06.2022
772 Rain 10 1007 81 10000 4 150 21:49 21.06.2022
773 Rain 8 1007 87 10000 4 130 19:50 21.06.2022
774 Clouds 10 1007 81 10000 4 130 18:35 21.06.2022
775 Clouds 9 1007 87 10000 4 140 17:31 21.06.2022
776 Clouds 12 1007 76 10000 5 150 13:45 21.06.2022
777 Clouds 14 1006 62 10000 6 160 11:31 21.06.2022
778 Clear 15 1006 63 10000 5 150 09:54 21.06.2022
779 Clear 15 1005 63 10000 4 160 08:47 21.06.2022
780 Rain 16 1005 59 10000 6 190 06:35 21.06.2022
781 Clouds 14 1006 72 10000 7 170 01:30 21.06.2022
782 Clouds 9 1007 87 10000 5 190 23:24 20.06.2022
783 Rain 7 1007 93 10000 3 150 21:54 20.06.2022
784 Rain 7 1007 87 10000 5 160 20:50 20.06.2022
785 Rain 7 1006 87 10000 5 160 19:40 20.06.2022
786 Rain 7 1006 87 10000 6 160 18:46 20.06.2022
787 Clouds 7 1006 87 10000 4.92 160 18:00 20.06.2022
788 Clouds 7 1006 87 10000 5 160 17:32 20.06.2022
789 Rain 8 1006 81 10000 5 150 15:57 20.06.2022
790 Rain 7 1006 93 10000 5 140 12:56 20.06.2022
791 Rain 7 1006 93 10000 3 110 11:18 20.06.2022
792 Rain 8 1006 87 10000 4 140 09:41 20.06.2022
793 Rain 8 1006 87 10000 6 110 08:44 20.06.2022
794 Clouds 9 1005 76 10000 10 120 06:37 20.06.2022
795 Clouds 10 1006 71 10000 9 120 02:56 20.06.2022
796 Clouds 10 1007 76 10000 5 160 00:32 20.06.2022
797 Clouds 9 1007 81 10000 6 140 23:24 19.06.2022
798 Clouds 6 1007 93 10000 5 120 21:59 19.06.2022
799 Clouds 6 1007 93 10000 5 120 21:40 19.06.2022
800 Clouds 6 1006 87 10000 4 120 20:44 19.06.2022
801 Clouds 6 1006 87 10000 5 130 19:48 19.06.2022
802 Clouds 6 1006 87 10000 5 130 19:48 19.06.2022
803 Clouds 6 1006 87 10000 5 130 19:23 19.06.2022
804 Clouds 6 1006 87 10000 4 130 18:31 19.06.2022
805 Clouds 7 1006 81 10000 5 130 17:34 19.06.2022
806 Clouds 9 1006 75 10000 5 140 16:38 19.06.2022
807 Clear 9 1006 75 10000 4 140 15:44 19.06.2022
808 Clear 9 1006 75 10000 4 140 15:25 19.06.2022
809 Clear 9 1006 75 10000 5 140 14:21 19.06.2022
810 Clear 10 1006 71 10000 6 140 13:43 19.06.2022
811 Clear 11 1005 62 10000 6 140 11:52 19.06.2022
812 Clear 13 1005 58 10000 6 120 10:51 19.06.2022
813 Fog 12 1004 62 10000 5 130 08:55 19.06.2022
814 Fog 12 1004 62 10000 5 130 08:30 19.06.2022
815 Fog 13 1005 62 10000 5 150 06:48 19.06.2022
816 Clouds 9 1006 76 10000 7 150 03:37 19.06.2022
817 Clouds 8 1006 81 10000 7 140 00:27 19.06.2022
818 Clouds 7 1006 81 10000 8 150 23:52 18.06.2022
819 Clouds 7 1006 81 10000 8 150 23:34 18.06.2022
820 Fog 11 1005 71 10000 2 160 21:54 18.06.2022
821 Fog 9 1005 71 10000 2 220 20:50 18.06.2022
822 Fog 9 1005 71 10000 2 220 20:18 18.06.2022
823 Fog 6 1005 75 10000 2 260 18:55 18.06.2022
824 Fog 6 1005 75 10000 2 260 18:30 18.06.2022
825 Fog 8 1005 66 10000 5 100 17:29 18.06.2022
826 Fog 8 1005 61 10000 4 20 15:46 18.06.2022
827 Clear 13 1005 50 10000 3 100 14:50 18.06.2022
828 Clear 13 1005 44 10000 4 110 13:58 18.06.2022
829 Clear 14 1005 38 10000 6 120 12:28 18.06.2022
830 Clear 15 1005 38 10000 5 130 10:59 18.06.2022
831 Clear 14 1005 51 10000 5 140 09:39 18.06.2022
832 Fog 16 1005 48 10000 3 140 08:40 18.06.2022
833 Fog 16 1005 44 10000 3 150 07:34 18.06.2022
834 Fog 12 1006 62 10000 6 160 05:20 18.06.2022
835 Clouds 10 1007 71 10000 5 150 01:47 18.06.2022
836 Clouds 10 1007 71 10000 5 150 01:21 18.06.2022
837 Clouds 15 1007 55 10000 5 140 00:23 18.06.2022
838 Clouds 15 1007 55 10000 5 140 00:23 18.06.2022
839 Clouds 15 1007 58 10000 3 70 23:36 17.06.2022
840 Clouds 13 1008 58 10000 3 100 22:27 17.06.2022
841 Clouds 12 1007 66 10000 2 320 20:29 17.06.2022
842 Clouds 12 1007 62 10000 2 130 19:24 17.06.2022
843 Clouds 12 1007 62 10000 2 130 19:24 17.06.2022
844 Clouds 8 1007 70 10000 2 190 17:56 17.06.2022
845 Clouds 10 1007 66 10000 3 100 16:44 17.06.2022
846 Clouds 10 1007 66 10000 3 100 16:25 17.06.2022
847 Clouds 9 1007 71 10000 4 40 15:37 17.06.2022
848 Clouds 10 1007 66 10000 4 40 14:23 17.06.2022
849 Clear 11 1007 62 10000 4 70 13:58 17.06.2022
850 Clear 11 1007 62 10000 4 70 13:38 17.06.2022
851 Clear 12 1007 54 10000 3 70 12:24 17.06.2022
852 Clouds 11 1006 62 10000 6 70 11:55 17.06.2022
853 Clouds 11 1006 62 10000 6 70 11:33 17.06.2022
854 Clear 14 1006 54 10000 5 80 08:58 17.06.2022
855 Clear 14 1006 51 10000 5 110 08:25 17.06.2022
856 Clear 16 1006 48 10000 9 110 06:44 17.06.2022
857 Clear 16 1006 55 10000 8 140 03:45 17.06.2022
858 Clear 14 1007 62 10000 6 160 01:56 17.06.2022
859 Clear 10 1007 71 10000 7 150 23:35 16.06.2022
860 Clear 10 1007 71 10000 6 150 22:42 16.06.2022
861 Clear 9 1007 75 10000 6 150 21:22 16.06.2022
862 Clouds 7 1007 87 10000 6 160 20:51 16.06.2022
863 Clouds 7 1007 87 10000 6 160 20:32 16.06.2022
864 Clouds 9 1007 81 10000 6 150 19:32 16.06.2022
865 Clouds 7 1007 87 10000 5 150 18:24 16.06.2022
866 Clouds 7 1007 87 10000 4 150 17:35 16.06.2022
867 Clouds 9 1007 87 10000 5 170 16:33 16.06.2022
868 Clouds 9 1007 81 10000 2 190 15:22 16.06.2022
869 Clouds 9 1007 81 10000 3 350 14:30 16.06.2022
870 Clouds 7 1005 87 10000 5 50 13:19 16.06.2022
871 Clear 7 1005 87 10000 5 350 12:35 16.06.2022
872 Clear 11 1005 82 10000 4 350 11:49 16.06.2022
873 Rain 13 1005 67 10000 1 0 10:54 16.06.2022
874 Rain 16 1004 55 10000 3 300 09:43 16.06.2022
875 Rain 16 1004 55 10000 3 300 09:20 16.06.2022
876 Clouds 17 1003 48 10000 1 0 07:57 16.06.2022
877 Clouds 17 1003 48 10000 3 220 07:24 16.06.2022
878 Clouds 12 1004 66 10000 7 160 04:42 16.06.2022
879 Rain 11 1004 71 10000 8 160 02:19 16.06.2022
880 Clouds 6 1005 87 10000 6 130 01:34 16.06.2022
881 Clouds 6 1005 87 10000 6 130 01:34 16.06.2022
882 Rain 5 1005 93 10000 9 110 00:38 16.06.2022
883 Rain 4 1005 86 10000 10 110 23:33 15.06.2022
884 Clouds 5 1005 81 10000 10 120 22:35 15.06.2022
885 Clouds 4 1006 86 10000 10 120 21:21 15.06.2022
886 Clouds 3 1006 86 10000 8 120 20:38 15.06.2022
887 Clouds 3 1007 86 10000 8 120 20:19 15.06.2022
888 Clouds 3 1007 93 10000 7 110 19:20 15.06.2022
889 Clouds 3 1007 93 10000 8 100 17:56 15.06.2022
890 Clouds 3 1007 93 10000 8 100 16:55 15.06.2022
891 Clouds 3 1008 86 10000 6 90 15:36 15.06.2022
892 Clouds 2 1008 93 10000 6 80 13:44 15.06.2022
893 Clouds 2 1008 86 10000 7 90 12:54 15.06.2022
894 Clouds 3 1008 80 10000 6 100 11:53 15.06.2022
895 Clouds 3 1008 80 10000 7 110 10:24 15.06.2022
896 Clouds 2 1008 86 10000 6 110 09:42 15.06.2022
897 Rain 2 1008 86 10000 9 100 08:37 15.06.2022
898 Rain 2 1008 81 10000 7 110 06:34 15.06.2022
899 Clear 3 1007 75 10000 6 130 03:59 15.06.2022
900 Clouds 4 1008 64 10000 5 160 01:54 15.06.2022
901 Clouds 5 1008 60 10000 5 180 00:50 15.06.2022
902 Clouds 5 1008 70 10000 3 190 23:39 14.06.2022
903 Clouds 5 1008 70 10000 3 190 23:19 14.06.2022
904 Clouds 3 1008 86 10000 2 190 22:21 14.06.2022
905 Clouds 2 1008 81 10000 2 60 21:36 14.06.2022
906 Clouds 2 1008 81 10000 2 30 20:54 14.06.2022
907 Clouds 2 1008 81 10000 2 30 20:28 14.06.2022
908 Clouds -2 1009 92 10000 2 60 18:56 14.06.2022
909 Clouds -2 1009 93 10000 2 50 17:40 14.06.2022
910 Clouds -4 1009 93 10000 2 80 16:43 14.06.2022
911 Clouds -2 1009 92 10000 1 80 15:50 14.06.2022
912 Clouds -2 1009 92 10000 1 80 15:24 14.06.2022
913 Clouds 0 1010 93 10000 0 0 14:32 14.06.2022
914 Clouds 0 1010 93 10000 2 130 13:41 14.06.2022
915 Clouds 1 1010 87 10000 3 130 12:44 14.06.2022
916 Snow 1 1010 86 10000 2 130 11:32 14.06.2022
917 Snow 0 1010 93 10000 3 150 10:47 14.06.2022
918 Snow 1 1010 87 10000 2 110 09:48 14.06.2022
919 Clouds 1 1010 87 10000 4 100 08:47 14.06.2022
920 Clouds 1 1010 93 10000 5 140 07:33 14.06.2022
921 Rain 2 1010 86 10000 5 110 05:21 14.06.2022
922 Clear 4 1010 65 10000 7 120 02:57 14.06.2022
923 Clear 6 1011 56 10000 6 120 00:32 14.06.2022
924 Clear 5 1011 56 10000 6 120 23:27 13.06.2022
925 Clear 6 1011 56 10000 5 140 22:26 13.06.2022
926 Clear 6 1011 56 10000 5 140 22:26 13.06.2022
927 Clear 6 1011 52 10000 3 110 21:50 13.06.2022
928 Clear 5 1011 56 10000 5 100 20:42 13.06.2022
929 Clear 5 1011 56 10000 5 80 19:34 13.06.2022
930 Clear 5 1011 56 10000 7 80 18:25 13.06.2022
931 Clear 6 1011 52 10000 7 80 17:46 13.06.2022
932 Clear 6 1011 56 10000 5 90 16:52 13.06.2022
933 Clear 7 1011 57 10000 4 110 15:39 13.06.2022
934 Clear 8 1010 53 10000 3 110 14:47 13.06.2022
935 Clear 8 1011 53 10000 5 110 13:54 13.06.2022
936 Clear 8 1011 53 10000 2 110 12:48 13.06.2022
937 Clear 8 1011 53 10000 2 110 12:48 13.06.2022
938 Clouds 9 1010 46 10000 6 110 11:26 13.06.2022
939 Rain 9 1010 46 10000 9 90 10:27 13.06.2022
940 Clouds 11 1009 43 10000 9 80 09:39 13.06.2022
941 Clouds 16 1009 48 10000 2 260 07:53 13.06.2022
942 Clouds 17 1009 42 10000 4 260 06:28 13.06.2022
943 Clear 16 1012 41 10000 3 260 03:18 13.06.2022
944 Clear 12 1013 43 10000 2 230 01:38 13.06.2022
945 Clear 12 1014 50 10000 2 230 00:22 13.06.2022
946 Clear 11 1015 46 10000 1 0 23:25 12.06.2022
947 Clear 8 1015 53 10000 2 260 22:23 12.06.2022
948 Clear 9 1015 43 10000 1 0 21:28 12.06.2022
949 Clear 7 1016 49 10000 2 60 20:34 12.06.2022
950 Clear 3 1016 69 10000 3 50 19:36 12.06.2022
951 Clear 0 1017 86 10000 1 70 18:39 12.06.2022
952 Clear -1 1017 93 10000 2 130 16:42 12.06.2022
953 Clear 0 1017 80 10000 2 140 15:24 12.06.2022
954 Clear 1 1018 80 10000 2 180 14:31 12.06.2022
955 Clear 2 1018 69 10000 3 160 13:55 12.06.2022
956 Clear 2 1018 69 10000 4 150 12:46 12.06.2022
957 Clear 3 1018 64 10000 5 160 11:40 12.06.2022
958 Clear 3 1018 69 10000 5 150 10:45 12.06.2022
959 Clear 3 1018 64 10000 6 150 09:25 12.06.2022
960 Clear 4 1018 65 10000 6 160 08:48 12.06.2022
961 Clear 5 1018 65 10000 7 160 07:39 12.06.2022
962 Clouds 4 1018 70 10000 7 150 05:38 12.06.2022
963 Clouds 4 1018 70 10000 8 150 03:38 12.06.2022
964 Clear 5 1017 65 10000 8 150 01:43 12.06.2022
965 Clear 5 1017 65 10000 7 140 00:58 12.06.2022
966 Clear 5 1017 65 10000 7 140 00:26 12.06.2022
967 Clear 6 1017 61 10000 5 130 23:53 11.06.2022
968 Clear 6 1016 56 10000 5 100 22:40 11.06.2022
969 Clear 6 1016 56 10000 5 100 22:21 11.06.2022
970 Clear 5 1015 65 10000 7 90 20:50 11.06.2022
971 Clear 5 1015 65 10000 7 90 20:21 11.06.2022
972 Clear 5 1015 65 10000 7 80 19:26 11.06.2022
973 Clear 5 1015 52 10000 4 110 18:36 11.06.2022
974 Clear 5 1015 45 10000 2 100 17:52 11.06.2022
975 Clear 5 1015 45 10000 2 100 17:29 11.06.2022
976 Clear 6 1014 42 10000 4 80 16:58 11.06.2022
977 Clear 6 1014 42 10000 4 80 16:30 11.06.2022
978 Clear 9 1014 31 10000 4 130 15:45 11.06.2022
979 Clear 9 1014 31 10000 4 130 15:45 11.06.2022
980 Clear 6 1014 45 10000 2 120 13:54 11.06.2022
981 Clear 6 1014 45 10000 2 120 13:25 11.06.2022
982 Clear 10 1014 46 10000 4 170 10:58 11.06.2022
983 Clear 10 1014 46 10000 4 170 10:20 11.06.2022
984 Clear 10 1013 40 10000 6 150 09:29 11.06.2022
985 Clear 10 1014 46 10000 7 170 07:52 11.06.2022
986 Clear 10 1014 46 10000 6 160 06:31 11.06.2022
987 Clear 11 1014 46 10000 8 170 05:21 11.06.2022
988 Clear 11 1015 40 10000 7 150 01:53 11.06.2022
989 Clear 11 1015 40 10000 7 150 01:33 11.06.2022
990 Clear 10 1016 53 10000 6 160 00:22 11.06.2022
991 Clear 9 1016 37 10000 3 310 22:33 10.06.2022
992 Clear 9 1016 39 10000 3 300 21:53 10.06.2022
993 Clear 8 1016 49 10000 1 0 20:43 10.06.2022
994 Clear 8 1016 49 10000 1 0 20:23 10.06.2022
995 Clear 4 1016 65 10000 2 10 19:48 10.06.2022
996 Clear 4 1016 65 10000 2 10 19:18 10.06.2022
997 Clear 3 1016 81 10000 2 20 18:19 10.06.2022
998 Clear 3 1016 75 10000 3 360 17:36 10.06.2022
999 Clear 4 1016 75 10000 2 20 16:56 10.06.2022
1000 Clear 4 1016 60 10000 1 60 15:50 10.06.2022
1001 Clear 4 1016 60 10000 1 60 15:30 10.06.2022
1002 Clear 7 1017 52 10000 2 110 13:49 10.06.2022
1003 Clear 8 1017 57 10000 3 100 12:35 10.06.2022
1004 Clear 10 1017 53 10000 3 100 11:40 10.06.2022
1005 Clear 12 1017 43 10000 4 90 10:40 10.06.2022
1006 Clear 14 1017 41 10000 2 310 09:44 10.06.2022
1007 Clear 11 1017 46 10000 2 250 08:28 10.06.2022
1008 Clear 12 1017 37 10000 5 180 06:53 10.06.2022
1009 Clear 11 1018 37 10000 6 170 06:32 10.06.2022
1010 Clear 12 1018 35 10000 6 170 05:48 10.06.2022
1011 Clear 14 1018 35 10000 3 160 03:41 10.06.2022
1012 Clear 13 1019 30 10000 4 30 01:38 10.06.2022
1013 Clear 13 1020 30 10000 6 20 00:25 10.06.2022
1014 Clear 11 1020 37 10000 5 350 23:25 09.06.2022
1015 Clear 7 1021 45 10000 7 360 21:47 09.06.2022
1016 Clear 7 1021 45 10000 7 360 21:29 09.06.2022
1017 Clear 6 1021 48 10000 5 360 20:54 09.06.2022
1018 Clear 4 1022 65 10000 6 10 19:55 09.06.2022
1019 Clear 2 1022 74 10000 2 20 18:49 09.06.2022
1020 Clear 2 1022 74 10000 2 20 18:21 09.06.2022
1021 Clear -2 1023 86 10000 2 40 16:48 09.06.2022
1022 Clear 0 1023 86 10000 1 40 15:47 09.06.2022
1023 Clear -1 1023 86 10000 2 40 14:35 09.06.2022
1024 Clear 2 1024 80 10000 1 110 13:48 09.06.2022
1025 Clear 2 1024 80 10000 1 110 13:26 09.06.2022
1026 Clear 6 1024 61 10000 4 180 11:54 09.06.2022
1027 Clear 8 1024 57 10000 4 170 10:53 09.06.2022
1028 Clear 7 1024 52 10000 4 160 09:42 09.06.2022
1029 Clear 7 1024 52 10000 4 160 09:23 09.06.2022
1030 Clear 9 1024 46 10000 5 180 07:44 09.06.2022
1031 Clear 10 1024 40 10000 5 190 05:47 09.06.2022
1032 Clear 11 1025 40 10000 4 190 02:20 09.06.2022
1033 Clear 7 1026 52 10000 3 200 23:34 08.06.2022
1034 Clear 6 1027 52 10000 3 210 22:56 08.06.2022
1035 Clear 6 1026 52 10000 3 210 22:26 08.06.2022
1036 Clear 5 1027 56 10000 3 210 21:52 08.06.2022
1037 Clear 5 1026 52 10000 2 220 20:57 08.06.2022
1038 Clear 3 1026 69 10000 2 200 19:50 08.06.2022
1039 Clear 3 1026 69 10000 2 200 19:18 08.06.2022
1040 Clear 2 1026 74 10000 2 290 18:42 08.06.2022
1041 Clear 0 1026 86 10000 1 0 16:34 08.06.2022
1042 Clear 0 1026 86 10000 2 20 15:27 08.06.2022
1043 Clear 2 1026 81 10000 2 50 13:36 08.06.2022
1044 Clear 5 1026 70 10000 1 250 11:51 08.06.2022
1045 Clear 5 1026 70 10000 1 250 11:24 08.06.2022
1046 Clear 6 1025 65 10000 4 210 09:47 08.06.2022
1047 Clear 6 1025 65 10000 4 210 09:20 08.06.2022
1048 Clear 8 1025 57 10000 6 190 08:18 08.06.2022
1049 Clear 6 1025 65 10000 7 180 05:36 08.06.2022
1050 Clear 6 1026 60 10000 5 200 02:39 08.06.2022
1051 Clouds 7 1026 70 10000 5 190 00:21 08.06.2022
1052 Clouds 6 1026 70 10000 6 170 23:25 07.06.2022
1053 Clear 7 1025 61 10000 5 150 22:42 07.06.2022
1054 Clear 7 1025 70 10000 5 150 22:20 07.06.2022
1055 Clear 9 1025 66 10000 2 110 21:28 07.06.2022
1056 Clear 9 1024 66 10000 1 0 20:52 07.06.2022
1057 Clear 9 1024 66 10000 1 0 20:31 07.06.2022
1058 Clear 7 1024 65 10000 2 70 19:24 07.06.2022
1059 Clear 3 1024 80 10000 0 0 17:57 07.06.2022
1060 Clear 3 1024 80 10000 0 0 17:21 07.06.2022
1061 Clear 3 1023 86 10000 1 0 16:41 07.06.2022
1062 Clear 4 1023 93 10000 1 50 15:43 07.06.2022
1063 Clear 4 1023 93 10000 1 50 15:23 07.06.2022
1064 Clouds 4 1023 86 10000 0 0 14:46 07.06.2022
1065 Clouds 5 1022 86 10000 0 0 13:58 07.06.2022
1066 Clouds 5 1022 86 10000 0 0 13:29 07.06.2022
1067 Clouds 5 1022 86 10000 1 0 12:44 07.06.2022
1068 Clouds 6 1022 87 10000 1 0 11:31 07.06.2022
1069 Clouds 6 1022 81 10000 3 150 10:26 07.06.2022
1070 Clouds 6 1021 81 10000 4 160 08:49 07.06.2022
1071 Clouds 6 1021 81 10000 4 160 08:49 07.06.2022
1072 Clouds 6 1021 81 10000 4 160 08:49 07.06.2022
1073 Clouds 6 1021 87 10000 3 90 07:23 07.06.2022
1074 Clouds 6 1020 81 10000 3 110 05:56 07.06.2022
1075 Clouds 6 1020 87 10000 3 70 03:18 07.06.2022
1076 Rain 5 1019 86 10000 4 80 00:42 07.06.2022
1077 Rain 5 1018 93 10000 4 100 23:35 06.06.2022
1078 Rain 5 1018 93 10000 1 0 22:45 06.06.2022
1079 Rain 4 1017 100 10000 2 170 21:43 06.06.2022
1080 Rain 4 1017 100 5000 1 150 20:21 06.06.2022
1081 Mist 4 1016 100 2700 0 0 19:23 06.06.2022
1082 Fog 4 1016 93 10000 0 0 18:46 06.06.2022
1083 Fog 4 1015 93 10000 1 10 17:52 06.06.2022
1084 Fog 4 1015 100 10000 1 50 16:48 06.06.2022
1085 Fog 4 1015 93 10000 0 0 15:40 06.06.2022
1086 Fog 4 1015 100 10000 1 0 14:57 06.06.2022
1087 Rain 4 1014 100 6000 1 130 13:37 06.06.2022
1088 Mist 4 1015 100 3500 1 210 12:44 06.06.2022
1089 Mist 4 1015 100 3500 1 210 12:26 06.06.2022
1090 Clouds 5 1014 100 7000 1 280 11:45 06.06.2022
1091 Fog 8 1013 93 10000 2 10 09:43 06.06.2022
1092 Clouds 8 1013 87 10000 4 40 08:36 06.06.2022
1093 Rain 8 1012 87 10000 6 50 07:43 06.06.2022
1094 Rain 7 1012 81 10000 6 80 06:43 06.06.2022
1095 Rain 9 1011 76 10000 10 100 04:28 06.06.2022
1096 Clouds 7 1011 81 10000 8 110 01:30 06.06.2022
1097 Rain 10 1011 76 10000 7 100 00:47 06.06.2022
1098 Clouds 11 1011 82 10000 5 100 00:28 06.06.2022
1099 Rain 6 1012 87 10000 3 80 22:58 05.06.2022
1100 Rain 5 1013 81 10000 7 70 21:59 05.06.2022
1101 Clear 6 1012 75 10000 7 60 20:23 05.06.2022
1102 Clear 7 1012 61 10000 5 90 18:51 05.06.2022
1103 Clear 6 1011 65 10000 9 70 17:59 05.06.2022
1104 Clear 6 1011 65 10000 9 70 17:38 05.06.2022
1105 Clear 6 1011 65 10000 9 70 17:20 05.06.2022
1106 Clear 6 1011 61 10000 6 80 16:47 05.06.2022
1107 Clear 7 1012 52 10000 4 80 15:22 05.06.2022
1108 Clear 7 1012 52 10000 6 80 14:18 05.06.2022
1109 Clear 9 1013 49 10000 3 40 11:58 05.06.2022
1110 Clear 10 1013 46 10000 3 80 10:45 05.06.2022
1111 Clear 10 1013 46 10000 3 80 10:24 05.06.2022
1112 Clear 10 1013 43 10000 4 130 09:29 05.06.2022
1113 Clear 10 1014 43 10000 5 150 08:23 05.06.2022
1114 Clear 13 1014 38 10000 4 180 05:58 05.06.2022
1115 Clear 14 1014 38 10000 2 230 05:19 05.06.2022
1116 Clear 13 1015 41 10000 5 280 02:43 05.06.2022
1117 Clear 13 1015 38 10000 3 330 01:23 05.06.2022
1118 Clear 13 1015 38 10000 3 330 01:23 05.06.2022
1119 Clear 11 1015 40 10000 6 360 22:49 04.06.2022
1120 Clear 10 1015 43 10000 6 360 21:30 04.06.2022
1121 Clear 6 1015 48 10000 6 10 19:27 04.06.2022
1122 Clear 4 1014 52 10000 4 10 16:48 04.06.2022
1123 Clear 4 1014 52 10000 4 10 16:20 04.06.2022
1124 Clear 4 1014 60 10000 5 30 15:39 04.06.2022
1125 Clear 1 1014 86 10000 3 30 13:59 04.06.2022
1126 Clear 3 1014 75 10000 1 0 11:41 04.06.2022
1127 Clear 5 1013 70 10000 0 0 10:54 04.06.2022
1128 Clouds 5 1013 70 10000 2 180 09:56 04.06.2022
1129 Clouds 5 1013 70 10000 2 180 09:38 04.06.2022
1130 Clouds 5 1012 75 10000 4 170 08:38 04.06.2022
1131 Clear 11 1012 58 10000 3 190 06:59 04.06.2022
1132 Fog 7 1013 70 10000 2 200 03:57 04.06.2022
1133 Fog 5 1013 81 10000 3 190 00:22 04.06.2022
1134 Fog 4 1013 80 10000 3 190 23:19 03.06.2022
1135 Fog 6 1012 70 10000 1 0 21:54 03.06.2022
1136 Fog 4 1012 75 10000 1 0 20:40 03.06.2022
1137 Fog 2 1012 86 10000 3 330 19:49 03.06.2022
1138 Fog 7 1012 61 10000 2 120 16:59 03.06.2022
1139 Fog 4 1012 70 10000 5 150 15:57 03.06.2022
1140 Fog 4 1012 70 10000 3 170 14:47 03.06.2022
1141 Fog 7 1013 61 10000 3 140 12:26 03.06.2022
1142 Fog 9 1013 53 10000 4 110 09:58 03.06.2022
1143 Fog 9 1013 53 10000 4 110 09:29 03.06.2022
1144 Fog 12 1013 47 10000 2 150 07:50 03.06.2022
1145 Fog 13 1013 44 10000 4 130 07:19 03.06.2022
1146 Fog 13 1014 47 10000 10 100 06:30 03.06.2022
1147 Fog 13 1015 50 10000 10 100 04:35 03.06.2022
1148 Fog 10 1016 57 10000 5 80 00:21 03.06.2022
1149 Fog 10 1017 62 10000 3 140 22:35 02.06.2022
1150 Fog 10 1017 53 10000 3 130 20:58 02.06.2022
1151 Fog 8 1018 57 10000 2 100 19:59 02.06.2022
1152 Fog 8 1018 57 10000 2 100 19:40 02.06.2022
1153 Fog 8 1018 57 10000 2 100 19:18 02.06.2022
1154 Fog 7 1019 53 10000 4 110 16:30 02.06.2022
1155 Fog 8 1019 53 10000 3 120 15:58 02.06.2022
1156 Fog 5 1019 56 10000 2 150 13:38 02.06.2022
1157 Fog 5 1019 56 10000 2 150 13:20 02.06.2022
1158 Fog 11 1019 40 10000 4 140 10:53 02.06.2022
1159 Fog 11 1019 40 10000 4 140 10:19 02.06.2022
1160 Fog 12 1020 43 10000 3 140 09:27 02.06.2022
1161 Fog 13 1020 41 10000 6 120 08:24 02.06.2022
1162 Fog 10 1021 53 10000 5 150 06:26 02.06.2022
1163 Fog 6 1022 70 10000 6 190 03:53 02.06.2022
1164 Fog 6 1022 70 10000 7 190 02:22 02.06.2022
1165 Clouds 5 1022 75 10000 7 180 23:36 01.06.2022
1166 Fog 4 1022 86 10000 7 160 22:21 01.06.2022
1167 Fog 4 1022 80 10000 7 160 21:26 01.06.2022
1168 Fog 7 1021 61 10000 6 160 20:39 01.06.2022
1169 Clear 5 1021 70 10000 5 150 19:52 01.06.2022
1170 Fog 5 1021 70 10000 6 150 18:52 01.06.2022
1171 Clear 5 1021 70 10000 4 140 17:40 01.06.2022
1172 Clear 4 1020 70 10000 2 140 16:33 01.06.2022
1173 Clear 7 1020 61 10000 5 140 14:52 01.06.2022
1174 Clear 5 1020 70 10000 2 130 13:44 01.06.2022
1175 Clear 6 1019 65 10000 4 150 12:25 01.06.2022
1176 Clear 11 1019 46 10000 6 150 09:36 01.06.2022
1177 Clear 11 1018 46 10000 5 170 08:29 01.06.2022
1178 Clear 11 1018 46 10000 5 170 07:21 01.06.2022
1179 Clear 9 1019 57 10000 6 170 05:22 01.06.2022
1180 Fog 4 1019 80 10000 4 190 00:20 01.06.2022
1181 Fog 4 1019 86 10000 4 190 22:59 31.05.2022
1182 Fog 3 1019 86 10000 3 210 22:33 31.05.2022
1183 Mist 3 1019 86 10000 3 200 21:45 31.05.2022
1184 Fog 4 1019 80 10000 1 0 20:45 31.05.2022
1185 Fog 4 1019 80 10000 1 0 20:45 31.05.2022
1186 Fog 3 1019 80 10000 1 0 19:53 31.05.2022
1187 Fog 3 1018 86 10000 2 140 18:45 31.05.2022
1188 Fog 5 1018 81 10000 2 140 17:49 31.05.2022
1189 Fog 5 1018 81 10000 2 140 17:49 31.05.2022
1190 Clear 5 1018 87 10000 4 150 16:53 31.05.2022
1191 Clear 5 1018 81 10000 4 150 15:40 31.05.2022
1192 Clear 4 1018 80 10000 4 140 13:45 31.05.2022
1193 Clear 4 1018 70 10000 2 150 12:20 31.05.2022
1194 Clear 7 1018 61 10000 4 140 10:52 31.05.2022
1195 Clear 7 1018 65 10000 5 170 08:41 31.05.2022
1196 Clear 9 1018 57 10000 5 170 07:21 31.05.2022
1197 Fog 10 1018 53 10000 4 190 04:53 31.05.2022
1198 Fog 5 1019 75 10000 4 190 00:26 31.05.2022
1199 Fog 7 1019 70 10000 3 220 23:26 30.05.2022
1200 Fog 5 1019 75 10000 3 200 22:48 30.05.2022
1201 Fog 5 1019 75 10000 5 150 21:51 30.05.2022
1202 Fog 5 1019 75 10000 5 150 21:32 30.05.2022
1203 Clear 5 1018 75 10000 1 0 19:57 30.05.2022
1204 Clear 4 1018 80 10000 2 290 18:39 30.05.2022
1205 Clear 4 1018 80 10000 2 150 17:24 30.05.2022
1206 Clear 4 1018 75 10000 1 0 16:40 30.05.2022
1207 Clear 6 1018 65 10000 3 130 14:23 30.05.2022
1208 Clear 8 1018 61 10000 5 130 12:21 30.05.2022
1209 Clouds 9 1018 53 10000 5 130 10:40 30.05.2022
1210 Clouds 9 1017 57 10000 5 130 09:19 30.05.2022
1211 Clouds 9 1017 57 10000 7 150 06:40 30.05.2022
1212 Clouds 10 1018 53 10000 6 150 05:48 30.05.2022
1213 Clouds 10 1018 57 10000 5 160 01:33 30.05.2022
1214 Fog 5 1018 86 10000 1 0 22:54 29.05.2022
1215 Fog 4 1018 86 10000 2 280 22:36 29.05.2022
1216 Fog 2 1018 93 600 2 100 20:53 29.05.2022
1217 Fog 2 1017 93 10000 1 0 19:31 29.05.2022
1218 Fog 1 1017 100 10000 0 0 18:44 29.05.2022
1219 Fog -1 1017 100 10000 2 70 17:31 29.05.2022
1220 Fog 1 1017 87 10000 1 0 15:48 29.05.2022
1221 Clear 2 1017 86 10000 1 0 14:57 29.05.2022
1222 Clear 3 1017 86 10000 1 0 13:52 29.05.2022
1223 Clear 6 1017 75 10000 2 190 11:41 29.05.2022
1224 Clear 6 1017 81 10000 6 150 10:38 29.05.2022
1225 Clear 11 1017 58 10000 4 140 08:51 29.05.2022
1226 Clear 11 1017 54 10000 7 140 05:54 29.05.2022
1227 Clear 12 1017 50 10000 5 140 04:44 29.05.2022
1228 Clear 11 1017 50 10000 6 140 03:41 29.05.2022
1229 Clear 8 1018 66 10000 3 170 23:49 28.05.2022
1230 Clear 9 1018 66 10000 3 170 23:26 28.05.2022
1231 Clear 7 1017 65 10000 4 180 22:35 28.05.2022
1232 Clear 6 1017 70 10000 4 180 21:38 28.05.2022
1233 Clear 4 1017 80 10000 3 160 19:41 28.05.2022
1234 Clear 4 1017 80 10000 3 170 18:50 28.05.2022
1235 Clear 4 1016 80 10000 4 170 17:37 28.05.2022
1236 Clear 4 1016 80 10000 4 160 16:38 28.05.2022
1237 Clear 5 1016 75 10000 3 150 15:43 28.05.2022
1238 Clear 6 1016 75 10000 3 160 14:24 28.05.2022
1239 Clear 8 1016 66 10000 5 160 12:51 28.05.2022
1240 Clear 8 1016 66 10000 5 160 12:33 28.05.2022
1241 Clear 10 1015 62 10000 4 150 11:21 28.05.2022
1242 Clear 11 1015 58 10000 5 160 09:57 28.05.2022
1243 Clear 11 1014 58 10000 6 170 08:45 28.05.2022
1244 Clear 11 1014 58 10000 5 170 07:23 28.05.2022
1245 Clear 12 1014 58 10000 3 160 05:36 28.05.2022
1246 Clear 13 1014 54 10000 3 190 02:44 28.05.2022
1247 Clear 6 1014 70 10000 2 180 00:32 28.05.2022
1248 Fog 3 1014 80 10000 3 180 22:53 27.05.2022
1249 Fog 2 1014 81 10000 4 170 21:44 27.05.2022
1250 Fog 2 1013 81 10000 4 160 20:50 27.05.2022
1251 Fog 2 1013 81 10000 4 160 20:25 27.05.2022
1252 Fog 2 1013 86 10000 3 170 19:42 27.05.2022
1253 Fog 2 1013 86 10000 3 170 19:24 27.05.2022
1254 Fog 3 1012 80 10000 3 150 17:54 27.05.2022
1255 Fog 2 1012 81 10000 2 160 16:39 27.05.2022
1256 Fog 3 1012 80 10000 3 160 15:22 27.05.2022
1257 Fog 1 1012 87 10000 3 150 14:25 27.05.2022
1258 Fog 0 1012 93 10000 2 140 12:43 27.05.2022
1259 Fog 2 1012 86 10000 1 0 11:34 27.05.2022
1260 Fog 3 1011 80 10000 4 150 10:55 27.05.2022
1261 Fog 3 1011 80 10000 4 150 10:29 27.05.2022
1262 Fog 2 1011 86 10000 5 150 09:34 27.05.2022
1263 Fog 3 1011 86 10000 4 190 07:50 27.05.2022
1264 Fog 2 1012 93 10000 7 180 05:39 27.05.2022
1265 Fog 4 1012 80 10000 7 190 02:26 27.05.2022
1266 Fog 3 1012 80 10000 7 180 00:26 27.05.2022
1267 Fog 2 1012 86 10000 4 190 22:35 26.05.2022
1268 Fog 1 1012 87 10000 5 160 21:37 26.05.2022
1269 Clear 2 1011 80 10000 4 160 19:58 26.05.2022
1270 Clear 2 1011 80 10000 4 160 19:19 26.05.2022
1271 Clear 2 1010 81 10000 4 150 17:37 26.05.2022
1272 Clear 5 1010 65 10000 4 150 16:36 26.05.2022
1273 Clear 6 1009 61 10000 2 160 15:45 26.05.2022
1274 Clear 11 1009 43 10000 3 150 14:24 26.05.2022
1275 Clear 12 1009 37 10000 3 130 12:36 26.05.2022
1276 Clear 13 1009 38 10000 3 140 11:23 26.05.2022
1277 Clear 14 1008 38 10000 4 140 09:40 26.05.2022
1278 Clear 14 1008 38 10000 4 140 09:19 26.05.2022
1279 Clear 15 1008 41 10000 6 160 07:57 26.05.2022
1280 Clear 15 1008 47 10000 7 170 03:53 26.05.2022
1281 Clear 11 1008 58 10000 3 210 00:33 26.05.2022
1282 Clear 10 1008 61 10000 2 200 23:39 25.05.2022
1283 Clear 5 1008 70 10000 4 170 21:47 25.05.2022
1284 Clear 5 1008 70 10000 4 170 21:28 25.05.2022
1285 Clear 5 1007 75 10000 3 180 20:34 25.05.2022
1286 Clear 5 1007 75 10000 4 180 19:21 25.05.2022
1287 Clear 6 1007 70 10000 4 150 17:40 25.05.2022
1288 Clear 6 1007 70 10000 3 160 16:37 25.05.2022
1289 Clear 9 1007 61 10000 4 170 15:54 25.05.2022
1290 Clear 10 1007 62 10000 6 160 14:51 25.05.2022
1291 Clear 10 1007 62 10000 6 160 14:32 25.05.2022
1292 Clear 11 1007 54 10000 5 160 13:42 25.05.2022
1293 Clear 12 1007 54 10000 5 160 12:37 25.05.2022
1294 Clear 14 1007 51 10000 4 140 10:43 25.05.2022
1295 Clear 13 1007 54 10000 3 140 09:54 25.05.2022
1296 Clouds 5 1008 81 10000 3.28 167 08:37 25.05.2022
1297 Clouds 6 1008 71 10000 1.57 222 07:22 25.05.2022
1298 Clear 14 1008 54 10000 2 200 03:34 25.05.2022
1299 Clear 11 1009 54 10000 2 190 23:56 24.05.2022
1300 Clear 9 1009 61 10000 3 180 23:31 24.05.2022
1301 Clear 6 1010 65 10000 4 160 22:21 24.05.2022
1302 Clear 6 1010 65 10000 5 170 21:40 24.05.2022
1303 Clear 6 1010 65 10000 5 170 21:20 24.05.2022
1304 Clear 7 1010 61 10000 5 160 19:45 24.05.2022
1305 Clear 8 1010 57 10000 5 150 18:54 24.05.2022
1306 Clear 9 1011 53 10000 5 160 16:45 24.05.2022
1307 Clear 9 1011 53 10000 5 160 16:23 24.05.2022
1308 Clear 10 1012 50 10000 6 160 14:58 24.05.2022
1309 Clear 10 1012 50 10000 6 160 14:21 24.05.2022
1310 Clear 11 1013 50 10000 5 160 12:49 24.05.2022
1311 Clear 11 1013 54 10000 5 160 11:33 24.05.2022
1312 Clear 13 1013 50 10000 4 160 09:45 24.05.2022
1313 Clear 13 1014 50 10000 5 170 08:50 24.05.2022
1314 Clear 15 1014 47 10000 5 170 06:57 24.05.2022
1315 Clear 14 1016 51 10000 3 190 04:20 24.05.2022
1316 Clear 15 1017 41 10000 2 280 01:55 24.05.2022
1317 Clear 14 1017 44 10000 2 280 01:36 24.05.2022
1318 Clear 13 1018 50 10000 2 260 23:33 23.05.2022
1319 Clear 12 1018 50 10000 1 0 21:57 23.05.2022
1320 Clear 12 1018 50 10000 1 0 21:39 23.05.2022
1321 Clear 11 1018 54 10000 2 40 20:41 23.05.2022
1322 Clear 6 1018 75 10000 2 40 19:33 23.05.2022
1323 Clear 2 1018 81 10000 3 60 18:59 23.05.2022
1324 Clear 2 1018 81 10000 3 60 18:35 23.05.2022
1325 Clear 1 1018 87 10000 1 100 17:38 23.05.2022
1326 Clear 0 1019 86 10000 3 60 15:37 23.05.2022
1327 Clear 3 1019 80 10000 2 70 13:32 23.05.2022
1328 Clear 8 1019 66 10000 1 0 11:34 23.05.2022
1329 Clear 9 1019 61 10000 2 350 10:43 23.05.2022
1330 Clear 11 1019 58 10000 5 300 09:40 23.05.2022
1331 Clear 12 1019 58 10000 4 300 08:38 23.05.2022
1332 Clear 13 1019 54 10000 5 300 06:47 23.05.2022
1333 Clear 13 1019 54 10000 6 290 06:23 23.05.2022
1334 Clear 12 1020 58 10000 5 310 02:35 23.05.2022
1335 Clear 12 1020 58 10000 4 310 01:46 23.05.2022
1336 Clear 11 1020 62 10000 4 310 01:19 23.05.2022
1337 Clear 9 1020 66 10000 4 320 22:47 22.05.2022
1338 Clear 7 1020 65 10000 4 300 22:18 22.05.2022
1339 Clear 6 1020 70 10000 4 320 21:49 22.05.2022
1340 Clear 6 1020 65 10000 3 340 20:40 22.05.2022
1341 Clear 6 1020 65 10000 3 340 20:19 22.05.2022
1342 Clear 1 1020 87 10000 3 360 18:58 22.05.2022
1343 Clear 1 1020 87 10000 3 360 18:31 22.05.2022
1344 Clear 1 1020 80 10000 4 330 17:55 22.05.2022
1345 Clear 0 1020 86 10000 4 360 16:51 22.05.2022
1346 Clear 0 1020 93 10000 4 40 15:22 22.05.2022
1347 Clear 1 1020 87 10000 3 360 14:35 22.05.2022
1348 Clear 4 1020 75 10000 2 360 12:54 22.05.2022
1349 Clear 4 1020 75 10000 2 360 12:24 22.05.2022
1350 Clear 6 1020 65 10000 2 340 10:38 22.05.2022
1351 Clear 6 1020 65 10000 3 320 09:27 22.05.2022
1352 Clear 8 1020 61 10000 3 300 07:44 22.05.2022
1353 Clear 10 1020 57 10000 3 280 06:41 22.05.2022
1354 Clear 9 1021 61 10000 3 280 03:53 22.05.2022
1355 Clear 6 1021 70 10000 3 290 00:49 22.05.2022
1356 Clear 5 1021 70 10000 2 340 23:56 21.05.2022
1357 Clear 5 1021 70 10000 2 340 23:29 21.05.2022
1358 Clear 1 1021 93 10000 4 340 21:59 21.05.2022
1359 Clear 1 1021 93 10000 4 340 21:37 21.05.2022
1360 Fog 0 1021 93 10000 3 10 20:41 21.05.2022
1361 Fog -1 1022 93 10000 2 350 19:53 21.05.2022
1362 Fog -2 1022 92 10000 3 340 18:54 21.05.2022
1363 Clear -2 1022 92 10000 3 350 16:57 21.05.2022
1364 Clear -2 1022 100 10000 4 360 14:49 21.05.2022
1365 Clear -2 1023 93 10000 2 10 13:55 21.05.2022
1366 Clear -2 1023 93 10000 2 10 13:25 21.05.2022
1367 Clear -1 1023 93 10000 2 340 12:39 21.05.2022
1368 Clear 0 1024 86 10000 2 340 11:38 21.05.2022
1369 Clear 1 1024 87 10000 2 310 10:21 21.05.2022
1370 Clear 2 1024 81 10000 3 300 08:59 21.05.2022
1371 Clear 2 1024 81 10000 3 300 08:38 21.05.2022
1372 Clouds 2 1024 86 6636 1.79 250 06:20 21.05.2022
1373 Clouds 1 1026 86 10000 2 200 01:42 21.05.2022
1374 Clouds 0 1027 93 10000 0 0 23:35 20.05.2022
1375 Clouds 0 1027 86 10000 1 0 22:40 20.05.2022
1376 Clouds 0 1027 86 10000 0 0 21:58 20.05.2022
1377 Clouds 0 1027 86 10000 0 0 21:19 20.05.2022
1378 Clouds -1 1027 93 10000 1 0 20:47 20.05.2022
1379 Clouds -1 1027 86 10000 3 110 19:45 20.05.2022
1380 Clouds -1 1027 86 10000 1 0 18:53 20.05.2022
1381 Clouds -1 1027 86 10000 1 0 18:18 20.05.2022
1382 Clouds -1 1027 86 10000 3 90 16:23 20.05.2022
1383 Clouds -1 1028 86 10000 5 100 15:54 20.05.2022
1384 Clouds -1 1028 93 10000 3 120 14:44 20.05.2022
1385 Clouds -1 1028 93 10000 3 120 14:26 20.05.2022
1386 Fog 0 1027 86 10000 4 90 11:52 20.05.2022
1387 Fog 0 1027 86 10000 3 110 10:47 20.05.2022
1388 Fog 2 1027 81 10000 4 110 09:27 20.05.2022
1389 Fog 1 1027 87 10000 5 140 08:24 20.05.2022
1390 Fog 7 1026 70 10000 9 110 06:42 20.05.2022
1391 Fog 5 1026 75 10000 7 110 05:39 20.05.2022
1392 Fog 6 1025 70 10000 7 110 02:41 20.05.2022
1393 Fog 6 1025 70 10000 3 100 23:47 19.05.2022
1394 Fog 4 1025 80 10000 3 200 22:36 19.05.2022
1395 Fog 3 1024 80 10000 3 170 21:50 19.05.2022
1396 Fog 3 1024 80 10000 3 170 21:24 19.05.2022
1397 Fog 2 1023 81 10000 3 150 20:47 19.05.2022
1398 Fog 4 1023 81 10000 2 140 19:54 19.05.2022
1399 Clouds 0 1023 86 123 2.68 160 19:00 19.05.2022
1400 Clear 1 1022 87 10000 2 150 17:44 19.05.2022
1401 Clear 3 1022 87 10000 4 140 15:51 19.05.2022
1402 Clear 4 1021 81 10000 4 140 14:47 19.05.2022
1403 Clear 3 1021 80 10000 4 140 14:20 19.05.2022
1404 Clouds 5 1020 81 10000 4 150 11:54 19.05.2022
1405 Clouds 5 1019 81 10000 4 150 10:30 19.05.2022
1406 Clouds 6 1018 75 10000 4 170 08:44 19.05.2022
1407 Clouds 7 1018 65 10000 5 180 07:18 19.05.2022
1408 Clouds 6 1017 75 10000 3 150 03:52 19.05.2022
1409 Rain 6 1016 75 10000 4 170 00:58 19.05.2022
1410 Rain 4 1016 80 10000 6 170 23:40 18.05.2022
1411 Clouds 3 1016 80 10000 4 170 22:43 18.05.2022
1412 Clouds 4 1016 75 10000 4 160 21:43 18.05.2022
1413 Clouds 4 1016 75 10000 4 160 21:23 18.05.2022
1414 Clouds 3 1016 80 10000 4 150 20:21 18.05.2022
1415 Clouds 1 1015 87 10000 4 160 18:56 18.05.2022
1416 Clouds 1 1015 87 10000 3 140 17:57 18.05.2022
1417 Clouds 1 1015 87 10000 3 140 17:36 18.05.2022
1418 Clouds 1 1015 87 10000 3 140 17:18 18.05.2022
1419 Clouds 0 1015 86 10000 4 160 15:52 18.05.2022
1420 Clouds 0 1015 86 10000 4 160 15:33 18.05.2022
1421 Clouds 2 1014 81 10000 3 160 14:21 18.05.2022
1422 Fog 2 1014 81 10000 3 170 12:55 18.05.2022
1423 Fog 2 1014 81 10000 3 170 12:24 18.05.2022
1424 Fog 3 1014 75 10000 3 140 11:33 18.05.2022
1425 Fog 3 1014 75 10000 2 290 10:48 18.05.2022
1426 Fog 1 1013 80 10000 3 170 08:25 18.05.2022
1427 Fog 2 1013 81 10000 2 170 07:27 18.05.2022
1428 Clear 3 1013 75 10000 4 100 03:59 18.05.2022
1429 Clear 3 1014 75 10000 5 100 00:51 18.05.2022
1430 Clouds 1 1015 80 10000 1 0 23:41 17.05.2022
1431 Clear 1 1015 80 10000 1 0 21:22 17.05.2022
1432 Fog -2 1015 92 10000 3 330 20:44 17.05.2022
1433 Fog -3 1015 92 10000 1 340 19:45 17.05.2022
1434 Fog -3 1015 92 10000 1 340 19:24 17.05.2022
1435 Fog -4 1015 92 10000 1 0 17:49 17.05.2022
1436 Fog -4 1016 92 10000 1 0 16:57 17.05.2022
1437 Fog -3 1016 92 10000 1 0 15:59 17.05.2022
1438 Fog -2 1016 92 10000 1 0 14:55 17.05.2022
1439 Fog -2 1016 92 10000 1 0 14:28 17.05.2022
1440 Fog -2 1016 86 10000 1 0 13:24 17.05.2022
1441 Fog 1 1017 80 10000 3 150 10:42 17.05.2022
1442 Fog 5 1018 70 10000 5 200 08:53 17.05.2022
1443 Fog 6 1018 70 10000 2 150 07:56 17.05.2022
1444 Fog 5 1018 70 10000 4 200 06:26 17.05.2022
1445 Clear 8 1020 61 10000 3 110 01:34 17.05.2022
1446 Clear 8 1021 57 10000 2 80 23:46 16.05.2022
1447 Clear 6 1021 61 10000 3 330 22:39 16.05.2022
1448 Clear 5 1022 65 10000 3 300 21:31 16.05.2022
1449 Clear 3 1022 64 10000 4 290 20:43 16.05.2022
1450 Clear 3 1022 70 10000 3 70 18:53 16.05.2022
1451 Clear 2 1023 64 10000 5 70 17:26 16.05.2022
1452 Clear 3 1024 56 10000 6 110 15:35 16.05.2022
1453 Clear 2 1025 44 10000 8 130 13:48 16.05.2022
1454 Clear 2 1026 44 10000 6 120 12:44 16.05.2022
1455 Clear 3 1026 48 10000 4 110 10:38 16.05.2022
1456 Clear 3 1027 44 10000 5 120 08:32 16.05.2022
1457 Clear 3 1027 44 10000 11 110 06:30 16.05.2022
1458 Clear 8 1026 61 10000 4 100 01:44 16.05.2022
1459 Clear 6 1025 70 10000 2 340 22:52 15.05.2022
1460 Clear 5 1025 75 10000 3 340 22:25 15.05.2022
1461 Clear 2 1025 81 10000 3 10 21:38 15.05.2022
1462 Clear 2 1024 81 10000 4 330 20:53 15.05.2022
1463 Clear -1 1024 93 10000 3 10 18:52 15.05.2022
1464 Clear -1 1024 93 10000 3 340 17:29 15.05.2022
1465 Clear 1 1023 87 10000 4 20 15:26 15.05.2022
1466 Clear 2 1022 81 10000 5 310 13:47 15.05.2022
1467 Clear 1 1022 86 10000 4 310 12:21 15.05.2022
1468 Clear 2 1021 80 10000 7 300 11:29 15.05.2022
1469 Clear 3 1019 80 10000 8 290 09:58 15.05.2022
1470 Clear 4 1018 75 10000 8 300 07:25 15.05.2022
1471 Clouds 5 1017 75 10000 10 290 06:56 15.05.2022
1472 Clouds 7 1017 70 10000 8 270 03:40 15.05.2022
1473 Clouds 3 1017 80 10000 0 0 00:42 15.05.2022
1474 Clouds 1 1018 87 10000 2 200 23:38 14.05.2022
1475 Clouds 2 1018 86 10000 3 180 22:41 14.05.2022
1476 Clouds 1 1018 93 10000 4 160 21:27 14.05.2022
1477 Rain 1 1018 93 10000 4 160 20:30 14.05.2022
1478 Rain 1 1019 93 10000 4 180 19:21 14.05.2022
1479 Clear 1 1019 87 10000 6 160 18:59 14.05.2022
1480 Clear 2 1019 86 10000 5 160 17:53 14.05.2022
1481 Clear 2 1019 86 10000 5 160 16:23 14.05.2022
1482 Clear 2 1021 81 10000 4 150 14:50 14.05.2022
1483 Clear 2 1021 81 10000 4 150 14:26 14.05.2022
1484 Fog -1 1021 86 10000 4 170 11:51 14.05.2022
1485 Fog -1 1022 93 10000 5 160 10:45 14.05.2022
1486 Fog -1 1022 93 10000 5 160 10:19 14.05.2022
1487 Fog 4 1021 75 10000 4 150 09:34 14.05.2022
1488 Clear 2 1022 81 10000 6 160 07:59 14.05.2022
1489 Clear 8 1022 57 10000 4 140 05:21 14.05.2022
1490 Clouds -1 1024 95 5782 2.07 160 01:57 14.05.2022
1491 Clear 7 1023 61 10000 6 140 23:28 13.05.2022
1492 Clear 6 1024 61 10000 5 130 22:56 13.05.2022
1493 Clear 6 1024 61 10000 5 130 22:22 13.05.2022
1494 Clear 5 1024 65 10000 6 140 21:19 13.05.2022
1495 Clear 3 1024 70 10000 5 150 20:43 13.05.2022
1496 Clear 3 1024 70 10000 5 150 20:22 13.05.2022
1497 Clear 4 1024 70 10000 2 80 19:19 13.05.2022
1498 Clear 3 1024 70 10000 1 0 17:47 13.05.2022
1499 Clear 3 1024 70 10000 1 0 17:23 13.05.2022
1500 Clear 2 1025 64 10000 3 140 15:48 13.05.2022
1501 Clear 2 1025 64 10000 3 150 14:47 13.05.2022
1502 Clear 0 1025 80 10000 2 150 12:54 13.05.2022
1503 Clear 0 1025 80 10000 2 150 12:25 13.05.2022
1504 Clear 1 1025 74 10000 2 180 10:23 13.05.2022
1505 Clear 2 1025 64 10000 2 210 09:29 13.05.2022
1506 Clear 5 1025 56 10000 2 320 07:59 13.05.2022
1507 Clear 5 1025 56 10000 2 340 07:30 13.05.2022
1508 Clear 5 1025 56 10000 3 310 05:46 13.05.2022
1509 Clear 4 1024 60 10000 6 350 01:37 13.05.2022
1510 Clear 1 1023 64 10000 6 360 23:34 12.05.2022
1511 Clear 1 1023 69 10000 6 330 22:35 12.05.2022
1512 Clear -1 1022 69 10000 4 340 21:35 12.05.2022
1513 Clear -1 1022 74 10000 6 300 20:22 12.05.2022
1514 Clear -1 1020 93 10000 4 320 18:30 12.05.2022
1515 Clouds 1 1018 93 10000 6 300 16:52 12.05.2022
1516 Clear 0 1017 93 10000 6 300 15:30 12.05.2022
1517 Clear 1 1016 87 10000 7 280 13:58 12.05.2022
1518 Clouds 2 1015 81 10000 7 280 12:46 12.05.2022
1519 Clouds 3 1014 75 10000 6 270 10:34 12.05.2022
1520 Clouds 5 1013 70 10000 9 270 08:58 12.05.2022
1521 Clouds 5 1013 70 10000 9 270 08:37 12.05.2022
1522 Clouds 5 1013 65 10000 8 270 07:36 12.05.2022
1523 Clear 6 1013 70 10000 4 200 04:50 12.05.2022
1524 Clouds 5 1014 70 10000 7 200 01:55 12.05.2022
1525 Clouds 2 1015 81 10000 6 200 23:55 11.05.2022
1526 Clouds 2 1016 81 10000 5 200 22:29 11.05.2022
1527 Clouds 2 1016 81 10000 4 190 21:29 11.05.2022
1528 Clouds 4 1016 75 10000 4 230 20:48 11.05.2022
1529 Clouds 0 1016 86 10000 1 0 17:54 11.05.2022
1530 Clouds 1 1015 87 10000 3 250 16:47 11.05.2022
1531 Clouds 2 1015 81 10000 5 270 14:50 11.05.2022
1532 Clouds 2 1015 81 10000 5 270 14:26 11.05.2022
1533 Clouds 2 1016 81 10000 2 260 13:44 11.05.2022
1534 Rain 3 1015 80 10000 1 0 11:50 11.05.2022
1535 Clouds 3 1014 80 10000 1 0 09:39 11.05.2022
1536 Clouds 5 1014 75 10000 4 310 07:52 11.05.2022
1537 Clouds 7 1014 70 10000 4 270 04:43 11.05.2022
1538 Clouds 5 1014 75 10000 4 200 23:48 10.05.2022
1539 Clouds 5 1014 70 10000 3 230 22:30 10.05.2022
1540 Clouds 3 1014 75 10000 2 210 21:43 10.05.2022
1541 Clouds 3 1014 75 10000 1 0 20:48 10.05.2022
1542 Clouds 2 1014 81 10000 3 140 19:25 10.05.2022
1543 Clear 2 1014 74 10000 4 190 17:44 10.05.2022
1544 Clear 2 1014 74 10000 6 170 16:39 10.05.2022
1545 Clear 4 1016 70 10000 3 160 13:54 10.05.2022
1546 Clear 4 1016 65 10000 6 150 12:36 10.05.2022
1547 Clear 5 1016 60 10000 6 160 11:49 10.05.2022
1548 Clear 5 1016 60 10000 6 160 11:18 10.05.2022
1549 Clear 5 1016 60 10000 6 150 09:52 10.05.2022
1550 Clear 6 1016 56 10000 6 150 08:29 10.05.2022
1551 Clear 6 1018 52 10000 7 160 06:21 10.05.2022
1552 Clear 4 1020 56 10000 6 160 02:48 10.05.2022
1553 Clear 3 1021 60 10000 6 170 00:23 10.05.2022
1554 Clear 0 1021 69 10000 5 170 22:42 09.05.2022
1555 Clear 0 1021 80 10000 4 170 21:48 09.05.2022
1556 Clear 0 1021 74 10000 3 170 20:22 09.05.2022
1557 Clear -2 1021 74 10000 4 150 18:35 09.05.2022
1558 Clear -3 1021 80 10000 2 100 17:33 09.05.2022
1559 Clear -3 1021 80 10000 2 80 16:21 09.05.2022
1560 Clear -3 1021 80 10000 3 310 15:47 09.05.2022
1561 Clear -3 1020 86 10000 2 310 14:41 09.05.2022
1562 Clear -2 1020 86 10000 5 300 13:59 09.05.2022
1563 Clear -2 1020 86 10000 5 300 13:32 09.05.2022
1564 Clear 0 1019 80 10000 9 300 11:53 09.05.2022
1565 Clear 0 1018 86 10000 5 330 10:50 09.05.2022
1566 Clear -1 1018 86 10000 5 330 10:26 09.05.2022
1567 Clouds 0 1016 86 10000 7 290 07:57 09.05.2022
1568 Clear 1 1014 74 10000 9 300 05:59 09.05.2022
1569 Clouds 1 1010 80 10000 8 290 02:37 09.05.2022
1570 Clouds 1 1010 80 10000 8 290 02:37 09.05.2022
1571 Clouds 1 1010 80 10000 8 290 02:37 09.05.2022
1572 Clouds 1 1010 80 10000 8 290 02:37 09.05.2022
1573 Clouds 0 1007 93 10000 9 280 23:29 08.05.2022
1574 Clouds 0 1006 93 10000 9 280 22:42 08.05.2022
1575 Clouds 0 1005 93 10000 9 270 21:37 08.05.2022
1576 Clouds 1 1005 93 10000 7 250 20:25 08.05.2022
1577 Clouds 1 1004 93 10000 6 260 19:35 08.05.2022
1578 Snow 0 1004 100 6000 4 240 18:49 08.05.2022
1579 Snow 0 1003 100 4600 3 250 17:45 08.05.2022
1580 Snow -1 1003 100 10000 1 270 16:23 08.05.2022
1581 Snow 0 1003 93 10000 4 310 15:25 08.05.2022
1582 Snow 0 1003 93 10000 5 320 14:23 08.05.2022
1583 Snow 0 1002 93 9000 0 0 11:53 08.05.2022
1584 Mist 0 1002 93 3400 2 140 10:27 08.05.2022
1585 Snow 0 1002 93 9000 4 160 09:54 08.05.2022
1586 Clouds 2 1002 74 10000 4 170 08:23 08.05.2022
1587 Clouds 2 1002 74 10000 4 140 06:31 08.05.2022
1588 Clouds 1 1004 80 10000 5 150 03:23 08.05.2022
1589 Clouds 2 1004 69 10000 5 160 01:25 08.05.2022
1590 Clouds 1 1004 69 10000 5 160 00:20 08.05.2022
1591 Clouds 0 1005 74 10000 6 160 23:41 07.05.2022
1592 Clear -1 1005 74 10000 6 160 22:46 07.05.2022
1593 Clear -2 1005 80 10000 5 160 21:57 07.05.2022
1594 Clear -2 1005 80 10000 5 160 21:31 07.05.2022
1595 Clear -2 1005 86 10000 5 160 20:25 07.05.2022
1596 Clear -2 1006 93 10000 4 140 18:59 07.05.2022
1597 Clouds -1 1006 86 10000 2 150 16:51 07.05.2022
1598 Clouds -1 1006 86 10000 3 140 15:18 07.05.2022
1599 Clouds 1 1006 80 10000 2 160 11:51 07.05.2022
1600 Clouds 1 1006 86 10000 2 170 10:18 07.05.2022
1601 Clouds 0 1006 86 10000 1 0 08:34 07.05.2022
1602 Clouds 0 1005 86 10000 2 170 07:30 07.05.2022
1603 Clouds 0 1006 86 10000 4 210 06:42 07.05.2022
1604 Snow 1 1006 80 10000 4 200 04:19 07.05.2022
1605 Clouds -1 1007 86 10000 5 180 00:45 07.05.2022
1606 Clouds -1 1008 86 10000 5 170 22:41 06.05.2022
1607 Clouds -1 1008 80 10000 5 170 22:21 06.05.2022
1608 Clouds -1 1008 86 10000 5 170 21:32 06.05.2022
1609 Clouds -1 1009 80 10000 4 150 19:49 06.05.2022
1610 Clouds -1 1009 80 10000 4 150 19:27 06.05.2022
1611 Clouds -1 1009 80 10000 2 170 18:43 06.05.2022
1612 Clouds -1 1010 80 10000 3 160 17:37 06.05.2022
1613 Fog -2 1010 93 10000 2 150 15:54 06.05.2022
1614 Fog -3 1010 92 10000 2 150 15:30 06.05.2022
1615 Fog -4 1010 92 10000 1 0 13:50 06.05.2022
1616 Fog -1 1011 86 10000 2 140 12:51 06.05.2022
1617 Clear -1 1011 86 10000 2 150 11:58 06.05.2022
1618 Clear -1 1011 86 10000 2 150 11:27 06.05.2022
1619 Clear -1 1011 86 10000 2 190 09:48 06.05.2022
1620 Clear 0 1011 80 10000 3 230 09:18 06.05.2022
1621 Clear 0 1011 74 10000 3 310 07:54 06.05.2022
1622 Clear 0 1011 74 10000 4 300 06:26 06.05.2022
1623 Clear 0 1011 74 10000 4 290 03:42 06.05.2022
1624 Clear 0 1012 80 10000 4 310 02:38 06.05.2022
1625 Clouds 0 1012 74 10000 3 310 23:24 05.05.2022
1626 Clouds -2 1011 74 10000 3 20 21:50 05.05.2022
1627 Clouds -3 1011 74 10000 4 10 20:37 05.05.2022
1628 Clear -9 1011 86 10000 4 40 18:56 05.05.2022
1629 Clear -8 1011 86 10000 3 30 16:42 05.05.2022
1630 Clear -7 1011 79 10000 4 40 15:31 05.05.2022
1631 Clear -6 1011 86 10000 4 40 13:30 05.05.2022
1632 Clear -5 1011 93 10000 4 10 12:56 05.05.2022
1633 Clear -5 1011 93 10000 3 10 11:35 05.05.2022
1634 Clear -1 1011 80 10000 4 320 09:41 05.05.2022
1635 Clear -1 1011 80 10000 4 320 09:41 05.05.2022
1636 Clear -1 1011 80 10000 3 310 08:54 05.05.2022
1637 Clear 0 1011 74 10000 2 320 06:28 05.05.2022
1638 Clear -2 1011 74 10000 3 360 02:27 05.05.2022
1639 Clear -2 1011 74 10000 3 350 01:44 05.05.2022
1640 Clear -3 1011 80 10000 3 350 00:49 05.05.2022
1641 Clear -4 1011 80 10000 3 340 23:18 04.05.2022
1642 Clear -6 1011 86 10000 3 350 21:59 04.05.2022
1643 Clear -6 1011 86 10000 3 350 21:34 04.05.2022
1644 Clear -7 1011 86 10000 3 10 20:55 04.05.2022
1645 Clear -7 1011 86 10000 3 10 20:18 04.05.2022
1646 Clear -9 1011 86 10000 4 340 19:35 04.05.2022
1647 Clear -9 1010 86 10000 5 340 18:43 04.05.2022
1648 Clear -9 1010 86 10000 5 340 18:19 04.05.2022
1649 Clear -8 1010 93 10000 4 330 17:22 04.05.2022
1650 Clear -8 1010 86 10000 6 350 15:34 04.05.2022
1651 Clear -7 1010 79 10000 4 350 14:41 04.05.2022
1652 Clear -7 1010 79 10000 4 350 14:19 04.05.2022
1653 Clear -6 1010 86 10000 5 350 12:39 04.05.2022
1654 Clear -4 1010 86 10000 1 0 11:40 04.05.2022
1655 Clear -4 1010 86 10000 6 350 10:27 04.05.2022
1656 Clear -3 1010 86 10000 6 340 09:21 04.05.2022
1657 Clear -2 1010 80 10000 5 350 07:59 04.05.2022
1658 Clear -3 1010 74 10000 5 340 05:34 04.05.2022
1659 Clear -4 1010 80 10000 6 340 02:37 04.05.2022
1660 Clear -6 1010 86 10000 5 350 23:20 03.05.2022
1661 Clouds -10 1009 92 8000 2 350 21:53 03.05.2022
1662 Clouds -10 1009 92 8000 2 350 21:31 03.05.2022
1663 Clouds -10 1009 92 7000 3 360 20:52 03.05.2022
1664 Fog -11 1009 92 10000 3 350 19:33 03.05.2022
1665 Mist -11 1009 92 4700 2 350 18:47 03.05.2022
1666 Fog -11 1008 85 10000 2 360 17:22 03.05.2022
1667 Clear -10 1008 92 10000 2 340 16:19 03.05.2022
1668 Clear -7 1007 86 10000 2 10 14:25 03.05.2022
1669 Clear -7 1006 93 10000 2 320 12:42 03.05.2022
1670 Clear -6 1007 93 10000 4 20 11:49 03.05.2022
1671 Clear -4 1006 86 10000 5 310 10:49 03.05.2022
1672 Clear -3 1006 86 10000 7 310 08:29 03.05.2022
1673 Clouds -2 1007 86 10000 7 310 06:45 03.05.2022
1674 Clouds -2 1007 74 10000 7 310 02:48 03.05.2022
1675 Clear -3 1008 80 10000 4 320 23:32 02.05.2022
1676 Clear -5 1009 80 10000 4 350 22:31 02.05.2022
1677 Clear -7 1009 86 10000 3 10 21:48 02.05.2022
1678 Clear -8 1009 86 10000 4 350 19:59 02.05.2022
1679 Clear -11 1010 92 10000 3 20 18:27 02.05.2022
1680 Clear -13 1010 92 10000 4 20 17:42 02.05.2022
1681 Clear -9 1010 86 10000 4 350 16:43 02.05.2022
1682 Clear -9 1011 92 10000 3 340 15:52 02.05.2022
1683 Clear -10 1011 92 10000 2 350 14:54 02.05.2022
1684 Clear -10 1011 85 10000 2 10 13:45 02.05.2022
1685 Clear -8 1012 86 10000 3 30 11:41 02.05.2022
1686 Clear -5 1012 80 10000 5 350 09:59 02.05.2022
1687 Clear -5 1012 80 10000 5 350 08:43 02.05.2022
1688 Clear -4 1012 74 10000 5 340 07:23 02.05.2022
1689 Clear -8 1014 79 10000 4 330 00:48 02.05.2022
1690 Clear -8 1014 79 10000 3 350 00:22 02.05.2022
1691 Clear -9 1014 78 10000 2 10 23:40 01.05.2022
1692 Clear -10 1014 85 10000 1 0 21:45 01.05.2022
1693 Clear -10 1014 92 10000 4 360 20:50 01.05.2022
1694 Clear -10 1014 85 10000 5 350 19:40 01.05.2022
1695 Clear -12 1014 85 10000 4 10 18:53 01.05.2022
1696 Clear -9 1014 86 10000 1 0 17:51 01.05.2022
1697 Clear -9 1015 86 10000 1 0 16:42 01.05.2022
1698 Clear -9 1015 86 10000 1 0 16:18 01.05.2022
1699 Clear -10 1016 92 10000 1 30 14:58 01.05.2022
1700 Clear -7 1016 86 10000 1 280 13:23 01.05.2022
1701 Clear -3 1016 80 10000 2 330 10:45 01.05.2022
1702 Clouds -3 1016 80 10000 3 320 08:50 01.05.2022
1703 Clouds -3 1016 74 10000 5 360 06:53 01.05.2022
1704 Clouds -2 1016 68 10000 9 10 02:51 01.05.2022
1705 Clouds -1 1016 63 10000 5 40 22:52 30.04.2022
1706 Clouds -3 1016 68 10000 8 40 21:34 30.04.2022
1707 Clouds -3 1015 68 10000 11 30 20:24 30.04.2022
1708 Clouds -4 1015 79 10000 9 20 19:33 30.04.2022
1709 Clouds -3 1014 86 10000 1 0 17:38 30.04.2022
1710 Clouds -2 1014 80 10000 2 290 16:30 30.04.2022
1711 Clouds -2 1014 80 10000 2 130 15:19 30.04.2022
1712 Snow -2 1014 86 10000 4 310 14:31 30.04.2022
1713 Clear 0 1013 86 10000 0 0 12:28 30.04.2022
1714 Clouds 1 1013 80 10000 1 0 11:32 30.04.2022
1715 Clouds 0 1013 86 10000 2 350 10:31 30.04.2022
1716 Clouds -1 1012 93 10000 6 360 08:34 30.04.2022
1717 Clear 1 1012 80 10000 6 340 05:19 30.04.2022
1718 Clouds -1 1012 86 10000 2 350 00:35 30.04.2022
1719 Clouds -1 1012 86 10000 3 10 23:29 29.04.2022
1720 Snow -3 1013 86 10000 3 10 22:29 29.04.2022
1721 Snow -2 1012 86 10000 3 360 21:26 29.04.2022
1722 Clouds -5 1012 92 10000 5 360 20:38 29.04.2022
1723 Clouds -4 1011 86 10000 4 330 19:36 29.04.2022
1724 Clouds -2 1011 80 10000 1 0 17:48 29.04.2022
1725 Clouds -1 1011 74 10000 3 90 16:43 29.04.2022
1726 Clear -2 1011 74 10000 3 40 14:50 29.04.2022
1727 Clear -2 1011 74 10000 3 40 14:19 29.04.2022
1728 Clear -1 1011 80 10000 3 340 12:41 29.04.2022
1729 Clear -1 1010 80 10000 1 0 10:58 29.04.2022
1730 Clear 0 1010 69 10000 1 0 08:18 29.04.2022
1731 Clear 0 1010 69 10000 1 0 07:27 29.04.2022
1732 Clear 0 1010 64 10000 1 10 06:35 29.04.2022
1733 Clear -2 1011 68 10000 3 220 03:28 29.04.2022
1734 Clear -1 1013 80 10000 2 60 00:18 29.04.2022
1735 Clear -3 1013 80 10000 1 0 23:26 28.04.2022
1736 Clear -4 1013 73 10000 1 0 22:40 28.04.2022
1737 Fog -4 1013 80 10000 1 340 21:46 28.04.2022
1738 Fog -5 1014 93 10000 2 270 20:51 28.04.2022
1739 Fog -5 1014 93 10000 2 270 20:22 28.04.2022
1740 Clear -3 1014 86 10000 0 0 19:40 28.04.2022
1741 Clear -3 1014 86 10000 0 0 19:21 28.04.2022
1742 Fog -4 1014 100 10000 4 350 18:23 28.04.2022
1743 Clouds -3 1015 93 10000 2 30 16:59 28.04.2022
1744 Clouds -3 1015 93 10000 2 30 16:21 28.04.2022
1745 Clouds -14 1016 100 1522 0.94 297 15:57 28.04.2022
1746 Clouds -13 1016 99 3133 0.84 243 15:27 28.04.2022
1747 Clouds -1 1017 100 10000 2 330 13:44 28.04.2022
1748 Clouds -1 1017 100 10000 1 320 12:38 28.04.2022
1749 Clouds 0 1017 86 10000 1 300 11:53 28.04.2022
1750 Clouds 0 1018 93 10000 2 340 10:37 28.04.2022
1751 Clouds 1 1018 80 10000 1 0 09:52 28.04.2022
1752 Clouds 0 1018 86 10000 1 10 08:20 28.04.2022
1753 Clouds 0 1018 80 10000 6 70 06:58 28.04.2022
1754 Clouds 0 1018 80 10000 5 30 05:55 28.04.2022
1755 Clouds 0 1019 86 10000 9 30 04:50 28.04.2022
1756 Clouds -1 1019 86 10000 9 50 04:31 28.04.2022
1757 Clouds -2 1020 86 10000 9 90 23:59 27.04.2022
1758 Clouds -2 1020 86 10000 10 80 22:34 27.04.2022
1759 Clouds -2 1020 86 10000 8 80 21:51 27.04.2022
1760 Snow -3 1020 92 10000 7 70 20:56 27.04.2022
1761 Snow -3 1020 92 10000 7 70 20:34 27.04.2022
1762 Snow -3 1020 92 10000 7 70 20:34 27.04.2022
1763 Clouds -3 1020 92 8000 7 70 19:37 27.04.2022
1764 Clouds -2 1020 86 10000 7 80 18:52 27.04.2022
1765 Clouds -2 1020 86 10000 7 80 18:22 27.04.2022
1766 Snow -3 1020 92 8000 8 80 16:27 27.04.2022
1767 Clouds -3 1020 92 9000 9 90 14:26 27.04.2022
1768 Mist -2 1020 92 2200 9 90 11:45 27.04.2022
1769 Mist -2 1020 92 2200 9 90 11:20 27.04.2022
1770 Clouds -2 1019 92 10000 9 100 08:58 27.04.2022
1771 Clouds -2 1018 92 9000 8 100 07:18 27.04.2022
1772 Mist -2 1018 100 1800 10 110 04:21 27.04.2022
1773 Snow -2 1018 100 2400 11 110 01:31 27.04.2022
1774 Snow -2 1017 92 2400 12 110 00:36 27.04.2022
1775 Snow -2 1017 92 2400 11 100 23:25 26.04.2022
1776 Snow -2 1017 92 2400 11 100 22:57 26.04.2022
1777 Snow -1 1017 92 2400 11 100 22:38 26.04.2022
1778 Snow -2 1016 92 900 13 100 21:26 26.04.2022
1779 Snow -2 1016 92 900 13 100 21:26 26.04.2022
1780 Snow -2 1016 92 900 13 100 21:26 26.04.2022
1781 Snow -2 1016 92 1000 13 100 20:41 26.04.2022
1782 Snow -2 1016 92 3300 12 100 19:49 26.04.2022
1783 Snow -2 1016 92 3300 12 100 19:30 26.04.2022
1784 Snow -2 1015 92 1300 12 90 18:44 26.04.2022
1785 Snow -3 1015 100 500 13 100 17:54 26.04.2022
1786 Snow -3 1015 92 600 13 100 16:28 26.04.2022
1787 Snow -3 988 92 300 15 90 13:59 26.04.2022
1788 Snow -3 988 92 300 15 90 13:32 26.04.2022
1789 Snow -3 988 92 300 15 100 11:49 26.04.2022
1790 Snow -3 1013 92 150 17 110 10:34 26.04.2022
1791 Snow -3 1013 92 3600 14 100 08:54 26.04.2022
1792 Clouds -2 1013 86 9000 14 90 06:57 26.04.2022
1793 Clouds -2 1013 80 10000 12 80 04:23 26.04.2022
1794 Clear -3 1015 74 10000 10 90 01:22 26.04.2022
1795 Clear -4 1015 73 10000 9 90 00:25 26.04.2022
1796 Clear -4 1014 68 10000 11 90 22:21 25.04.2022
1797 Clear -4 1014 73 10000 11 90 21:39 25.04.2022
1798 Clear -5 1014 79 10000 10 90 20:35 25.04.2022
1799 Clear -5 1014 73 10000 11 90 18:54 25.04.2022
1800 Clear -4 1015 80 10000 10 90 17:52 25.04.2022
1801 Clear -4 1015 74 10000 9 100 16:54 25.04.2022
1802 Clear -3 1015 68 10000 8 90 15:29 25.04.2022
1803 Clear -3 1015 74 10000 8 90 14:38 25.04.2022
1804 Clear -4 1016 73 10000 8 80 13:32 25.04.2022
1805 Clouds -5 1016 92 7000 8 90 11:37 25.04.2022
1806 Clouds -3 1016 86 10000 7 120 10:23 25.04.2022
1807 Clouds -2 1016 80 10000 7 90 08:35 25.04.2022
1808 Clear -1 1016 64 10000 7 90 06:38 25.04.2022
1809 Clear 0 1017 59 10000 4 90 03:44 25.04.2022
1810 Clear -4 1018 74 10000 0 0 00:33 25.04.2022
1811 Clear -6 1018 79 10000 1 0 23:51 24.04.2022
1812 Clear -6 1017 85 10000 1 0 22:41 24.04.2022
1813 Clear -5 1017 80 10000 1 0 22:18 24.04.2022
1814 Clear -6 1017 79 10000 0 0 21:24 24.04.2022
1815 Clear -7 1017 86 10000 0 0 20:48 24.04.2022
1816 Clear -7 1017 86 10000 0 0 20:22 24.04.2022
1817 Clear -10 1016 85 10000 1 90 19:19 24.04.2022
1818 Clear -10 1016 85 10000 1 70 18:20 24.04.2022
1819 Clear -9 1016 86 10000 2 70 17:27 24.04.2022
1820 Clear -8 1016 86 10000 3 70 16:58 24.04.2022
1821 Clear -8 1016 86 10000 3 70 16:32 24.04.2022
1822 Clear -10 1015 85 10000 3 60 15:53 24.04.2022
1823 Clear -8 1015 93 10000 3 60 14:57 24.04.2022
1824 Clear -7 1015 86 10000 3 60 13:51 24.04.2022
1825 Clear -7 1015 86 10000 3 60 13:23 24.04.2022
1826 Clouds -5 1014 80 10000 2 60 11:56 24.04.2022
1827 Clouds -5 1014 80 10000 2 60 11:27 24.04.2022
1828 Clouds -3 1013 80 10000 2 340 09:55 24.04.2022
1829 Clouds -2 1013 69 10000 3 10 08:51 24.04.2022
1830 Clear -3 1012 74 10000 3 360 06:18 24.04.2022
1831 Clear -3 1011 68 10000 2 350 03:37 24.04.2022
1832 Clouds -4 1011 79 10000 2 340 01:18 24.04.2022
1833 Clouds -5 1010 79 10000 2 350 23:55 23.04.2022
1834 Clouds -5 1010 79 10000 2 350 23:25 23.04.2022
1835 Clouds -5 1010 79 10000 2 350 22:46 23.04.2022
1836 Clouds -5 1009 85 10000 1 350 21:49 23.04.2022
1837 Clouds -5 1009 85 10000 1 350 21:31 23.04.2022
1838 Clouds -5 1009 92 10000 3 330 20:27 23.04.2022
1839 Snow -3 1009 93 10000 2 330 19:41 23.04.2022
1840 Snow -3 1009 93 10000 2 330 19:18 23.04.2022
1841 Snow -3 1008 100 10000 3 320 18:46 23.04.2022
1842 Snow -2 1008 93 10000 3 320 17:48 23.04.2022
1843 Snow -2 1008 93 10000 3 300 16:47 23.04.2022
1844 Snow -2 1008 93 10000 0 0 15:54 23.04.2022
1845 Snow -2 1007 93 10000 1 100 14:27 23.04.2022
1846 Snow -2 1007 93 10000 1 0 11:59 23.04.2022
1847 Snow -2 1007 93 10000 1 230 10:40 23.04.2022
1848 Clouds -2 1006 86 10000 1 280 08:30 23.04.2022
1849 Clouds -2 1006 86 10000 1 260 05:27 23.04.2022
1850 Clouds -1 1006 80 10000 1 0 03:32 23.04.2022
1851 Clouds -3 1006 86 10000 2 10 00:18 23.04.2022
1852 Snow -1 1006 86 10000 0 0 23:25 22.04.2022
1853 Clear -4 1005 92 10000 1 20 21:59 22.04.2022
1854 Clear -4 1005 92 10000 1 20 21:40 22.04.2022
1855 Clear -5 1005 100 10000 2 20 20:37 22.04.2022
1856 Clear -4 1005 93 10000 2 10 19:39 22.04.2022
1857 Clear -4 1005 93 10000 2 10 19:18 22.04.2022
1858 Clear -4 1005 100 10000 2 340 18:28 22.04.2022
1859 Clear -4 1005 100 10000 2 350 17:24 22.04.2022
1860 Clear -3 1005 93 10000 2 20 15:59 22.04.2022
1861 Clear -3 1005 93 10000 2 20 15:30 22.04.2022
1862 Snow -3 1005 93 10000 2 40 14:38 22.04.2022
1863 Snow -3 1005 93 10000 2 40 14:38 22.04.2022
1864 Snow -4 1006 92 10000 2 20 13:42 22.04.2022
1865 Clear -4 1005 100 10000 1 350 12:48 22.04.2022
1866 Clear -2 1005 93 10000 2 360 11:23 22.04.2022
1867 Clear -2 1005 93 10000 2 330 10:57 22.04.2022
1868 Clear -2 1005 93 10000 2 330 10:34 22.04.2022
1869 Clouds -3 1005 92 10000 2 330 09:59 22.04.2022
1870 Clouds -3 1005 92 10000 2 330 09:30 22.04.2022
1871 Snow -3 1004 92 10000 3 330 08:49 22.04.2022
1872 Snow -2 1004 86 10000 3 350 06:54 22.04.2022
1873 Snow -2 1005 86 10000 2 280 01:34 22.04.2022
1874 Snow -3 1005 92 10000 1 360 23:35 21.04.2022
1875 Snow -3 1005 92 10000 2 360 22:47 21.04.2022
1876 Snow -3 1005 92 10000 1 30 21:42 21.04.2022
1877 Snow -3 1005 92 10000 1 160 20:32 21.04.2022
1878 Clouds -3 1005 92 10000 1 80 19:24 21.04.2022
1879 Clouds -3 1005 92 10000 1 360 18:32 21.04.2022
1880 Snow -3 1005 92 10000 1 240 17:20 21.04.2022
1881 Clouds -3 1005 92 10000 2 340 16:21 21.04.2022
1882 Clouds 0 1005 80 10000 2 80 15:19 21.04.2022
1883 Clouds -2 1006 86 10000 1 0 14:29 21.04.2022
1884 Snow -2 1006 86 10000 5 90 13:22 21.04.2022
1885 Snow -2 1006 86 10000 2 30 12:29 21.04.2022
1886 Snow -2 1006 86 10000 2 70 09:58 21.04.2022
1887 Snow -1 1006 80 10000 2 240 08:47 21.04.2022
1888 Snow -1 1006 74 10000 3 70 06:44 21.04.2022
1889 Clouds -1 1007 69 10000 4 150 04:21 21.04.2022
1890 Snow -1 1007 74 10000 5 50 03:22 21.04.2022
1891 Snow -1 1007 74 10000 5 80 02:44 21.04.2022
1892 Snow -1 1007 74 10000 5 80 02:44 21.04.2022
1893 Clouds -1 1007 74 10000 5 90 00:35 21.04.2022
1894 Snow 0 1007 80 10000 6 90 23:40 20.04.2022
1895 Snow -1 1007 80 10000 6 90 23:18 20.04.2022
1896 Clouds -1 1007 80 10000 6 100 22:36 20.04.2022
1897 Snow -1 1007 80 10000 6 100 21:47 20.04.2022
1898 Snow -2 1007 86 10000 3 80 20:45 20.04.2022
1899 Snow -1 1007 86 10000 3 80 20:21 20.04.2022
1900 Snow -2 1008 86 10000 2 90 19:46 20.04.2022
1901 Snow -2 1008 86 10000 4 70 18:48 20.04.2022
1902 Snow -2 1008 86 10000 4 90 17:50 20.04.2022
1903 Snow -2 1008 80 10000 4 70 16:39 20.04.2022
1904 Snow -2 1008 86 10000 4 60 15:26 20.04.2022
1905 Clear -1 1009 80 10000 4 40 12:46 20.04.2022
1906 Snow 0 1009 74 10000 4 20 11:42 20.04.2022
1907 Clear -1 1009 74 10000 4 80 10:44 20.04.2022
1908 Clouds -1 1009 80 10000 5 50 09:31 20.04.2022
1909 Clouds 0 1009 80 10000 4 80 08:40 20.04.2022
1910 Snow 0 1009 80 10000 4 80 08:18 20.04.2022
1911 Clouds 0 1009 80 10000 3 70 06:23 20.04.2022
1912 Snow 0 1008 80 6000 11 110 02:34 20.04.2022
1913 Snow 0 1007 86 7000 10 110 00:22 20.04.2022
1914 Snow -1 1007 93 6000 10 110 22:59 19.04.2022
1915 Snow -1 1007 93 6000 10 110 22:59 19.04.2022
1916 Snow -1 1007 86 9000 10 110 22:23 19.04.2022
1917 Snow -1 1008 86 9000 7 100 21:53 19.04.2022
1918 Snow -1 1007 86 7000 8 100 20:59 19.04.2022
1919 Snow -1 1007 86 7000 8 100 20:37 19.04.2022
1920 Snow -2 1007 92 9000 7 100 19:41 19.04.2022
1921 Snow -2 1007 92 5000 9 100 18:31 19.04.2022
1922 Snow -1 1006 86 5000 9 110 16:55 19.04.2022
1923 Snow -1 1006 86 5000 9 110 16:33 19.04.2022
1924 Snow -1 1006 93 4000 9 110 15:59 19.04.2022
1925 Snow -1 1005 93 3800 8 100 14:46 19.04.2022
1926 Snow -1 1005 93 3800 8 100 14:46 19.04.2022
1927 Snow -1 1005 93 3800 6 90 12:58 19.04.2022
1928 Snow -1 1005 93 3800 6 90 12:36 19.04.2022
1929 Snow -1 1005 93 3100 8 100 11:38 19.04.2022
1930 Snow -1 1003 93 3600 9 100 09:52 19.04.2022
1931 Snow -1 1003 93 2700 9 100 08:22 19.04.2022
1932 Snow 0 1002 86 8000 7 100 04:26 19.04.2022
1933 Snow 0 1002 92 3400 8 110 02:41 19.04.2022
1934 Snow -1 1002 93 1700 6 90 00:23 19.04.2022
1935 Snow -1 1002 86 8000 5 90 22:54 18.04.2022
1936 Snow -2 1003 92 4900 4 80 21:28 18.04.2022
1937 Snow -2 1003 92 5000 5 90 20:46 18.04.2022
1938 Snow -1 1003 92 5000 5 90 20:25 18.04.2022
1939 Snow -1 1003 86 7000 6 100 19:41 18.04.2022
1940 Snow -1 1003 93 4100 6 100 18:52 18.04.2022
1941 Snow -1 1003 93 6000 6 110 17:49 18.04.2022
1942 Snow -1 1003 93 6000 6 110 17:20 18.04.2022
1943 Snow -1 1003 93 5000 7 110 16:40 18.04.2022
1944 Snow -1 1003 93 9000 6 110 15:43 18.04.2022
1945 Snow -2 1003 100 9000 6 110 14:28 18.04.2022
1946 Snow -1 1003 93 5000 7 120 13:31 18.04.2022
1947 Snow 0 1003 86 7000 7 120 12:28 18.04.2022
1948 Snow -1 1002 93 9000 9 120 11:20 18.04.2022
1949 Snow -1 1002 93 9000 7 110 10:28 18.04.2022
1950 Snow -1 1001 93 3400 7 110 09:30 18.04.2022
1951 Snow -1 1001 93 8000 7 110 07:34 18.04.2022
1952 Snow -1 1001 86 8000 8 90 03:57 18.04.2022
1953 Snow 0 1002 86 5000 11 80 23:41 17.04.2022
1954 Snow -1 1003 92 4200 10 80 22:40 17.04.2022
1955 Clouds -1 1003 80 10000 11 80 21:42 17.04.2022
1956 Clouds -1 1003 80 10000 11 80 21:21 17.04.2022
1957 Snow 0 1004 80 10000 10 80 20:32 17.04.2022
1958 Snow 0 1004 86 3500 11 90 19:21 17.04.2022
1959 Snow -1 1006 93 6000 8 80 17:38 17.04.2022
1960 Snow -1 1007 86 4000 10 90 15:38 17.04.2022
1961 Snow -1 1008 86 2900 11 90 14:53 17.04.2022
1962 Snow -1 1009 86 2200 10 90 13:44 17.04.2022
1963 Snow -1 1009 86 9000 12 80 12:56 17.04.2022
1964 Clear 0 1009 80 10000 8 80 11:24 17.04.2022
1965 Clouds 0 1010 80 10000 8 80 10:40 17.04.2022
1966 Clouds 0 1010 80 10000 8 80 10:19 17.04.2022
1967 Clouds 1 1010 75 10000 8 80 09:23 17.04.2022
1968 Clouds -1 1009 86 10000 10 90 08:41 17.04.2022
1969 Clouds 0 1010 74 10000 8 100 06:53 17.04.2022
1970 Clouds -1 1011 80 10000 6 70 03:20 17.04.2022
1971 Clouds 1 1011 75 10000 6 80 00:55 17.04.2022
1972 Snow 0 1011 80 9000 5 50 23:50 16.04.2022
1973 Snow -1 1011 80 10000 3 10 22:27 16.04.2022
1974 Snow -1 1010 74 10000 3 360 21:29 16.04.2022
1975 Clear 0 1009 69 10000 7 100 19:54 16.04.2022
1976 Clear -1 1009 80 10000 4 60 18:54 16.04.2022
1977 Clear 1 1009 69 10000 7 80 17:40 16.04.2022
1978 Clouds 0 1008 74 10000 6 70 16:32 16.04.2022
1979 Clouds 0 1008 74 10000 8 80 15:40 16.04.2022
1980 Clouds -1 1007 80 10000 8 80 14:51 16.04.2022
1981 Clouds -1 1006 80 10000 10 80 13:57 16.04.2022
1982 Clouds -1 1006 80 10000 10 80 13:26 16.04.2022
1983 Clear -1 1006 80 10000 11 80 12:18 16.04.2022
1984 Clear -1 1005 80 10000 10 80 10:42 16.04.2022
1985 Clear -2 1004 80 10000 11 80 09:41 16.04.2022
1986 Clear 0 1004 74 10000 9 80 08:56 16.04.2022
1987 Clear -1 1003 80 10000 11 80 07:32 16.04.2022
1988 Clear -1 1003 80 10000 10 80 06:46 16.04.2022
1989 Snow 0 1002 74 10000 10 40 01:59 16.04.2022
1990 Clear 1 1002 69 10000 8 60 00:21 16.04.2022
1991 Clear 0 1001 69 10000 16 30 22:54 15.04.2022
1992 Clear 0 1001 69 10000 16 30 22:31 15.04.2022
1993 Clear -1 1001 74 10000 15 20 21:44 15.04.2022
1994 Clouds 0 1002 74 10000 12 40 20:56 15.04.2022
1995 Clouds -2 1003 86 10000 16 20 19:59 15.04.2022
1996 Clouds -2 1003 86 10000 16 20 19:38 15.04.2022
1997 Clouds 0 1003 80 10000 13 40 18:46 15.04.2022
1998 Clouds 0 1003 80 10000 13 40 18:24 15.04.2022
1999 Clouds 0 1004 80 10000 15 30 17:30 15.04.2022
2000 Clouds 0 1004 86 10000 15 30 16:26 15.04.2022
2001 Clear 1 1005 80 10000 5 20 15:59 15.04.2022
2002 Clear 0 1006 86 10000 5 10 14:30 15.04.2022
2003 Clouds 0 1007 80 10000 2 70 13:23 15.04.2022
2004 Clouds -1 1007 86 10000 4 10 12:40 15.04.2022
2005 Clouds 0 1007 80 10000 5 50 11:54 15.04.2022
2006 Clear 0 1007 80 10000 9 80 10:49 15.04.2022
2007 Clear 0 1007 80 10000 9 80 10:22 15.04.2022
2008 Clear 0 1007 80 10000 10 80 09:24 15.04.2022
2009 Clouds 0 1007 86 10000 11 90 08:57 15.04.2022
2010 Clouds 1 1007 74 10000 9 80 06:56 15.04.2022
2011 Clouds 1 1008 80 10000 7 80 05:56 15.04.2022
2012 Snow -1 1008 93 3000 10 90 01:49 15.04.2022
2013 Snow -1 1007 93 3500 11 100 23:30 14.04.2022
2014 Snow -1 1007 93 1600 10 90 22:47 14.04.2022
2015 Snow -2 1007 92 2300 11 100 22:28 14.04.2022
2016 Snow 0 1007 86 1100 11 90 21:54 14.04.2022
2017 Snow -1 1007 92 2200 10 100 20:35 14.04.2022
2018 Snow -1 1007 93 1600 9 100 19:22 14.04.2022
2019 Snow -1 1007 93 2600 9 100 18:18 14.04.2022
2020 Snow -2 1006 100 1200 10 100 17:28 14.04.2022
2021 Snow -1 1005 92 1200 11 100 16:33 14.04.2022
2022 Snow -3 1002 92 700 12 90 14:23 14.04.2022
2023 Snow -3 1002 92 450 13 90 13:39 14.04.2022
2024 Clouds -3 1005 92 550 15 90 12:51 14.04.2022
2025 Clouds -3 1005 92 550 15 90 12:30 14.04.2022
2026 Snow -3 1005 86 300 15 90 11:23 14.04.2022
2027 Snow -3 1005 92 350 13 90 10:36 14.04.2022
2028 Clouds -4 1006 92 650 12 80 09:56 14.04.2022
2029 Snow -3 1006 86 700 13 90 08:40 14.04.2022
2030 Snow -3 1001 86 400 14 90 06:50 14.04.2022
2031 Clouds -3 1010 86 750 13 80 02:53 14.04.2022
2032 Snow -4 1012 86 1600 11 80 22:56 13.04.2022
2033 Clouds -4 1015 86 10000 6 20 21:44 13.04.2022
2034 Snow -3 1015 86 10000 8 40 20:55 13.04.2022
2035 Snow -3 1015 86 10000 8 40 20:22 13.04.2022
2036 Snow -3 1015 86 1600 10 80 19:24 13.04.2022
2037 Snow -3 1015 93 2400 10 80 18:19 13.04.2022
2038 Snow -2 1016 86 4500 9 70 17:23 13.04.2022
2039 Snow -2 1017 86 9000 10 70 16:33 13.04.2022
2040 Snow -3 1018 86 10000 11 80 15:35 13.04.2022
2041 Snow -3 1019 86 7000 11 80 14:50 13.04.2022
2042 Snow -3 1019 86 7000 11 80 14:18 13.04.2022
2043 Snow -3 1019 86 3400 12 80 13:19 13.04.2022
2044 Snow -4 1020 93 1400 12 70 12:25 13.04.2022
2045 Clouds -2 1020 86 10000 8 70 10:47 13.04.2022
2046 Snow -4 1021 86 8000 8 30 08:58 13.04.2022
2047 Snow -4 1021 86 8000 8 30 08:33 13.04.2022
2048 Snow -2 1022 80 9000 9 60 06:51 13.04.2022
2049 Snow -2 1022 80 10000 9 60 06:25 13.04.2022
2050 Snow -3 1022 80 10000 10 60 04:55 13.04.2022
2051 Snow -4 1024 74 8000 10 70 00:21 13.04.2022
2052 Snow -3 1024 74 8000 11 60 23:29 12.04.2022
2053 Snow -4 1023 80 1700 12 60 21:58 12.04.2022
2054 Snow -4 1023 80 3500 11 60 20:57 12.04.2022
2055 Snow -4 1023 80 3500 11 60 20:38 12.04.2022
2056 Snow -4 1024 86 2700 11 60 19:48 12.04.2022
2057 Snow -4 1024 86 2700 11 60 19:29 12.04.2022
2058 Snow -4 1024 80 9000 9 70 17:59 12.04.2022
2059 Snow -4 1024 80 9000 9 70 17:23 12.04.2022
2060 Snow -6 1024 86 10000 6 10 16:22 12.04.2022
2061 Snow -6 1025 86 9000 6 20 15:29 12.04.2022
2062 Snow -4 1025 80 10000 8 360 14:21 12.04.2022
2063 Clouds -15 1027 90 10000 4.62 36 13:29 12.04.2022
2064 Clouds -15 1027 90 10000 4.62 36 12:49 12.04.2022
2065 Clouds -5 1025 80 10000 5 340 11:46 12.04.2022
2066 Clouds -5 1025 80 10000 5 350 10:35 12.04.2022
2067 Clouds -5 1025 80 10000 7 360 09:18 12.04.2022
2068 Clouds -6 1025 85 10000 4 360 07:55 12.04.2022
2069 Clouds -4 1023 79 3800 11 90 05:50 12.04.2022
2070 Clouds -4 1025 86 10000 3 350 04:55 12.04.2022
2071 Snow -7 1026 93 10000 5 350 23:53 11.04.2022
2072 Snow -8 1026 93 10000 5 350 22:44 11.04.2022
2073 Mist -9 1026 92 10000 4 340 21:37 11.04.2022
2074 Clouds -10 1027 85 7000 3 330 20:56 11.04.2022
2075 Clouds -10 1027 85 7000 3 330 20:29 11.04.2022
2076 Clouds -11 1027 92 9000 4 10 19:42 11.04.2022
2077 Clouds -11 1027 92 9000 4 10 19:18 11.04.2022
2078 Clouds -11 1027 92 10000 4 360 18:41 11.04.2022
2079 Clouds -11 1027 92 10000 4 340 17:56 11.04.2022
2080 Clouds -11 1027 92 10000 6 320 16:54 11.04.2022
2081 Clouds -10 1028 92 10000 5 350 15:54 11.04.2022
2082 Snow -9 1028 92 9000 5 320 13:59 11.04.2022
2083 Snow -8 1028 93 7000 4 320 12:47 11.04.2022
2084 Snow -8 1028 93 7000 4 320 12:29 11.04.2022
2085 Mist -9 1028 92 2600 5 310 11:31 11.04.2022
2086 Snow -8 1028 92 4900 4 310 10:24 11.04.2022
2087 Snow -7 1027 92 6000 4 340 08:56 11.04.2022
2088 Mist -6 1027 93 1800 5 340 06:21 11.04.2022
2089 Clouds -6 1027 86 10000 1 0 01:23 11.04.2022
2090 Clear -7 1026 86 10000 1 0 22:34 10.04.2022
2091 Clear -7 1025 93 10000 0 0 21:55 10.04.2022
2092 Clear -8 1025 92 10000 0 0 21:28 10.04.2022
2093 Clear -8 1024 93 10000 2 350 20:30 10.04.2022
2094 Clear -8 1024 85 10000 2 340 19:41 10.04.2022
2095 Clear -8 1024 85 10000 2 340 19:18 10.04.2022
2096 Clouds -8 1023 92 10000 3 340 18:38 10.04.2022
2097 Clouds -7 1023 85 10000 2 350 17:52 10.04.2022
2098 Clouds -7 1023 85 10000 2 350 17:32 10.04.2022
2099 Clouds -1 1022 80 10000 5 160 15:56 10.04.2022
2100 Clouds -1 1022 86 10000 6 160 14:51 10.04.2022
2101 Clouds -2 1021 86 10000 6 160 13:49 10.04.2022
2102 Clouds -1 1021 80 10000 8 170 12:33 10.04.2022
2103 Clouds -1 1020 80 10000 9 170 11:45 10.04.2022
2104 Clouds -1 1020 80 10000 9 170 11:24 10.04.2022
2105 Clouds -1 1019 80 10000 8 170 10:41 10.04.2022
2106 Clouds -1 1018 86 10000 7 150 09:49 10.04.2022
2107 Clouds 0 1017 80 10000 7 160 08:55 10.04.2022
2108 Clouds 0 1017 80 10000 7 160 08:20 10.04.2022
2109 Clouds 0 1016 80 10000 9 160 06:59 10.04.2022
2110 Clouds 0 1015 74 10000 12 150 04:36 10.04.2022
2111 Clouds 0 1014 74 10000 9 140 02:19 10.04.2022
2112 Clouds -3 1014 80 10000 7 160 23:54 09.04.2022
2113 Clouds -3 1014 80 10000 7 160 23:25 09.04.2022
2114 Snow -6 1014 86 9000 2 290 22:39 09.04.2022
2115 Snow -14 1015 92 4500 3 310 21:28 09.04.2022
2116 Snow -13 1015 92 4700 2 320 20:31 09.04.2022
2117 Snow -16 1016 84 10000 4 360 19:57 09.04.2022
2118 Snow -16 1016 84 10000 4 360 19:39 09.04.2022
2119 Snow -15 1016 84 10000 3 340 18:24 09.04.2022
2120 Snow -17 1016 84 3700 1 0 17:50 09.04.2022
2121 Snow -17 1016 77 10000 1 0 16:59 09.04.2022
2122 Snow -17 1016 77 10000 1 0 16:40 09.04.2022
2123 Snow -16 1016 77 8000 3 350 15:50 09.04.2022
2124 Snow -16 1016 77 8000 3 350 15:26 09.04.2022
2125 Clouds -16 1017 78 10000 3 360 14:26 09.04.2022
2126 Clouds -15 1016 78 10000 3 360 13:33 09.04.2022
2127 Snow -14 1016 78 10000 3 360 12:56 09.04.2022
2128 Clouds -12 1016 79 10000 2 30 11:50 09.04.2022
2129 Clouds -14 1016 78 10000 2 60 10:52 09.04.2022
2130 Clouds -14 1016 78 10000 2 60 10:18 09.04.2022
2131 Clouds -17 1016 84 10000 3 340 09:23 09.04.2022
2132 Clouds -14 1015 78 10000 1 0 08:26 09.04.2022
2133 Clouds -11 1015 67 10000 3 120 04:38 09.04.2022
2134 Clear -13 1015 61 10000 1 0 00:35 09.04.2022
2135 Clear -18 1015 71 10000 2 320 23:23 08.04.2022
2136 Clear -18 1015 71 10000 1 0 21:53 08.04.2022
2137 Clear -21 1015 71 10000 1 0 20:44 08.04.2022
2138 Clear -23 1015 84 10000 2 310 19:50 08.04.2022
2139 Clear -22 1015 77 10000 2 300 18:56 08.04.2022
2140 Clear -22 1015 77 10000 2 300 18:22 08.04.2022
2141 Clear -22 1015 77 10000 1 0 17:29 08.04.2022
2142 Clear -23 1014 70 10000 2 40 16:58 08.04.2022
2143 Clear -23 1014 70 10000 2 40 16:27 08.04.2022
2144 Clear -22 1015 77 10000 0 0 15:36 08.04.2022
2145 Clear -21 1015 77 10000 2 150 14:52 08.04.2022
2146 Clear -21 1015 77 10000 2 150 14:20 08.04.2022
2147 Clear -21 1015 77 10000 1 120 13:31 08.04.2022
2148 Clear -18 1015 78 10000 2 160 12:55 08.04.2022
2149 Clear -17 1014 78 10000 2 150 11:35 08.04.2022
2150 Clear -18 1014 71 10000 0 0 09:59 08.04.2022
2151 Clear -18 1014 71 10000 0 0 09:19 08.04.2022
2152 Clear -15 1014 66 10000 1 360 07:44 08.04.2022
2153 Clear -16 1015 71 10000 1 0 06:45 08.04.2022
2154 Clear -17 1015 71 10000 5 300 02:55 08.04.2022
2155 Clear -18 1016 71 10000 6 320 00:31 08.04.2022
2156 Clear -19 1016 77 10000 5 310 23:47 07.04.2022
2157 Clear -20 1016 76 10000 5 310 22:55 07.04.2022
2158 Clear -20 1016 71 10000 3 310 22:36 07.04.2022
2159 Clear -20 1016 71 10000 3 310 22:18 07.04.2022
2160 Clear -21 1016 77 10000 5 10 21:30 07.04.2022
2161 Clear -21 1016 84 10000 7 310 20:55 07.04.2022
2162 Clear -21 1016 84 10000 7 310 20:21 07.04.2022
2163 Clear -20 1016 77 10000 6 320 17:43 07.04.2022
2164 Clear -20 1016 77 10000 6 320 17:23 07.04.2022
2165 Clear -19 1017 78 10000 3 360 16:35 07.04.2022
2166 Clouds -20 1017 84 10000 5 310 15:52 07.04.2022
2167 Clear -19 1018 84 10000 6 290 13:59 07.04.2022
2168 Clear -19 1018 84 10000 6 290 13:26 07.04.2022
2169 Clear -18 1018 78 10000 7 290 11:54 07.04.2022
2170 Clear -18 1018 85 10000 6 300 10:56 07.04.2022
2171 Clear -18 1018 85 10000 7 300 09:34 07.04.2022
2172 Clouds -17 1018 78 10000 6 290 08:27 07.04.2022
2173 Clouds -17 1019 71 10000 8 300 06:18 07.04.2022
2174 Clear -18 1019 71 10000 7 310 02:38 07.04.2022
2175 Clouds -18 1019 71 10000 8 300 00:47 07.04.2022
2176 Clear -21 1019 70 10000 6 310 23:53 06.04.2022
2177 Clear -22 1019 76 10000 6 310 22:45 06.04.2022
2178 Clear -21 1019 65 10000 3 320 22:24 06.04.2022
2179 Clear -24 1019 77 10000 2 40 21:18 06.04.2022
2180 Clouds -24 1019 77 10000 2 330 20:27 06.04.2022
2181 Clouds -23 1019 70 10000 2 350 19:52 06.04.2022
2182 Clear -23 1019 77 10000 3 340 18:50 06.04.2022
2183 Clear -24 1018 77 10000 3 330 17:52 06.04.2022
2184 Clear -24 1018 77 10000 3 330 17:28 06.04.2022
2185 Clear -22 1018 77 10000 3 340 16:35 06.04.2022
2186 Clear -21 1018 77 10000 5 10 15:47 06.04.2022
2187 Clouds -19 1016 78 10000 8 310 14:20 06.04.2022
2188 Clear -18 1016 71 10000 6 320 12:58 06.04.2022
2189 Clear -20 1015 84 10000 4 310 11:54 06.04.2022
2190 Clouds -18 1015 85 10000 7 290 10:43 06.04.2022
2191 Clouds -18 1015 85 10000 7 290 10:19 06.04.2022
2192 Clouds -18 1015 85 10000 7 300 09:27 06.04.2022
2193 Clouds -18 1014 84 10000 10 290 08:30 06.04.2022
2194 Clouds -16 1014 78 9000 12 290 07:38 06.04.2022
2195 Clear -18 1016 71 10000 3 340 02:57 06.04.2022
2196 Clear -21 1017 70 10000 3 10 23:51 05.04.2022
2197 Clear -21 1018 71 10000 4 10 22:28 05.04.2022
2198 Clear -22 1018 71 10000 5 30 21:18 05.04.2022
2199 Clear -24 1018 77 10000 6 30 20:25 05.04.2022
2200 Clear -25 1018 77 10000 5 30 19:26 05.04.2022
2201 Clear -25 1019 77 10000 5 20 17:52 05.04.2022
2202 Clear -25 1018 84 10000 4 20 16:51 05.04.2022
2203 Clear -25 1019 84 10000 4 40 15:53 05.04.2022
2204 Clear -25 1019 84 10000 4 40 15:33 05.04.2022
2205 Clear -24 1018 77 10000 5 30 14:22 05.04.2022
2206 Clear -22 1018 77 10000 5 20 12:56 05.04.2022
2207 Clear -21 1018 77 10000 4 30 11:50 05.04.2022
2208 Clear -21 1018 77 10000 4 30 11:32 05.04.2022
2209 Clear -20 1017 77 10000 4 10 09:52 05.04.2022
2210 Clear -17 1017 71 10000 5 350 08:52 05.04.2022
2211 Clear -16 1015 71 10000 5 330 06:52 05.04.2022
2212 Clouds -21 1013 70 10000 9 350 01:51 05.04.2022
2213 Clouds -21 1012 71 10000 8 340 22:42 04.04.2022
2214 Clouds -21 1012 71 10000 8 340 22:22 04.04.2022
2215 Clouds -23 1012 77 10000 7 10 21:21 04.04.2022
2216 Clouds -23 1012 77 10000 7 10 21:21 04.04.2022
2217 Clear -25 1012 77 10000 6 360 20:49 04.04.2022
2218 Clear -25 1011 77 10000 6 340 19:45 04.04.2022
2219 Clear -25 1011 77 10000 6 340 19:25 04.04.2022
2220 Clear -24 1011 77 10000 4 360 18:33 04.04.2022
2221 Clouds -23 1010 77 10000 3 340 16:36 04.04.2022
2222 Clouds -21 1010 77 10000 2 330 15:43 04.04.2022
2223 Clouds -21 1010 77 10000 2 330 15:25 04.04.2022
2224 Clouds -22 1009 77 10000 3 350 14:46 04.04.2022
2225 Clouds -19 1009 78 10000 2 270 13:30 04.04.2022
2226 Clouds -19 1008 78 10000 1 0 11:55 04.04.2022
2227 Clouds -19 1008 78 10000 1 0 11:29 04.04.2022
2228 Clear -15 1006 72 10000 1 360 08:54 04.04.2022
2229 Clear -17 1006 71 10000 4 360 04:45 04.04.2022
2230 Clear -19 1006 70 10000 5 10 01:28 04.04.2022
2231 Clear -22 1006 76 10000 3.58 350 22:43 03.04.2022
2232 Clear -23 1006 77 10000 2 30 21:46 03.04.2022
2233 Clear -23 1006 77 10000 4 330 20:56 03.04.2022
2234 Clear -22 1005 77 10000 2 310 19:51 03.04.2022
2235 Clear -21 1005 77 10000 6 360 18:33 03.04.2022
2236 Clouds -19 1004 71 10000 9 20 17:47 03.04.2022
2237 Clouds -18 1004 71 10000 10 10 16:59 03.04.2022
2238 Clouds -18 1004 71 10000 10 10 16:41 03.04.2022
2239 Clear -17 1004 66 10000 3 110 14:52 03.04.2022
2240 Clear -17 1004 66 10000 3 210 13:55 03.04.2022
2241 Clear -17 1003 66 10000 2 100 12:46 03.04.2022
2242 Clear -17 1003 71 10000 1 0 11:29 03.04.2022
2243 Clear -15 1003 72 10000 1 0 09:38 03.04.2022
2244 Clear -13 1002 66 10000 4 260 08:40 03.04.2022
2245 Clouds -11 1002 66 10000 1 250 05:42 03.04.2022
2246 Clear -11 1003 78 10000 3 260 02:53 03.04.2022
2247 Snow -9 1003 79 10000 3 170 23:22 02.04.2022
2248 Snow -9 1002 86 9000 0 0 22:38 02.04.2022
2249 Snow -9 1003 86 10000 0 0 21:49 02.04.2022
2250 Snow -9 1003 86 10000 0 0 21:19 02.04.2022
2251 Snow -10 1003 92 9000 0 0 20:29 02.04.2022
2252 Snow -9 1003 86 5000 2 340 18:27 02.04.2022
2253 Snow -9 1003 86 10000 1 280 17:53 02.04.2022
2254 Snow -9 1003 86 2000 1 200 16:30 02.04.2022
2255 Snow -8 1003 79 10000 1 310 15:23 02.04.2022
2256 Snow -8 1004 79 10000 1 50 14:51 02.04.2022
2257 Snow -8 1004 79 10000 2 340 13:56 02.04.2022
2258 Snow -9 1004 78 10000 2 340 13:19 02.04.2022
2259 Snow -9 1004 78 10000 3 280 11:39 02.04.2022
2260 Clouds -9 1004 85 10000 3 200 09:31 02.04.2022
2261 Clouds -8 1004 85 10000 4 240 06:58 02.04.2022
2262 Clouds -6 1004 85 10000 4 280 03:55 02.04.2022
2263 Clouds -5 1004 85 10000 3 250 00:25 02.04.2022
2264 Snow -6 1005 85 10000 5 290 23:45 01.04.2022
2265 Snow -3 1004 68 10000 3 80 22:24 01.04.2022
2266 Snow -2 1004 74 10000 4 300 20:54 01.04.2022
2267 Snow -2 1004 74 10000 4 300 20:31 01.04.2022
2268 Snow -3 1004 86 10000 4 70 19:39 01.04.2022
2269 Snow -3 1003 86 2700 12 100 18:54 01.04.2022
2270 Snow -3 1003 86 2700 12 100 18:23 01.04.2022
2271 Snow -4 1003 93 1400 11 100 17:36 01.04.2022
2272 Clouds -4 1003 93 2600 11 90 15:44 01.04.2022
2273 Clouds -4 1003 86 8000 9 80 14:39 01.04.2022
2274 Clouds -4 1003 86 10000 7 60 13:38 01.04.2022
2275 Clouds -4 1003 93 10000 9 70 12:33 01.04.2022
2276 Clouds -4 1002 86 7000 10 80 11:45 01.04.2022
2277 Clouds -4 1002 86 10000 7 60 10:41 01.04.2022
2278 Clouds -4 1001 86 10000 9 40 09:34 01.04.2022
2279 Snow -7 1001 79 6000 3 10 07:19 01.04.2022
2280 Clear -5 1000 68 10000 1 0 04:56 01.04.2022
2281 Clear -6 1000 73 10000 3 150 04:37 01.04.2022
2282 Clouds -6 999 73 3500 17 40 02:32 01.04.2022
2283 Clouds -7 1001 73 10000 3 50 01:31 01.04.2022
2284 Clouds -14 1002 84 9000 9 340 22:24 31.03.2022
2285 Snow -15 1003 84 7000 10 350 21:37 31.03.2022
2286 Snow -15 1003 84 9000 8 340 20:50 31.03.2022
2287 Snow -15 1003 84 9000 8 340 20:28 31.03.2022
2288 Snow -15 1004 77 10000 9 350 19:18 31.03.2022
2289 Snow -16 1005 77 10000 8 340 18:31 31.03.2022
2290 Snow -16 1005 77 10000 8 340 18:31 31.03.2022
2291 Clouds -17 1005 77 10000 9 360 16:47 31.03.2022
2292 Snow -18 1006 77 10000 8 350 15:54 31.03.2022
2293 Snow -18 1006 77 10000 8 350 15:24 31.03.2022
2294 Snow -21 1007 83 10000 7 340 14:44 31.03.2022
2295 Snow -21 1007 76 10000 6 340 13:28 31.03.2022
2296 Clear -22 1008 83 10000 6 340 11:30 31.03.2022
2297 Clear -22 1008 76 10000 6 340 10:22 31.03.2022
2298 Clear -22 1008 83 10000 5 340 09:39 31.03.2022
2299 Clear -21 1008 83 10000 6 340 07:48 31.03.2022
2300 Clear -23 1010 76 10000 4 340 01:37 31.03.2022
2301 Clear -26 1010 83 10000 3 330 23:23 30.03.2022
2302 Clear -26 1010 83 10000 4 350 21:54 30.03.2022
2303 Clear -26 1010 84 10000 4 350 21:27 30.03.2022
2304 Clear -27 1010 83 10000 5 350 20:32 30.03.2022
2305 Clear -26 1010 84 10000 4 360 19:47 30.03.2022
2306 Clear -27 1010 83 10000 2 340 18:41 30.03.2022
2307 Clear -25 1011 77 10000 3 350 17:51 30.03.2022
2308 Clear -25 1011 77 10000 3 330 16:59 30.03.2022
2309 Clear -25 1011 76 10000 3 330 16:39 30.03.2022
2310 Clear -24 1011 77 10000 3 350 15:47 30.03.2022
2311 Clear -22 1011 77 10000 2 360 14:22 30.03.2022
2312 Clear -21 1012 77 10000 4 360 13:21 30.03.2022
2313 Clear -23 1012 77 10000 3 10 12:19 30.03.2022
2314 Clouds -22 1013 77 10000 2 360 10:48 30.03.2022
2315 Clouds -21 1013 76 10000 4 340 09:30 30.03.2022
2316 Clear -21 1013 76 10000 4 10 08:20 30.03.2022
2317 Clear -18 1013 77 10000 5 360 06:32 30.03.2022
2318 Clear -18 1013 77 10000 6 360 05:38 30.03.2022
2319 Clear -16 1014 77 10000 1 0 01:45 30.03.2022
2320 Clear -21 1014 83 10000 3 340 22:38 29.03.2022
2321 Clear -21 1014 83 10000 2 120 21:47 29.03.2022
2322 Clear -23 1013 83 10000 2 10 20:55 29.03.2022
2323 Clear -23 1013 83 10000 2 10 20:25 29.03.2022
2324 Clear -23 1013 83 10000 1.79 40 19:20 29.03.2022
2325 Clear -23 1013 83 10000 2 40 18:48 29.03.2022
2326 Clear -20 1013 84 10000 1 0 17:40 29.03.2022
2327 Clear -21 1013 83 10000 1 350 16:59 29.03.2022
2328 Clear -20 1013 84 10000 1 350 16:20 29.03.2022
2329 Clear -23 1013 83 10000 2 60 14:53 29.03.2022
2330 Clear -23 1013 83 10000 2 60 14:24 29.03.2022
2331 Clear -21 1013 76 10000 1 0 13:30 29.03.2022
2332 Clear -18 1012 85 10000 1 270 11:46 29.03.2022
2333 Clear -21 1013 76 10000 1 0 10:59 29.03.2022
2334 Clear -22 1012 76 10000 1 0 09:50 29.03.2022
2335 Clear -21 1012 83 10000 1 40 08:20 29.03.2022
2336 Clear -20 1012 84 10000 2 330 05:38 29.03.2022
2337 Clear -22 1014 77 10000 3 10 01:25 29.03.2022
2338 Clear -25 1013 77 10000 1 360 23:25 28.03.2022
2339 Clear -26 1014 76 10000 2 350 22:54 28.03.2022
2340 Clear -26 1014 75 10000 2 320 22:28 28.03.2022
2341 Fog -28 1014 75 10000 1 340 20:59 28.03.2022
2342 Fog -28 1014 75 10000 1 340 20:31 28.03.2022
2343 Fog -28 1014 75 10000 2 10 19:46 28.03.2022
2344 Fog -28 1014 75 10000 2 10 19:28 28.03.2022
2345 Fog -27 1014 75 10000 2 360 18:40 28.03.2022
2346 Fog -26 1014 76 10000 3 360 17:39 28.03.2022
2347 Fog -26 1014 76 10000 3 10 16:38 28.03.2022
2348 Mist -26 1015 75 5000 3 350 14:49 28.03.2022
2349 Mist -26 1015 75 5000 3 350 14:22 28.03.2022
2350 Fog -26 1016 75 350 3 340 12:41 28.03.2022
2351 Fog -26 1015 83 1800 4 360 11:38 28.03.2022
2352 Fog -24 1015 76 10000 4 360 09:43 28.03.2022
2353 Fog -24 1015 76 10000 4 360 09:19 28.03.2022
2354 Fog -23 1016 83 10000 4 350 08:23 28.03.2022
2355 Clear -22 1016 76 10000 4 10 07:40 28.03.2022
2356 Clear -19 1017 84 10000 3 360 04:18 28.03.2022
2357 Clouds -17 1018 85 10000 2 10 23:43 27.03.2022
2358 Clouds -19 1018 84 10000 1 0 22:25 27.03.2022
2359 Mist -21 1018 84 2300 2 30 21:42 27.03.2022
2360 Mist -24 1018 83 10000 2 350 20:58 27.03.2022
2361 Fog -23 1017 84 10000 3 310 19:49 27.03.2022
2362 Fog -23 1017 83 10000 3 310 19:26 27.03.2022
2363 Fog -21 1017 77 10000 5 350 18:28 27.03.2022
2364 Fog -20 1017 84 10000 4 360 17:40 27.03.2022
2365 Fog -20 1017 84 10000 4 360 17:20 27.03.2022
2366 Snow -21 1017 84 10000 1 350 15:28 27.03.2022
2367 Clouds -21 1017 84 10000 3 330 13:56 27.03.2022
2368 Clouds -19 1017 84 10000 2 360 12:38 27.03.2022
2369 Mist -21 1016 76 9000 3 10 11:21 27.03.2022
2370 Fog -21 1016 83 10000 0 0 09:21 27.03.2022
2371 Fog -19 1014 78 10000 1 250 05:56 27.03.2022
2372 Clouds -17 1013 84 10000 1 0 00:57 27.03.2022
2373 Clouds -18 1012 84 10000 1 0 23:46 26.03.2022
2374 Clouds -15 1012 84 10000 3 150 22:38 26.03.2022
2375 Snow -18 1011 91 10000 3 180 21:46 26.03.2022
2376 Snow -18 1011 91 10000 3 180 21:25 26.03.2022
2377 Snow -13 1010 85 9000 3 180 19:29 26.03.2022
2378 Snow -10 1009 79 10000 3 120 17:54 26.03.2022
2379 Snow -10 1009 79 10000 3 120 17:33 26.03.2022
2380 Snow -10 1009 79 10000 1 0 16:27 26.03.2022
2381 Snow -14 1008 84 10000 1 0 15:20 26.03.2022
2382 Snow -11 1008 85 10000 2 280 13:53 26.03.2022
2383 Snow -11 1008 92 8000 2 360 12:59 26.03.2022
2384 Snow -13 1008 92 4100 2 10 11:41 26.03.2022
2385 Snow -13 1008 92 4100 2 10 11:41 26.03.2022
2386 Snow -13 1008 92 4100 2 10 11:41 26.03.2022
2387 Snow -13 1008 92 4100 2 10 11:41 26.03.2022
2388 Snow -14 1008 85 7000 3 30 10:28 26.03.2022
2389 Snow -15 1007 84 10000 3 340 08:35 26.03.2022
2390 Clouds -15 1007 77 10000 2 350 05:54 26.03.2022
2391 Clouds -15 1007 77 10000 2 350 05:22 26.03.2022
2392 Clouds -15 1007 84 10000 2 350 00:28 26.03.2022
2393 Clouds -18 1006 84 10000 2 350 21:49 25.03.2022
2394 Clouds -19 1006 84 10000 2 10 20:46 25.03.2022
2395 Clouds -19 1006 84 10000 4 350 19:38 25.03.2022
2396 Clouds -17 1006 85 10000 4 360 18:47 25.03.2022
2397 Snow -17 1006 85 10000 4 350 17:47 25.03.2022
2398 Snow -17 1006 85 10000 4 350 17:27 25.03.2022
2399 Clouds -19 1005 84 10000 4 350 16:18 25.03.2022
2400 Snow -16 1006 78 10000 1 0 14:26 25.03.2022
2401 Clouds -16 1006 78 10000 2 120 12:57 25.03.2022
2402 Mist -18 1006 84 10000 0 0 10:22 25.03.2022
2403 Mist -18 1006 84 8000 2 210 09:28 25.03.2022
2404 Fog -18 1006 84 10000 2 360 08:24 25.03.2022
2405 Fog -16 1005 84 10000 1 0 07:28 25.03.2022
2406 Fog -15 1005 84 10000 5.81 100 05:55 25.03.2022
2407 Mist -15 1007 84 2100 1 350 00:46 25.03.2022
2408 Mist -16 1007 92 1300 4 360 22:51 24.03.2022
2409 Fog -16 1007 92 10000 2 320 21:45 24.03.2022
2410 Clear -14 1008 92 10000 3 360 20:26 24.03.2022
2411 Clear -16 1008 92 10000 3 340 19:47 24.03.2022
2412 Clouds -12 1009 85 10000 5 360 17:47 24.03.2022
2413 Clouds -12 1009 85 10000 5 360 17:19 24.03.2022
2414 Clouds -14 1009 92 10000 3 330 15:45 24.03.2022
2415 Clouds -13 1009 84 10000 3 330 14:48 24.03.2022
2416 Clouds -13 1009 85 10000 3 330 14:18 24.03.2022
2417 Clouds -13 1010 84 10000 3 360 12:52 24.03.2022
2418 Clouds -13 1010 84 10000 2 30 11:45 24.03.2022
2419 Snow -13 1010 84 10000 1 360 09:53 24.03.2022
2420 Clouds -13 1010 84 10000 1 280 08:41 24.03.2022
2421 Clouds -12 1011 79 10000 2 10 06:49 24.03.2022
2422 Clouds -12 1011 78 10000 2 210 02:24 24.03.2022
2423 Fog -14 1012 84 10000 1 300 23:20 23.03.2022
2424 Fog -16 1012 84 10000 2 20 21:27 23.03.2022
2425 Fog -16 1012 84 10000 2 190 20:59 23.03.2022
2426 Fog -16 1012 84 10000 3 20 19:46 23.03.2022
2427 Fog -16 1012 84 10000 2 350 18:45 23.03.2022
2428 Fog -15 1012 84 10000 1 0 17:36 23.03.2022
2429 Fog -14 1011 84 10000 3 50 16:33 23.03.2022
2430 Fog -12 1012 79 10000 2 170 14:51 23.03.2022
2431 Fog -12 1012 79 10000 2 170 14:26 23.03.2022
2432 Fog -9 1011 73 10000 2 330 12:51 23.03.2022
2433 Fog -5 1010 58 10000 8 110 09:42 23.03.2022
2434 Clouds -5 1010 68 10000 7 100 06:48 23.03.2022
2435 Clouds -5 1010 74 10000 9 110 05:23 23.03.2022
2436 Clouds -7 1010 79 6000 9 110 00:29 23.03.2022
2437 Clouds -5 1010 79 3100 10 120 23:39 22.03.2022
2438 Clouds -7 1010 79 5000 9 100 21:30 22.03.2022
2439 Clouds -6 1010 79 10000 11 110 20:45 22.03.2022
2440 Clouds -6 1010 79 10000 10 120 19:43 22.03.2022
2441 Clouds -5 1010 79 10000 10 120 19:18 22.03.2022
2442 Clouds -7 1010 92 10000 11.62 110 18:31 22.03.2022
2443 Clouds -7 1010 92 5000 12 110 17:29 22.03.2022
2444 Clouds -6 1010 85 2900 11 110 16:27 22.03.2022
2445 Clouds -7 1011 92 2900 11 110 15:23 22.03.2022
2446 Snow -7 1011 92 3500 10 110 14:47 22.03.2022
2447 Snow -7 1011 92 3500 10 110 14:27 22.03.2022
2448 Snow -6 1012 85 2400 10 100 13:35 22.03.2022
2449 Clouds -6 1012 85 9000 12 120 11:52 22.03.2022
2450 Snow -5 1012 85 6000 13 120 10:44 22.03.2022
2451 Clouds -4 1011 86 9000 12 130 08:36 22.03.2022
2452 Clouds -4 1011 86 10000 13 130 06:53 22.03.2022
2453 Clouds -4 1012 86 10000 16 130 03:49 22.03.2022
2454 Clouds -4 1013 86 6000 13 130 00:28 22.03.2022
2455 Clouds -5 1014 85 5000 13 130 22:42 21.03.2022
2456 Clouds -4 1014 86 6000 12 130 21:18 21.03.2022
2457 Clouds -5 1014 85 4600 9 130 20:40 21.03.2022
2458 Clouds -5 1015 85 5000 11 120 19:58 21.03.2022
2459 Clouds -5 1015 85 5000 11 120 19:34 21.03.2022
2460 Clouds -6 1015 85 7000 11 120 18:31 21.03.2022
2461 Clouds -5 1015 85 4200 11 120 17:19 21.03.2022
2462 Clouds -6 1016 85 7000 11 120 16:45 21.03.2022
2463 Clouds -7 1017 85 5000 10 120 15:59 21.03.2022
2464 Clouds -6 1017 86 5000 10 120 15:20 21.03.2022
2465 Clouds -6 1017 86 3900 11 120 14:25 21.03.2022
2466 Clouds -9 1019 78 4900 8 110 12:42 21.03.2022
2467 Clouds -7 1019 73 9000 7 110 11:53 21.03.2022
2468 Clouds -8 1019 73 7000 11 110 10:40 21.03.2022
2469 Fog -7 1020 68 10000 2 360 08:55 21.03.2022
2470 Fog -10 1021 92 10000 1 0 06:57 21.03.2022
2471 Fog -15 1023 84 10000 0 0 02:55 21.03.2022
2472 Fog -15 1023 84 10000 2 230 00:35 21.03.2022
2473 Fog -17 1024 84 10000 1 0 22:54 20.03.2022
2474 Fog -15 1024 85 10000 3 360 21:56 20.03.2022
2475 Clouds -15 1024 92 10000 3 40 21:29 20.03.2022
2476 Clouds -17 1024 85 10000 2 340 20:43 20.03.2022
2477 Clouds -16 1023 85 10000 2 350 19:59 20.03.2022
2478 Clouds -16 1023 85 10000 2 350 19:59 20.03.2022
2479 Clouds -16 1023 85 10000 2 350 19:34 20.03.2022
2480 Clouds -11 1023 85 10000 5 20 18:40 20.03.2022
2481 Clouds -13 1024 92 10000 3 10 17:35 20.03.2022
2482 Clouds -13 1024 85 10000 4 10 16:57 20.03.2022
2483 Clouds -13 1024 92 10000 4 30 15:43 20.03.2022
2484 Clouds -14 1024 85 10000 3 360 14:35 20.03.2022
2485 Clouds -15 1024 92 10000 5 10 12:42 20.03.2022
2486 Clear -16 1025 85 10000 3 360 11:32 20.03.2022
2487 Clouds -15 1024 85 10000 1 0 09:30 20.03.2022
2488 Snow -13 1024 78 10000 0 0 07:47 20.03.2022
2489 Snow -13 1024 78 10000 1 0 05:48 20.03.2022
2490 Snow -15 1026 78 10000 4 170 01:56 20.03.2022
2491 Snow -15 1026 78 10000 3 160 00:47 20.03.2022
2492 Snow -16 1027 78 9000 2 160 23:19 19.03.2022
2493 Snow -18 1027 78 9000 2 150 21:32 19.03.2022
2494 Snow -19 1027 78 10000 3 160 20:58 19.03.2022
2495 Snow -18 1028 65 10000 2 180 18:59 19.03.2022
2496 Snow -18 1028 65 10000 2 180 18:24 19.03.2022
2497 Snow -19 1028 65 10000 1 160 17:40 19.03.2022
2498 Clouds -20 1029 71 10000 1 220 16:24 19.03.2022
2499 Clouds -24 1029 70 10000 0 0 15:19 19.03.2022
2500 Clear -24 1030 70 10000 3 10 13:20 19.03.2022
2501 Clear -22 1030 64 10000 3 340 12:41 19.03.2022
2502 Clear -26 1031 69 10000 3 10 11:54 19.03.2022
2503 Clear -26 1031 69 10000 3 10 11:25 19.03.2022
2504 Clear -21 1031 71 10000 4 360 07:59 19.03.2022
2505 Clear -17 1031 60 10000 3 320 03:53 19.03.2022
2506 Clear -17 1032 60 10000 3 350 02:30 19.03.2022
2507 Clear -21 1032 65 10000 4 350 23:46 18.03.2022
2508 Clear -21 1032 65 10000 2 350 22:29 18.03.2022
2509 Clear -21 1032 65 10000 5 10 21:46 18.03.2022
2510 Clear -25 1032 70 10000 6 10 19:54 18.03.2022
2511 Clear -25 1032 70 10000 6 10 19:22 18.03.2022
2512 Clear -26 1032 76 10000 6 20 18:18 18.03.2022
2513 Clear -27 1032 68 10000 6 20 16:51 18.03.2022
2514 Clear -27 1033 68 10000 5 20 15:43 18.03.2022
2515 Clear -27 1033 68 10000 5 20 15:43 18.03.2022
2516 Clear -27 1033 75 10000 3 10 14:24 18.03.2022
2517 Clear -24 1032 70 10000 8 320 12:39 18.03.2022
2518 Clear -24 1032 77 10000 8 310 10:58 18.03.2022
2519 Clear -23 1031 70 10000 7 310 09:30 18.03.2022
2520 Clear -21 1031 65 10000 6 300 08:42 18.03.2022
2521 Clear -20 1030 71 10000 6 320 06:40 18.03.2022
2522 Clear -19 1029 70 10000 6 320 03:30 18.03.2022
2523 Clear -21 1028 70 10000 9 320 00:53 18.03.2022
2524 Clear -21 1028 70 10000 10 320 23:44 17.03.2022
2525 Clear -22 1028 71 10000 9 330 22:25 17.03.2022
2526 Clear -22 1027 71 10000 8 320 21:48 17.03.2022
2527 Clear -23 1027 70 10000 9 310 21:27 17.03.2022
2528 Clear -24 1027 70 10000 10 310 20:51 17.03.2022
2529 Clear -24 1026 77 10000 10 310 19:53 17.03.2022
2530 Clear -24 1026 77 10000 10 310 19:32 17.03.2022
2531 Clear -23 1026 70 10000 9 320 18:49 17.03.2022
2532 Clear -24 1026 77 10000 7 350 17:18 17.03.2022
2533 Clear -26 1026 76 10000 6 350 15:44 17.03.2022
2534 Clear -26 1026 76 10000 6 350 15:26 17.03.2022
2535 Clear -26 1026 76 10000 2 350 14:48 17.03.2022
2536 Clear -24 1026 77 10000 6 320 12:59 17.03.2022
2537 Clear -24 1026 77 10000 6 320 12:37 17.03.2022
2538 Clear -27 1026 75 10000 3 10 11:30 17.03.2022
2539 Clear -24 1026 84 10000 2 350 10:32 17.03.2022
2540 Clear -26 1025 75 10000 5 350 08:41 17.03.2022
2541 Clear -26 1024 75 10000 4 340 07:52 17.03.2022
2542 Clear -24 1024 76 10000 5 20 05:48 17.03.2022
2543 Clear -22 1023 76 10000 5 10 03:41 17.03.2022
2544 Fog -22 1023 77 10000 5 20 23:57 16.03.2022
2545 Fog -23 1023 77 10000 6 10 22:51 16.03.2022
2546 Fog -24 1023 83 10000 6 20 22:33 16.03.2022
2547 Fog -24 1023 77 10000 5 30 21:46 16.03.2022
2548 Clouds -25 1022 84 8000 6 10 20:26 16.03.2022
2549 Mist -23 1023 77 3300 4 360 19:21 16.03.2022
2550 Clouds -23 1022 77 8000 5 10 18:40 16.03.2022
2551 Fog -23 1022 77 10000 6 360 17:43 16.03.2022
2552 Fog -23 1022 77 10000 6 360 17:25 16.03.2022
2553 Fog -24 1023 84 10000 5 340 15:56 16.03.2022
2554 Fog -23 1023 84 10000 5 10 14:28 16.03.2022
2555 Clouds -22 1023 84 10000 7 360 13:32 16.03.2022
2556 Clear -24 1023 77 10000 5 360 11:58 16.03.2022
2557 Clear -24 1023 77 10000 5 360 11:21 16.03.2022
2558 Clear -26 1022 83 10000 4 20 10:27 16.03.2022
2559 Fog -24 1022 83 10000 4 360 09:42 16.03.2022
2560 Clouds -22 1023 76 10000 5 350 06:27 16.03.2022
2561 Clear -21 1024 76 10000 4 340 01:56 16.03.2022
2562 Clear -24 1025 76 10000 4.92 330 22:44 15.03.2022
2563 Clear -26 1024 75 10000 4 330 22:18 15.03.2022
2564 Clear -24 1024 84 10000 4 350 20:33 15.03.2022
2565 Clear -24 1025 77 10000 3 350 18:58 15.03.2022
2566 Clear -23 1024 77 10000 4 360 17:24 15.03.2022
2567 Clear -25 1025 84 10000 4 350 16:32 15.03.2022
2568 Clear -24 1025 77 10000 3 10 15:21 15.03.2022
2569 Clear -23 1025 77 10000 4 10 14:46 15.03.2022
2570 Clear -22 1025 77 10000 3 350 13:55 15.03.2022
2571 Clear -23 1025 84 10000 2 20 12:29 15.03.2022
2572 Clear -23 1025 77 10000 2 30 11:31 15.03.2022
2573 Clear -19 1024 71 10000 1 10 09:46 15.03.2022
2574 Clear -20 1024 84 10000 1 50 08:49 15.03.2022
2575 Clear -19 1024 78 10000 2 350 07:52 15.03.2022
2576 Clear -19 1024 78 10000 2 350 07:34 15.03.2022
2577 Clear -16 1023 72 10000 0 0 04:20 15.03.2022
2578 Clear -23 1023 83 10000 1 350 23:57 14.03.2022
2579 Clear -23 1023 76 10000 2 310 23:24 14.03.2022
2580 Clear -25 1022 83 10000 2 350 22:30 14.03.2022
2581 Clear -25 1022 84 10000 2 300 21:30 14.03.2022
2582 Clear -25 1021 84 10000 3 360 20:54 14.03.2022
2583 Clear -25 1021 84 10000 3 360 20:20 14.03.2022
2584 Clear -26 1020 76 10000 4 360 18:55 14.03.2022
2585 Clear -25 1020 77 10000 2 350 17:54 14.03.2022
2586 Clear -25 1020 77 10000 2 350 17:23 14.03.2022
2587 Clear -26 1020 83 10000 4 10 15:56 14.03.2022
2588 Clear -24 1020 77 10000 4 350 14:41 14.03.2022
2589 Clear -23 1020 84 10000 1 0 12:51 14.03.2022
2590 Clear -22 1020 77 10000 6 350 10:54 14.03.2022
2591 Clear -22 1020 84 10000 5 350 09:52 14.03.2022
2592 Clear -22 1020 83 10000 5 350 09:22 14.03.2022
2593 Clear -21 1020 84 10000 6 360 08:56 14.03.2022
2594 Clear -21 1020 76 10000 3 360 07:34 14.03.2022
2595 Clear -19 1020 77 10000 4 330 05:46 14.03.2022
2596 Clear -19 1021 77 10000 5 340 01:55 14.03.2022
2597 Clear -19 1021 77 10000 5 340 01:29 14.03.2022
2598 Clear -21 1022 76 10000 5 350 22:52 13.03.2022
2599 Clear -23 1022 84 10000 5 350 21:31 13.03.2022
2600 Clear -22 1021 84 10000 5 350 20:56 13.03.2022
2601 Clear -22 1021 83 10000 5 350 20:31 13.03.2022
2602 Clear -21 1021 84 10000 3 360 19:59 13.03.2022
2603 Clear -21 1021 84 10000 3 360 19:37 13.03.2022
2604 Clear -21 1021 84 10000 3 360 19:18 13.03.2022
2605 Clear -20 1021 77 10000 4 360 18:38 13.03.2022
2606 Clear -20 1021 77 10000 4 360 17:46 13.03.2022
2607 Clear -20 1021 76 10000 4 360 17:20 13.03.2022
2608 Clear -21 1022 84 10000 4 350 16:30 13.03.2022
2609 Clear -21 1022 84 10000 3 330 15:47 13.03.2022
2610 Clear -20 1022 77 10000 5 10 14:56 13.03.2022
2611 Clear -20 1022 77 10000 3 350 13:49 13.03.2022
2612 Clear -19 1022 78 10000 2 350 12:57 13.03.2022
2613 Clear -19 1022 84 10000 4 340 11:53 13.03.2022
2614 Clear -19 1022 84 10000 4 340 11:32 13.03.2022
2615 Clear -17 1022 78 10000 4 350 10:47 13.03.2022
2616 Clear -17 1022 78 10000 4 350 10:24 13.03.2022
2617 Clear -19 1022 77 10000 4 20 09:41 13.03.2022
2618 Clear -16 1022 78 10000 3 350 08:46 13.03.2022
2619 Clear -15 1022 72 10000 4 340 07:42 13.03.2022
2620 Clear -14 1021 71 10000 4 350 05:41 13.03.2022
2621 Clear -14 1021 71 10000 3 350 02:43 13.03.2022
2622 Clear -16 1022 71 10000 2 320 23:59 12.03.2022
2623 Clear -15 1021 72 10000 5 350 22:31 12.03.2022
2624 Clear -17 1021 71 10000 3 40 20:48 12.03.2022
2625 Clear -17 1021 71 10000 3 40 19:50 12.03.2022
2626 Clear -17 1021 71 10000 3 40 19:32 12.03.2022
2627 Clear -18 1020 54 10000 3 80 18:27 12.03.2022
2628 Clear -10 1020 57 10000 1 0 17:34 12.03.2022
2629 Clear -13 1020 72 10000 2 20 16:24 12.03.2022
2630 Clear -14 1020 78 10000 5 30 15:23 12.03.2022
2631 Clear -13 1020 72 10000 6 10 14:40 12.03.2022
2632 Clear -11 1020 52 10000 1 0 12:56 12.03.2022
2633 Clear -10 1020 57 10000 1 0 11:56 12.03.2022
2634 Clear -10 1020 57 10000 1 0 11:38 12.03.2022
2635 Clear -11 1020 57 10000 2 320 10:58 12.03.2022
2636 Clear -10 1019 62 10000 3 30 09:45 12.03.2022
2637 Clear -11 1019 62 10000 2 20 08:56 12.03.2022
2638 Clear -11 1019 67 10000 3 30 07:20 12.03.2022
2639 Clear -8 1019 73 10000 2 300 02:36 12.03.2022
2640 Clear -16 1020 73 10000 1.09 294 23:56 11.03.2022
2641 Clear -18 1020 79 10000 0.8 285 23:18 11.03.2022
2642 Clear -9 1018 53 10000 2 300 21:35 11.03.2022
2643 Clear -9 1018 57 10000 2 220 20:55 11.03.2022
2644 Clear -9 1018 57 10000 2 220 20:34 11.03.2022
2645 Clear -10 1017 62 10000 1 0 19:49 11.03.2022
2646 Clear -10 1017 62 10000 1 0 19:22 11.03.2022
2647 Clear -9 1017 57 10000 3 220 17:30 11.03.2022
2648 Clear -21 1019 80 10000 1.17 346 16:36 11.03.2022
2649 Clear -21 1019 79 10000 0.63 309 15:53 11.03.2022
2650 Clear -19 1018 75 10000 1.22 39 14:19 11.03.2022
2651 Clear -7 1018 53 10000 3 350 12:44 11.03.2022
2652 Clear -7 1018 53 10000 3 350 12:21 11.03.2022
2653 Clear -5 1018 46 10000 3 350 11:51 11.03.2022
2654 Clear -5 1018 50 10000 2 330 09:50 11.03.2022
2655 Clear -3 1017 46 9000 7 50 08:56 11.03.2022
2656 Clear -3 1017 46 9000 7 50 08:24 11.03.2022
2657 Clear -4 1017 46 5000 14 50 07:45 11.03.2022
2658 Clear -4 1016 50 4000 18 50 05:44 11.03.2022
2659 Clear -3 1017 46 1100 16 50 03:41 11.03.2022
2660 Clear -6 1022 45 10000 9 20 23:36 10.03.2022
2661 Clear -6 1023 45 10000 9 10 22:30 10.03.2022
2662 Clear -6 1022 53 10000 13 30 21:40 10.03.2022
2663 Clear -6 1022 53 10000 13 30 21:18 10.03.2022
2664 Clear -7 1023 58 10000 6 20 19:43 10.03.2022
2665 Clear -16 1024 77 10000 4.59 357 18:40 10.03.2022
2666 Clear -15 1025 78 10000 4.14 0 17:19 10.03.2022
2667 Clear -5 1024 54 10000 10 360 15:55 10.03.2022
2668 Clear -4 1024 54 10000 10 10 14:44 10.03.2022
2669 Clear -3 1025 50 10000 9 40 13:19 10.03.2022
2670 Clear -12 1027 72 10000 5.18 17 11:57 10.03.2022
2671 Clear -3 1025 54 8000 14 80 10:50 10.03.2022
2672 Clear -3 1025 59 8000 14 90 09:18 10.03.2022
2673 Clear -3 1027 50 10000 7 50 07:33 10.03.2022
2674 Clear -1 1027 47 10000 10 80 04:19 10.03.2022
2675 Clear -4 1029 54 10000 3 190 01:46 10.03.2022
2676 Clear -9 1030 67 10000 3 240 23:18 09.03.2022
2677 Clear -9 1030 62 10000 0 0 21:49 09.03.2022
2678 Clear -10 1030 67 10000 2 60 21:27 09.03.2022
2679 Clear -11 1031 73 10000 1 0 19:43 09.03.2022
2680 Clear -8 1030 67 10000 2 350 18:29 09.03.2022
2681 Clouds -19 1031 98 10000 0.32 281 17:26 09.03.2022
2682 Clouds -19 1031 98 10000 0.32 281 17:26 09.03.2022
2683 Clouds -19 1031 98 10000 0.32 281 17:26 09.03.2022
2684 Clouds -19 1031 98 10000 0.32 281 16:31 09.03.2022
2685 Clouds -18 1032 97 10000 1.38 149 14:59 09.03.2022
2686 Clouds -18 1032 97 10000 0.99 50 13:53 09.03.2022
2687 Clouds -18 1032 97 10000 1.37 11 12:45 09.03.2022
2688 Clear -7 1031 73 10000 1 0 11:53 09.03.2022
2689 Clear -7 1031 73 10000 1 0 11:35 09.03.2022
2690 Clouds -16 1032 98 10000 0.93 360 09:50 09.03.2022
2691 Clear -6 1031 79 10000 1 0 08:49 09.03.2022
2692 Clear -5 1031 74 10000 1 0 07:27 09.03.2022
2693 Clear -6 1031 85 10000 3 30 02:42 09.03.2022
2694 Clear -5 1031 85 10000 6 360 00:28 09.03.2022
2695 Clear -8 1031 92 10000 5 350 22:47 08.03.2022
2696 Clouds -6 1031 93 10000 4 350 21:55 08.03.2022
2697 Clouds -5 1031 93 10000 4 10 21:22 08.03.2022
2698 Clouds -5 1031 93 10000 3 350 20:29 08.03.2022
2699 Clouds -3 1030 93 10000 3 10 19:31 08.03.2022
2700 Clouds -3 1030 93 10000 2 10 18:44 08.03.2022
2701 Clouds -4 1030 100 10000 2 10 17:26 08.03.2022
2702 Fog -5 1030 100 10000 2 350 15:19 08.03.2022
2703 Clouds -4 1029 92 10000 0 0 14:18 08.03.2022
2704 Clouds -3 1028 86 10000 5 80 12:43 08.03.2022
2705 Fog -2 1028 92 10000 6 90 11:45 08.03.2022
2706 Mist -2 1028 92 10000 1 0 10:41 08.03.2022
2707 Fog -2 1027 100 10000 4 60 09:37 08.03.2022
2708 Fog -3 1025 100 650 4 30 06:34 08.03.2022
2709 Fog 0 1024 86 10000 3 310 04:25 08.03.2022
2710 Clouds -1 1021 93 9000 5 140 23:36 07.03.2022
2711 Clouds -1 1019 93 10000 7 140 21:50 07.03.2022
2712 Clouds -1 1019 93 10000 7 140 21:31 07.03.2022
2713 Clouds -1 1018 93 10000 9 130 20:39 07.03.2022
2714 Clouds 0 1016 93 9000 11 130 19:55 07.03.2022
2715 Clouds 0 1016 93 9000 11 130 19:29 07.03.2022
2716 Clouds 0 1015 93 8000 10.73 130 18:40 07.03.2022
2717 Clouds 0 1015 86 6000 12 130 17:47 07.03.2022
2718 Clouds 0 1015 86 4000 12 120 16:55 07.03.2022
2719 Clouds -1 1015 93 3000 12 120 15:32 07.03.2022
2720 Clouds -1 1014 93 2700 11 120 12:54 07.03.2022
2721 Clouds 0 1014 92 2700 11 120 12:21 07.03.2022
2722 Clouds -1 1014 93 1000 13 110 10:36 07.03.2022
2723 Clouds -2 1002 92 400 14 100 08:48 07.03.2022
2724 Clouds -5 1014 92 800 11 110 03:41 07.03.2022
2725 Clouds -8 1014 92 50 17 90 00:22 07.03.2022
2726 Clouds -9 1014 92 50 19 90 23:31 06.03.2022
2727 Clouds -9 1014 85 50 20 90 22:37 06.03.2022
2728 Clouds -9 1015 85 50 19 90 21:45 06.03.2022
2729 Clouds -9 1014 85 100 20 90 20:30 06.03.2022
2730 Clouds -8 1016 86 150 17 90 19:51 06.03.2022
2731 Snow -10 1017 92 150 15 80 18:51 06.03.2022
2732 Snow -10 1018 85 200 16 90 17:57 06.03.2022
2733 Snow -9 1018 86 200 16 90 17:21 06.03.2022
2734 Clouds -8 1018 86 700 14 90 16:41 06.03.2022
2735 Snow -8 1019 86 350 14 90 15:45 06.03.2022
2736 Snow -8 1019 86 700 12 90 14:49 06.03.2022
2737 Snow -8 1019 86 700 12 90 14:30 06.03.2022
2738 Snow -10 1022 92 2500 10 60 12:50 06.03.2022
2739 Snow -10 1021 85 9000 8 50 11:56 06.03.2022
2740 Clouds -12 1022 67 10000 4 40 10:52 06.03.2022
2741 Clouds -11 1022 73 10000 6 40 09:43 06.03.2022
2742 Clouds -12 1021 79 10000 5 350 08:29 06.03.2022
2743 Clouds -10 1021 67 10000 3 20 07:34 06.03.2022
2744 Clear -13 1020 72 10000 2 20 04:46 06.03.2022
2745 Clear -13 1019 72 10000 0 0 00:44 06.03.2022
2746 Clear -13 1019 72 10000 0 0 00:25 06.03.2022
2747 Clear -18 1018 77 10000 1 330 23:20 05.03.2022
2748 Clear -19 1018 84 10000 2 50 22:43 05.03.2022
2749 Clear -18 1017 84 10000 2 40 21:45 05.03.2022
2750 Clear -18 1017 84 10000 2 40 21:19 05.03.2022
2751 Clear -18 1015 84 10000 2 20 19:24 05.03.2022
2752 Clouds -15 1015 85 10000 0 0 18:51 05.03.2022
2753 Snow -15 1015 84 10000 0 0 17:43 05.03.2022
2754 Snow -15 1014 84 10000 1 0 16:26 05.03.2022
2755 Snow -14 1013 85 10000 2 340 15:30 05.03.2022
2756 Snow -13 1013 78 10000 1 60 14:44 05.03.2022
2757 Snow -13 1013 78 10000 1 60 14:24 05.03.2022
2758 Snow -14 1012 85 10000 1 330 12:59 05.03.2022
2759 Snow -15 1011 77 10000 1 10 11:43 05.03.2022
2760 Snow -15 1011 77 10000 1 10 11:18 05.03.2022
2761 Snow -16 1009 77 10000 1 0 09:58 05.03.2022
2762 Clouds -17 1009 77 10000 3 360 08:57 05.03.2022
2763 Clouds -15 1008 85 10000 4 40 07:37 05.03.2022
2764 Snow -14 1007 78 10000 3 10 05:42 05.03.2022
2765 Snow -15 1006 84 10000 2 340 01:30 05.03.2022
2766 Snow -13 1005 85 10000 1 0 23:35 04.03.2022
2767 Snow -13 1005 85 9000 1 180 22:41 04.03.2022
2768 Snow -14 1004 85 10000 1 320 21:47 04.03.2022
2769 Snow -13 1004 85 10000 2 350 20:51 04.03.2022
2770 Snow -14 1004 84 10000 2 350 20:21 04.03.2022
2771 Snow -12 1003 85 10000 0 0 19:35 04.03.2022
2772 Snow -13 1003 84 10000 0 0 18:37 04.03.2022
2773 Snow -13 1003 84 10000 1 100 17:30 04.03.2022
2774 Snow -13 1003 78 10000 1 0 16:43 04.03.2022
2775 Snow -13 1003 78 10000 1 110 15:28 04.03.2022
2776 Snow -14 1003 84 10000 0 0 14:19 04.03.2022
2777 Snow -11 1003 67 10000 1 0 12:54 04.03.2022
2778 Snow -11 1004 73 10000 4 30 11:40 04.03.2022
2779 Clouds -14 1004 78 10000 2 30 10:42 04.03.2022
2780 Clouds -11 1003 73 10000 3 30 09:28 04.03.2022
2781 Clear -14 1004 78 10000 1 0 08:34 04.03.2022
2782 Clouds -14 1003 85 10000 5 40 07:23 04.03.2022
2783 Snow -17 1004 84 8000 4 350 03:43 04.03.2022
2784 Clouds -18 1005 84 10000 2 350 00:22 04.03.2022
2785 Clear -19 1005 84 10000 2 350 22:21 03.03.2022
2786 Clear -19 1005 84 10000 1 0 21:39 03.03.2022
2787 Clear -19 1005 84 10000 1 0 21:18 03.03.2022
2788 Clear -19 1005 84 10000 1 310 19:48 03.03.2022
2789 Clear -18 1005 85 10000 3 350 18:51 03.03.2022
2790 Clear -18 1005 85 10000 3 350 18:22 03.03.2022
2791 Clear -17 1005 85 10000 2 340 17:27 03.03.2022
2792 Clear -17 1006 85 10000 2 340 15:48 03.03.2022
2793 Clear -17 1006 92 10000 3 10 14:59 03.03.2022
2794 Clear -17 1006 92 10000 3 10 14:33 03.03.2022
2795 Clear -15 1007 85 10000 2 340 13:18 03.03.2022
2796 Clear -15 1007 85 10000 2 340 13:18 03.03.2022
2797 Clear -15 1007 85 10000 2 340 13:18 03.03.2022
2798 Clear -12 1007 85 10000 2 340 11:45 03.03.2022
2799 Clear -12 1007 85 10000 3 350 10:41 03.03.2022
2800 Clear -11 1007 79 10000 4 320 08:52 03.03.2022
2801 Clouds -20 1009 100 8174 1.52 316 07:25 03.03.2022
2802 Clear -8 1007 79 10000 4 350 06:34 03.03.2022
2803 Clear -10 1008 85 10000 7 350 01:45 03.03.2022
2804 Clear -11 1009 85 10000 5 360 23:29 02.03.2022
2805 Clear -10 1009 79 10000 6 360 22:50 02.03.2022
2806 Clear -11 1009 92 10000 4 10 21:30 02.03.2022
2807 Clouds -22 1011 100 5305 1.77 351 20:45 02.03.2022
2808 Clouds -22 1011 100 5427 2.08 342 20:22 02.03.2022
2809 Clear -10 1010 85 10000 4 360 19:35 02.03.2022
2810 Clouds -11 1010 92 10000 2 330 18:44 02.03.2022
2811 Clouds -9 1010 86 10000 4 30 17:59 02.03.2022
2812 Clouds -9 1010 86 10000 4 30 17:23 02.03.2022
2813 Clouds -20 1011 100 5121 2.19 358 16:45 02.03.2022
2814 Clouds -20 1011 100 5121 2.19 358 16:45 02.03.2022
2815 Clouds -6 1010 86 10000 3 50 14:44 02.03.2022
2816 Clouds -5 1010 86 10000 7 90 13:24 02.03.2022
2817 Clouds -4 1010 80 10000 6 90 12:43 02.03.2022
2818 Snow -4 1011 86 10000 5 80 11:47 02.03.2022
2819 Snow -4 1011 86 10000 5 80 11:24 02.03.2022
2820 Clouds -4 1010 80 10000 6 80 09:42 02.03.2022
2821 Snow -3 1010 86 10000 5 80 08:55 02.03.2022
2822 Snow -3 1010 86 10000 6 80 07:38 02.03.2022
2823 Snow -3 1010 86 10000 6 80 06:51 02.03.2022
2824 Snow -2 1009 86 10000 7 90 02:35 02.03.2022
2825 Snow -4 1009 86 10000 7 100 23:55 01.03.2022
2826 Fog -5 1009 100 10000 6 90 22:46 01.03.2022
2827 Clouds -5 1009 92 6000 6 100 22:19 01.03.2022
2828 Mist -7 1009 92 9000 2 90 21:25 01.03.2022
2829 Mist -7 1008 92 1000 8 110 20:30 01.03.2022
2830 Mist -7 1008 92 1000 8 110 20:30 01.03.2022
2831 Mist -6 1008 92 1700 8 110 19:44 01.03.2022
2832 Clouds -6 1007 92 10000 7 100 18:50 01.03.2022
2833 Clouds -6 1007 92 10000 7 100 18:21 01.03.2022
2834 Clouds -5 1007 92 10000 6 100 17:30 01.03.2022
2835 Clear -6 1007 85 10000 5 120 16:34 01.03.2022
2836 Fog -5 1006 85 10000 6 130 15:41 01.03.2022
2837 Fog -6 1006 92 10000 6 130 14:40 01.03.2022
2838 Fog -6 1005 85 10000 7 130 13:58 01.03.2022
2839 Fog -5 1005 85 10000 7 130 13:25 01.03.2022
2840 Mist -7 1005 92 5000 6 130 12:33 01.03.2022
2841 Mist -7 1004 92 3100 6 120 10:37 01.03.2022
2842 Clouds -6 1003 92 10000 7 130 08:45 01.03.2022
2843 Clouds -5 1002 85 10000 10 120 07:54 01.03.2022
2844 Clouds -5 1002 85 10000 9 130 06:26 01.03.2022
2845 Snow -4 1000 73 9000 10 110 02:44 01.03.2022
2846 Clouds -3 999 74 10000 10 110 00:36 01.03.2022
2847 Clouds -3 999 74 10000 9 130 23:31 28.02.2022
2848 Clear -4 998 86 10000 9 130 22:18 28.02.2022
2849 Clouds -4 997 80 10000 8 150 21:39 28.02.2022
2850 Clouds -5 996 80 10000 7 140 19:59 28.02.2022
2851 Clouds -5 996 80 10000 7 140 19:40 28.02.2022
2852 Clouds -5 995 80 10000 7 140 18:44 28.02.2022
2853 Clear -4 994 74 10000 10 150 17:33 28.02.2022
2854 Clouds -4 994 74 10000 9 150 16:43 28.02.2022
2855 Clouds -4 993 80 10000 8 150 15:31 28.02.2022
2856 Clouds -5 992 79 10000 11 150 14:32 28.02.2022
2857 Clouds -5 991 79 10000 9 140 13:48 28.02.2022
2858 Clear -5 991 79 10000 10 140 12:50 28.02.2022
2859 Clear -5 990 79 10000 9 150 11:58 28.02.2022
2860 Clear -4 990 80 10000 9 150 11:18 28.02.2022
2861 Clear -4 989 80 10000 9 140 10:21 28.02.2022
2862 Clear -4 988 80 10000 8 140 09:36 28.02.2022
2863 Clouds -3 987 80 10000 8 140 08:48 28.02.2022
2864 Clouds -3 986 86 10000 7 140 07:43 28.02.2022
2865 Clouds -3 986 86 10000 7 140 07:43 28.02.2022
2866 Clouds -3 985 86 10000 6 140 05:25 28.02.2022
2867 Clouds -4 984 86 10000 7 130 04:27 28.02.2022
2868 Snow -5 982 92 4600 8 120 00:34 28.02.2022
2869 Clouds -5 980 92 9000 7 120 22:38 27.02.2022
2870 Clouds -5 980 92 7000 7 110 21:55 27.02.2022
2871 Clouds -5 980 92 1600 8 110 21:35 27.02.2022
2872 Clouds -5 979 100 5000 7 120 20:40 27.02.2022
2873 Clouds -4 978 92 3400 8 120 19:59 27.02.2022
2874 Clouds -4 978 92 3400 8 120 19:27 27.02.2022
2875 Clouds -4 978 92 3400 8 120 19:27 27.02.2022
2876 Snow -4 977 92 9000 8 110 18:48 27.02.2022
2877 Clouds -3 977 92 2000 9 120 17:57 27.02.2022
2878 Snow -3 977 92 2000 9 120 17:26 27.02.2022
2879 Snow -1 976 92 1600 8 100 16:22 27.02.2022
2880 Snow -2 976 92 1000 9 90 13:49 27.02.2022
2881 Snow -2 976 86 1800 8.94 100 12:35 27.02.2022
2882 Snow -3 975 92 1200 8 100 11:28 27.02.2022
2883 Snow -2 975 86 1700 9 100 10:24 27.02.2022
2884 Clouds -3 974 100 1100 12 100 09:51 27.02.2022
2885 Clouds -3 974 100 1100 12 100 09:21 27.02.2022
2886 Snow -2 973 92 1600 11 90 08:31 27.02.2022
2887 Snow -1 974 86 2200 14 80 05:41 27.02.2022
2888 Snow -1 975 80 8000 13 60 02:45 27.02.2022
2889 Clouds -2 977 86 10000 11 70 23:36 26.02.2022
2890 Clouds -2 978 86 9000 10 80 22:34 26.02.2022
2891 Clouds -2 978 86 3500 14 80 21:19 26.02.2022
2892 Clouds -2 978 86 6000 14 80 20:37 26.02.2022
2893 Clouds -1 977 80 2200 16 80 19:52 26.02.2022
2894 Clouds -1 977 80 2200 16 80 19:33 26.02.2022
2895 Clouds 1 978 80 10000 5 60 18:31 26.02.2022
2896 Snow 1 979 75 10000 4 40 17:31 26.02.2022
2897 Clouds -1 979 80 10000 3 320 16:36 26.02.2022
2898 Clouds -1 980 74 10000 5 70 15:27 26.02.2022
2899 Snow -3 981 86 10000 6 40 14:58 26.02.2022
2900 Snow -3 981 86 10000 6 40 14:39 26.02.2022
2901 Snow -1 981 74 10000 6 50 13:46 26.02.2022
2902 Snow -2 982 80 10000 4.92 60 12:53 26.02.2022
2903 Clouds -1 983 74 10000 6 50 11:45 26.02.2022
2904 Clouds -1 983 74 10000 6 50 11:24 26.02.2022
2905 Clouds -4 984 86 10000 9 360 09:28 26.02.2022
2906 Snow -4 985 92 10000 10 20 08:21 26.02.2022
2907 Snow -3 988 92 2700 10 30 04:22 26.02.2022
2908 Clouds -5 992 92 10000 1 310 23:50 25.02.2022
2909 Snow -6 992 100 10000 2 300 22:31 25.02.2022
2910 Clouds -4 992 92 10000 4 30 21:30 25.02.2022
2911 Snow -4 992 86 10000 1 0 20:34 25.02.2022
2912 Snow -5 991 92 9000 1 0 19:56 25.02.2022
2913 Mist -3 990 86 3700 7 90 17:54 25.02.2022
2914 Snow -4 990 93 2900 8 80 16:47 25.02.2022
2915 Snow -4 989 93 9000 7 80 15:50 25.02.2022
2916 Snow -4 989 93 9000 7 80 15:23 25.02.2022
2917 Snow -4 989 93 2800 6 80 14:50 25.02.2022
2918 Snow -4 989 93 2800 6 80 14:19 25.02.2022
2919 Snow -4 989 93 3600 7 80 13:23 25.02.2022
2920 Snow -7 988 92 2200 3 350 11:56 25.02.2022
2921 Snow -7 988 92 2200 3 350 11:20 25.02.2022
2922 Snow -8 989 92 2200 1 0 10:23 25.02.2022
2923 Snow -8 988 92 800 2 250 09:42 25.02.2022
2924 Snow -9 988 92 5000 1 280 07:53 25.02.2022
2925 Snow -9 989 92 6000 3 190 06:54 25.02.2022
2926 Snow -8 989 92 1800 2 120 05:41 25.02.2022
2927 Clouds -8 990 85 10000 3 350 02:43 25.02.2022
2928 Clouds -5 990 86 3600 12 80 22:37 24.02.2022
2929 Clouds -5 989 86 2200 13 90 21:50 24.02.2022
2930 Clouds -6 989 93 2000 13 90 21:30 24.02.2022
2931 Clouds -5 989 86 1000 12 80 20:44 24.02.2022
2932 Snow -6 988 92 400 13 90 19:32 24.02.2022
2933 Snow -6 988 93 550 13 90 18:21 24.02.2022
2934 Snow -7 1000 85 700 13 80 17:58 24.02.2022
2935 Snow -7 988 85 700 13 80 17:21 24.02.2022
2936 Snow -8 987 92 350 14 90 16:28 24.02.2022
2937 Snow -8 986 85 150 16 90 15:44 24.02.2022
2938 Clouds -9 990 83 10000 5.71 66 14:48 24.02.2022
2939 Clouds -9 990 82 6733 6.01 59 13:59 24.02.2022
2940 Clouds -9 990 82 6733 6.01 59 13:38 24.02.2022
2941 Snow -5 986 93 150 16 80 11:41 24.02.2022
2942 Snow -5 988 93 300 13 60 10:32 24.02.2022
2943 Snow -5 989 86 400 12 40 08:43 24.02.2022
2944 Snow -6 990 93 600 12 70 07:26 24.02.2022
2945 Snow -6 992 86 900 12 70 05:43 24.02.2022
2946 Snow -5 999 86 1800 6 30 00:32 24.02.2022
2947 Snow -9 1001 86 10000 4 360 22:25 23.02.2022
2948 Snow -6 1002 73 10000 3 200 20:48 23.02.2022
2949 Snow -6 1002 73 10000 3 200 20:29 23.02.2022
2950 Snow -14 1003 92 9000 1 0 19:36 23.02.2022
2951 Snow -15 1004 84 10000 2 200 18:31 23.02.2022
2952 Snow -16 1004 84 4600 2 360 16:43 23.02.2022
2953 Snow -16 1006 84 3000 2 40 14:33 23.02.2022
2954 Snow -16 1007 85 6000 2 130 12:37 23.02.2022
2955 Snow -18 1007 85 4700 1 0 11:23 23.02.2022
2956 Snow -19 1008 78 8000 1 0 10:24 23.02.2022
2957 Clouds -22 1008 76 10000 2 350 08:56 23.02.2022
2958 Clouds -23 1008 76 10000 2 340 07:56 23.02.2022
2959 Clear -26 1006 75 10000 5 340 03:47 23.02.2022
2960 Clear -25 1006 77 10000 3 350 00:19 23.02.2022
2961 Clear -25 1006 77 10000 2 340 23:34 22.02.2022
2962 Clear -26 1004 76 10000 4 360 22:31 22.02.2022
2963 Clouds -24 1004 77 10000 4 10 21:48 22.02.2022
2964 Clouds -23 1003 77 10000 6 20 21:25 22.02.2022
2965 Clouds -23 1002 77 10000 7 10 20:49 22.02.2022
2966 Clouds -22 1001 71 10000 7 10 20:29 22.02.2022
2967 Clouds -21 1002 77 10000 5 340 19:34 22.02.2022
2968 Clear -20 1001 71 10000 4 360 18:58 22.02.2022
2969 Clear -21 1001 77 10000 5 360 17:40 22.02.2022
2970 Clear -21 1001 77 10000 5 360 17:19 22.02.2022
2971 Clouds -23 1000 77 10000 5 360 16:36 22.02.2022
2972 Clouds -22 1000 77 10000 6 10 15:38 22.02.2022
2973 Clouds -22 999 77 10000 6 10 14:43 22.02.2022
2974 Clouds -23 997 77 10000 5 10 11:54 22.02.2022
2975 Clouds -26 997 75 10000 4 20 10:28 22.02.2022
2976 Snow -23 997 84 10000 3 10 07:48 22.02.2022
2977 Snow -22 996 84 10000 7 350 07:25 22.02.2022
2978 Snow -21 997 83 1200 5 350 02:52 22.02.2022
2979 Snow -21 998 76 3200 5 350 00:48 22.02.2022
2980 Snow -22 998 76 7000 2 340 22:41 21.02.2022
2981 Snow -23 1023 83 4700 6 360 21:30 21.02.2022
2982 Mist -23 999 76 3900 6 350 20:29 21.02.2022
2983 Snow -24 999 76 3700 7 360 18:41 21.02.2022
2984 Clouds -26 1000 75 10000 8 360 16:50 21.02.2022
2985 Clear -24 1002 69 10000 9 330 14:24 21.02.2022
2986 Clouds -23 1003 69 10000 8 350 13:59 21.02.2022
2987 Clouds -26 1004 75 10000 8 330 12:59 21.02.2022
2988 Clouds -26 1004 75 10000 8 330 12:23 21.02.2022
2989 Clouds -22 1007 77 10000 8 340 10:45 21.02.2022
2990 Clouds -22 1008 71 10000 7 360 09:30 21.02.2022
2991 Snow -21 1015 76 10000 8 350 02:58 21.02.2022
2992 Snow -22 1019 76 10000 4 350 23:29 20.02.2022
2993 Snow -23 1020 69 10000 3 350 22:19 20.02.2022
2994 Clear -24 1020 76 10000 1 0 21:41 20.02.2022
2995 Clear -24 1021 69 10000 3 360 20:52 20.02.2022
2996 Clear -26 1021 69 10000 3.58 360 20:22 20.02.2022
2997 Clouds -25 1021 70 10000 4 360 19:30 20.02.2022
2998 Clear -26 1021 68 10000 3 340 18:49 20.02.2022
2999 Clear -26 1021 70 10000 3 340 18:31 20.02.2022
3000 Clear -29 1022 75 10000 3 360 17:34 20.02.2022
3001 Clear -29 1023 75 10000 2 10 15:31 20.02.2022
3002 Clear -31 1024 74 10000 1 70 14:39 20.02.2022
3003 Clear -30 1024 75 10000 2 60 13:23 20.02.2022
3004 Clear -30 1024 76 10000 3 350 12:20 20.02.2022
3005 Clear -27 1025 76 10000 1 0 10:21 20.02.2022
3006 Clear -28 1024 76 10000 1 0 09:53 20.02.2022
3007 Clear -24 1024 70 10000 2 170 06:46 20.02.2022
3008 Clear -26 1026 76 10000 4 360 00:34 20.02.2022
3009 Clear -27 1026 69 10000 6 360 23:42 19.02.2022
3010 Clear -26 1026 76 10000 4 360 22:25 19.02.2022
3011 Clear -29 1026 76 10000 5 350 21:57 19.02.2022
3012 Clear -27 1026 76 10000 7 360 20:48 19.02.2022
3013 Clouds -29 1026 75 10000 7 350 19:41 19.02.2022
3014 Clouds -29 1026 75 10000 6 360 18:41 19.02.2022
3015 Clouds -29 1026 75 10000 6 360 18:19 19.02.2022
3016 Clouds -28 1026 75 10000 5 350 17:33 19.02.2022
3017 Clouds -29 1027 75 6000 5 350 16:21 19.02.2022
3018 Fog -29 1027 75 10000 4 360 14:56 19.02.2022
3019 Clear -29 1028 75 10000 5 350 13:59 19.02.2022
3020 Clouds -28 1027 75 10000 3 20 11:59 19.02.2022
3021 Clouds -28 1027 75 10000 3 20 11:36 19.02.2022
3022 Clouds -27 1027 75 10000 2 350 09:34 19.02.2022
3023 Clouds -26 1025 83 10000 3 340 06:52 19.02.2022
3024 Clear -24 1025 84 10000 6 10 01:39 19.02.2022
3025 Clear -28 1025 82 10000 5 20 22:54 18.02.2022
3026 Clear -28 1025 76 10000 5 20 21:30 18.02.2022
3027 Clear -31 1025 74 10000 4 360 20:33 18.02.2022
3028 Clouds -28 1025 76 10000 6 360 19:51 18.02.2022
3029 Clouds -28 1025 76 10000 5 360 18:49 18.02.2022
3030 Clouds -28 1025 76 10000 5 360 18:19 18.02.2022
3031 Clouds -29 1025 75 10000 5 30 17:21 18.02.2022
3032 Clouds -29 1025 82 10000 1 0 14:47 18.02.2022
3033 Clouds -28 1025 76 10000 1 0 13:54 18.02.2022
3034 Clouds -29 1025 82 7000 8 330 12:51 18.02.2022
3035 Clear -27 1025 76 10000 5 340 11:58 18.02.2022
3036 Clouds -26 1025 84 10000 2 30 10:58 18.02.2022
3037 Clear -23 1025 77 10000 5 320 09:30 18.02.2022
3038 Clear -23 1026 77 10000 4 320 06:50 18.02.2022
3039 Clear -22 1025 76 10000 9 340 05:37 18.02.2022
3040 Clear -19 1026 65 10000 1 0 22:46 17.02.2022
3041 Clear -20 1027 71 10000 8 30 21:42 17.02.2022
3042 Clear -18 1027 65 10000 8 50 20:52 17.02.2022
3043 Clear -18 1027 65 10000 8 50 20:33 17.02.2022
3044 Clear -19 1027 71 8000 12 30 19:43 17.02.2022
3045 Clouds -19 1027 71 10000 13 20 18:34 17.02.2022
3046 Clouds -20 1027 77 10000 13 20 17:46 17.02.2022
3047 Clouds -29 1029 98 10000 3.26 339 16:20 17.02.2022
3048 Clear -20 1029 77 10000 1 0 14:39 17.02.2022
3049 Clear -20 1029 71 10000 2 150 13:47 17.02.2022
3050 Clouds -31 1031 100 10000 2.98 325 11:57 17.02.2022
3051 Clouds -31 1032 100 10000 2.94 314 11:21 17.02.2022
3052 Mist -22 1030 77 3800 6 30 08:37 17.02.2022
3053 Mist -31 1032 74 5000 6 350 00:20 17.02.2022
3054 Clear -31 1033 74 10000 4 350 22:38 16.02.2022
3055 Clear -32 1033 74 10000 5 360 20:39 16.02.2022
3056 Clear -31 1032 67 10000 7 350 19:32 16.02.2022
3057 Fog -32 1032 74 10000 5 350 18:35 16.02.2022
3058 Clouds -31 1032 74 9000 6 340 17:34 16.02.2022
3059 Fog -28 1032 76 10000 4 10 15:24 16.02.2022
3060 Clouds -31 1032 74 7000 6 360 14:46 16.02.2022
3061 Fog -31 1032 74 10000 4 20 12:32 16.02.2022
3062 Mist -31 1032 74 5000 5 360 11:51 16.02.2022
3063 Clouds -32 1032 74 9000 3 350 10:37 16.02.2022
3064 Clouds -32 1032 74 9000 3 350 10:18 16.02.2022
3065 Mist -33 1033 67 5000 7 350 06:56 16.02.2022
3066 Mist -34 1033 75 3000 5 330 03:46 16.02.2022
3067 Clouds -36 1035 66 10000 5 340 22:35 15.02.2022
3068 Clouds -36 1035 66 7000 4 330 21:59 15.02.2022
3069 Clouds -36 1035 66 10000 4 340 21:39 15.02.2022
3070 Clouds -36 1035 73 10000 4 340 21:21 15.02.2022
3071 Mist -36 1034 66 9000 7 340 20:48 15.02.2022
3072 Mist -36 1034 73 5000 6 340 19:48 15.02.2022
3073 Mist -36 1034 73 3200 5 340 18:40 15.02.2022
3074 Mist -36 1034 73 3200 5 340 18:18 15.02.2022
3075 Mist -37 1034 73 9000 4 320 17:46 15.02.2022
3076 Clear -37 1034 73 10000 2 330 16:20 15.02.2022
3077 Clouds -36 1034 66 7000 6 350 14:35 15.02.2022
3078 Fog -36 1034 73 10000 5 350 13:26 15.02.2022
3079 Clouds -36 1034 73 9000 7 360 11:43 15.02.2022
3080 Clouds -36 1034 73 10000 8 360 10:39 15.02.2022
3081 Clouds -36 1034 73 7000 4 360 09:23 15.02.2022
3082 Clouds -34 1034 67 10000 6 360 06:47 15.02.2022
3083 Mist -36 1035 73 2600 6 340 00:26 15.02.2022
3084 Mist -37 1035 73 1700 7 350 21:59 14.02.2022
3085 Mist -38 1036 73 4100 3 340 20:57 14.02.2022
3086 Mist -38 1036 73 4100 3 340 20:19 14.02.2022
3087 Mist -37 1036 65 3700 5 340 19:30 14.02.2022
3088 Fog -37 1036 65 10000 5 350 18:24 14.02.2022
3089 Clouds -37 1037 65 8000 6 350 17:37 14.02.2022
3090 Clouds -37 1037 65 8000 6 350 17:18 14.02.2022
3091 Fog -37 1038 65 10000 5 350 15:52 14.02.2022
3092 Mist -38 1038 73 5000 5 350 13:37 14.02.2022
3093 Mist -38 1038 73 5000 5 350 13:18 14.02.2022
3094 Mist -38 1038 73 4800 6 350 12:32 14.02.2022
3095 Mist -38 1039 73 4000 6 350 11:43 14.02.2022
3096 Clear -36 1039 73 10000 6 350 10:22 14.02.2022
3097 Clouds -37 1039 73 9000 4 350 08:32 14.02.2022
3098 Fog -37 1039 73 10000 6 350 07:26 14.02.2022
3099 Clear -36 1039 75 10000 4 360 23:19 13.02.2022
3100 Clear -35 1038 74 10000 4 360 22:41 13.02.2022
3101 Clear -36 1038 68 10000 4 360 22:22 13.02.2022
3102 Clear -35 1038 68 10000 6 20 21:27 13.02.2022
3103 Clear -35 1038 75 10000 5 30 20:30 13.02.2022
3104 Clear -35 1037 75 10000 4 360 19:24 13.02.2022
3105 Clear -34 1037 75 10000 2 50 18:42 13.02.2022
3106 Clear -33 1037 68 10000 5 350 17:52 13.02.2022
3107 Clear -33 1037 75 10000 5 360 15:54 13.02.2022
3108 Clear -33 1037 75 10000 5 360 15:54 13.02.2022
3109 Clear -33 1037 75 10000 5 40 14:57 13.02.2022
3110 Clear -33 1036 68 10000 4 30 13:59 13.02.2022
3111 Clear -32 1036 75 10000 6 10 12:49 13.02.2022
3112 Clear -33 1036 75 10000 5 20 11:24 13.02.2022
3113 Clear -33 1036 75 10000 4 30 10:28 13.02.2022
3114 Clear -32 1036 68 10000 5 20 09:36 13.02.2022
3115 Clear -32 1034 75 10000 6 30 06:22 13.02.2022
3116 Clouds -30 1034 76 10000 6 10 00:35 13.02.2022
3117 Clear -32 1033 75 10000 6 10 22:59 12.02.2022
3118 Clear -32 1033 75 10000 6 10 22:33 12.02.2022
3119 Clear -33 1033 75 10000 6 10 21:19 12.02.2022
3120 Clear -33 1033 68 10000 5 10 20:32 12.02.2022
3121 Clear -35 1033 74 10000 5 20 19:21 12.02.2022
3122 Clear -35 1032 75 10000 6 20 18:50 12.02.2022
3123 Clear -35 1032 75 10000 6 20 18:32 12.02.2022
3124 Clear -35 1032 68 10000 3 20 16:56 12.02.2022
3125 Clear -35 1032 68 10000 3 20 16:25 12.02.2022
3126 Clear -34 1032 68 10000 5 10 15:50 12.02.2022
3127 Clear -35 1033 68 10000 4 30 14:31 12.02.2022
3128 Clear -35 1032 75 10000 4 10 12:58 12.02.2022
3129 Clear -36 1032 66 10000 5 10 10:40 12.02.2022
3130 Clear -37 1032 73 10000 3 360 09:39 12.02.2022
3131 Clear -37 1032 73 10000 4 10 08:50 12.02.2022
3132 Clear -37 1032 73 10000 4 10 08:18 12.02.2022
3133 Mist -37 1032 73 6000 4 350 05:33 12.02.2022
3134 Mist -37 1032 73 5000 6 350 04:27 12.02.2022
3135 Mist -37 1033 73 5000 5 350 02:18 12.02.2022
3136 Fog -37 1033 67 10000 4 360 22:28 11.02.2022
3137 Clear -38 1033 74 10000 3 340 21:51 11.02.2022
3138 Clear -38 1033 67 10000 3 10 20:40 11.02.2022
3139 Clear -37 1033 67 10000 4 360 19:46 11.02.2022
3140 Clear -37 1033 67 10000 4 360 19:27 11.02.2022
3141 Clear -36 1033 68 10000 5 350 17:55 11.02.2022
3142 Clear -36 1033 68 10000 5 350 17:25 11.02.2022
3143 Clear -36 1033 75 10000 3 360 16:23 11.02.2022
3144 Clear -36 1033 75 10000 5 360 14:43 11.02.2022
3145 Clear -36 1033 75 10000 5 360 14:21 11.02.2022
3146 Clear -37 1034 74 10000 5 340 13:59 11.02.2022
3147 Clear -37 1034 74 10000 5 340 13:39 11.02.2022
3148 Clear -35 1034 75 10000 4 10 11:42 11.02.2022
3149 Clear -34 1034 75 10000 5 340 09:58 11.02.2022
3150 Clear -31 1034 69 10000 3 350 08:49 11.02.2022
3151 Clear -31 1034 69 10000 3 350 08:27 11.02.2022
3152 Clear -31 1033 76 10000 3 360 07:18 11.02.2022
3153 Clear -29 1033 76 10000 3 30 02:39 11.02.2022
3154 Clear -29 1033 76 10000 3 30 02:18 11.02.2022
3155 Clear -29 1031 76 10000 5 20 22:53 10.02.2022
3156 Clear -32 1031 75 10000 4 20 21:50 10.02.2022
3157 Clear -31 1030 76 10000 3 30 21:18 10.02.2022
3158 Clear -31 1030 76 10000 2 40 20:38 10.02.2022
3159 Clear -30 1029 69 10000 4 50 19:26 10.02.2022
3160 Clear -30 1029 69 10000 3 50 18:46 10.02.2022
3161 Clear -29 1028 76 10000 5 20 17:26 10.02.2022
3162 Clear -27 1028 76 10000 6 20 16:50 10.02.2022
3163 Clear -27 1028 76 10000 5 10 15:51 10.02.2022
3164 Clear -27 1028 76 10000 5 10 15:31 10.02.2022
3165 Clear -27 1027 76 10000 5 350 14:48 10.02.2022
3166 Clear -27 1027 76 10000 5 350 14:24 10.02.2022
3167 Clear -28 1027 76 10000 7 360 13:29 10.02.2022
3168 Clear -28 1026 76 10000 6 360 12:50 10.02.2022
3169 Clear -28 1026 76 10000 5 10 11:34 10.02.2022
3170 Clear -29 1025 76 10000 3 350 10:55 10.02.2022
3171 Clear -29 1025 76 10000 3 350 10:18 10.02.2022
3172 Clear -31 1024 76 10000 4 10 09:25 10.02.2022
3173 Clear -32 1024 75 10000 5 360 07:36 10.02.2022
3174 Clear -32 1022 75 10000 4 360 04:58 10.02.2022
3175 Clear -33 1021 74 10000 4 350 01:51 10.02.2022
3176 Clear -32 1020 75 10000 3 340 00:49 10.02.2022
3177 Clear -32 1020 75 10000 3 360 00:28 10.02.2022
3178 Clear -30 1019 76 10000 3 360 23:24 09.02.2022
3179 Clear -29 1018 76 10000 4 360 22:36 09.02.2022
3180 Clear -29 1018 76 10000 4 350 21:52 09.02.2022
3181 Clear -28 1018 76 10000 4 360 21:29 09.02.2022
3182 Clear -28 1017 76 10000 5 20 20:47 09.02.2022
3183 Clear -28 1017 76 10000 5 20 20:27 09.02.2022
3184 Clear -30 1017 76 10000 5 30 19:54 09.02.2022
3185 Clear -30 1017 76 10000 5 30 19:31 09.02.2022
3186 Clear -31 1018 76 10000 4 20 17:37 09.02.2022
3187 Clear -30 1018 76 10000 5 10 16:48 09.02.2022
3188 Fog -31 1018 76 10000 4 20 15:50 09.02.2022
3189 Fog -30 1019 76 10000 5 350 14:35 09.02.2022
3190 Fog -32 1020 75 10000 4 10 12:28 09.02.2022
3191 Clear -32 1020 68 10000 5 20 10:54 09.02.2022
3192 Clear -32 1020 68 10000 5 20 10:26 09.02.2022
3193 Clear -33 1021 75 10000 3 20 09:40 09.02.2022
3194 Clear -33 1021 75 10000 3 20 09:19 09.02.2022
3195 Fog -33 1021 75 10000 3 30 07:53 09.02.2022
3196 Fog -33 1022 75 10000 3 20 05:30 09.02.2022
3197 Fog -33 1022 75 10000 3 20 05:30 09.02.2022
3198 Fog -33 1022 74 10000 2 10 03:50 09.02.2022
3199 Fog -33 1022 74 10000 2 10 03:50 09.02.2022
3200 Fog -36 1024 66 10000 4 360 00:44 09.02.2022
3201 Fog -35 1025 68 10000 4 20 23:32 08.02.2022
3202 Fog -35 1025 68 10000 4 20 23:32 08.02.2022
3203 Fog -35 1025 68 10000 4 20 23:32 08.02.2022
3204 Fog -35 1025 68 10000 4 20 23:32 08.02.2022
3205 Fog -35 1025 66 10000 5 10 22:46 08.02.2022
3206 Fog -35 1025 68 10000 6 350 22:21 08.02.2022
3207 Clouds -35 1025 68 9000 6 350 21:39 08.02.2022
3208 Clouds -35 1025 68 9000 6 350 21:20 08.02.2022
3209 Fog -35 1025 75 10000 6 350 20:43 08.02.2022
3210 Fog -34 1025 68 10000 6 360 19:46 08.02.2022
3211 Clouds -34 1025 75 9000 7 360 18:38 08.02.2022
3212 Fog -33 1025 68 10000 7 350 17:40 08.02.2022
3213 Fog -35 1026 75 10000 7 350 16:29 08.02.2022
3214 Fog -34 1026 75 10000 6 360 15:29 08.02.2022
3215 Clouds -34 1027 68 10000 5 360 14:26 08.02.2022
3216 Fog -35 1027 75 10000 5 340 13:20 08.02.2022
3217 Clouds -33 1028 68 9000 4 340 11:33 08.02.2022
3218 Clear -34 1028 75 10000 5 340 10:18 08.02.2022
3219 Clouds -32 1027 75 10000 7 340 09:41 08.02.2022
3220 Clouds -33 1028 75 10000 3 330 07:46 08.02.2022
3221 Mist -33 1028 75 10000 2 350 05:37 08.02.2022
3222 Fog -32 1028 75 10000 2 340 04:39 08.02.2022
3223 Fog -32 1028 75 10000 2 340 04:21 08.02.2022
3224 Clouds -32 1028 75 7000 4 350 03:36 08.02.2022
3225 Clouds -32 1028 75 7000 4 350 03:18 08.02.2022
3226 Fog -32 1029 75 10000 3 340 02:58 08.02.2022
3227 Fog -31 1029 76 10000 3 340 02:36 08.02.2022
3228 Fog -31 1029 76 10000 3 340 02:18 08.02.2022
3229 Clouds -30 1029 76 6000 2 340 01:43 08.02.2022
3230 Clouds -30 1029 76 6000 2 340 01:24 08.02.2022
3231 Clouds -30 1029 76 6000 2 10 00:49 08.02.2022
3232 Fog -31 1029 76 10000 3 360 23:54 07.02.2022
3233 Mist -32 1029 75 4800 2 350 23:36 07.02.2022
3234 Mist -32 1029 75 4800 2 350 23:18 07.02.2022
3235 Mist -32 1028 75 1900 6 350 22:19 07.02.2022
3236 Clouds -32 1028 68 9000 4 340 21:52 07.02.2022
3237 Fog -32 1028 75 10000 2 350 21:29 07.02.2022
3238 Fog -32 1028 75 10000 2 350 21:29 07.02.2022
3239 Clear -33 1028 75 10000 3 330 20:56 07.02.2022
3240 Clear -33 1028 75 10000 3 330 20:38 07.02.2022
3241 Clouds -33 1028 75 9000 2 320 19:49 07.02.2022
3242 Clouds -33 1028 75 9000 2 320 19:31 07.02.2022
3243 Clear -31 1027 69 10000 4 350 17:41 07.02.2022
3244 Clear -31 1027 76 10000 2 350 16:52 07.02.2022
3245 Clear -31 1027 76 10000 4 340 15:49 07.02.2022
3246 Clear -32 1027 75 10000 3 10 14:44 07.02.2022
3247 Clear -32 1027 75 10000 3 340 13:28 07.02.2022
3248 Clear -31 1026 69 10000 2 360 12:38 07.02.2022
3249 Clear -30 1025 76 10000 2 10 11:55 07.02.2022
3250 Clear -30 1025 76 10000 2 10 11:33 07.02.2022
3251 Clear -32 1025 75 10000 2 330 10:47 07.02.2022
3252 Clear -32 1025 75 10000 2 330 10:28 07.02.2022
3253 Clear -31 1025 76 10000 2 340 09:52 07.02.2022
3254 Clear -31 1025 76 10000 2 340 09:18 07.02.2022
3255 Clear -30 1024 76 10000 3 350 08:20 07.02.2022
3256 Clear -26 1023 76 10000 3 350 06:35 07.02.2022
3257 Clear -26 1023 76 10000 1 0 05:47 07.02.2022
3258 Fog -27 1024 76 10000 3 10 02:56 07.02.2022
3259 Clear -28 1024 76 10000 5 350 00:33 07.02.2022
3260 Clear -29 1025 76 10000 3 360 23:41 06.02.2022
3261 Clear -29 1025 76 10000 3 360 22:47 06.02.2022
3262 Clear -28 1025 76 10000 3 360 21:51 06.02.2022
3263 Clear -29 1025 76 10000 4 340 21:26 06.02.2022
3264 Clear -28 1025 83 10000 5 350 20:52 06.02.2022
3265 Clear -28 1025 83 10000 5 350 20:24 06.02.2022
3266 Clear -28 1025 76 10000 4 10 19:30 06.02.2022
3267 Clear -27 1025 76 10000 2 360 18:38 06.02.2022
3268 Clear -26 1025 76 10000 4 10 17:54 06.02.2022
3269 Clear -27 1025 76 10000 4 10 16:53 06.02.2022
3270 Clear -27 1025 76 10000 4 10 16:32 06.02.2022
3271 Clear -27 1025 76 10000 4 350 15:47 06.02.2022
3272 Clear -27 1025 76 10000 4 350 15:26 06.02.2022
3273 Clear -27 1025 83 10000 3 340 14:27 06.02.2022
3274 Clear -27 1025 83 10000 4 350 13:24 06.02.2022
3275 Clear -26 1025 76 10000 4 350 12:45 06.02.2022
3276 Clear -24 1025 70 10000 3 350 11:23 06.02.2022
3277 Clear -24 1025 77 10000 4 360 09:56 06.02.2022
3278 Clear -24 1025 70 10000 3 350 08:47 06.02.2022
3279 Clear -25 1025 77 10000 3 30 07:36 06.02.2022
3280 Clear -22 1024 71 10000 3 350 05:29 06.02.2022
3281 Clear -21 1024 71 10000 2 350 02:26 06.02.2022
3282 Clear -20 1024 71 10000 1 0 01:32 06.02.2022
3283 Clear -21 1024 71 10000 1 0 00:24 06.02.2022
3284 Clear -21 1023 77 10000 3 10 22:19 05.02.2022
3285 Clear -19 1022 84 10000 1 0 20:52 05.02.2022
3286 Clear -19 1022 84 10000 1 0 20:24 05.02.2022
3287 Clear -21 1021 77 10000 9 360 19:45 05.02.2022
3288 Clear -19 1021 71 10000 5 360 18:49 05.02.2022
3289 Clear -31 1022 96 10000 1.55 318 17:37 05.02.2022
3290 Clear -30 1022 95 10000 1.43 308 16:48 05.02.2022
3291 Clear -18 1019 71 10000 3 340 15:33 05.02.2022
3292 Clear -19 1019 78 10000 2 220 14:47 05.02.2022
3293 Clear -29 1020 94 10000 1.39 298 12:46 05.02.2022
3294 Clear -21 1018 71 10000 5 360 11:49 05.02.2022
3295 Clear -20 1017 77 10000 4 30 10:46 05.02.2022
3296 Clear -21 1017 71 10000 3 20 09:52 05.02.2022
3297 Clear -21 1017 71 10000 3 20 09:25 05.02.2022
3298 Clear -16 1015 60 10000 1 310 07:36 05.02.2022
3299 Clear -15 1014 61 10000 1 0 06:56 05.02.2022
3300 Clear -22 1013 79 10000 2.16 0 03:55 05.02.2022
3301 Clear -9 1012 35 10000 9 40 01:19 05.02.2022
3302 Clear -10 1012 41 10000 8 10 00:42 05.02.2022
3303 Clear -11 1011 44 10000 10 360 23:38 04.02.2022
3304 Clear -11 1011 44 10000 10 360 23:20 04.02.2022
3305 Clear -24 1011 77 10000 3.31 356 21:36 04.02.2022
3306 Clear -24 1011 79 10000 3.29 1 21:18 04.02.2022
3307 Clear -12 1010 52 10000 12 350 20:46 04.02.2022
3308 Clear -25 1010 79 10000 3.01 1 19:30 04.02.2022
3309 Clear -23 1010 74 10000 4.09 11 16:56 04.02.2022
3310 Clear -22 1010 74 10000 4.39 12 15:34 04.02.2022
3311 Clear -22 1011 74 10000 4.4 12 14:51 04.02.2022
3312 Clear -22 1012 73 10000 4.38 12 12:43 04.02.2022
3313 Clear -21 1012 71 10000 4.31 10 11:46 04.02.2022
3314 Clear -21 1012 73 10000 3.77 9 11:18 04.02.2022
3315 Clear -21 1012 73 10000 3.77 9 10:30 04.02.2022
3316 Clear -10 1012 44 10000 4 60 08:33 04.02.2022
3317 Clouds -10 1010 62 5000 15 40 04:53 04.02.2022
3318 Clouds -9 1012 48 9000 11 40 02:38 04.02.2022
3319 Clouds -10 1013 62 3200 17 50 00:26 04.02.2022
3320 Clouds -11 1013 62 4500 9 70 22:55 03.02.2022
3321 Clouds -10 1013 57 6000 7 70 22:22 03.02.2022
3322 Clouds -10 1013 57 10000 12 70 21:41 03.02.2022
3323 Clouds -10 1013 57 1400 13 80 20:22 03.02.2022
3324 Clouds -11 1013 62 3800 16 80 19:57 03.02.2022
3325 Clouds -11 1013 62 3800 16 80 19:23 03.02.2022
3326 Clouds -11 1014 62 6000 16 80 18:24 03.02.2022
3327 Clouds -10 1014 52 9000 14 80 17:26 03.02.2022
3328 Clouds -10 1015 57 4800 17 70 15:38 03.02.2022
3329 Clouds -10 1015 52 7000 14 70 14:18 03.02.2022
3330 Clouds -9 1015 53 5000 14 80 12:32 03.02.2022
3331 Clouds -10 1016 67 1000 12 80 08:59 03.02.2022
3332 Clouds -10 1016 67 1000 12 80 08:18 03.02.2022
3333 Clear -10 1017 72 1000 16 30 00:59 03.02.2022
3334 Clear -14 1017 78 1000 17 30 00:22 03.02.2022
3335 Clear -9 1018 57 8000 10 60 22:40 02.02.2022
3336 Clear -8 1018 53 7000 16 50 21:52 02.02.2022
3337 Clear -8 1018 57 9000 13 70 21:29 02.02.2022
3338 Clear -7 1017 49 10000 15 80 20:27 02.02.2022
3339 Clear -15 1020 60 10000 7.35 36 19:48 02.02.2022
3340 Clear -16 1020 64 10000 6.5 35 19:00 02.02.2022
3341 Clear -16 1021 65 10000 5.5 40 18:25 02.02.2022
3342 Clear -8 1016 57 2500 15 80 17:22 02.02.2022
3343 Clear -17 1021 70 10000 4.92 44 16:58 02.02.2022
3344 Clear -17 1021 67 10000 4.91 40 15:29 02.02.2022
3345 Clear -11 1020 73 10000 1 0 12:31 02.02.2022
3346 Clear -10 1020 73 10000 3 350 11:49 02.02.2022
3347 Clear -10 1020 73 10000 3 350 11:30 02.02.2022
3348 Clear -10 1021 62 10000 5 350 08:48 02.02.2022
3349 Clear -8 1021 57 10000 2 310 04:57 02.02.2022
3350 Clouds -6 1021 58 10000 13 80 22:34 01.02.2022
3351 Clear -9 1021 62 10000 8 20 20:55 01.02.2022
3352 Clear -8 1021 53 10000 4 10 19:29 01.02.2022
3353 Clouds -8 1020 62 9000 12 90 17:37 01.02.2022
3354 Clouds -9 1019 67 1200 14 80 16:31 01.02.2022
3355 Snow -8 1017 79 500 18 90 13:27 01.02.2022
3356 Snow -8 1017 79 400 17 90 12:28 01.02.2022
3357 Clouds -8 1020 62 7000 11 80 08:52 01.02.2022
3358 Clear -8 1021 53 10000 5 10 02:21 01.02.2022
3359 Clouds -22 1024 91 10000 0.69 360 23:38 31.01.2022
3360 Clouds -23 1024 93 10000 0.9 20 22:42 31.01.2022
3361 Clouds -23 1024 95 10000 0.07 198 21:35 31.01.2022
3362 Clear -11 1023 67 10000 2 330 20:35 31.01.2022
3363 Clouds -22 1024 94 10000 0.27 83 19:58 31.01.2022
3364 Clouds -21 1024 88 10000 0.61 347 18:32 31.01.2022
3365 Clouds -21 1024 88 10000 0.61 347 18:32 31.01.2022
3366 Clear -9 1024 53 10000 3 60 17:57 31.01.2022
3367 Clear -9 1024 53 10000 3 60 17:24 31.01.2022
3368 Clear -14 1025 66 10000 2 10 16:23 31.01.2022
3369 Clouds -22 1025 95 10000 1.13 325 14:53 31.01.2022
3370 Clouds -22 1026 97 10000 1.1 319 13:35 31.01.2022
3371 Clouds -11 1026 67 10000 7 100 12:38 31.01.2022
3372 Clouds -11 1026 79 10000 9 90 11:26 31.01.2022
3373 Clouds -23 1027 96 10000 1.82 347 10:48 31.01.2022
3374 Clouds -18 1027 92 10000 2 310 09:37 31.01.2022
3375 Clouds -13 1026 92 10000 8 90 08:56 31.01.2022
3376 Clouds -13 1026 92 10000 8 90 08:20 31.01.2022
3377 Clear -19 1027 78 10000 2 290 07:43 31.01.2022
3378 Clear -26 1027 83 10000 1 0 05:33 31.01.2022
3379 Clear -27 1028 75 10000 3.58 350 00:36 31.01.2022
3380 Fog -29 1028 75 10000 1 0 22:33 30.01.2022
3381 Fog -29 1028 75 10000 0.89 360 21:47 30.01.2022
3382 Clouds -29 1028 75 10000 0.89 350 21:26 30.01.2022
3383 Fog -29 1028 75 10000 1.79 10 20:54 30.01.2022
3384 Fog -29 1028 75 10000 1.79 10 20:31 30.01.2022
3385 Mist -29 1028 82 5000 0.89 360 19:58 30.01.2022
3386 Fog -28 1028 75 800 0.89 350 18:52 30.01.2022
3387 Fog -28 1028 75 800 0.89 350 18:26 30.01.2022
3388 Mist -28 1028 75 2000 2 10 17:31 30.01.2022
3389 Fog -27 1028 76 300 2 10 16:44 30.01.2022
3390 Fog -27 1028 75 300 1.79 10 16:23 30.01.2022
3391 Fog -27 1028 75 450 0 0 15:55 30.01.2022
3392 Fog -27 1028 75 450 0 0 15:37 30.01.2022
3393 Fog -27 1028 75 450 0 0 15:19 30.01.2022
3394 Fog -26 1028 76 350 1 20 14:44 30.01.2022
3395 Fog -25 1028 77 10000 0 0 12:46 30.01.2022
3396 Fog -24 1028 77 750 2 330 11:49 30.01.2022
3397 Fog -24 1028 77 650 2 70 10:26 30.01.2022
3398 Fog -26 1027 83 10000 2.68 360 09:26 30.01.2022
3399 Mist -21 1027 77 1200 5 170 08:44 30.01.2022
3400 Mist -23 1026 84 2100 0 0 02:58 30.01.2022
3401 Fog -23 1025 77 2100 1 160 01:54 30.01.2022
3402 Fog -26 1026 75 450 0 0 23:50 29.01.2022
3403 Mist -26 1026 83 1200 0 0 22:58 29.01.2022
3404 Mist -26 1025 83 10000 0.89 350 21:44 29.01.2022
3405 Mist -26 1025 83 10000 1 350 21:20 29.01.2022
3406 Fog -25 1025 76 1000 1 330 20:21 29.01.2022
3407 Fog -23 1025 77 10000 0 0 19:33 29.01.2022
3408 Fog -23 1026 84 3100 1 330 18:51 29.01.2022
3409 Fog -23 1026 84 3100 1 330 18:18 29.01.2022
3410 Fog -21 1026 77 2300 2 360 17:27 29.01.2022
3411 Fog -22 1027 84 400 1 40 15:42 29.01.2022
3412 Fog -20 1028 77 150 0 0 13:58 29.01.2022
3413 Fog -20 1028 76 150 0 0 13:37 29.01.2022
3414 Fog -20 1028 77 150 0 0 13:18 29.01.2022
3415 Fog -21 1028 76 10000 0.89 180 11:40 29.01.2022
3416 Mist -23 1028 83 1800 1.79 360 10:38 29.01.2022
3417 Clear -23 1029 83 10000 1 30 08:36 29.01.2022
3418 Fog -21 1029 83 10000 0 0 03:25 29.01.2022
3419 Fog -21 1030 83 10000 2 350 00:32 29.01.2022
3420 Fog -21 1030 83 500 1 0 23:32 28.01.2022
3421 Fog -22 1030 83 10000 0 0 22:48 28.01.2022
3422 Fog -22 1030 83 10000 0 0 22:20 28.01.2022
3423 Clear -21 1030 84 10000 1 0 20:41 28.01.2022
3424 Clear -21 1030 84 10000 2 330 19:59 28.01.2022
3425 Clear -21 1030 84 10000 2 330 19:18 28.01.2022
3426 Clouds -19 1030 78 8000 2 330 18:35 28.01.2022
3427 Clear -20 1030 84 10000 2 350 16:37 28.01.2022
3428 Clear -18 1030 85 10000 1 0 14:58 28.01.2022
3429 Clear -18 1031 85 10000 0 0 13:23 28.01.2022
3430 Clear -18 1031 85 10000 2 320 11:52 28.01.2022
3431 Clear -18 1031 92 10000 2 340 10:27 28.01.2022
3432 Clear -17 1031 85 10000 3 290 09:47 28.01.2022
3433 Clear -11 1030 79 10000 1 0 07:43 28.01.2022
3434 Clear -13 1030 85 10000 1 0 06:30 28.01.2022
3435 Clouds -11 1031 79 10000 5 60 03:51 28.01.2022
3436 Clouds -10 1030 79 10000 4 20 02:28 28.01.2022
3437 Clouds -10 1031 73 10000 5 120 01:38 28.01.2022
3438 Clouds -21 1033 98 2697 1.64 45 00:46 28.01.2022
3439 Fog -10 1031 85 10000 3 80 22:39 27.01.2022
3440 Snow -11 1031 85 9000 8 60 21:40 27.01.2022
3441 Snow -12 1031 92 5000 1 0 20:59 27.01.2022
3442 Snow -13 1031 85 9000 4 320 19:45 27.01.2022
3443 Snow -14 1031 85 5000 3 340 18:22 27.01.2022
3444 Snow -15 1031 85 1200 3 320 16:59 27.01.2022
3445 Snow -15 1032 85 1600 1 280 14:23 27.01.2022
3446 Snow -13 1032 78 4300 6 50 12:49 27.01.2022
3447 Snow -13 1032 78 4300 6 50 12:18 27.01.2022
3448 Snow -13 1032 85 10000 0 0 09:49 27.01.2022
3449 Snow -14 1032 85 10000 2 350 08:40 27.01.2022
3450 Clouds -24 1034 96 4055 1.28 29 07:53 27.01.2022
3451 Clouds -25 1034 97 1208 1.39 8 03:34 27.01.2022
3452 Clouds -29 1034 98 789 2.06 19 00:24 27.01.2022
3453 Clouds -30 1033 96 1706 1.13 353 22:28 26.01.2022
3454 Clouds -30 1033 96 1706 1.13 353 21:44 26.01.2022
3455 Clouds -31 1033 95 2468 1.2 38 20:52 26.01.2022
3456 Clouds -31 1033 95 2468 1.2 38 20:33 26.01.2022
3457 Clouds -32 1032 93 5553 1.52 9 19:49 26.01.2022
3458 Clouds -32 1032 92 7144 1.71 13 18:48 26.01.2022
3459 Clouds -32 1032 93 5265 1.16 7 18:24 26.01.2022
3460 Clouds -32 1032 93 5265 1.16 7 17:34 26.01.2022
3461 Clouds -33 1032 92 10000 1.65 20 16:56 26.01.2022
3462 Clouds -33 1032 91 10000 2.14 17 16:23 26.01.2022
3463 Clouds -20 1029 77 10000 2 30 14:54 26.01.2022
3464 Clouds -20 1029 84 10000 3 100 12:22 26.01.2022
3465 Clouds -32 1031 91 10000 0.69 136 10:52 26.01.2022
3466 Clouds -35 1030 94 10000 0.93 142 09:55 26.01.2022
3467 Clouds -35 1030 94 10000 0.93 142 09:36 26.01.2022
3468 Clear -29 1027 76 10000 1 300 06:43 26.01.2022
3469 Clear -29 1023 76 10000 6 30 00:26 26.01.2022
3470 Clouds -29 1023 76 10000 7 30 23:43 25.01.2022
3471 Clear -30 1023 76 10000 5 10 22:49 25.01.2022
3472 Clear -31 1022 76 10000 5 20 22:19 25.01.2022
3473 Clear -33 1021 74 10000 4.92 20 21:28 25.01.2022
3474 Clear -34 1021 73 10000 5.81 40 20:45 25.01.2022
3475 Clear -33 1020 74 10000 5 20 19:57 25.01.2022
3476 Clear -33 1020 74 10000 5 20 19:32 25.01.2022
3477 Clear -31 1018 76 10000 5 340 17:56 25.01.2022
3478 Clear -31 1018 76 10000 5 340 17:37 25.01.2022
3479 Clear -30 1017 76 10000 4 20 16:35 25.01.2022
3480 Clear -30 1016 69 10000 5 360 15:39 25.01.2022
3481 Clear -30 1016 69 10000 5 360 15:20 25.01.2022
3482 Clear -33 1016 68 10000 5 30 14:56 25.01.2022
3483 Clear -34 1014 75 10000 3 10 12:22 25.01.2022
3484 Clear -34 1011 75 10000 3 320 09:39 25.01.2022
3485 Clear -32 1011 68 10000 4 350 08:21 25.01.2022
3486 Clear -34 1010 75 10000 4 20 07:27 25.01.2022
3487 Clear -31 1008 76 10000 2 340 05:26 25.01.2022
3488 Fog -31 1006 76 10000 3 40 00:57 25.01.2022
3489 Clouds -31 1005 76 10000 3 10 23:36 24.01.2022
3490 Clouds -31 1005 76 10000 3 10 23:18 24.01.2022
3491 Fog -31 1005 76 10000 3 10 22:53 24.01.2022
3492 Fog -32 1005 75 10000 3 10 22:35 24.01.2022
3493 Fog -30 1004 76 10000 5 320 21:42 24.01.2022
3494 Fog -30 1004 76 10000 5 320 21:24 24.01.2022
3495 Clouds -31 1003 76 10000 4 350 20:28 24.01.2022
3496 Clouds -30 1003 76 9000 6 300 19:38 24.01.2022
3497 Mist -29 1003 76 4500 7 300 18:50 24.01.2022
3498 Clouds -31 1003 76 9000 7 310 17:42 24.01.2022
3499 Clouds -31 1003 76 9000 7 310 17:22 24.01.2022
3500 Fog -31 1003 76 10000 5 330 16:31 24.01.2022
3501 Clear -33 1003 74 10000 4 350 15:35 24.01.2022
3502 Clear -32 1003 74 10000 4 10 14:19 24.01.2022
3503 Clear -30 1003 76 10000 6 320 12:35 24.01.2022
3504 Clear -29 1003 76 10000 5 350 11:42 24.01.2022
3505 Clouds -31 1003 74 10000 3.58 10 10:19 24.01.2022
3506 Clouds -31 1003 74 10000 2.68 360 09:45 24.01.2022
3507 Mist -28 1002 76 5000 3 300 08:18 24.01.2022
3508 Clear -28 1002 75 10000 3 360 02:26 24.01.2022
3509 Clouds -26 1002 75 10000 3 350 01:26 24.01.2022
3510 Clouds -26 1002 75 10000 3 350 01:26 24.01.2022
3511 Clouds -27 1002 76 10000 2 350 00:31 24.01.2022
3512 Clouds -30 1001 75 10000 3 30 23:40 23.01.2022
3513 Clouds -28 1001 75 10000 3.58 10 22:21 23.01.2022
3514 Clouds -29 1000 75 10000 4 30 21:41 23.01.2022
3515 Clouds -32 1000 75 10000 4 30 21:23 23.01.2022
3516 Clouds -31 999 74 10000 3.58 20 20:23 23.01.2022
3517 Clouds -29 998 75 10000 5.81 20 18:56 23.01.2022
3518 Clouds -29 998 75 10000 5.81 20 18:24 23.01.2022
3519 Mist -27 997 75 6000 5 20 17:19 23.01.2022
3520 Snow -26 997 75 9000 2.68 10 15:59 23.01.2022
3521 Snow -26 996 75 9000 3.58 360 14:52 23.01.2022
3522 Snow -26 996 75 9000 3.58 360 14:19 23.01.2022
3523 Snow -22 995 76 9000 4.92 360 12:46 23.01.2022
3524 Snow -22 995 76 9000 5 360 12:21 23.01.2022
3525 Snow -21 994 77 10000 7 340 11:27 23.01.2022
3526 Snow -20 993 77 10000 5 10 10:58 23.01.2022
3527 Snow -20 993 77 10000 5 10 10:25 23.01.2022
3528 Snow -20 993 84 10000 1 300 09:32 23.01.2022
3529 Snow -20 992 84 7000 2 100 08:50 23.01.2022
3530 Snow -19 990 84 2700 0 0 03:59 23.01.2022
3531 Snow -19 990 84 1800 1 200 01:40 23.01.2022
3532 Snow -21 993 83 1800 0 0 00:47 23.01.2022
3533 Snow -21 993 83 1800 0 0 00:18 23.01.2022
3534 Snow -21 990 83 2200 1.79 330 23:18 22.01.2022
3535 Snow -21 990 83 7000 1 360 22:33 22.01.2022
3536 Snow -21 990 83 3400 1 0 20:47 22.01.2022
3537 Snow -21 990 83 4100 2.68 360 19:46 22.01.2022
3538 Snow -22 990 83 10000 1.79 10 18:41 22.01.2022
3539 Snow -21 990 76 3500 2.68 360 17:49 22.01.2022
3540 Snow -21 990 76 3500 2.68 360 17:31 22.01.2022
3541 Snow -21 990 76 4800 2.68 340 16:54 22.01.2022
3542 Snow -21 994 76 2100 3.58 350 15:45 22.01.2022
3543 Snow -22 991 83 1100 4 330 14:57 22.01.2022
3544 Snow -24 995 76 800 3.58 320 13:36 22.01.2022
3545 Snow -26 993 76 550 4 30 12:40 22.01.2022
3546 Snow -26 993 76 550 4 30 12:22 22.01.2022
3547 Snow -28 995 76 1000 3 360 10:55 22.01.2022
3548 Snow -28 995 76 1000 3 360 10:27 22.01.2022
3549 Snow -27 996 76 1400 6 340 09:43 22.01.2022
3550 Snow -28 996 76 2000 6 340 08:51 22.01.2022
3551 Snow -28 997 75 5000 4.92 330 07:27 22.01.2022
3552 Clouds -32 1000 75 9000 4 350 04:50 22.01.2022
3553 Clouds -36 1004 75 10000 6 330 00:57 22.01.2022
3554 Clouds -36 1004 73 10000 6 330 23:21 21.01.2022
3555 Fog -36 1006 66 10000 5.81 360 22:19 21.01.2022
3556 Clear -36 1009 73 10000 2.68 360 19:55 21.01.2022
3557 Clear -36 1010 73 10000 3.58 50 18:23 21.01.2022
3558 Clouds -36 1012 66 9000 3.58 20 16:58 21.01.2022
3559 Clear -36 1013 73 10000 4 360 15:27 21.01.2022
3560 Clouds -35 1014 66 10000 6 360 13:18 21.01.2022
3561 Fog -35 1015 68 10000 5 360 12:26 21.01.2022
3562 Fog -36 1016 73 10000 4.92 340 11:26 21.01.2022
3563 Clouds -37 1017 73 7000 3.58 340 09:34 21.01.2022
3564 Clear -36 1017 73 10000 4 360 08:22 21.01.2022
3565 Clouds -36 1020 66 8000 4 10 04:37 21.01.2022
3566 Mist -36 1023 66 2000 6 350 23:20 20.01.2022
3567 Mist -38 1024 65 2700 2.68 360 21:50 20.01.2022
3568 Mist -38 1024 73 2300 1.79 10 21:31 20.01.2022
3569 Mist -38 1024 66 2900 3 350 20:31 20.01.2022
3570 Mist -38 1025 65 1700 2.68 350 19:19 20.01.2022
3571 Mist -37 1025 65 2500 3 360 18:18 20.01.2022
3572 Clouds -39 1026 72 10000 2 360 16:40 20.01.2022
3573 Clouds -39 1027 72 9000 4 360 15:40 20.01.2022
3574 Clouds -38 1027 73 10000 4 360 14:40 20.01.2022
3575 Clouds -37 1028 65 10000 3 340 13:32 20.01.2022
3576 Clouds -38 1028 73 10000 3 350 12:31 20.01.2022
3577 Clouds -38 1028 73 7000 3 350 11:36 20.01.2022
3578 Clouds -37 1029 65 8000 3.58 360 10:37 20.01.2022
3579 Mist -37 1029 73 10000 1.79 340 09:34 20.01.2022
3580 Clouds -38 1029 73 7000 1 0 07:33 20.01.2022
3581 Clear -36 1031 66 10000 1.79 350 00:43 20.01.2022
3582 Fog -37 1031 65 10000 3.58 350 22:54 19.01.2022
3583 Fog -37 1032 73 10000 3.58 350 21:48 19.01.2022
3584 Fog -37 1031 65 10000 2.68 350 21:23 19.01.2022
3585 Clouds -37 1031 73 10000 2.68 340 20:46 19.01.2022
3586 Mist -37 1031 73 4500 2.68 350 19:42 19.01.2022
3587 Clouds -37 1032 65 7000 2.68 340 17:55 19.01.2022
3588 Clouds -37 1032 65 7000 2.68 340 17:35 19.01.2022
3589 Clear -37 1032 73 10000 4 350 16:46 19.01.2022
3590 Clear -36 1032 68 10000 3 350 14:42 19.01.2022
3591 Clear -36 1032 73 10000 3 330 12:41 19.01.2022
3592 Clear -34 1032 68 10000 4 30 11:39 19.01.2022
3593 Clouds -36 1032 66 10000 4 20 10:20 19.01.2022
3594 Clear -36 1032 73 10000 3 10 09:33 19.01.2022
3595 Clear -31 1032 69 10000 3 10 06:35 19.01.2022
3596 Clouds -32 1032 67 10000 3 10 02:38 19.01.2022
3597 Clear -36 1033 66 10000 2.68 10 23:19 18.01.2022
3598 Fog -36 1033 73 10000 2.68 20 22:19 18.01.2022
3599 Clouds -34 1033 66 10000 2.68 360 20:55 18.01.2022
3600 Clear -36 1033 73 10000 2.68 340 19:54 18.01.2022
3601 Clear -36 1033 73 10000 3 340 19:36 18.01.2022
3602 Clouds -36 1033 73 10000 2.68 350 18:38 18.01.2022
3603 Clouds -36 1034 73 10000 1.79 10 17:57 18.01.2022
3604 Clouds -34 1034 73 8000 1 0 16:38 18.01.2022
3605 Clear -34 1034 73 10000 1 0 15:40 18.01.2022
3606 Clear -34 1034 73 10000 1 0 15:20 18.01.2022
3607 Clouds -36 1035 73 10000 2 350 12:30 18.01.2022
3608 Clouds -34 1034 75 7000 4 350 10:46 18.01.2022
3609 Mist -34 1034 75 5000 4 340 08:49 18.01.2022
3610 Clouds -33 1034 75 7000 2 320 07:49 18.01.2022
3611 Fog -32 1034 68 10000 3 360 02:33 18.01.2022
3612 Clear -34 1034 74 10000 3 350 23:22 17.01.2022
3613 Clear -36 1034 73 10000 4 350 22:26 17.01.2022
3614 Clear -34 1033 75 10000 2 330 21:33 17.01.2022
3615 Clear -33 1033 68 10000 4 350 19:57 17.01.2022
3616 Clear -33 1033 68 10000 4 360 18:29 17.01.2022
3617 Clear -34 1033 74 10000 4 350 17:25 17.01.2022
3618 Clear -34 1033 74 10000 3 360 16:35 17.01.2022
3619 Clear -33 1033 75 10000 3 360 14:59 17.01.2022
3620 Clear -33 1033 75 10000 3 360 14:33 17.01.2022
3621 Clear -33 1033 68 10000 3 350 13:20 17.01.2022
3622 Clear -33 1034 75 10000 4 350 12:54 17.01.2022
3623 Clear -33 1034 75 10000 3 350 11:48 17.01.2022
3624 Clear -32 1034 75 10000 3 350 10:21 17.01.2022
3625 Clear -33 1034 75 10000 3 350 08:51 17.01.2022
3626 Clear -32 1034 68 10000 3 330 07:22 17.01.2022
3627 Clear -30 1034 76 10000 3 340 02:54 17.01.2022
3628 Clear -30 1034 76 10000 2 320 00:54 17.01.2022
3629 Clear -30 1034 76 10000 1 0 21:44 16.01.2022
3630 Clouds -37 1035 98 10000 2.84 330 20:33 16.01.2022
3631 Clouds -37 1035 98 10000 2.84 330 20:33 16.01.2022
3632 Fog -29 1033 76 10000 5 330 18:50 16.01.2022
3633 Clear -28 1033 83 10000 6 350 17:57 16.01.2022
3634 Clear -29 1033 76 10000 6 350 16:59 16.01.2022
3635 Clear -29 1033 76 10000 6 350 16:20 16.01.2022
3636 Clear -28 1034 76 10000 2 40 14:30 16.01.2022
3637 Clear -28 1033 76 10000 6 350 13:34 16.01.2022
3638 Clear -29 1033 76 10000 6 340 12:27 16.01.2022
3639 Fog -29 1034 76 10000 3 330 11:40 16.01.2022
3640 Clear -28 1033 76 10000 6 360 10:46 16.01.2022
3641 Clouds -27 1032 76 10000 7 360 09:59 16.01.2022
3642 Clouds -29 1032 76 10000 1 0 09:40 16.01.2022
3643 Clouds -29 1032 76 10000 1 0 09:21 16.01.2022
3644 Clouds -31 1032 76 10000 6 340 07:23 16.01.2022
3645 Clear -29 1030 76 10000 3 350 00:36 16.01.2022
3646 Clear -30 1030 76 10000 5 10 23:22 15.01.2022
3647 Clear -30 1029 76 10000 7 340 21:23 15.01.2022
3648 Clear -31 1029 74 10000 2.68 350 20:48 15.01.2022
3649 Clear -31 1029 74 10000 2.68 350 20:29 15.01.2022
3650 Clear -30 1028 75 10000 5 340 19:27 15.01.2022
3651 Clear -29 1027 76 10000 7 350 18:28 15.01.2022
3652 Clear -29 1027 76 10000 2 20 16:49 15.01.2022
3653 Clear -28 1027 76 10000 5 340 14:48 15.01.2022
3654 Clear -28 1027 76 10000 4 350 13:29 15.01.2022
3655 Clear -28 1026 76 10000 5 360 11:33 15.01.2022
3656 Clear -29 1024 75 10000 6.71 360 09:46 15.01.2022
3657 Clear -31 1023 74 10000 3.58 330 05:18 15.01.2022
3658 Clear -32 1022 74 10000 4 310 23:40 14.01.2022
3659 Fog -31 1021 74 10000 1.79 270 21:19 14.01.2022
3660 Fog -31 1021 74 10000 6.71 340 20:37 14.01.2022
3661 Clouds -31 1021 74 6000 4.92 350 19:56 14.01.2022
3662 Fog -32 1021 74 10000 5.81 350 18:43 14.01.2022
3663 Fog -31 1020 76 10000 6 340 17:52 14.01.2022
3664 Clouds -31 1020 76 10000 5 330 16:43 14.01.2022
3665 Clouds -31 1020 76 10000 5 330 16:43 14.01.2022
3666 Fog -31 1020 76 10000 2 300 15:33 14.01.2022
3667 Mist -27 1020 76 5000 4 350 14:29 14.01.2022
3668 Mist -28 1020 76 2100 4 340 12:59 14.01.2022
3669 Clouds -30 1019 76 7000 6 350 11:53 14.01.2022
3670 Mist -31 1020 76 9000 1 0 10:40 14.01.2022
3671 Clouds -31 1019 76 10000 7 360 08:53 14.01.2022
3672 Clouds -28 1020 76 10000 6 360 07:35 14.01.2022
3673 Mist -31 1020 76 1100 7 340 02:28 14.01.2022
3674 Mist -29 1021 76 9000 1 0 00:33 14.01.2022
3675 Clouds -31 1021 76 8000 1 0 21:53 13.01.2022
3676 Mist -32 1022 75 2200 2 310 21:29 13.01.2022
3677 Mist -31 1021 76 2700 2 320 20:27 13.01.2022
3678 Clouds -31 1022 76 10000 2 10 19:30 13.01.2022
3679 Clouds -31 1022 76 10000 4 360 18:49 13.01.2022
3680 Fog -32 1022 75 2200 4 350 16:58 13.01.2022
3681 Mist -31 1022 76 1200 4 340 15:49 13.01.2022
3682 Fog -31 1022 76 1200 4 340 15:26 13.01.2022
3683 Fog -32 1022 75 800 5 350 13:36 13.01.2022
3684 Clear -31 1023 76 10000 4 360 11:38 13.01.2022
3685 Clear -30 1023 76 10000 2 340 09:37 13.01.2022
3686 Clear -30 1023 76 10000 4 350 08:52 13.01.2022
3687 Clear -30 1023 75 10000 4 350 08:18 13.01.2022
3688 Clear -30 1023 76 10000 3 360 07:20 13.01.2022
3689 Clear -28 1023 76 10000 3 10 05:21 13.01.2022
3690 Clear -28 1023 76 10000 3 20 04:55 13.01.2022
3691 Clouds -28 1023 76 7000 5 350 01:41 13.01.2022
3692 Mist -28 1023 76 3300 1 0 23:54 12.01.2022
3693 Mist -28 1023 76 3300 1 0 23:34 12.01.2022
3694 Clear -29 1023 76 10000 4 20 22:35 12.01.2022
3695 Clouds -30 1023 76 9000 6 350 21:49 12.01.2022
3696 Fog -29 1024 76 10000 5 350 21:20 12.01.2022
3697 Clear -29 1023 76 10000 3 360 20:49 12.01.2022
3698 Clear -28 1023 76 10000 4 360 19:23 12.01.2022
3699 Clear -28 1023 83 10000 5 350 18:27 12.01.2022
3700 Clear -29 1023 83 10000 4 10 16:58 12.01.2022
3701 Clear -28 1023 76 10000 4 350 15:49 12.01.2022
3702 Clear -29 1023 75 10000 4 350 14:45 12.01.2022
3703 Clear -29 1022 76 10000 3 350 12:58 12.01.2022
3704 Clear -29 1020 75 10000 3 10 09:58 12.01.2022
3705 Clouds -27 1019 76 10000 3 340 07:59 12.01.2022
3706 Clouds -27 1019 76 10000 3 340 07:33 12.01.2022
3707 Clear -27 1018 75 10000 3 330 05:30 12.01.2022
3708 Clear -25 1016 77 10000 5 320 23:29 11.01.2022
3709 Clear -26 1016 76 10000 5 350 22:41 11.01.2022
3710 Clear -26 1016 76 10000 5 350 22:20 11.01.2022
3711 Clear -26 1015 76 10000 5 20 20:40 11.01.2022
3712 Clear -26 1015 76 10000 5 350 19:41 11.01.2022
3713 Clear -25 1014 70 10000 3 340 18:22 11.01.2022
3714 Clear -26 1013 76 10000 3 250 16:59 11.01.2022
3715 Clear -26 1013 76 10000 3 250 16:35 11.01.2022
3716 Clear -25 1013 77 10000 6 10 14:57 11.01.2022
3717 Clear -25 1013 77 10000 6 10 14:39 11.01.2022
3718 Clear -27 1014 76 10000 6 350 13:53 11.01.2022
3719 Clear -27 1014 76 10000 6 350 13:31 11.01.2022
3720 Clear -26 1014 70 10000 3 300 12:37 11.01.2022
3721 Clear -25 1014 77 10000 8 340 10:52 11.01.2022
3722 Clear -28 1014 76 10000 5 340 08:53 11.01.2022
3723 Clear -28 1014 75 10000 3.58 330 06:22 11.01.2022
3724 Clear -27 1014 69 10000 1 0 00:28 11.01.2022
3725 Clear -29 1014 75 10000 4 360 23:40 10.01.2022
3726 Clear -29 1014 76 10000 8 10 22:43 10.01.2022
3727 Clear -27 1014 69 10000 6 350 22:18 10.01.2022
3728 Clear -29 1014 69 10000 8 350 21:42 10.01.2022
3729 Clear -28 1014 69 10000 9 340 21:18 10.01.2022
3730 Clear -31 1014 74 10000 6 350 20:55 10.01.2022
3731 Clear -30 1014 76 10000 6 350 20:24 10.01.2022
3732 Clear -29 1014 69 10000 9 340 19:41 10.01.2022
3733 Clear -29 1014 69 10000 9 340 19:19 10.01.2022
3734 Clear -30 1014 76 10000 9 340 18:48 10.01.2022
3735 Clear -29 1015 76 10000 10 350 16:59 10.01.2022
3736 Clear -29 1015 76 10000 10 350 16:41 10.01.2022
3737 Clear -29 1016 76 10000 1 0 14:58 10.01.2022
3738 Clouds -30 1017 76 9000 3 340 13:35 10.01.2022
3739 Clear -28 1018 76 10000 3 350 11:57 10.01.2022
3740 Clear -28 1018 76 10000 3 350 11:24 10.01.2022
3741 Clear -29 1018 76 10000 7 350 09:41 10.01.2022
3742 Clear -26 1020 70 10000 4 360 05:52 10.01.2022
3743 Clear -27 1020 69 10000 6 350 05:23 10.01.2022
3744 Clouds -27 1021 76 10000 9 340 01:24 10.01.2022
3745 Clear -26 1022 70 10000 3 340 00:23 10.01.2022
3746 Clear -26 1023 70 10000 4 350 23:28 09.01.2022
3747 Clear -26 1023 76 10000 4 340 22:22 09.01.2022
3748 Clear -26 1023 76 10000 5 340 21:42 09.01.2022
3749 Clear -26 1023 76 10000 5 340 21:42 09.01.2022
3750 Clear -26 1023 76 10000 5 340 21:23 09.01.2022
3751 Clear -26 1023 76 10000 5 340 21:23 09.01.2022
3752 Clear -25 1024 70 10000 4 350 20:50 09.01.2022
3753 Clear -25 1024 70 10000 4 350 20:29 09.01.2022
3754 Clear -26 1024 76 10000 5 350 19:44 09.01.2022
3755 Clear -26 1024 76 10000 5 350 19:23 09.01.2022
3756 Clear -25 1024 70 10000 4 350 18:49 09.01.2022
3757 Clear -25 1024 70 10000 4 350 18:30 09.01.2022
3758 Clear -26 1025 76 10000 4 350 17:30 09.01.2022
3759 Clear -24 1025 70 10000 4 360 16:51 09.01.2022
3760 Clear -24 1026 77 10000 4 360 15:56 09.01.2022
3761 Clear -24 1026 77 10000 4 360 15:34 09.01.2022
3762 Clear -24 1026 70 10000 3 30 14:40 09.01.2022
3763 Clear -23 1026 70 10000 3 20 13:50 09.01.2022
3764 Clear -24 1027 77 10000 4 360 12:48 09.01.2022
3765 Clear -24 1027 76 10000 3.58 20 11:48 09.01.2022
3766 Clear -26 1028 75 10000 3 20 10:49 09.01.2022
3767 Clear -20 1028 71 10000 2 10 09:42 09.01.2022
3768 Clear -19 1028 71 10000 1 0 08:34 09.01.2022
3769 Clear -18 1028 78 10000 1 0 03:55 09.01.2022
3770 Clear -17 1028 71 10000 2 360 01:23 09.01.2022
3771 Clouds -23 1029 97 10000 1.25 330 23:39 08.01.2022
3772 Clouds -24 1029 98 10000 0.91 348 22:59 08.01.2022
3773 Clouds -24 1029 99 10000 1.29 324 21:33 08.01.2022
3774 Clouds -24 1028 99 10000 1.08 309 20:58 08.01.2022
3775 Clouds -24 1028 99 10000 1.08 309 20:39 08.01.2022
3776 Clouds -24 1028 99 10000 0.77 308 20:19 08.01.2022
3777 Clear -14 1028 78 10000 3 50 18:34 08.01.2022
3778 Clear -12 1027 79 10000 2 350 17:22 08.01.2022
3779 Clear -14 1027 78 10000 1 0 15:51 08.01.2022
3780 Clear -12 1027 79 10000 1 0 14:43 08.01.2022
3781 Clear -12 1027 72 10000 0 0 13:25 08.01.2022
3782 Clear -12 1026 72 10000 3 350 11:24 08.01.2022
3783 Clear -12 1026 72 10000 2 350 10:25 08.01.2022
3784 Clear -13 1025 78 10000 2 300 09:47 08.01.2022
3785 Clouds -22 1026 99 10000 0.94 326 07:21 08.01.2022
3786 Clouds -22 1025 100 10000 1.73 294 02:45 08.01.2022
3787 Clouds -21 1026 99 10000 1.19 337 00:41 08.01.2022
3788 Clouds -21 1026 100 10000 0.93 303 22:47 07.01.2022
3789 Clouds -21 1026 100 10000 1.03 294 20:56 07.01.2022
3790 Clouds -21 1026 100 10000 0.43 300 20:19 07.01.2022
3791 Clouds -20 1026 100 10000 0.72 344 19:18 07.01.2022
3792 Clouds -20 1026 100 10000 0.72 344 18:44 07.01.2022
3793 Clouds -21 1026 100 10000 1.09 355 17:26 07.01.2022
3794 Clouds -21 1026 100 10000 1.09 355 16:30 07.01.2022
3795 Clouds -21 1026 100 4335 1.47 274 13:54 07.01.2022
3796 Clouds -20 1026 100 2460 1.97 260 13:22 07.01.2022
3797 Clouds -20 1026 100 10000 2.05 265 12:49 07.01.2022
3798 Clouds -20 1026 99 10000 1.12 273 09:37 07.01.2022
3799 Clouds -19 1026 95 10000 0.63 200 02:56 07.01.2022
3800 Clouds -19 1026 97 10000 0.79 178 01:54 07.01.2022
3801 Clouds -19 1026 97 10000 0.71 206 01:28 07.01.2022
3802 Clouds -19 1026 97 10000 0.7 198 00:58 07.01.2022
3803 Clear -7 1026 79 10000 3 70 23:53 06.01.2022
3804 Clear -7 1026 79 10000 4 10 21:28 06.01.2022
3805 Clouds -20 1026 96 10000 1.42 295 20:22 06.01.2022
3806 Clouds -20 1026 96 10000 1.42 295 19:45 06.01.2022
3807 Clear -7 1026 93 10000 1 0 18:29 06.01.2022
3808 Clear -8 1026 86 10000 2 60 17:40 06.01.2022
3809 Clear -15 1026 85 10000 0 0 16:44 06.01.2022
3810 Clear -18 1027 91 10000 1.79 340 15:47 06.01.2022
3811 Clear -18 1027 91 10000 1.79 340 15:26 06.01.2022
3812 Clear -19 1027 84 10000 2 10 14:45 06.01.2022
3813 Clear -19 1027 84 10000 2 10 14:18 06.01.2022
3814 Clouds -18 1028 84 10000 2 310 12:50 06.01.2022
3815 Mist -18 1028 84 1100 2.68 320 11:43 06.01.2022
3816 Mist -18 1028 84 1100 2.68 320 11:22 06.01.2022
3817 Clouds -17 1028 84 10000 4 340 08:52 06.01.2022
3818 Fog -15 1032 92 10000 2 340 01:24 06.01.2022
3819 Clear -16 1033 85 10000 1 10 23:38 05.01.2022
3820 Clear -16 1033 85 10000 2 320 22:57 05.01.2022
3821 Clear -16 1033 85 10000 2 320 22:32 05.01.2022
3822 Clouds -18 1033 84 10000 1.79 360 21:49 05.01.2022
3823 Clouds -17 1033 85 10000 2 360 21:20 05.01.2022
3824 Mist -17 1033 85 5000 4 340 20:18 05.01.2022
3825 Fog -17 1033 85 800 6 350 18:44 05.01.2022
3826 Fog -18 1034 84 1100 4.92 350 17:26 05.01.2022
3827 Fog -18 1034 84 600 5.81 350 16:51 05.01.2022
3828 Mist -18 1035 84 6000 5 350 15:26 05.01.2022
3829 Clouds -18 1035 84 10000 2.68 340 13:52 05.01.2022
3830 Clouds -18 1035 84 10000 2.68 340 13:22 05.01.2022
3831 Clear -18 1036 84 10000 2.68 340 11:36 05.01.2022
3832 Clear -15 1037 84 10000 1 0 07:47 05.01.2022
3833 Clear -15 1037 84 10000 2.68 360 06:25 05.01.2022
3834 Clear -11 1038 92 10000 1 10 00:59 05.01.2022
3835 Clear -8 1038 86 10000 5 50 23:28 04.01.2022
3836 Clear -7 1038 79 10000 1 0 22:55 04.01.2022
3837 Clouds -6 1037 73 10000 3 360 21:31 04.01.2022
3838 Clouds -6 1037 73 10000 3 360 21:31 04.01.2022
3839 Clouds -12 1037 93 10000 2.9 120 19:20 04.01.2022
3840 Clear -5 1037 80 10000 6 60 17:52 04.01.2022
3841 Clear -6 1037 79 10000 7 110 16:44 04.01.2022
3842 Clear -6 1037 79 10000 7 110 16:24 04.01.2022
3843 Clouds -5 1037 80 10000 10 120 14:54 04.01.2022
3844 Clouds -5 1037 80 10000 10 120 14:35 04.01.2022
3845 Clouds -5 1038 79 10000 8 110 13:29 04.01.2022
3846 Clouds -5 1037 79 10000 9.83 120 10:41 04.01.2022
3847 Clouds -5 1036 85 10000 11 120 09:47 04.01.2022
3848 Clouds -5 1036 85 9000 12 120 08:32 04.01.2022
3849 Clouds -4 1035 86 10000 7.6 100 02:32 04.01.2022
3850 Clouds -4 1035 86 10000 9.83 110 00:41 04.01.2022
3851 Clouds -4 1035 92 9000 10.73 110 23:34 03.01.2022
3852 Clouds -4 1034 92 2500 11.62 110 21:52 03.01.2022
3853 Clouds -4 1034 92 2500 11.62 110 21:34 03.01.2022
3854 Clouds -4 1034 92 2700 11.62 110 20:26 03.01.2022
3855 Clouds -4 1033 92 3600 11.62 110 18:54 03.01.2022
3856 Clouds -4 1033 92 3600 11.62 110 18:28 03.01.2022
3857 Clouds -3 1033 92 2000 13.86 120 16:59 03.01.2022
3858 Clouds -3 1033 92 1900 12.96 120 15:40 03.01.2022
3859 Clouds -3 1033 92 2400 12.96 120 14:31 03.01.2022
3860 Clouds -2 1032 92 1700 12.96 120 12:48 03.01.2022
3861 Clouds -2 1032 92 2400 13 120 11:39 03.01.2022
3862 Clouds -2 1032 92 3100 13 120 10:37 03.01.2022
3863 Clouds -2 1032 92 1200 14.75 120 08:48 03.01.2022
3864 Clouds -2 1031 92 1200 14.75 120 07:36 03.01.2022
3865 Clouds -2 1032 92 2300 8.94 90 00:29 03.01.2022
3866 Clouds -3 1032 92 1200 8.94 100 23:22 02.01.2022
3867 Clear 2 1031 75 10000 8 120 22:55 02.01.2022
3868 Clear 1 1032 80 10000 5 320 21:52 02.01.2022
3869 Clouds 1 1032 80 9000 4 160 20:41 02.01.2022
3870 Clouds 1 1032 80 9000 4 160 20:22 02.01.2022
3871 Clear 0 1032 86 10000 6 60 19:31 02.01.2022
3872 Clouds 1 1031 80 9000 4 130 18:47 02.01.2022
3873 Clouds 0 1031 86 6000 2 100 17:56 02.01.2022
3874 Clouds 0 1031 86 6000 2 100 17:37 02.01.2022
3875 Clouds -1 1031 86 6000 1.79 100 17:18 02.01.2022
3876 Clouds 0 1031 86 10000 6 120 16:26 02.01.2022
3877 Clouds -2 1032 92 9000 7 110 14:34 02.01.2022
3878 Clouds -3 1031 92 7000 7.6 120 12:57 02.01.2022
3879 Clouds -2 1031 93 7000 8 120 12:25 02.01.2022
3880 Clouds -2 1031 93 5000 9 120 11:33 02.01.2022
3881 Snow -4 1031 92 1700 11.62 120 10:49 02.01.2022
3882 Snow -4 1030 92 1000 12.96 120 09:52 02.01.2022
3883 Snow -7 1031 92 350 13.86 120 07:26 02.01.2022
3884 Clouds -11 1032 85 100 13.86 100 02:19 02.01.2022
3885 Clouds -15 1034 84 350 13.86 120 23:40 01.01.2022
3886 Clouds -16 1035 84 450 12.96 120 22:58 01.01.2022
3887 Clouds -15 1035 85 450 13 120 22:23 01.01.2022
3888 Clouds -16 1036 85 1800 8 80 21:44 01.01.2022
3889 Clouds -16 1036 78 550 14 60 20:56 01.01.2022
3890 Clouds -16 1036 66 4800 11 90 19:58 01.01.2022
3891 Clouds -16 1036 66 4800 11 90 19:30 01.01.2022
3892 Clouds -17 1038 71 10000 5 100 18:20 01.01.2022
3893 Clouds -17 1037 66 10000 7 100 16:43 01.01.2022
3894 Clouds -17 1037 66 10000 7 100 16:20 01.01.2022
3895 Clouds -17 1038 51 10000 4 120 15:27 01.01.2022
3896 Clear -26 1038 75 10000 3 330 13:59 01.01.2022
3897 Clear -21 1037 63 10000 6 50 12:50 01.01.2022
3898 Clear -22 1037 71 10000 2 290 11:58 01.01.2022
3899 Clear -22 1037 69 10000 2 290 11:23 01.01.2022
3900 Clear -24 1037 76 10000 1 0 10:40 01.01.2022
3901 Clear -26 1036 75 10000 2 350 09:46 01.01.2022
3902 Clear -24 1035 76 10000 0 0 08:26 01.01.2022
3903 Clear -26 1035 75 10000 0 0 07:55 01.01.2022
3904 Clear -26 1035 75 10000 0 0 07:34 01.01.2022
3905 Clear -27 1035 75 10000 0 0 06:41 01.01.2022
3906 Clear -28 1034 75 10000 1 30 04:38 01.01.2022
3907 Clear -27 1034 75 10000 2 20 02:54 01.01.2022
3908 Clear -26 1033 83 10000 2 350 23:44 31.12.2021
3909 Clouds -26 1032 83 10000 2.68 90 21:54 31.12.2021
3910 Clouds -26 1031 83 10000 2 40 20:41 31.12.2021
3911 Clouds -24 1031 76 10000 0 0 19:31 31.12.2021
3912 Clear -23 1030 77 10000 1 340 18:44 31.12.2021
3913 Clear -23 1030 76 10000 1.79 330 17:45 31.12.2021
3914 Clear -23 1030 76 10000 1.79 330 17:19 31.12.2021
3915 Clear -22 1030 76 10000 0.89 360 16:44 31.12.2021
3916 Clear -22 1029 76 10000 1 0 15:58 31.12.2021
3917 Clear -22 1029 76 10000 1 0 15:31 31.12.2021
3918 Clear -21 1030 76 10000 0.89 280 14:57 31.12.2021
3919 Clear -21 1030 76 10000 1 280 14:33 31.12.2021
3920 Clear -21 1029 83 10000 2 100 13:43 31.12.2021
3921 Clear -20 1028 84 10000 0 0 12:49 31.12.2021
3922 Clear -21 1028 83 10000 0 0 12:19 31.12.2021
3923 Clear -21 1028 83 10000 0 0 11:33 31.12.2021
3924 Clear -21 1028 83 10000 0 0 10:41 31.12.2021
3925 Clear -21 1028 83 10000 0 0 10:23 31.12.2021
3926 Clouds -19 1028 84 10000 0 0 09:33 31.12.2021
3927 Clouds -18 1027 85 10000 2 230 08:49 31.12.2021
3928 Clouds -17 1027 78 10000 3 200 07:49 31.12.2021
3929 Clouds -20 1025 77 10000 0 0 01:38 31.12.2021
3930 Clouds -17 1025 78 10000 2 150 22:54 30.12.2021
3931 Clouds -18 1025 85 10000 1 0 22:27 30.12.2021
3932 Clouds -18 1025 85 10000 0 0 21:37 30.12.2021
3933 Clouds -18 1025 78 10000 1 360 20:58 30.12.2021
3934 Clouds -18 1025 78 10000 1 360 20:35 30.12.2021
3935 Clouds -18 1025 78 10000 2 350 19:50 30.12.2021
3936 Clouds -18 1025 78 10000 2 350 19:24 30.12.2021
3937 Clouds -18 1025 78 10000 1 60 18:21 30.12.2021
3938 Clouds -18 1025 78 10000 3 350 16:39 30.12.2021
3939 Clouds -18 1025 78 10000 2 350 15:53 30.12.2021
3940 Clouds -17 1026 78 10000 1 0 14:51 30.12.2021
3941 Clouds -17 1026 78 10000 1 30 14:31 30.12.2021
3942 Clouds -17 1026 78 10000 1 0 13:24 30.12.2021
3943 Clouds -28 1027 98 10000 0.35 43 11:45 30.12.2021
3944 Clouds -27 1026 98 10000 1.11 25 10:28 30.12.2021
3945 Clouds -17 1025 78 10000 0 0 09:27 30.12.2021
3946 Clouds -18 1024 85 10000 2 270 06:56 30.12.2021
3947 Snow -18 1024 85 10000 0 0 04:56 30.12.2021
3948 Clouds -18 1023 78 10000 1 310 03:40 30.12.2021
3949 Clouds -16 1023 72 10000 1 50 02:19 30.12.2021
3950 Snow -16 1022 66 10000 5 100 23:37 29.12.2021
3951 Snow -15 1021 61 10000 4 50 22:33 29.12.2021
3952 Snow -15 1021 66 10000 5 60 21:55 29.12.2021
3953 Clear -17 1021 71 10000 3 360 20:56 29.12.2021
3954 Clear -17 1021 71 10000 3 360 20:26 29.12.2021
3955 Snow -18 1021 77 10000 1.79 360 19:31 29.12.2021
3956 Snow -18 1020 70 10000 4.92 90 18:35 29.12.2021
3957 Snow -18 1020 77 10000 7.6 100 17:42 29.12.2021
3958 Snow -18 1020 77 10000 7.6 100 17:23 29.12.2021
3959 Snow -18 1019 70 10000 7.6 80 16:21 29.12.2021
3960 Clouds -18 1019 70 10000 6.71 90 15:21 29.12.2021
3961 Snow -18 1016 77 10000 1.79 110 12:57 29.12.2021
3962 Snow -18 1016 77 10000 1.79 110 12:32 29.12.2021
3963 Snow -16 1015 85 10000 3 130 11:22 29.12.2021
3964 Snow -17 1013 84 5000 1 0 09:24 29.12.2021
3965 Snow -18 1010 84 5000 5.81 10 07:30 29.12.2021
3966 Snow -18 1009 84 4900 3.58 350 06:32 29.12.2021
3967 Snow -17 1008 84 3400 2.68 20 05:55 29.12.2021
3968 Snow -17 1007 84 2700 4.92 30 04:57 29.12.2021
3969 Snow -18 1002 84 500 11.62 20 00:43 29.12.2021
3970 Snow -16 1001 78 550 10 20 23:58 28.12.2021
3971 Snow -16 1001 85 1200 4 260 22:57 28.12.2021
3972 Snow -17 1000 84 3500 3.58 160 22:25 28.12.2021
3973 Snow -17 1000 84 3500 3.58 160 22:25 28.12.2021
3974 Snow -15 999 85 350 11 40 21:54 28.12.2021
3975 Snow -15 999 85 350 11 40 21:54 28.12.2021
3976 Snow -17 998 84 350 11 40 21:34 28.12.2021
3977 Snow -16 999 85 150 14 30 20:25 28.12.2021
3978 Snow -16 1001 85 900 8 20 18:54 28.12.2021
3979 Snow -16 1001 85 900 8 20 18:27 28.12.2021
3980 Snow -16 1003 85 1000 5 10 17:34 28.12.2021
3981 Snow -18 1004 84 2300 7 10 16:20 28.12.2021
3982 Snow -15 1005 78 10000 2 300 15:41 28.12.2021
3983 Snow -17 1007 77 10000 2.68 330 14:55 28.12.2021
3984 Snow -17 1007 77 10000 2.68 330 14:55 28.12.2021
3985 Snow -17 1007 77 10000 2.68 330 14:37 28.12.2021
3986 Snow -17 1007 77 10000 2.68 330 14:18 28.12.2021
3987 Snow -17 1008 84 10000 0 0 13:37 28.12.2021
3988 Snow -17 1009 84 10000 2.68 200 12:56 28.12.2021
3989 Snow -16 1009 85 10000 3 200 12:21 28.12.2021
3990 Snow -15 1011 78 10000 2 250 10:47 28.12.2021
3991 Snow -16 1012 84 3300 1.79 340 07:38 28.12.2021
3992 Snow -16 1011 84 2600 1 0 03:37 28.12.2021
3993 Snow -14 1011 85 3200 2 50 23:40 27.12.2021
3994 Snow -14 1012 78 10000 2 350 22:27 27.12.2021
3995 Snow -13 1013 72 10000 6 360 21:31 27.12.2021
3996 Snow -13 1013 78 10000 8 60 20:39 27.12.2021
3997 Snow -13 1014 78 9000 8 70 19:55 27.12.2021
3998 Snow -13 1014 78 9000 8 70 19:37 27.12.2021
3999 Snow -14 1014 85 8000 4 330 17:55 27.12.2021
4000 Snow -14 1014 85 8000 4 330 17:29 27.12.2021
4001 Snow -14 1015 78 5000 5 80 16:26 27.12.2021
4002 Snow -14 1016 72 9000 4 20 15:49 27.12.2021
4003 Snow -18 1017 77 10000 1 0 14:26 27.12.2021
4004 Snow -21 1018 76 10000 3.58 340 13:31 27.12.2021
4005 Clear -23 1018 84 10000 4 360 11:20 27.12.2021
4006 Snow -24 1018 76 10000 2.68 350 10:27 27.12.2021
4007 Clouds -26 1018 75 10000 5.81 360 09:27 27.12.2021
4008 Clear -28 1017 75 10000 3.58 330 07:35 27.12.2021
4009 Clouds -28 1014 76 10000 6 360 06:29 27.12.2021
4010 Clear -31 1014 76 10000 4 360 01:59 27.12.2021
4011 Clouds -30 1011 76 10000 6 360 23:50 26.12.2021
4012 Clear -30 1011 76 10000 4 10 23:32 26.12.2021
4013 Clouds -31 1009 74 10000 4.92 10 21:48 26.12.2021
4014 Clouds -31 1008 74 10000 3.58 360 20:25 26.12.2021
4015 Clouds -29 1006 75 10000 5.81 10 19:27 26.12.2021
4016 Clouds -31 1007 82 10000 4.92 20 18:23 26.12.2021
4017 Clouds -31 1005 74 9000 4.92 10 15:55 26.12.2021
4018 Clouds -29 1005 75 10000 3 360 13:52 26.12.2021
4019 Clouds -29 1005 75 10000 3 360 13:32 26.12.2021
4020 Clear -28 1006 75 10000 5 350 12:37 26.12.2021
4021 Clouds -26 1006 75 10000 6 350 11:57 26.12.2021
4022 Clouds -23 1005 83 10000 5.81 320 09:44 26.12.2021
4023 Snow -21 1006 77 10000 7 310 08:59 26.12.2021
4024 Snow -21 1006 77 10000 7 310 08:38 26.12.2021
4025 Snow -21 1007 83 10000 5.81 330 06:47 26.12.2021
4026 Clouds -17 1009 85 10000 2 330 00:45 26.12.2021
4027 Clouds -16 1008 85 10000 3 310 23:50 25.12.2021
4028 Clouds -16 1008 85 10000 2 10 23:26 25.12.2021
4029 Snow -18 1008 91 10000 2 310 22:22 25.12.2021
4030 Snow -16 1007 92 8000 0 0 20:48 25.12.2021
4031 Snow -15 1006 84 2200 0.89 220 19:21 25.12.2021
4032 Snow -15 1003 84 2100 1 0 18:54 25.12.2021
4033 Snow -13 1006 85 10000 2 150 16:58 25.12.2021
4034 Snow -15 1006 84 8000 0.89 90 15:54 25.12.2021
4035 Snow -16 1006 84 5000 1.79 320 14:38 25.12.2021
4036 Snow -15 1007 84 1600 1 0 12:43 25.12.2021
4037 Snow -15 1007 84 2200 0.89 80 11:37 25.12.2021
4038 Snow -15 1009 84 1200 1 0 09:49 25.12.2021
4039 Snow -15 1011 84 2300 3.58 200 07:54 25.12.2021
4040 Snow -14 1014 84 10000 2.68 180 02:18 25.12.2021
4041 Clouds -15 1015 84 10000 5 350 00:30 25.12.2021
4042 Clouds -14 1017 84 10000 4 20 22:40 24.12.2021
4043 Clouds -15 1018 84 10000 0 0 19:38 24.12.2021
4044 Clouds -15 1018 84 10000 0 0 19:19 24.12.2021
4045 Clouds -16 1019 84 10000 1 0 16:50 24.12.2021
4046 Clouds -16 1019 84 10000 1 0 16:19 24.12.2021
4047 Snow -16 1019 92 10000 1.79 350 15:45 24.12.2021
4048 Snow -12 1019 79 10000 3 320 14:46 24.12.2021
4049 Snow -12 1019 79 10000 3 320 14:22 24.12.2021
4050 Snow -11 1019 79 10000 2 360 13:37 24.12.2021
4051 Snow -10 1020 79 10000 7 60 12:48 24.12.2021
4052 Snow -10 1019 79 2100 7 90 11:52 24.12.2021
4053 Snow -10 1019 79 2100 7 90 11:26 24.12.2021
4054 Snow -11 1018 85 350 11 90 10:46 24.12.2021
4055 Snow -12 1018 92 200 13 90 09:33 24.12.2021
4056 Snow -12 1018 85 200 14 90 08:23 24.12.2021
4057 Snow -13 1018 85 150 15 90 07:47 24.12.2021
4058 Snow -18 1005 77 1400 7.6 70 02:33 24.12.2021
4059 Clouds -17 1025 78 2000 10 70 23:56 23.12.2021
4060 Clouds -17 1026 66 9000 8 100 22:58 23.12.2021
4061 Clouds -17 1026 66 9000 8 100 22:37 23.12.2021
4062 Clouds -17 1026 66 10000 5 70 22:18 23.12.2021
4063 Clear -24 1026 77 10000 2 360 20:56 23.12.2021
4064 Clear -24 1026 77 10000 2 360 20:18 23.12.2021
4065 Clear -24 1026 77 10000 2 360 20:18 23.12.2021
4066 Clear -22 1026 77 10000 3 10 18:35 23.12.2021
4067 Clear -21 1025 77 10000 1 60 17:57 23.12.2021
4068 Clear -23 1025 83 10000 1.79 10 16:44 23.12.2021
4069 Clear -23 1025 83 10000 1.79 10 16:24 23.12.2021
4070 Clouds -18 1024 85 10000 1 0 15:31 23.12.2021
4071 Clear -19 1023 78 10000 1 60 14:52 23.12.2021
4072 Clear -19 1023 77 10000 1 60 14:30 23.12.2021
4073 Snow -17 1021 85 10000 4 20 12:57 23.12.2021
4074 Snow -15 1018 85 4400 2 200 10:52 23.12.2021
4075 Snow -15 1017 78 1700 5 190 09:47 23.12.2021
4076 Snow -17 1015 84 6000 4.92 180 08:59 23.12.2021
4077 Snow -17 1015 84 6000 4.92 180 08:59 23.12.2021
4078 Snow -15 1014 85 2400 1 0 06:58 23.12.2021
4079 Snow -14 1011 78 5000 2 270 04:33 23.12.2021
4080 Snow -15 1008 84 2300 6 40 23:26 22.12.2021
4081 Snow -15 1007 84 1100 8 40 22:47 22.12.2021
4082 Snow -15 1007 84 1000 7 30 21:56 22.12.2021
4083 Snow -14 1007 78 800 10 70 21:29 22.12.2021
4084 Snow -14 1007 84 2300 7 70 20:47 22.12.2021
4085 Snow -14 1007 84 2300 7 70 20:26 22.12.2021
4086 Snow -16 1007 84 150 13 10 19:28 22.12.2021
4087 Snow -12 1010 79 900 11 50 17:50 22.12.2021
4088 Snow -12 1011 72 1300 9 70 16:40 22.12.2021
4089 Snow -13 1013 72 600 14.75 60 15:40 22.12.2021
4090 Snow -13 1014 78 700 9.83 70 13:33 22.12.2021
4091 Snow -13 1017 78 2100 6.71 50 12:40 22.12.2021
4092 Clear -21 1021 71 10000 1 350 10:36 22.12.2021
4093 Clear -23 1023 77 10000 3 350 09:39 22.12.2021
4094 Clear -22 1025 69 10000 2.68 360 07:30 22.12.2021
4095 Clear -22 1025 69 10000 4.92 340 05:50 22.12.2021
4096 Clear -22 1026 69 10000 6.71 350 05:26 22.12.2021
4097 Clear -21 1026 65 10000 8 360 04:50 22.12.2021
4098 Clouds -22 1026 64 10000 9 350 04:29 22.12.2021
4099 Clouds -27 1027 75 10000 9.83 350 03:33 22.12.2021
4100 Clear -27 1031 68 10000 5.81 340 00:50 22.12.2021
4101 Clear -27 1032 69 10000 6 350 23:25 21.12.2021
4102 Clear -28 1031 69 10000 5 350 22:28 21.12.2021
4103 Clear -27 1031 69 10000 7 350 21:44 21.12.2021
4104 Clear -27 1032 69 10000 7 350 21:22 21.12.2021
4105 Clear -26 1032 64 10000 6 320 20:21 21.12.2021
4106 Clear -26 1032 64 10000 2 360 19:42 21.12.2021
4107 Clear -25 1032 64 10000 6 360 18:48 21.12.2021
4108 Clear -25 1032 64 10000 6 360 18:21 21.12.2021
4109 Clear -25 1032 64 10000 4 360 17:42 21.12.2021
4110 Clear -22 1032 54 10000 5 340 16:26 21.12.2021
4111 Clear -22 1031 54 10000 4 340 15:24 21.12.2021
4112 Clear -23 1030 59 10000 4 350 13:51 21.12.2021
4113 Clear -23 1030 59 10000 4 350 13:31 21.12.2021
4114 Clear -22 1028 54 10000 3 340 11:57 21.12.2021
4115 Clear -23 1027 54 10000 3 10 10:25 21.12.2021
4116 Clear -21 1026 59 10000 3 360 09:27 21.12.2021
4117 Clear -26 1023 64 10000 4 20 07:59 21.12.2021
4118 Clear -26 1023 70 10000 4 50 07:29 21.12.2021
4119 Clear -27 1023 76 10000 2 40 06:50 21.12.2021
4120 Clear -24 1020 70 10000 2 180 03:18 21.12.2021
4121 Clear -26 1018 64 10000 1 0 23:59 20.12.2021
4122 Clear -27 1017 62 10000 1.79 70 23:32 20.12.2021
4123 Clear -26 1017 64 10000 3 60 22:30 20.12.2021
4124 Clear -27 1016 68 10000 3.58 50 21:47 20.12.2021
4125 Clear -28 1015 68 10000 3.58 30 21:23 20.12.2021
4126 Clear -28 1015 68 10000 3.58 30 20:45 20.12.2021
4127 Clear -28 1014 68 10000 3.58 30 19:54 20.12.2021
4128 Clear -28 1014 69 10000 4 30 19:31 20.12.2021
4129 Clear -27 1014 69 10000 4 20 18:54 20.12.2021
4130 Clear -25 1013 64 10000 4 340 17:55 20.12.2021
4131 Clear -25 1013 64 10000 4 340 17:25 20.12.2021
4132 Clear -25 1012 64 10000 3 10 16:42 20.12.2021
4133 Clear -25 1011 70 10000 8 310 15:51 20.12.2021
4134 Clear -24 1010 63 10000 7.6 290 14:53 20.12.2021
4135 Clear -24 1009 64 10000 4 330 13:18 20.12.2021
4136 Clear -23 1007 70 10000 9 290 11:23 20.12.2021
4137 Clear -23 1003 77 10000 9 300 09:51 20.12.2021
4138 Clear -23 1003 76 10000 9 300 09:31 20.12.2021
4139 Clear -22 1001 77 10000 11 280 08:42 20.12.2021
4140 Clear -21 999 76 10000 8.94 290 07:50 20.12.2021
4141 Clear -21 999 76 10000 8.94 290 07:50 20.12.2021
4142 Clear -21 999 76 10000 8.94 290 07:30 20.12.2021
4143 Clear -19 994 71 10000 7 300 04:36 20.12.2021
4144 Clouds -14 989 72 10000 8 280 23:59 19.12.2021
4145 Clear -15 988 85 10000 5 310 22:51 19.12.2021
4146 Clouds -14 986 78 10000 6 300 21:50 19.12.2021
4147 Clouds -13 986 72 10000 7 290 21:30 19.12.2021
4148 Clouds -14 985 84 10000 6.71 300 20:32 19.12.2021
4149 Snow -12 983 85 10000 8 300 19:51 19.12.2021
4150 Snow -13 983 84 10000 7.6 300 19:22 19.12.2021
4151 Snow -11 981 85 4600 6.71 290 18:29 19.12.2021
4152 Snow -11 981 85 4600 6.71 290 18:29 19.12.2021
4153 Snow -9 979 85 8000 5.81 300 17:53 19.12.2021
4154 Snow -9 979 85 8000 5.81 300 17:19 19.12.2021
4155 Clouds -7 977 100 10000 5.81 180 16:26 19.12.2021
4156 Clouds -7 977 100 10000 5.81 180 16:26 19.12.2021
4157 Clouds 1 974 86 10000 9 160 15:42 19.12.2021
4158 Clouds 0 974 86 10000 8.94 160 15:20 19.12.2021
4159 Clouds 1 973 87 10000 12.96 130 14:41 19.12.2021
4160 Clouds 0 973 93 6000 11.62 120 13:22 19.12.2021
4161 Clouds -1 974 100 1500 12.96 110 12:42 19.12.2021
4162 Clouds -1 974 100 1500 12.96 110 12:18 19.12.2021
4163 Clouds -1 975 93 2400 12.96 110 11:19 19.12.2021
4164 Snow -4 976 100 350 16.99 90 10:25 19.12.2021
4165 Snow -4 976 92 200 18.78 90 09:41 19.12.2021
4166 Clouds -5 977 92 100 21.9 90 08:25 19.12.2021
4167 Snow -9 983 85 50 32 80 04:45 19.12.2021
4168 Snow -12 992 92 100 24.59 80 01:22 19.12.2021
4169 Snow -12 994 85 100 22 80 00:52 19.12.2021
4170 Snow -11 1000 85 450 18 80 22:36 18.12.2021
4171 Snow -12 1000 85 100 14 90 21:57 18.12.2021
4172 Snow -12 1000 85 100 14 90 21:35 18.12.2021
4173 Snow -13 1002 92 800 7 50 20:44 18.12.2021
4174 Snow -13 1005 78 9000 6 60 19:59 18.12.2021
4175 Snow -13 1005 78 9000 6 60 19:20 18.12.2021
4176 Snow -14 1006 85 10000 5 80 18:21 18.12.2021
4177 Clouds -15 1007 85 10000 2 90 17:48 18.12.2021
4178 Clouds -23 1008 83 10000 3 10 16:26 18.12.2021
4179 Clouds -26 1009 75 10000 2 360 15:27 18.12.2021
4180 Snow -27 1009 75 10000 1.79 360 14:38 18.12.2021
4181 Clear -28 1009 76 10000 4 350 13:21 18.12.2021
4182 Clouds -31 1009 74 9000 3 330 11:22 18.12.2021
4183 Clear -28 1010 76 10000 4 10 09:40 18.12.2021
4184 Clear -29 1009 75 10000 2 10 08:47 18.12.2021
4185 Clear -29 1009 75 10000 2 10 08:19 18.12.2021
4186 Clear -29 1005 75 10000 4 330 02:51 18.12.2021
4187 Clear -28 1004 82 10000 4 360 00:28 18.12.2021
4188 Clear -27 1004 75 10000 5 340 23:44 17.12.2021
4189 Clouds -27 1002 75 7000 4.92 10 21:56 17.12.2021
4190 Clouds -27 1002 75 7000 4.92 10 21:18 17.12.2021
4191 Clouds -27 1002 75 8000 4.92 360 20:38 17.12.2021
4192 Clouds -28 1002 83 7000 5 330 19:19 17.12.2021
4193 Mist -27 1002 75 4200 6.71 340 18:38 17.12.2021
4194 Mist -27 1002 82 2300 3.58 350 17:31 17.12.2021
4195 Mist -27 1002 75 2800 3.58 350 16:46 17.12.2021
4196 Mist -27 1002 75 2800 3.58 350 16:46 17.12.2021
4197 Mist -27 1002 75 2800 3.58 350 16:22 17.12.2021
4198 Mist -27 1002 75 7000 4.92 330 15:25 17.12.2021
4199 Clouds -27 1002 75 10000 2.68 340 14:40 17.12.2021
4200 Mist -23 1003 77 9000 5 360 12:47 17.12.2021
4201 Clouds -23 1003 77 10000 4 360 11:46 17.12.2021
4202 Mist -24 1003 83 4800 4.92 360 10:37 17.12.2021
4203 Clouds -23 1003 83 9000 5 360 09:31 17.12.2021
4204 Mist -23 1002 83 3700 7 360 08:30 17.12.2021
4205 Mist -23 1003 83 10000 4.92 340 06:22 17.12.2021
4206 Clouds -21 1003 76 10000 3.58 340 02:53 17.12.2021
4207 Fog -21 1002 83 10000 4.92 340 23:25 16.12.2021
4208 Clouds -21 1002 83 10000 5.81 350 22:24 16.12.2021
4209 Clouds -21 1002 83 10000 5.81 350 22:24 16.12.2021
4210 Clouds -21 1002 83 10000 5.81 350 22:24 16.12.2021
4211 Clouds -21 1002 83 10000 5.81 350 22:24 16.12.2021
4212 Clouds -21 1002 83 10000 5.81 350 22:23 16.12.2021
4213 Clouds -21 1001 83 10000 3.58 10 21:44 16.12.2021
4214 Snow -18 1000 84 8000 6.71 350 20:55 16.12.2021
4215 Snow -18 1000 84 8000 7 350 20:27 16.12.2021
4216 Snow -18 1000 84 7000 5.81 330 19:31 16.12.2021
4217 Snow -18 999 84 4300 5.81 360 18:36 16.12.2021
4218 Snow -18 998 84 7000 7.6 360 17:48 16.12.2021
4219 Snow -18 998 77 9000 6.71 360 16:44 16.12.2021
4220 Snow -18 998 77 9000 6.71 360 16:18 16.12.2021
4221 Snow -18 997 77 10000 8.94 20 14:23 16.12.2021
4222 Snow -18 996 84 3600 9.83 20 12:30 16.12.2021
4223 Snow -16 995 85 5000 3 20 11:19 16.12.2021
4224 Snow -15 995 85 5000 1 0 10:44 16.12.2021
4225 Snow -15 994 85 7000 1 200 09:51 16.12.2021
4226 Snow -14 993 85 3200 1 0 07:19 16.12.2021
4227 Snow -14 993 85 7000 5 20 06:18 16.12.2021
4228 Snow -12 993 67 10000 4 90 00:35 16.12.2021
4229 Clouds -13 993 72 10000 8 80 23:20 15.12.2021
4230 Clouds -13 993 72 10000 10 80 22:22 15.12.2021
4231 Snow -13 993 72 10000 10 80 21:45 15.12.2021
4232 Snow -13 993 72 10000 10 80 21:25 15.12.2021
4233 Snow -15 993 85 1500 12 80 19:54 15.12.2021
4234 Snow -15 993 85 1500 12 80 19:19 15.12.2021
4235 Snow -15 993 78 750 15 80 18:26 15.12.2021
4236 Snow -15 994 78 200 16 80 17:47 15.12.2021
4237 Snow -15 994 78 200 16 80 17:21 15.12.2021
4238 Snow -15 997 78 150 15 80 15:59 15.12.2021
4239 Snow -15 997 78 150 15 80 15:41 15.12.2021
4240 Snow -15 997 78 150 15 80 15:23 15.12.2021
4241 Snow -15 999 85 200 14 80 13:48 15.12.2021
4242 Snow -14 1000 78 200 16 90 11:52 15.12.2021
4243 Snow -15 1001 85 150 15 90 10:22 15.12.2021
4244 Snow -16 1002 84 200 13.86 80 08:27 15.12.2021
4245 Snow -15 1003 84 450 13.86 90 05:54 15.12.2021
4246 Snow -15 1008 84 300 10 50 00:39 15.12.2021
4247 Snow -19 1008 84 250 12.96 20 23:32 14.12.2021
4248 Clouds -15 1009 84 1400 11.62 60 22:45 14.12.2021
4249 Snow -15 1009 77 4400 13 60 21:47 14.12.2021
4250 Snow -18 1010 77 1700 12.96 60 20:23 14.12.2021
4251 Snow -15 1010 78 1600 11 70 19:37 14.12.2021
4252 Snow -16 1010 78 6000 11 360 18:39 14.12.2021
4253 Snow -16 1012 72 10000 8 30 17:57 14.12.2021
4254 Snow -16 1012 72 10000 6 10 16:49 14.12.2021
4255 Snow -16 1012 72 10000 6 10 16:30 14.12.2021
4256 Clouds -14 1014 72 10000 8 70 14:33 14.12.2021
4257 Clouds -15 1014 72 10000 10 90 13:22 14.12.2021
4258 Clouds -16 1015 72 5000 13 80 11:51 14.12.2021
4259 Clouds -16 1015 72 5000 13 80 11:22 14.12.2021
4260 Snow -18 1015 71 10000 9 10 09:55 14.12.2021
4261 Snow -18 1015 71 10000 9 10 09:19 14.12.2021
4262 Clouds -17 1015 71 2200 9 80 08:22 14.12.2021
4263 Clouds -16 1016 55 10000 9 90 07:39 14.12.2021
4264 Clouds -15 1015 72 4000 10 80 23:59 13.12.2021
4265 Clouds -16 1015 78 2600 12 90 22:33 13.12.2021
4266 Clouds -16 1015 78 4100 11 90 21:44 13.12.2021
4267 Clouds -15 1015 72 1200 12 90 20:58 13.12.2021
4268 Clouds -15 1015 72 1200 12 90 20:26 13.12.2021
4269 Clouds -15 1016 72 4000 11 80 19:49 13.12.2021
4270 Clouds -15 1017 72 5000 10 90 17:39 13.12.2021
4271 Clouds -15 1017 72 5000 10 90 17:18 13.12.2021
4272 Clouds -17 1020 71 10000 5 50 15:47 13.12.2021
4273 Clouds -16 1020 72 10000 8 30 14:43 13.12.2021
4274 Clouds -16 1021 72 10000 8 30 13:37 13.12.2021
4275 Clouds -17 1022 71 9000 5.81 40 12:41 13.12.2021
4276 Clouds -17 1023 77 9000 5.81 20 11:54 13.12.2021
4277 Clouds -17 1023 77 9000 5.81 20 11:34 13.12.2021
4278 Clouds -17 1024 71 9000 7.6 80 10:41 13.12.2021
4279 Clouds -15 1025 66 9000 10 90 08:45 13.12.2021
4280 Clouds -15 1026 78 1700 11 90 06:56 13.12.2021
4281 Clouds -28 1030 88 10000 3.11 347 05:19 13.12.2021
4282 Fog -33 1033 74 10000 4 360 00:41 13.12.2021
4283 Clouds -34 1035 68 10000 5 350 21:59 12.12.2021
4284 Snow -33 1035 68 10000 6 20 21:29 12.12.2021
4285 Fog -34 1036 68 10000 4 360 19:36 12.12.2021
4286 Fog -34 1036 68 10000 5 10 18:23 12.12.2021
4287 Clouds -36 1037 75 8000 6 360 16:47 12.12.2021
4288 Clouds -36 1037 75 8000 6 360 16:22 12.12.2021
4289 Fog -35 1037 68 10000 6 360 15:28 12.12.2021
4290 Fog -37 1039 74 10000 4 10 14:54 12.12.2021
4291 Fog -37 1039 74 10000 4 10 14:19 12.12.2021
4292 Clear -35 1038 75 10000 4 360 12:48 12.12.2021
4293 Clear -35 1038 75 10000 4 360 12:23 12.12.2021
4294 Clear -35 1038 75 10000 4 360 12:23 12.12.2021
4295 Clear -35 1038 75 10000 5 350 11:43 12.12.2021
4296 Clear -35 1037 75 10000 5 360 10:44 12.12.2021
4297 Clear -35 1037 75 10000 5 360 10:44 12.12.2021
4298 Clear -35 1037 75 10000 5 360 10:21 12.12.2021
4299 Clear -33 1038 68 10000 5 360 08:48 12.12.2021
4300 Clear -34 1038 68 10000 5 10 07:30 12.12.2021
4301 Clear -34 1037 75 10000 5 20 05:56 12.12.2021
4302 Fog -33 1036 75 10000 4 30 04:53 12.12.2021
4303 Fog -33 1036 75 10000 4 20 01:26 12.12.2021
4304 Clear -34 1035 75 10000 4 10 23:26 11.12.2021
4305 Clear -33 1034 75 10000 5 20 22:21 11.12.2021
4306 Clear -31 1033 69 10000 4 10 21:47 11.12.2021
4307 Clear -33 1033 75 10000 5 20 20:20 11.12.2021
4308 Clear -31 1033 69 10000 4 350 19:21 11.12.2021
4309 Clear -33 1032 68 10000 5 20 18:49 11.12.2021
4310 Clear -32 1031 75 10000 4 10 17:56 11.12.2021
4311 Clear -34 1031 73 10000 5 30 16:39 11.12.2021
4312 Clear -33 1031 68 10000 5 30 15:46 11.12.2021
4313 Clear -34 1030 73 10000 6 20 14:46 11.12.2021
4314 Clear -33 1029 74 10000 4 20 12:41 11.12.2021
4315 Clear -32 1029 67 10000 4 20 11:18 11.12.2021
4316 Clear -31 1027 76 10000 5 10 09:45 11.12.2021
4317 Fog -27 1025 68 10000 4.92 350 05:36 11.12.2021
4318 Clouds -26 1024 76 9000 6 330 00:50 11.12.2021
4319 Clouds -27 1023 75 6000 6 330 23:44 10.12.2021
4320 Mist -27 1023 75 3900 5 350 22:50 10.12.2021
4321 Mist -27 1022 76 2900 4 10 21:51 10.12.2021
4322 Mist -26 1021 76 2300 7 310 20:35 10.12.2021
4323 Clouds -27 1020 75 8000 3.58 350 19:19 10.12.2021
4324 Mist -26 1019 76 3100 3 360 17:54 10.12.2021
4325 Mist -27 1019 76 2600 6 350 16:41 10.12.2021
4326 Mist -27 1018 75 3500 5 350 15:47 10.12.2021
4327 Mist -27 1018 75 3500 4.92 350 15:28 10.12.2021
4328 Clouds -26 1018 76 7000 5 10 14:56 10.12.2021
4329 Clouds -26 1017 83 6000 5 340 13:50 10.12.2021
4330 Clouds -26 1017 83 6000 5 340 13:18 10.12.2021
4331 Mist -26 1016 83 2300 3.58 360 11:43 10.12.2021
4332 Mist -26 1016 83 2300 4 360 11:19 10.12.2021
4333 Mist -26 1014 75 2000 7.6 340 09:54 10.12.2021
4334 Mist -26 1013 83 5000 4 340 08:23 10.12.2021
4335 Snow -22 1011 77 2000 4 10 05:46 10.12.2021
4336 Snow -21 1008 76 3500 5 350 02:47 10.12.2021
4337 Snow -21 1006 76 2700 4.92 350 23:43 09.12.2021
4338 Snow -21 1005 76 3400 4 360 22:49 09.12.2021
4339 Snow -21 1005 76 3200 4.92 360 22:23 09.12.2021
4340 Snow -21 1005 76 3200 4.92 360 22:23 09.12.2021
4341 Snow -22 1004 83 6000 5 20 21:48 09.12.2021
4342 Snow -22 1003 83 5000 5.81 350 20:40 09.12.2021
4343 Snow -21 1002 76 5000 1.79 350 19:46 09.12.2021
4344 Mist -21 1002 76 5000 1.79 350 19:21 09.12.2021
4345 Snow -22 1001 76 2400 3.58 320 18:25 09.12.2021
4346 Snow -22 1000 76 4900 2.68 330 17:51 09.12.2021
4347 Snow -22 1000 76 4900 2.68 330 17:25 09.12.2021
4348 Snow -22 1000 83 4600 2.68 360 16:51 09.12.2021
4349 Snow -22 999 76 5000 1.79 360 15:31 09.12.2021
4350 Snow -22 999 76 9000 3.58 30 14:43 09.12.2021
4351 Snow -22 998 83 7000 3 10 13:18 09.12.2021
4352 Snow -21 998 76 7000 3.58 320 12:34 09.12.2021
4353 Snow -21 997 76 5000 4.92 320 10:50 09.12.2021
4354 Mist -21 996 83 3500 6.71 350 08:38 09.12.2021
4355 Snow -18 996 84 5000 4.92 360 05:54 09.12.2021
4356 Snow -18 994 77 2100 10.73 30 01:52 09.12.2021
4357 Snow -16 994 84 2800 7 10 23:42 08.12.2021
4358 Snow -18 994 84 2800 6.71 10 23:20 08.12.2021
4359 Snow -18 1016 84 4900 6.71 360 22:45 08.12.2021
4360 Snow -16 994 77 6000 6 20 21:39 08.12.2021
4361 Snow -15 994 84 2400 1 0 20:59 08.12.2021
4362 Snow -15 993 84 1600 4 10 19:58 08.12.2021
4363 Snow -15 993 84 1600 4 10 19:33 08.12.2021
4364 Snow -15 993 84 4500 0.89 160 18:30 08.12.2021
4365 Snow -15 993 84 1500 0 0 17:24 08.12.2021
4366 Snow -15 993 84 3400 1.79 350 15:46 08.12.2021
4367 Snow -15 993 84 3400 1.79 350 15:23 08.12.2021
4368 Snow -16 993 84 4300 1.79 360 14:26 08.12.2021
4369 Snow -24 994 76 1600 6.71 340 10:54 08.12.2021
4370 Snow -24 994 76 1600 6.71 340 10:28 08.12.2021
4371 Snow -27 995 82 10000 4.92 350 08:54 08.12.2021
4372 Snow -27 995 75 10000 5.81 340 07:21 08.12.2021
4373 Fog -29 997 75 10000 6 350 01:39 08.12.2021
4374 Fog -27 999 76 10000 5 10 23:33 07.12.2021
4375 Clear -25 999 70 10000 6 10 21:26 07.12.2021
4376 Clear -28 999 75 10000 4.92 20 20:54 07.12.2021
4377 Clear -27 1000 75 10000 4 20 19:50 07.12.2021
4378 Clear -26 1000 76 10000 4 360 18:39 07.12.2021
4379 Clear -27 1000 75 10000 2.68 20 17:27 07.12.2021
4380 Clear -27 1000 75 10000 2.68 20 17:27 07.12.2021
4381 Clouds -27 1000 75 10000 3.58 30 16:58 07.12.2021
4382 Clouds -27 1000 75 10000 3.58 30 16:28 07.12.2021
4383 Clouds -24 1000 76 10000 2.68 10 14:57 07.12.2021
4384 Clouds -24 1000 83 10000 4.92 360 13:49 07.12.2021
4385 Clouds -23 1000 77 7000 6 340 12:46 07.12.2021
4386 Clouds -23 1000 83 9000 3.58 340 11:25 07.12.2021
4387 Clouds -22 999 76 1700 9.83 300 09:44 07.12.2021
4388 Clouds -21 998 76 1200 10.73 290 07:55 07.12.2021
4389 Clouds -21 996 83 800 12.96 290 05:55 07.12.2021
4390 Clouds -21 996 83 500 12.96 300 05:30 07.12.2021
4391 Clouds -21 991 76 500 13 300 23:45 06.12.2021
4392 Snow -21 990 83 350 14 290 22:44 06.12.2021
4393 Clouds -21 990 83 300 13.86 300 22:18 06.12.2021
4394 Snow -21 989 83 300 14 290 21:42 06.12.2021
4395 Snow -21 988 83 500 12.96 300 20:33 06.12.2021
4396 Snow -21 987 76 400 13.86 300 19:27 06.12.2021
4397 Snow -21 986 83 350 12.96 300 18:57 06.12.2021
4398 Snow -21 985 83 550 13 290 17:56 06.12.2021
4399 Snow -21 985 83 550 13 290 17:37 06.12.2021
4400 Snow -21 984 83 600 12 290 16:21 06.12.2021
4401 Snow -21 982 76 600 10.73 290 14:54 06.12.2021
4402 Snow -21 981 83 450 11.62 290 13:45 06.12.2021
4403 Snow -21 980 76 500 13.86 280 12:39 06.12.2021
4404 Snow -21 978 83 450 11.62 290 10:32 06.12.2021
4405 Clouds -21 975 76 100 15.65 290 08:35 06.12.2021
4406 Snow -19 972 84 150 16.99 290 04:28 06.12.2021
4407 Snow -10 965 85 250 15 310 22:30 05.12.2021
4408 Snow -10 964 85 250 14 320 21:26 05.12.2021
4409 Snow -11 963 92 250 13.86 330 20:59 05.12.2021
4410 Snow -10 963 92 250 14 330 20:19 05.12.2021
4411 Snow -11 962 85 200 13.86 330 19:33 05.12.2021
4412 Snow -12 962 92 300 14.75 340 18:41 05.12.2021
4413 Snow -12 962 92 300 14.75 340 18:19 05.12.2021
4414 Snow -12 961 92 300 11.62 340 17:47 05.12.2021
4415 Snow -12 960 92 300 15.65 10 16:45 05.12.2021
4416 Snow -12 960 92 300 15.65 10 16:24 05.12.2021
4417 Snow -14 959 92 50 21.01 30 14:49 05.12.2021
4418 Snow -14 959 92 50 21.01 30 14:30 05.12.2021
4419 Snow -14 961 92 100 18.78 20 13:43 05.12.2021
4420 Snow -9 961 92 150 19.67 20 12:55 05.12.2021
4421 Snow -9 961 92 150 19.67 20 12:29 05.12.2021
4422 Snow -7 961 86 50 20 40 11:49 05.12.2021
4423 Snow -4 962 86 350 15 70 10:51 05.12.2021
4424 Snow -4 964 93 150 19 80 09:58 05.12.2021
4425 Snow -3 969 86 200 18 80 07:33 05.12.2021
4426 Snow -19 992 98 99 8.22 17 02:25 05.12.2021
4427 Snow -21 998 76 4500 7.6 340 23:31 04.12.2021
4428 Clouds -19 1003 58 10000 4.92 30 21:54 04.12.2021
4429 Clear -20 1006 59 10000 3 10 20:50 04.12.2021
4430 Clear -20 1006 54 10000 5 360 19:55 04.12.2021
4431 Clear -20 1006 54 10000 5 360 19:31 04.12.2021
4432 Clear -22 1009 54 10000 7 10 17:59 04.12.2021
4433 Clear -22 1009 54 10000 7 10 17:38 04.12.2021
4434 Clear -23 1010 59 10000 7 360 16:48 04.12.2021
4435 Clear -23 1010 59 10000 7 360 16:48 04.12.2021
4436 Clear -23 1010 59 10000 7 360 16:30 04.12.2021
4437 Clear -23 1010 59 10000 7 360 16:30 04.12.2021
4438 Clear -23 1010 57 10000 8 340 14:39 04.12.2021
4439 Clear -21 1010 65 10000 6 340 11:47 04.12.2021
4440 Clear -21 1010 63 10000 6 340 11:29 04.12.2021
4441 Clear -19 1009 60 10000 10 310 10:43 04.12.2021
4442 Clear -18 1007 65 10000 8 300 08:46 04.12.2021
4443 Clouds -15 1005 66 10000 11 280 06:24 04.12.2021
4444 Clouds -14 1003 66 10000 7 300 04:41 04.12.2021
4445 Clouds -12 998 72 10000 12.96 290 23:49 03.12.2021
4446 Clouds -12 998 72 10000 12.96 290 23:49 03.12.2021
4447 Clouds -10 996 78 10000 7 310 22:57 03.12.2021
4448 Clouds -10 996 78 10000 10 290 22:38 03.12.2021
4449 Clouds -9 993 78 10000 11 300 21:25 03.12.2021
4450 Snow -7 991 79 3200 13.86 290 20:46 03.12.2021
4451 Clear -2 989 86 10000 4 180 19:50 03.12.2021
4452 Clear -1 988 80 10000 2 140 18:34 03.12.2021
4453 Clouds -1 987 86 10000 2 140 17:59 03.12.2021
4454 Clouds 0 985 80 10000 3 170 14:47 03.12.2021
4455 Clouds 0 983 86 10000 6 160 12:54 03.12.2021
4456 Clouds 0 983 80 10000 8.94 170 11:39 03.12.2021
4457 Clouds 0 982 80 10000 6.71 160 10:51 03.12.2021
4458 Clouds 0 981 93 10000 11.62 130 08:25 03.12.2021
4459 Clouds 0 981 93 10000 17.88 130 07:40 03.12.2021
4460 Clouds 0 989 93 10000 22 140 02:39 03.12.2021
4461 Clouds 0 991 93 9000 13.86 130 00:47 03.12.2021
4462 Clouds 0 993 100 650 17 120 23:47 02.12.2021
4463 Clouds -2 998 92 100 18.78 130 21:43 02.12.2021
4464 Snow -3 999 100 100 19 120 21:21 02.12.2021
4465 Snow -5 1002 92 100 19.67 120 20:38 02.12.2021
4466 Snow -7 1005 92 50 17.88 120 19:43 02.12.2021
4467 Snow -10 1008 85 50 15.65 120 18:33 02.12.2021
4468 Snow -10 1008 85 50 15.65 120 18:33 02.12.2021
4469 Snow -9 1015 92 550 11 100 15:43 02.12.2021
4470 Snow -9 1015 92 550 11 100 15:20 02.12.2021
4471 Snow -8 1017 86 1000 10 100 14:43 02.12.2021
4472 Snow -18 1022 84 4100 1 0 12:53 02.12.2021
4473 Snow -18 1022 84 4100 1 0 12:18 02.12.2021
4474 Snow -18 1023 84 9000 1.79 360 10:38 02.12.2021
4475 Snow -19 1023 84 10000 3 340 08:59 02.12.2021
4476 Snow -17 1023 78 10000 3 30 05:34 02.12.2021
4477 Snow -17 1019 84 400 4.92 270 00:53 02.12.2021
4478 Snow -13 1018 85 500 5 250 23:28 01.12.2021
4479 Snow -12 1016 85 600 9 90 22:25 01.12.2021
4480 Snow -12 1016 85 6000 9 80 21:21 01.12.2021
4481 Snow -13 1014 85 900 10 90 19:58 01.12.2021
4482 Snow -13 1014 85 900 10 90 19:34 01.12.2021
4483 Snow -12 1011 85 150 14 100 17:50 01.12.2021
4484 Snow -12 1011 85 800 15 100 16:58 01.12.2021
4485 Snow -12 1011 79 700 15 110 15:20 01.12.2021
4486 Snow -15 1011 77 1200 13.86 110 13:49 01.12.2021
4487 Snow -15 1011 77 1200 13.86 110 13:30 01.12.2021
4488 Snow -17 1009 71 650 14.75 110 10:43 01.12.2021
4489 Snow -17 1009 77 500 13.86 110 09:56 01.12.2021
4490 Snow -17 1009 77 400 14.75 110 08:40 01.12.2021
4491 Snow -17 1010 77 450 10.73 90 07:54 01.12.2021
4492 Snow -17 1010 77 450 10.73 90 07:19 01.12.2021
4493 Snow -17 997 77 500 11.62 70 03:50 01.12.2021
4494 Snow -17 1010 77 1200 13.86 70 02:34 01.12.2021
4495 Snow -17 1011 77 1800 9.83 80 23:59 30.11.2021
4496 Snow -17 1011 71 1800 10.73 80 23:28 30.11.2021
4497 Snow -17 1011 71 3000 9.83 90 22:22 30.11.2021
4498 Clouds -16 1012 72 9000 8 70 20:46 30.11.2021
4499 Clouds -16 1012 72 9000 8 70 20:24 30.11.2021
4500 Clouds -15 1012 66 10000 5 70 19:39 30.11.2021
4501 Clouds -17 1012 71 10000 4 90 18:51 30.11.2021
4502 Clouds -17 1013 78 10000 3 60 17:23 30.11.2021
4503 Clouds -18 1013 85 10000 2 30 15:54 30.11.2021
4504 Clouds -19 1014 84 10000 3 60 14:31 30.11.2021
4505 Clouds -23 1014 76 10000 1.79 40 13:40 30.11.2021
4506 Clouds -24 1015 83 10000 0 0 12:53 30.11.2021
4507 Clear -22 1015 83 10000 1 0 11:55 30.11.2021
4508 Clear -22 1015 83 10000 1 0 11:25 30.11.2021
4509 Clouds -24 1015 83 10000 0.89 110 10:36 30.11.2021
4510 Snow -23 1015 83 10000 0.89 100 08:56 30.11.2021
4511 Snow -23 1015 83 10000 1 100 08:32 30.11.2021
4512 Snow -23 1015 76 10000 2 90 07:50 30.11.2021
4513 Clouds -24 1015 83 10000 0 0 06:36 30.11.2021
4514 Fog -20 1016 84 10000 2 90 01:47 30.11.2021
4515 Snow -23 1016 84 10000 1 40 01:27 30.11.2021
4516 Snow -21 1017 77 10000 1 70 23:36 29.11.2021
4517 Snow -21 1017 77 10000 1 70 23:18 29.11.2021
4518 Snow -20 1017 77 8000 1 50 22:37 29.11.2021
4519 Snow -18 1017 84 9000 0 0 21:52 29.11.2021
4520 Snow -18 1017 84 10000 0.89 30 21:20 29.11.2021
4521 Snow -18 1017 84 10000 0.89 30 20:46 29.11.2021
4522 Snow -18 1017 84 10000 0.89 10 19:58 29.11.2021
4523 Snow -18 1017 84 10000 0.89 10 19:39 29.11.2021
4524 Snow -18 1017 84 10000 0 0 18:59 29.11.2021
4525 Snow -16 1018 95 321 0.86 242 18:40 29.11.2021
4526 Snow -16 1018 95 416 0.88 257 17:21 29.11.2021
4527 Snow -16 1018 95 416 0.88 257 16:44 29.11.2021
4528 Snow -16 1018 95 272 1.01 270 16:22 29.11.2021
4529 Snow -16 1018 95 269 0.85 268 14:45 29.11.2021
4530 Snow -16 1018 95 237 0.83 266 13:52 29.11.2021
4531 Snow -16 1018 95 212 0.7 285 12:58 29.11.2021
4532 Snow -16 1018 96 240 0.96 321 12:19 29.11.2021
4533 Snow -17 1018 96 248 1.11 320 11:22 29.11.2021
4534 Snow -16 1016 85 2700 1 260 09:58 29.11.2021
4535 Snow -17 1016 85 10000 1 280 07:26 29.11.2021
4536 Snow -16 1016 85 9000 2 340 05:51 29.11.2021
4537 Snow -16 1016 85 2100 2 340 01:22 29.11.2021
4538 Snow -16 1016 85 10000 0 0 23:47 28.11.2021
4539 Snow -17 1017 85 10000 2 360 23:29 28.11.2021
4540 Snow -17 1017 85 6000 2 350 22:18 28.11.2021
4541 Snow -16 1017 78 10000 1 310 21:39 28.11.2021
4542 Snow -17 1017 85 8000 2 340 20:40 28.11.2021
4543 Snow -17 1017 85 10000 2 320 19:44 28.11.2021
4544 Snow -17 1017 78 10000 2 340 18:40 28.11.2021
4545 Snow -18 1018 85 10000 2 340 17:58 28.11.2021
4546 Snow -18 1018 85 10000 2 340 17:34 28.11.2021
4547 Snow -19 1018 84 10000 2 360 16:47 28.11.2021
4548 Snow -19 1018 84 10000 2 360 16:27 28.11.2021
4549 Snow -18 1019 78 10000 2 330 15:50 28.11.2021
4550 Snow -19 1019 84 9000 2 20 14:55 28.11.2021
4551 Snow -19 1019 84 9000 2 20 14:28 28.11.2021
4552 Snow -18 1020 85 6000 3 300 12:54 28.11.2021
4553 Snow -19 1020 84 9000 1 0 11:39 28.11.2021
4554 Snow -20 1021 84 6000 1 300 10:34 28.11.2021
4555 Snow -20 1021 84 6000 1 10 09:51 28.11.2021
4556 Snow -20 1021 84 6000 1 10 09:30 28.11.2021
4557 Clouds -20 1025 71 10000 2 270 00:52 28.11.2021
4558 Clear -20 1026 65 10000 3 70 21:54 27.11.2021
4559 Clear -21 1027 77 10000 1 0 19:50 27.11.2021
4560 Clear -27 1027 76 10000 1 0 18:26 27.11.2021
4561 Clear -27 1028 76 10000 2 360 16:19 27.11.2021
4562 Clear -19 1028 60 10000 2 90 14:51 27.11.2021
4563 Clear -19 1028 60 10000 5 60 13:39 27.11.2021
4564 Clear -19 1029 60 10000 4 70 11:37 27.11.2021
4565 Clear -27 1029 76 10000 4 10 10:27 27.11.2021
4566 Clear -27 1029 76 10000 3 10 09:18 27.11.2021
4567 Clear -27 1029 76 10000 3 20 06:59 27.11.2021
4568 Clouds -23 1028 77 10000 4 20 04:53 27.11.2021
4569 Fog -27 1028 76 10000 3 30 00:26 27.11.2021
4570 Clear -27 1028 69 10000 4 10 22:51 26.11.2021
4571 Clear -27 1028 69 10000 4 10 22:24 26.11.2021
4572 Clear -27 1028 76 10000 4 10 21:33 26.11.2021
4573 Clear -27 1027 76 10000 1 0 20:42 26.11.2021
4574 Clear -27 1027 76 10000 2 10 19:56 26.11.2021
4575 Clear -27 1027 76 10000 2 10 19:27 26.11.2021
4576 Clear -28 1026 76 10000 4 10 17:54 26.11.2021
4577 Clear -28 1026 76 10000 4 10 17:21 26.11.2021
4578 Clear -26 1026 70 10000 4 360 15:29 26.11.2021
4579 Clear -24 1025 69 10000 4 360 13:35 26.11.2021
4580 Clear -24 1025 69 10000 5 350 11:58 26.11.2021
4581 Clear -24 1024 69 10000 3 350 10:37 26.11.2021
4582 Clear -22 1023 69 10000 3 340 08:57 26.11.2021
4583 Clear -22 1023 69 10000 3 340 08:21 26.11.2021
4584 Clear -23 1023 70 10000 3 350 07:25 26.11.2021
4585 Clear -22 1023 77 10000 5 360 06:26 26.11.2021
4586 Clouds -22 1022 69 10000 3 360 03:56 26.11.2021
4587 Clouds -21 1022 77 10000 4 20 01:53 26.11.2021
4588 Fog -26 1022 76 10000 4 360 22:48 25.11.2021
4589 Clear -27 1021 75 10000 2.68 360 21:26 25.11.2021
4590 Clear -27 1021 75 10000 3 360 20:27 25.11.2021
4591 Clouds -27 1020 76 10000 4 350 18:46 25.11.2021
4592 Fog -28 1020 83 10000 5 360 17:47 25.11.2021
4593 Fog -28 1020 83 10000 5 360 17:25 25.11.2021
4594 Mist -28 1020 76 5000 3 340 16:32 25.11.2021
4595 Fog -31 1020 76 10000 3 360 14:59 25.11.2021
4596 Fog -31 1020 74 10000 3.58 350 13:26 25.11.2021
4597 Fog -31 1020 74 10000 3.58 350 12:25 25.11.2021
4598 Fog -31 1019 74 10000 2.68 350 11:49 25.11.2021
4599 Clouds -29 1020 75 10000 3 360 09:26 25.11.2021
4600 Clear -28 1020 83 10000 3 360 05:48 25.11.2021
4601 Clouds -26 1020 76 10000 4 10 02:48 25.11.2021
4602 Clear -26 1022 75 10000 4 20 22:55 24.11.2021
4603 Clear -26 1022 75 10000 3.58 20 22:24 24.11.2021
4604 Clear -26 1022 75 10000 4.92 20 21:32 24.11.2021
4605 Clear -27 1023 75 10000 4.92 20 20:50 24.11.2021
4606 Clear -27 1023 75 10000 4.92 20 20:19 24.11.2021
4607 Clear -26 1024 75 10000 4.92 30 18:30 24.11.2021
4608 Clear -26 1024 69 10000 4.92 20 17:57 24.11.2021
4609 Clear -26 1026 75 10000 5 30 15:39 24.11.2021
4610 Clear -24 1027 69 10000 5 20 14:47 24.11.2021
4611 Clear -24 1027 76 10000 5 20 14:20 24.11.2021
4612 Clear -24 1028 77 10000 6 30 12:34 24.11.2021
4613 Clear -27 1029 75 10000 5 40 11:21 24.11.2021
4614 Clear -27 1029 75 10000 6 40 10:48 24.11.2021
4615 Clear -28 1029 75 10000 6 40 10:22 24.11.2021
4616 Clear -28 1030 75 10000 5 20 07:54 24.11.2021
4617 Clear -28 1031 82 10000 5 20 06:54 24.11.2021
4618 Clear -27 1032 75 10000 4 20 03:51 24.11.2021
4619 Fog -28 1034 75 10000 5 30 00:52 24.11.2021
4620 Fog -28 1035 82 10000 2.68 360 22:40 23.11.2021
4621 Fog -28 1035 82 10000 2.68 360 22:20 23.11.2021
4622 Fog -28 1036 82 10000 3.58 360 21:44 23.11.2021
4623 Fog -28 1036 82 10000 3.58 360 21:44 23.11.2021
4624 Clear -28 1036 75 10000 4 10 19:43 23.11.2021
4625 Clear -27 1036 76 10000 5 360 18:43 23.11.2021
4626 Clear -27 1036 76 10000 5 360 18:21 23.11.2021
4627 Clear -26 1037 76 10000 5 350 16:58 23.11.2021
4628 Clear -26 1037 76 10000 5 350 16:20 23.11.2021
4629 Clear -26 1038 76 10000 4 340 15:22 23.11.2021
4630 Clear -26 1038 76 10000 3 350 14:26 23.11.2021
4631 Clear -25 1039 77 10000 3 350 11:43 23.11.2021
4632 Clear -25 1039 77 10000 3 350 10:19 23.11.2021
4633 Clear -25 1039 84 10000 5 350 09:18 23.11.2021
4634 Clear -25 1038 77 10000 4 340 06:45 23.11.2021
4635 Clear -24 1039 77 10000 4 340 03:52 23.11.2021
4636 Clouds -25 1039 84 7000 4 350 01:49 23.11.2021
4637 Clouds -25 1038 84 9000 4 360 23:21 22.11.2021
4638 Fog -24 1038 84 10000 4 360 22:52 22.11.2021
4639 Fog -24 1038 77 10000 3 330 22:25 22.11.2021
4640 Clouds -23 1037 77 9000 4 360 21:41 22.11.2021
4641 Clear -24 1037 84 10000 5 350 20:52 22.11.2021
4642 Clear -26 1037 84 10000 5 320 19:56 22.11.2021
4643 Clear -26 1037 84 10000 5 320 19:19 22.11.2021
4644 Clouds -23 1037 77 10000 5 360 18:39 22.11.2021
4645 Clouds -25 1037 77 7000 4 360 17:43 22.11.2021
4646 Clear -25 1036 84 10000 3 330 16:19 22.11.2021
4647 Clear -24 1036 84 10000 5 330 14:18 22.11.2021
4648 Clouds -24 1036 84 10000 5 330 12:18 22.11.2021
4649 Clouds -24 1035 77 6000 3 20 10:43 22.11.2021
4650 Clear -24 1035 84 10000 5 350 09:43 22.11.2021
4651 Fog -24 1035 84 10000 3 360 08:40 22.11.2021
4652 Clear -23 1034 84 10000 4 340 06:22 22.11.2021
4653 Clouds -30 1035 95 10000 2.89 326 23:28 21.11.2021
4654 Clouds -30 1035 95 10000 2.89 326 22:49 21.11.2021
4655 Clouds -30 1035 95 10000 2.69 328 21:57 21.11.2021
4656 Clouds -30 1034 95 10000 2.86 332 20:42 21.11.2021
4657 Clouds -30 1034 95 10000 2.82 337 19:58 21.11.2021
4658 Clouds -30 1034 95 10000 2.82 335 18:25 21.11.2021
4659 Clouds -30 1034 95 10000 2.82 335 17:39 21.11.2021
4660 Clouds -30 1034 96 10000 2.75 337 15:53 21.11.2021
4661 Snow -21 1032 84 10000 3 340 14:45 21.11.2021
4662 Snow -23 1032 84 10000 5 350 13:47 21.11.2021
4663 Clouds -25 1032 77 10000 6 340 12:37 21.11.2021
4664 Clouds -27 1032 83 10000 5 330 11:54 21.11.2021
4665 Clouds -27 1032 83 10000 5 330 11:35 21.11.2021
4666 Clear -27 1032 76 10000 5 350 10:18 21.11.2021
4667 Fog -28 1031 82 10000 3.58 360 08:45 21.11.2021
4668 Fog -28 1031 82 10000 4 360 08:25 21.11.2021
4669 Fog -29 1031 75 10000 4 20 07:48 21.11.2021
4670 Fog -28 1031 75 10000 3.58 340 05:55 21.11.2021
4671 Fog -28 1031 75 10000 3.58 340 05:25 21.11.2021
4672 Clear -26 1030 76 10000 5 350 03:19 21.11.2021
4673 Clear -25 1030 77 10000 3 350 02:52 21.11.2021
4674 Clear -26 1031 75 10000 4.92 40 00:59 21.11.2021
4675 Clear -27 1031 82 10000 4 360 23:56 20.11.2021
4676 Clear -25 1031 77 10000 4 10 21:46 20.11.2021
4677 Clear -26 1031 75 10000 3.58 10 21:27 20.11.2021
4678 Clouds -26 1031 75 10000 4.92 20 19:22 20.11.2021
4679 Clouds -26 1031 83 10000 3.58 20 18:45 20.11.2021
4680 Clouds -26 1031 83 10000 3.58 20 18:18 20.11.2021
4681 Clouds -26 1032 75 10000 3.58 360 16:59 20.11.2021
4682 Clear -26 1032 75 10000 3.58 340 14:48 20.11.2021
4683 Clear -26 1032 75 10000 3.58 340 14:27 20.11.2021
4684 Clear -24 1032 84 10000 5 340 12:23 20.11.2021
4685 Clear -24 1033 84 10000 6 360 11:19 20.11.2021
4686 Clear -26 1033 83 10000 6.71 350 09:53 20.11.2021
4687 Clear -24 1033 77 10000 6 340 08:25 20.11.2021
4688 Clear -23 1033 77 10000 6 350 05:29 20.11.2021
4689 Clear -23 1033 77 10000 5 350 04:51 20.11.2021
4690 Clear -23 1033 84 10000 4 360 03:24 20.11.2021
4691 Clouds -22 1033 77 10000 5 350 00:42 20.11.2021
4692 Clouds -22 1034 84 10000 4 350 23:43 19.11.2021
4693 Clouds -20 1033 84 10000 5 20 22:52 19.11.2021
4694 Clouds -21 1033 77 10000 5 20 21:22 19.11.2021
4695 Clouds -23 1033 77 10000 5 20 20:37 19.11.2021
4696 Clouds -23 1033 77 10000 5 20 20:37 19.11.2021
4697 Clouds -22 1033 84 10000 5 350 19:56 19.11.2021
4698 Clouds -22 1033 84 10000 5 350 19:34 19.11.2021
4699 Clouds -21 1033 84 10000 4 350 18:43 19.11.2021
4700 Snow -20 1033 84 10000 5 360 17:38 19.11.2021
4701 Snow -20 1033 77 10000 4 360 15:58 19.11.2021
4702 Snow -20 1033 77 10000 5 340 14:19 19.11.2021
4703 Clear -21 1033 77 10000 5 360 10:52 19.11.2021
4704 Clear -21 1033 76 10000 4.92 360 10:23 19.11.2021
4705 Clouds -17 1032 78 10000 3 10 08:32 19.11.2021
4706 Clouds -19 1032 84 10000 4.92 360 04:55 19.11.2021
4707 Clouds -16 1032 78 10000 5 360 03:00 19.11.2021
4708 Clouds -17 1033 77 10000 4.92 10 23:53 18.11.2021
4709 Snow -15 1033 78 10000 5 330 22:43 18.11.2021
4710 Snow -14 1033 78 10000 6 20 20:56 18.11.2021
4711 Snow -14 1033 78 10000 6 20 20:37 18.11.2021
4712 Snow -14 1033 78 10000 6 20 20:18 18.11.2021
4713 Snow -14 1032 78 10000 5 10 19:36 18.11.2021
4714 Snow -11 1033 73 10000 4 30 18:35 18.11.2021
4715 Clouds -11 1033 67 10000 5 70 17:52 18.11.2021
4716 Clouds -11 1033 73 10000 7 70 16:46 18.11.2021
4717 Clouds -10 1033 67 10000 6 80 15:52 18.11.2021
4718 Snow -10 1033 73 10000 5 60 14:40 18.11.2021
4719 Snow -10 1033 79 10000 8 90 12:55 18.11.2021
4720 Snow -9 1033 73 10000 10 80 11:44 18.11.2021
4721 Snow -9 1033 73 10000 10 80 11:25 18.11.2021
4722 Snow -9 1033 73 10000 10 80 10:22 18.11.2021
4723 Snow -9 1032 79 10000 7 70 08:26 18.11.2021
4724 Snow -8 1032 73 10000 7 70 06:39 18.11.2021
4725 Snow -8 1032 73 10000 7 70 05:43 18.11.2021
4726 Clouds -7 1030 79 7000 11 90 01:25 18.11.2021
4727 Snow -6 1030 79 10000 9 80 23:30 17.11.2021
4728 Snow -6 1030 79 10000 9 80 22:39 17.11.2021
4729 Snow -6 1030 79 10000 9 80 22:19 17.11.2021
4730 Snow -8 1029 79 10000 9.83 70 21:35 17.11.2021
4731 Snow -7 1028 93 1100 10 90 19:42 17.11.2021
4732 Snow -7 1028 85 10000 8.94 70 17:35 17.11.2021
4733 Snow -7 1028 85 10000 8.94 70 17:35 17.11.2021
4734 Clouds -6 1028 86 9000 10 100 15:56 17.11.2021
4735 Snow -5 1028 80 9000 10 100 13:19 17.11.2021
4736 Snow -5 1027 86 8000 9 100 12:37 17.11.2021
4737 Snow -4 1027 86 6000 10 110 10:54 17.11.2021
4738 Snow -4 1027 93 3700 9 110 09:38 17.11.2021
4739 Snow -4 1026 93 4400 8 100 07:56 17.11.2021
4740 Snow -4 1026 93 4400 8 100 07:37 17.11.2021
4741 Snow -4 1025 86 3400 9 110 02:49 17.11.2021
4742 Snow -4 1026 86 3400 9 100 00:35 17.11.2021
4743 Snow -5 1026 86 2800 7 80 22:32 16.11.2021
4744 Clouds -5 1025 80 10000 8 80 20:19 16.11.2021
4745 Clouds -6 1025 79 10000 8 90 19:41 16.11.2021
4746 Snow -5 1024 86 8000 6 90 18:52 16.11.2021
4747 Snow -5 1024 86 8000 6 90 18:29 16.11.2021
4748 Snow -5 1024 86 10000 7 90 17:26 16.11.2021
4749 Clouds -5 1024 80 10000 8 90 16:20 16.11.2021
4750 Clouds -5 1024 80 10000 7 80 15:44 16.11.2021
4751 Clouds -4 1023 80 10000 6 80 13:49 16.11.2021
4752 Snow -4 1023 86 10000 6 90 10:39 16.11.2021
4753 Snow -4 1022 86 10000 6 90 09:42 16.11.2021
4754 Snow -3 1022 74 10000 4 90 08:23 16.11.2021
4755 Clouds -3 1021 74 10000 4 80 07:29 16.11.2021
4756 Clouds -3 1019 80 10000 8 120 23:54 15.11.2021
4757 Clouds -3 1019 80 10000 9 110 22:43 15.11.2021
4758 Clouds -3 1019 80 10000 9 110 22:20 15.11.2021
4759 Clouds -3 1019 80 10000 7 90 21:46 15.11.2021
4760 Snow -3 1018 86 10000 7 100 21:21 15.11.2021
4761 Snow -2 1017 86 9000 8 110 19:41 15.11.2021
4762 Snow -2 1017 86 8000 8 100 17:50 15.11.2021
4763 Snow -2 1016 93 9000 7 100 16:19 15.11.2021
4764 Snow -2 1016 93 6000 8 110 15:39 15.11.2021
4765 Snow -2 1016 93 6000 8 110 15:19 15.11.2021
4766 Snow -2 1016 86 10000 7 120 12:47 15.11.2021
4767 Snow -1 1015 86 10000 8 120 10:54 15.11.2021
4768 Snow -1 1015 86 10000 6 110 09:26 15.11.2021
4769 Snow -1 1015 93 2800 6 100 07:45 15.11.2021
4770 Clouds -1 1015 86 10000 6 110 04:46 15.11.2021
4771 Snow -2 1014 92 2900 6.71 100 23:37 14.11.2021
4772 Snow -2 1014 92 2200 8.94 90 22:34 14.11.2021
4773 Snow -1 1013 93 8000 12 100 19:53 14.11.2021
4774 Snow -1 1013 93 8000 12 100 19:18 14.11.2021
4775 Snow -1 1012 93 6000 13 100 18:54 14.11.2021
4776 Snow -1 1012 93 6000 13 100 18:36 14.11.2021
4777 Snow -1 1012 93 6000 13 100 18:18 14.11.2021
4778 Snow -1 1013 93 10000 9 90 17:55 14.11.2021
4779 Snow -1 1013 93 10000 9 90 17:37 14.11.2021
4780 Snow -1 1013 93 10000 9 90 17:19 14.11.2021
4781 Snow -1 1013 93 6000 11 100 16:45 14.11.2021
4782 Snow -2 1013 92 6000 10.73 100 16:19 14.11.2021
4783 Snow -2 1013 92 10000 7.6 100 15:22 14.11.2021
4784 Snow 0 1014 86 10000 8 110 14:45 14.11.2021
4785 Snow 0 1014 86 10000 8 110 14:26 14.11.2021
4786 Snow -2 1014 92 10000 7.6 100 13:53 14.11.2021
4787 Snow -2 1014 92 10000 7.6 100 13:35 14.11.2021
4788 Snow -2 1014 92 1800 8.94 100 12:27 14.11.2021
4789 Snow -2 1014 92 2500 8.94 100 11:41 14.11.2021
4790 Snow -2 1013 92 4700 8.94 100 10:41 14.11.2021
4791 Snow -2 1013 92 6000 8.94 100 09:47 14.11.2021
4792 Snow -2 1013 92 10000 9.83 110 08:53 14.11.2021
4793 Snow -3 1013 92 10000 5.81 90 06:54 14.11.2021
4794 Snow -5 1014 85 10000 2.68 340 23:34 13.11.2021
4795 Clouds -6 1014 92 10000 2.68 340 22:25 13.11.2021
4796 Snow -7 1014 100 10000 1.79 330 21:50 13.11.2021
4797 Snow -7 1014 100 10000 1.79 330 21:20 13.11.2021
4798 Snow -7 1014 92 10000 0.89 340 19:38 13.11.2021
4799 Snow -7 1014 92 10000 1.79 350 18:33 13.11.2021
4800 Snow -7 1014 92 10000 1.79 350 18:33 13.11.2021
4801 Snow -7 1014 92 10000 1.79 350 17:55 13.11.2021
4802 Snow -7 1014 92 10000 1.79 10 16:37 13.11.2021
4803 Snow -7 1014 92 4700 1.79 340 15:20 13.11.2021
4804 Snow -7 1014 92 5000 1.79 360 14:20 13.11.2021
4805 Snow -8 1014 92 10000 2.68 350 12:56 13.11.2021
4806 Snow -8 1014 92 10000 2.68 350 12:22 13.11.2021
4807 Snow -7 1013 92 10000 2.68 330 11:34 13.11.2021
4808 Snow -7 1013 92 10000 2.68 340 10:44 13.11.2021
4809 Snow -8 1013 92 9000 2.68 330 09:56 13.11.2021
4810 Snow -8 1013 92 9000 2.68 330 09:34 13.11.2021
4811 Clouds -7 1013 92 10000 1.79 360 08:56 13.11.2021
4812 Clouds -7 1013 92 10000 1.79 360 08:23 13.11.2021
4813 Snow -8 1012 92 10000 1.79 360 04:47 13.11.2021
4814 Snow -8 1012 92 10000 1.79 360 04:28 13.11.2021
4815 Snow -6 1012 92 10000 0.89 310 01:30 13.11.2021
4816 Snow -6 1012 85 8000 2.68 190 22:58 12.11.2021
4817 Snow -5 1012 86 10000 5 170 21:45 12.11.2021
4818 Snow -5 1012 86 10000 5 150 19:54 12.11.2021
4819 Snow -5 1012 86 10000 5 150 19:27 12.11.2021
4820 Snow -5 1013 86 7000 5 160 18:29 12.11.2021
4821 Snow -6 1013 86 4800 6 150 16:35 12.11.2021
4822 Mist -6 1013 86 3500 6 150 15:33 12.11.2021
4823 Clouds -6 1015 68 10000 6 120 11:57 12.11.2021
4824 Clouds -6 1016 68 10000 5 110 10:51 12.11.2021
4825 Clouds -7 1017 79 10000 3 130 09:44 12.11.2021
4826 Clouds -11 1017 85 10000 1 0 08:39 12.11.2021
4827 Clear -15 1019 84 10000 1 20 03:18 12.11.2021
4828 Clear -18 1020 84 10000 4 40 23:42 11.11.2021
4829 Clear -16 1020 85 10000 3 60 22:36 11.11.2021
4830 Clear -17 1020 85 10000 3 30 21:27 11.11.2021
4831 Clouds -18 1020 85 10000 4 20 20:42 11.11.2021
4832 Clear -17 1020 92 10000 3 360 19:24 11.11.2021
4833 Clear -16 1020 92 10000 2 70 17:44 11.11.2021
4834 Clear -16 1019 85 10000 2 10 16:58 11.11.2021
4835 Clear -16 1019 92 10000 3 10 15:18 11.11.2021
4836 Clouds -14 1019 92 10000 4 350 14:30 11.11.2021
4837 Clouds -14 1020 85 10000 4 20 13:40 11.11.2021
4838 Clouds -13 1020 92 10000 3 360 12:51 11.11.2021
4839 Clouds -12 1020 85 10000 6 340 10:58 11.11.2021
4840 Clouds -12 1020 79 10000 4 40 09:39 11.11.2021
4841 Clear -11 1020 79 10000 5 50 07:59 11.11.2021
4842 Clear -13 1019 85 10000 2 10 05:55 11.11.2021
4843 Clear -11 1021 85 10000 3 360 00:34 11.11.2021
4844 Clear -10 1021 85 10000 4 360 22:32 10.11.2021
4845 Clouds -9 1021 86 10000 3 360 21:33 10.11.2021
4846 Clouds -8 1020 93 10000 4 310 20:47 10.11.2021
4847 Clouds -8 1020 93 10000 4 310 20:47 10.11.2021
4848 Clouds -8 1020 86 10000 5 340 19:47 10.11.2021
4849 Clouds -8 1020 86 10000 5 340 19:28 10.11.2021
4850 Clouds -8 1020 86 10000 5 340 16:38 10.11.2021
4851 Clouds -9 1019 92 10000 5 360 15:44 10.11.2021
4852 Clouds -8 1019 93 10000 5 320 13:52 10.11.2021
4853 Clouds -8 1019 93 10000 5 320 13:26 10.11.2021
4854 Clouds -5 1019 86 10000 2 330 11:36 10.11.2021
4855 Clouds -6 1019 86 10000 3 330 08:59 10.11.2021
4856 Clouds -6 1019 86 10000 3 340 08:39 10.11.2021
4857 Clouds -6 1018 86 10000 3 340 06:41 10.11.2021
4858 Clouds -6 1018 86 10000 3 340 05:52 10.11.2021
4859 Clouds -7 1018 86 10000 2 40 01:24 10.11.2021
4860 Clouds -5 1018 86 10000 3 360 21:55 09.11.2021
4861 Clouds -5 1018 93 10000 2 30 20:32 09.11.2021
4862 Clouds -5 1018 93 10000 2 30 20:32 09.11.2021
4863 Clouds -6 1018 86 10000 2 10 19:26 09.11.2021
4864 Clouds -6 1018 86 10000 2 360 18:38 09.11.2021
4865 Clouds -4 1017 86 10000 2 20 16:27 09.11.2021
4866 Clouds -2 1017 86 10000 3 130 14:58 09.11.2021
4867 Clouds -2 1017 80 10000 4 110 13:21 09.11.2021
4868 Clouds -2 1017 80 10000 4 100 12:22 09.11.2021
4869 Clouds -2 1017 86 10000 4 110 10:46 09.11.2021
4870 Clouds -2 1016 86 10000 6 110 09:42 09.11.2021
4871 Clouds -2 1016 80 10000 5 110 08:37 09.11.2021
4872 Clear -2 1016 80 10000 6 110 05:58 09.11.2021
4873 Clouds -1 1015 74 10000 7 100 02:30 09.11.2021
4874 Clouds -2 1015 80 10000 7 110 01:50 09.11.2021
4875 Clouds -2 1016 86 10000 5 100 00:19 09.11.2021
4876 Clouds -2 1016 74 10000 7 110 23:20 08.11.2021
4877 Clouds -1 1015 69 10000 6 120 22:32 08.11.2021
4878 Clouds -1 1015 64 10000 6 120 21:21 08.11.2021
4879 Clouds -1 1015 64 10000 6 120 20:31 08.11.2021
4880 Clouds -2 1016 69 10000 2 310 18:57 08.11.2021
4881 Clouds -2 1016 69 10000 6 120 17:23 08.11.2021
4882 Clouds -2 1016 74 10000 6 110 15:31 08.11.2021
4883 Clouds -3 1016 80 9000 5 100 14:54 08.11.2021
4884 Clouds -4 1017 93 10000 6 80 13:59 08.11.2021
4885 Clouds -4 1017 93 10000 4 120 12:44 08.11.2021
4886 Clouds -4 1017 93 10000 3 120 11:28 08.11.2021
4887 Clouds -5 1017 93 8000 5 130 10:18 08.11.2021
4888 Mist -5 1017 86 3900 5 100 08:56 08.11.2021
4889 Mist -5 1017 93 9000 8 120 07:47 08.11.2021
4890 Mist -5 1018 93 3000 6 120 06:50 08.11.2021
4891 Fog -12 1019 85 10000 2 300 03:34 08.11.2021
4892 Clouds -13 1019 92 10000 2 70 23:51 07.11.2021
4893 Clear -13 1019 92 10000 3 10 22:30 07.11.2021
4894 Clouds -11 1018 92 10000 4 20 21:22 07.11.2021
4895 Clouds -10 1018 92 10000 3 360 19:55 07.11.2021
4896 Clouds -9 1018 86 10000 3 360 18:26 07.11.2021
4897 Clouds -19 1019 99 10000 2.58 3 17:38 07.11.2021
4898 Clouds -8 1017 93 10000 3 360 15:55 07.11.2021
4899 Snow -9 1016 86 10000 3 340 14:42 07.11.2021
4900 Snow -8 1016 93 10000 4 10 13:57 07.11.2021
4901 Snow -7 1016 86 10000 1 0 11:54 07.11.2021
4902 Snow -8 1015 93 10000 1 20 10:22 07.11.2021
4903 Snow -12 1014 92 10000 1 20 08:48 07.11.2021
4904 Snow -16 1013 85 9000 4 340 02:49 07.11.2021
4905 Clouds -13 1013 85 10000 3 20 00:18 07.11.2021
4906 Snow -12 1013 85 10000 2 10 22:54 06.11.2021
4907 Clouds -23 1015 98 7342 2.2 327 21:43 06.11.2021
4908 Clouds -23 1015 98 6573 2 335 20:52 06.11.2021
4909 Clouds -23 1015 98 7205 2.24 342 19:39 06.11.2021
4910 Snow -12 1012 79 9000 5 170 17:25 06.11.2021
4911 Snow -13 1012 72 10000 5 180 15:46 06.11.2021
4912 Snow -15 1013 78 10000 2 150 13:39 06.11.2021
4913 Snow -15 1013 78 10000 2 150 13:39 06.11.2021
4914 Clouds -21 1014 84 10000 1 0 12:38 06.11.2021
4915 Clear -21 1015 77 10000 4 360 09:49 06.11.2021
4916 Clear -21 1016 77 10000 3 10 08:24 06.11.2021
4917 Clear -22 1017 77 10000 5 20 03:20 06.11.2021
4918 Clouds -24 1017 70 10000 5 10 23:40 05.11.2021
4919 Clear -27 1018 83 10000 4 30 22:52 05.11.2021
4920 Clear -26 1018 76 10000 5 40 21:55 05.11.2021
4921 Clear -25 1017 77 10000 5 20 20:21 05.11.2021
4922 Clear -27 1017 76 10000 5 30 19:49 05.11.2021
4923 Clear -26 1018 76 10000 5 30 18:42 05.11.2021
4924 Clear -26 1018 84 10000 4 30 17:34 05.11.2021
4925 Clear -27 1018 76 10000 4 20 15:48 05.11.2021
4926 Clear -23 1018 77 10000 6 340 13:58 05.11.2021
4927 Clear -23 1018 77 10000 6 20 11:43 05.11.2021
4928 Clear -24 1017 77 10000 5 10 08:57 05.11.2021
4929 Clear -26 1018 70 10000 5 40 07:45 05.11.2021
4930 Clear -26 1018 76 10000 5 30 05:33 05.11.2021
4931 Clear -24 1018 70 10000 5 20 02:27 05.11.2021
4932 Clouds -25 1018 77 10000 6 20 00:54 05.11.2021
4933 Clear -25 1018 77 10000 6 10 23:26 04.11.2021
4934 Clear -25 1018 77 10000 6 10 23:26 04.11.2021
4935 Clear -27 1018 76 10000 6 20 22:20 04.11.2021
4936 Fog -27 1018 76 10000 4 10 21:44 04.11.2021
4937 Fog -27 1018 76 10000 4 10 21:19 04.11.2021
4938 Clear -27 1017 76 10000 4 40 20:25 04.11.2021
4939 Clouds -28 1017 82 10000 4.92 30 19:48 04.11.2021
4940 Clouds -28 1017 82 10000 4.92 30 19:20 04.11.2021
4941 Clouds -27 1017 76 10000 4 40 18:21 04.11.2021
4942 Clouds -26 1017 76 10000 5 10 17:26 04.11.2021
4943 Clouds -26 1017 76 10000 5 10 17:26 04.11.2021
4944 Clouds -27 1016 76 10000 6 20 15:35 04.11.2021
4945 Clear -26 1015 76 10000 5 20 13:45 04.11.2021
4946 Clear -27 1014 76 10000 6 30 09:50 04.11.2021
4947 Clear -26 1013 76 10000 7 30 08:31 04.11.2021
4948 Clouds -25 1013 77 10000 6 20 07:35 04.11.2021
4949 Clouds -25 1013 77 10000 5 20 06:22 04.11.2021
4950 Clouds -26 1011 83 10000 3.58 10 22:54 03.11.2021
4951 Clouds -26 1011 83 10000 3.58 10 22:54 03.11.2021
4952 Clouds -27 1011 82 10000 4.92 20 21:57 03.11.2021
4953 Clouds -27 1011 82 10000 4.92 20 21:33 03.11.2021
4954 Clouds -26 1011 76 10000 4 30 20:38 03.11.2021
4955 Clouds -26 1011 76 10000 4 30 20:19 03.11.2021
4956 Clear -26 1011 84 10000 4 20 19:19 03.11.2021
4957 Clouds -26 1011 76 10000 3 20 18:26 03.11.2021
4958 Clouds -26 1010 76 10000 2 350 17:41 03.11.2021
4959 Clouds -25 1010 84 10000 5 10 16:31 03.11.2021
4960 Clouds -26 1010 76 10000 4 20 15:47 03.11.2021
4961 Clouds -26 1010 76 10000 4 20 15:28 03.11.2021
4962 Clouds -24 1009 77 10000 7 20 12:42 03.11.2021
4963 Clouds -23 1009 77 10000 7 340 11:28 03.11.2021
4964 Clouds -22 1009 77 10000 6 340 10:49 03.11.2021
4965 Mist -22 1009 84 5000 6 340 09:34 03.11.2021
4966 Clouds -22 1008 84 5000 10 310 08:37 03.11.2021
4967 Clouds -21 1008 77 10000 10 310 07:39 03.11.2021
4968 Clouds -21 1008 84 7000 9 300 05:44 03.11.2021
4969 Clouds -21 1008 84 3500 9 300 03:19 03.11.2021
4970 Clouds -21 1008 77 5000 9 300 00:54 03.11.2021
4971 Clouds -22 1008 77 3200 10 300 22:48 02.11.2021
4972 Clouds -22 1008 77 2200 11 310 21:47 02.11.2021
4973 Clouds -22 1008 77 3700 10 310 20:34 02.11.2021
4974 Clouds -23 1008 77 10000 8 330 19:55 02.11.2021
4975 Clouds -23 1008 77 10000 8 330 19:18 02.11.2021
4976 Clouds -23 1009 77 10000 5 350 18:26 02.11.2021
4977 Clouds -23 1008 77 10000 6 340 17:43 02.11.2021
4978 Clear -24 1008 77 10000 6 350 16:33 02.11.2021
4979 Clear -25 1008 84 10000 5 340 15:48 02.11.2021
4980 Clear -25 1008 77 10000 5 360 14:50 02.11.2021
4981 Clear -25 1008 77 10000 5 350 13:29 02.11.2021
4982 Clouds -26 1008 84 10000 6 350 12:45 02.11.2021
4983 Clouds -25 1008 77 10000 6 340 11:38 02.11.2021
4984 Clouds -25 1008 77 10000 6 360 10:54 02.11.2021
4985 Clouds -25 1008 77 10000 6 360 10:30 02.11.2021
4986 Clouds -26 1008 76 10000 4 10 08:45 02.11.2021
4987 Clouds -26 1008 76 9000 6 10 07:36 02.11.2021
4988 Fog -24 1008 77 10000 6 10 04:39 02.11.2021
4989 Fog -24 1008 77 10000 6 10 02:35 02.11.2021
4990 Fog -25 1009 77 10000 5 10 23:20 01.11.2021
4991 Fog -28 1009 82 10000 2.68 30 21:28 01.11.2021
4992 Clear -28 1009 75 10000 5.81 360 20:40 01.11.2021
4993 Clear -27 1009 76 10000 6 10 19:58 01.11.2021
4994 Clear -27 1009 76 10000 6 10 19:35 01.11.2021
4995 Clouds -26 1009 84 10000 6 360 18:23 01.11.2021
4996 Clouds -25 1009 77 10000 3 360 17:35 01.11.2021
4997 Clouds -25 1010 84 10000 3 10 16:50 01.11.2021
4998 Clouds -23 1010 77 10000 5 10 15:55 01.11.2021
4999 Clouds -23 1010 77 10000 5 10 15:26 01.11.2021
5000 Clear -24 1010 84 10000 5 10 14:43 01.11.2021
5001 Clear -24 1010 84 10000 5 10 14:43 01.11.2021
5002 Clear -24 1010 84 10000 5 10 14:23 01.11.2021
5003 Clear -23 1010 84 10000 5 360 13:49 01.11.2021
5004 Clear -24 1010 84 10000 6 350 12:27 01.11.2021
5005 Clear -23 1010 84 10000 5 10 10:33 01.11.2021
5006 Clear -26 1009 83 10000 4 20 09:25 01.11.2021
5007 Clear -23 1009 77 10000 5 360 07:49 01.11.2021
5008 Clear -23 1009 76 10000 4 360 06:31 01.11.2021
5009 Clouds -21 1009 77 10000 7 10 03:44 01.11.2021
5010 Clouds -22 1009 76 10000 4.92 20 00:37 01.11.2021
5011 Clouds -22 1010 76 10000 4.92 20 22:24 31.10.2021
5012 Snow -21 1009 76 10000 3.58 40 20:46 31.10.2021
5013 Clouds -21 1009 83 10000 6.71 360 18:57 31.10.2021
5014 Clouds -21 1009 83 10000 6.71 360 18:35 31.10.2021
5015 Clouds -21 1009 83 10000 6.71 360 17:23 31.10.2021
5016 Clouds -18 1008 84 5000 8.94 350 15:48 31.10.2021
5017 Clouds -18 1008 84 8000 7.6 340 13:56 31.10.2021
5018 Snow -17 1008 84 2800 6.71 350 12:44 31.10.2021
5019 Snow -17 1008 84 3500 6.71 330 11:38 31.10.2021
5020 Snow -16 1008 84 2900 6.71 340 10:41 31.10.2021
5021 Snow -15 1008 84 9000 6.71 360 09:20 31.10.2021
5022 Snow -14 1007 85 9000 9 350 06:59 31.10.2021
5023 Snow -18 1007 84 450 7.6 340 00:48 31.10.2021
5024 Snow -18 1008 84 650 7.6 330 22:33 30.10.2021
5025 Snow -17 1007 84 1100 6.71 330 21:33 30.10.2021
5026 Clouds -17 1008 84 608 5.81 320 20:21 30.10.2021
5027 Snow -17 1007 84 2000 5.81 330 18:36 30.10.2021
5028 Snow -17 1008 84 3600 5.81 330 16:42 30.10.2021
5029 Snow -16 1008 85 5000 7 340 14:43 30.10.2021
5030 Snow -18 1008 84 4500 5.81 340 13:39 30.10.2021
5031 Snow -18 1008 84 4500 5.81 340 13:21 30.10.2021
5032 Snow -18 1008 84 9000 6.71 340 11:51 30.10.2021
5033 Snow -18 1008 84 10000 5.81 340 11:32 30.10.2021
5034 Snow -18 1008 84 10000 6.71 330 10:24 30.10.2021
5035 Snow -18 1008 84 10000 6.71 350 08:48 30.10.2021
5036 Snow -18 1008 77 10000 5.81 360 06:26 30.10.2021
5037 Snow -19 1008 84 10000 4.92 360 05:38 30.10.2021
5038 Snow -17 1010 78 8000 2 360 23:52 29.10.2021
5039 Snow -19 1010 84 10000 2 360 22:36 29.10.2021
5040 Snow -19 1010 78 8000 2 40 21:23 29.10.2021
5041 Snow -19 1010 78 10000 2 20 20:44 29.10.2021
5042 Clear -21 1011 77 10000 3 350 19:49 29.10.2021
5043 Clear -23 1011 70 10000 3 350 18:27 29.10.2021
5044 Clear -22 1011 77 10000 3 20 16:50 29.10.2021
5045 Clear -23 1012 77 10000 3 30 14:32 29.10.2021
5046 Clear -22 1013 77 10000 5 50 10:56 29.10.2021
5047 Clear -22 1013 77 10000 5 50 10:34 29.10.2021
5048 Clear -19 1013 78 10000 4 30 07:25 29.10.2021
5049 Clear -19 1013 78 10000 4 360 00:36 29.10.2021
5050 Clear -20 1013 84 10000 5 10 22:54 28.10.2021
5051 Clear -20 1013 84 10000 4 360 21:52 28.10.2021
5052 Clear -20 1013 84 10000 5 360 20:25 28.10.2021
5053 Clear -22 1013 84 10000 4 10 19:46 28.10.2021
5054 Clear -22 1013 84 10000 3 20 18:18 28.10.2021
5055 Clear -23 1013 83 10000 4.92 30 16:58 28.10.2021
5056 Clear -23 1013 76 10000 2.68 10 15:20 28.10.2021
5057 Clear -24 1013 83 10000 2.68 20 13:43 28.10.2021
5058 Clear -24 1013 83 10000 2.68 20 13:20 28.10.2021
5059 Clear -23 1013 76 10000 2.68 30 12:39 28.10.2021
5060 Clear -23 1012 83 10000 5 40 10:51 28.10.2021
5061 Clear -22 1012 83 10000 3 10 09:38 28.10.2021
5062 Clear -21 1012 83 10000 5 360 08:55 28.10.2021
5063 Clear -21 1012 83 10000 5 360 08:28 28.10.2021
5064 Clear -18 1012 84 10000 3 360 04:42 28.10.2021
5065 Clouds -23 1011 76 10000 2.68 20 23:38 27.10.2021
5066 Clouds -22 1011 83 10000 1.79 10 22:30 27.10.2021
5067 Clouds -23 1010 83 10000 1.79 10 21:33 27.10.2021
5068 Clouds -21 1010 83 10000 1.79 360 20:50 27.10.2021
5069 Clouds -21 1009 76 10000 2.68 360 19:52 27.10.2021
5070 Clouds -21 1009 76 10000 2.68 360 19:32 27.10.2021
5071 Clouds -21 1009 83 10000 2.68 350 18:39 27.10.2021
5072 Clear -22 1008 76 10000 1.79 20 16:26 27.10.2021
5073 Clear -22 1008 76 10000 3 30 15:30 27.10.2021
5074 Clear -21 1008 76 10000 2.68 20 14:39 27.10.2021
5075 Clear -19 1006 78 10000 4 340 11:28 27.10.2021
5076 Clear -18 1006 78 10000 6 350 10:58 27.10.2021
5077 Clear -21 1006 83 10000 5 10 09:45 27.10.2021
5078 Clouds -15 1005 78 10000 3 330 07:53 27.10.2021
5079 Clouds -14 1005 78 10000 3 310 06:53 27.10.2021
5080 Clouds -17 1003 85 10000 4 350 01:45 27.10.2021
5081 Clouds -17 1003 85 10000 4 350 00:56 27.10.2021
5082 Clouds -18 1003 84 10000 4.92 350 00:26 27.10.2021
5083 Clouds -19 1003 84 10000 3.58 360 23:41 26.10.2021
5084 Clear -21 1002 83 10000 3.58 340 22:37 26.10.2021
5085 Clear -21 1002 76 10000 3.58 330 21:57 26.10.2021
5086 Clear -21 1002 83 10000 2.68 360 20:27 26.10.2021
5087 Clear -19 1002 84 10000 2.68 10 19:26 26.10.2021
5088 Clear -21 1002 83 10000 1.79 20 18:40 26.10.2021
5089 Clear -22 1002 83 10000 2.68 10 16:22 26.10.2021
5090 Clear -19 1002 84 10000 4 10 14:19 26.10.2021
5091 Clear -20 1002 84 10000 2 350 11:34 26.10.2021
5092 Clear -20 1002 84 10000 4 20 10:20 26.10.2021
5093 Clouds -18 1002 85 10000 4 20 07:25 26.10.2021
5094 Clouds -16 1002 78 10000 7 310 03:39 26.10.2021
5095 Clouds -16 1002 78 10000 7 310 03:39 26.10.2021
5096 Clouds -17 1003 85 10000 8 300 23:50 25.10.2021
5097 Clouds -16 1003 78 10000 8 300 22:39 25.10.2021
5098 Clouds -16 1003 78 10000 8 300 22:18 25.10.2021
5099 Clouds -16 1003 85 10000 7 310 21:38 25.10.2021
5100 Clouds -25 1006 96 10000 4.12 329 19:50 25.10.2021
5101 Clouds -25 1006 96 10000 4.18 328 19:25 25.10.2021
5102 Clouds -25 1006 96 10000 4.18 328 18:53 25.10.2021
5103 Clouds -25 1006 96 10000 4.15 328 17:48 25.10.2021
5104 Clouds -24 1006 95 10000 4.19 325 15:41 25.10.2021
5105 Clouds -24 1007 95 10000 4.34 322 13:56 25.10.2021
5106 Clouds -24 1007 95 10000 3.89 323 12:24 25.10.2021
5107 Clouds -24 1007 96 10000 4 321 10:18 25.10.2021
5108 Clouds -24 1008 96 10000 4.23 322 08:28 25.10.2021
5109 Clouds -23 1008 95 10000 4.03 323 05:59 25.10.2021
5110 Clouds -15 1006 85 10000 1 70 00:53 25.10.2021
5111 Clouds -15 1006 85 10000 1 20 00:35 25.10.2021
5112 Clouds -15 1007 85 10000 2 350 23:46 24.10.2021
5113 Clouds -25 1010 98 10000 4.13 322 22:43 24.10.2021
5114 Clouds -25 1010 98 10000 3.9 324 22:21 24.10.2021
5115 Clouds -16 1007 85 10000 2 10 21:38 24.10.2021
5116 Clouds -16 1007 85 10000 3 20 20:42 24.10.2021
5117 Clouds -16 1007 85 10000 4 10 19:54 24.10.2021
5118 Clouds -18 1008 85 10000 4 360 18:49 24.10.2021
5119 Clouds -17 1008 85 10000 4 20 17:54 24.10.2021
5120 Clouds -17 1008 85 10000 3 10 16:40 24.10.2021
5121 Clouds -19 1008 84 10000 4 20 15:25 24.10.2021
5122 Clouds -19 1009 84 10000 3 10 13:44 24.10.2021
5123 Clouds -21 1009 84 10000 4 40 12:40 24.10.2021
5124 Clouds -23 1009 83 10000 3 10 11:37 24.10.2021
5125 Clouds -22 1009 83 10000 3 30 10:43 24.10.2021
5126 Clouds -21 1009 83 10000 4 20 08:50 24.10.2021
5127 Clouds -16 1009 78 10000 3 10 03:30 24.10.2021
5128 Clouds -21 1008 83 10000 3.58 40 23:56 23.10.2021
5129 Clouds -22 1008 83 10000 3.58 30 22:55 23.10.2021
5130 Clouds -21 1008 83 10000 2.68 10 21:20 23.10.2021
5131 Clouds -19 1008 84 10000 4 360 19:37 23.10.2021
5132 Clouds -18 1008 92 10000 5 340 18:45 23.10.2021
5133 Clouds -16 1007 85 10000 5 350 17:46 23.10.2021
5134 Clouds -16 1007 85 10000 5 350 17:18 23.10.2021
5135 Clouds -15 1007 78 10000 5 350 15:57 23.10.2021
5136 Clouds -15 1006 85 10000 6 350 13:35 23.10.2021
5137 Snow -12 1002 85 10000 5.81 310 00:45 23.10.2021
5138 Fog -12 1002 92 10000 5.81 320 23:36 22.10.2021
5139 Clouds -11 1001 92 10000 5.81 320 21:29 22.10.2021
5140 Snow -10 1000 92 3800 5.81 330 19:33 22.10.2021
5141 Snow -8 999 93 2400 7 330 18:25 22.10.2021
5142 Snow -8 998 93 10000 4 330 16:30 22.10.2021
5143 Snow -7 997 86 10000 5 320 14:44 22.10.2021
5144 Snow -7 996 93 10000 5 20 12:41 22.10.2021
5145 Clouds -6 995 86 10000 4 20 10:56 22.10.2021
5146 Clouds -6 995 86 10000 5 350 09:57 22.10.2021
5147 Clouds -6 995 86 10000 5 350 09:32 22.10.2021
5148 Clouds -6 994 93 10000 3 40 07:30 22.10.2021
5149 Clouds -6 993 93 10000 2 50 06:46 22.10.2021
5150 Clouds -5 991 86 10000 1 0 00:53 22.10.2021
5151 Clouds -6 990 93 10000 2 40 23:49 21.10.2021
5152 Clouds -6 990 93 10000 2 350 22:43 21.10.2021
5153 Clouds -6 989 93 10000 3 20 21:28 21.10.2021
5154 Snow -6 989 93 10000 1 10 20:23 21.10.2021
5155 Snow -6 989 93 10000 0 0 19:51 21.10.2021
5156 Snow -6 989 93 10000 0 0 19:24 21.10.2021
5157 Snow -6 988 93 10000 1 300 18:32 21.10.2021
5158 Snow -6 988 93 10000 2 300 17:51 21.10.2021
5159 Snow -6 988 93 10000 2 320 16:47 21.10.2021
5160 Snow -6 988 93 10000 1 320 15:29 21.10.2021
5161 Snow -6 988 93 7000 2 300 14:53 21.10.2021
5162 Snow -6 988 100 9000 1 0 13:57 21.10.2021
5163 Snow -6 989 93 9000 2 330 11:49 21.10.2021
5164 Snow -6 989 93 10000 4 310 09:39 21.10.2021
5165 Snow -6 989 93 9000 4 320 07:48 21.10.2021
5166 Snow -6 990 93 6000 6 310 06:35 21.10.2021
5167 Snow -5 992 86 10000 5 310 00:35 21.10.2021
5168 Clouds -6 992 93 10000 7 300 22:29 20.10.2021
5169 Clouds -6 992 93 10000 6 300 21:47 20.10.2021
5170 Clouds -6 992 93 10000 6 300 21:47 20.10.2021
5171 Clouds -6 992 86 10000 6 310 20:58 20.10.2021
5172 Clouds -6 992 86 10000 6 310 20:39 20.10.2021
5173 Clouds -6 992 86 10000 6 310 20:18 20.10.2021
5174 Snow -7 992 92 10000 5.81 310 19:23 20.10.2021
5175 Clouds -7 992 92 10000 7.6 300 18:29 20.10.2021
5176 Snow -7 992 92 10000 2.68 350 16:37 20.10.2021
5177 Snow -8 991 85 10000 3.58 340 13:54 20.10.2021
5178 Snow -6 990 92 7000 4.92 340 09:53 20.10.2021
5179 Snow -5 989 92 2400 5.81 350 05:30 20.10.2021
5180 Snow -4 999 92 2000 6.71 350 02:35 20.10.2021
5181 Snow -5 987 92 3600 5.81 10 00:33 20.10.2021
5182 Snow -5 986 92 5000 6.71 20 22:37 19.10.2021
5183 Snow -5 985 92 9000 9.83 30 21:37 19.10.2021
5184 Snow -3 984 79 10000 5.81 30 20:26 19.10.2021
5185 Snow -3 983 86 10000 5.81 20 19:58 19.10.2021
5186 Snow -3 983 86 10000 5.81 20 19:34 19.10.2021
5187 Snow -2 983 80 10000 4.92 10 18:33 19.10.2021
5188 Snow -2 981 80 10000 8.94 80 17:47 19.10.2021
5189 Snow -1 980 80 10000 11.62 80 15:29 19.10.2021
5190 Snow -2 980 80 9000 10.73 80 14:37 19.10.2021
5191 Snow -1 979 80 10000 10.73 80 13:52 19.10.2021
5192 Snow 0 979 74 10000 11 80 12:23 19.10.2021
5193 Snow 0 979 80 6000 12 80 11:24 19.10.2021
5194 Clouds -1 978 80 10000 12.96 80 09:55 19.10.2021
5195 Snow -1 978 80 10000 13.86 90 08:56 19.10.2021
5196 Snow 0 979 93 1900 12.96 90 02:18 19.10.2021
5197 Snow -1 981 100 800 14.75 100 23:58 18.10.2021
5198 Snow -1 981 100 800 14.75 100 23:39 18.10.2021
5199 Snow -1 982 100 300 15.65 100 22:56 18.10.2021
5200 Snow -1 982 100 300 15.65 100 22:18 18.10.2021
5201 Snow -1 984 93 250 16.99 100 20:50 18.10.2021
5202 Snow -1 984 93 250 16.99 100 20:30 18.10.2021
5203 Snow -1 986 93 150 17.88 110 19:32 18.10.2021
5204 Snow -1 988 93 250 15.65 110 18:59 18.10.2021
5205 Snow -2 993 92 350 17.88 120 16:48 18.10.2021
5206 Snow -1 997 93 900 11.62 130 14:47 18.10.2021
5207 Snow -2 1001 92 2900 9.83 140 12:20 18.10.2021
5208 Snow -3 1004 92 2700 6.71 140 10:22 18.10.2021
5209 Snow -3 1005 100 2000 6.71 140 09:25 18.10.2021
5210 Snow -4 1012 79 10000 7.6 100 01:23 18.10.2021
5211 Clouds -4 1013 73 10000 6.71 90 22:56 17.10.2021
5212 Clear -4 1013 73 10000 6.71 90 21:45 17.10.2021
5213 Snow -4 1013 68 10000 3.58 80 20:58 17.10.2021
5214 Snow -4 1013 68 10000 3.58 80 20:26 17.10.2021
5215 Clouds -3 1012 74 10000 5 70 19:38 17.10.2021
5216 Clouds -5 1012 79 10000 4.92 10 18:35 17.10.2021
5217 Snow -6 1013 85 10000 4.92 360 16:57 17.10.2021
5218 Snow -5 1012 86 10000 6 10 14:42 17.10.2021
5219 Snow -5 1012 86 10000 6 10 14:23 17.10.2021
5220 Snow -5 1012 86 10000 4 360 13:33 17.10.2021
5221 Snow -4 1011 86 10000 6 360 11:54 17.10.2021
5222 Clouds -4 1010 86 10000 4 360 10:20 17.10.2021
5223 Snow -4 1009 93 10000 5 10 09:22 17.10.2021
5224 Clouds -4 1007 79 10000 4.92 10 06:55 17.10.2021
5225 Clouds -5 1005 85 10000 5.81 10 00:50 17.10.2021
5226 Clouds -5 1006 73 10000 2.68 10 23:43 16.10.2021
5227 Snow -5 1006 79 10000 4.92 40 21:29 16.10.2021
5228 Clouds -2 1006 74 9000 9 50 20:30 16.10.2021
5229 Snow -4 1006 86 10000 7 30 19:43 16.10.2021
5230 Snow -4 1006 86 10000 7 30 19:21 16.10.2021
5231 Snow -4 1006 86 9000 7 40 18:51 16.10.2021
5232 Snow -4 1006 86 9000 7 40 18:29 16.10.2021
5233 Clear -6 1007 79 10000 4.92 40 17:53 16.10.2021
5234 Clear -6 1007 79 10000 4.92 40 17:21 16.10.2021
5235 Clouds -4 1009 68 10000 7 80 13:59 16.10.2021
5236 Clouds -4 1011 74 10000 9 90 11:26 16.10.2021
5237 Clear -4 1011 80 10000 9 90 10:25 16.10.2021
5238 Clouds -11 1014 78 10000 6 360 06:51 16.10.2021
5239 Clouds -14 1016 84 10000 6 350 01:25 16.10.2021
5240 Clear -15 1017 84 10000 3 360 23:50 15.10.2021
5241 Clear -16 1017 92 10000 5 350 22:24 15.10.2021
5242 Clear -16 1018 92 10000 5 340 21:56 15.10.2021
5243 Clear -16 1018 92 10000 5 340 21:24 15.10.2021
5244 Clear -15 1018 84 10000 3 360 20:45 15.10.2021
5245 Clear -15 1018 84 10000 4 350 19:26 15.10.2021
5246 Clear -13 1018 78 10000 5 350 18:40 15.10.2021
5247 Clear -12 1018 85 10000 5 360 16:28 15.10.2021
5248 Clear -12 1018 85 10000 6 340 15:28 15.10.2021
5249 Clear -8 1018 79 10000 5 10 12:41 15.10.2021
5250 Clear -10 1018 85 10000 5 10 11:26 15.10.2021
5251 Clear -10 1018 85 10000 5 10 10:42 15.10.2021
5252 Clear -9 1017 78 10000 5 20 08:58 15.10.2021
5253 Clouds -8 1016 85 10000 4.92 350 05:31 15.10.2021
5254 Clouds -8 1015 85 10000 3.58 350 00:44 15.10.2021
5255 Clouds -6 1015 79 10000 4 330 00:21 15.10.2021
5256 Clear -7 1014 86 10000 4 340 22:50 14.10.2021
5257 Clouds -9 1014 92 10000 2.68 10 21:43 14.10.2021
5258 Clouds -9 1013 92 10000 1.79 20 20:36 14.10.2021
5259 Clouds -9 1013 92 10000 1.79 20 20:18 14.10.2021
5260 Clouds -7 1013 86 10000 4 360 19:32 14.10.2021
5261 Clear -7 1012 86 10000 4 350 17:26 14.10.2021
5262 Clear -7 1012 86 10000 4 330 16:48 14.10.2021
5263 Clear -10 1012 92 10000 3 350 15:33 14.10.2021
5264 Clear -10 1012 92 10000 2 350 14:41 14.10.2021
5265 Clear -13 1011 92 10000 4 30 13:35 14.10.2021
5266 Clear -12 1010 92 10000 4 30 11:43 14.10.2021
5267 Clear -11 1009 92 10000 4 360 09:55 14.10.2021
5268 Clouds -8 1008 79 10000 6.31 336 06:54 14.10.2021
5269 Clouds -8 1008 85 10000 5.81 350 00:57 14.10.2021
5270 Clouds -8 1008 85 10000 7.6 360 00:22 14.10.2021
5271 Clear -10 1008 92 10000 4.92 360 21:53 13.10.2021
5272 Clear -10 1008 92 10000 5 360 21:32 13.10.2021
5273 Clear -9 1008 92 10000 4.92 360 19:48 13.10.2021
5274 Clear -9 1008 85 10000 6 340 18:49 13.10.2021
5275 Clear -10 1007 92 10000 4.92 330 17:55 13.10.2021
5276 Clouds -10 1007 85 10000 1.79 340 15:32 13.10.2021
5277 Clouds -9 1007 85 10000 4.92 360 14:45 13.10.2021
5278 Clouds -8 1007 85 10000 5 340 12:58 13.10.2021
5279 Clouds -8 1007 85 10000 4 330 11:59 13.10.2021
5280 Clouds -9 1007 92 10000 3 330 10:47 13.10.2021
5281 Snow -9 1007 92 10000 4.92 340 08:29 13.10.2021
5282 Snow -8 1006 85 10000 4.92 340 06:41 13.10.2021
5283 Clouds -9 1005 85 10000 3.58 340 02:26 13.10.2021
5284 Clouds -10 1005 92 10000 3.58 10 00:18 13.10.2021
5285 Clouds -9 1005 85 10000 2.68 20 23:29 12.10.2021
5286 Clouds -9 1005 92 10000 2.68 360 22:44 12.10.2021
5287 Snow -8 1004 85 10000 2.68 340 21:30 12.10.2021
5288 Clouds -8 1004 92 10000 3.58 360 20:34 12.10.2021
5289 Clouds -8 1004 92 10000 3.58 10 19:57 12.10.2021
5290 Clouds -8 1004 92 10000 0.89 340 18:27 12.10.2021
5291 Snow -8 1004 85 10000 2.68 10 17:44 12.10.2021
5292 Snow -9 1004 92 10000 2.68 20 16:38 12.10.2021
5293 Snow -9 1004 92 10000 2.68 340 15:46 12.10.2021
5294 Snow -9 1004 92 10000 1.79 350 14:38 12.10.2021
5295 Snow -9 1004 92 10000 1.79 350 13:42 12.10.2021
5296 Snow -10 1004 92 10000 2.68 340 11:37 12.10.2021
5297 Snow -10 1004 92 10000 4.92 350 09:42 12.10.2021
5298 Snow -10 1004 92 10000 3.58 350 08:42 12.10.2021
5299 Snow -10 1004 92 10000 3.58 350 08:42 12.10.2021
5300 Snow -9 1004 92 10000 3.58 360 06:56 12.10.2021
5301 Clouds -9 1004 92 10000 2.68 360 05:29 12.10.2021
5302 Clear -9 1004 92 10000 3 360 04:31 12.10.2021
5303 Fog -9 1006 92 10000 1.79 10 00:27 12.10.2021
5304 Fog -9 1006 92 10000 0.89 10 23:40 11.10.2021
5305 Fog -9 1007 92 10000 1.79 20 22:56 11.10.2021
5306 Fog -10 1007 92 10000 1 50 21:45 11.10.2021
5307 Clouds -11 1007 85 10000 1 40 20:35 11.10.2021
5308 Fog -10 1007 92 800 0 0 19:38 11.10.2021
5309 Clouds -11 1007 92 10000 2 10 18:25 11.10.2021
5310 Fog -9 1008 92 7000 1 20 16:51 11.10.2021
5311 Fog -9 1008 92 7000 1 20 16:31 11.10.2021
5312 Fog -9 1009 92 300 1.79 40 15:46 11.10.2021
5313 Fog -8 1009 92 300 2.68 10 14:54 11.10.2021
5314 Fog -8 1009 92 300 2.68 10 14:22 11.10.2021
5315 Snow -8 1009 92 500 1.79 20 13:36 11.10.2021
5316 Snow -8 1009 92 500 1.79 20 13:36 11.10.2021
5317 Clouds -7 1009 100 7000 4 330 11:37 11.10.2021
5318 Clouds -6 1009 93 10000 3 330 10:30 11.10.2021
5319 Clouds -7 1009 92 10000 4 340 08:42 11.10.2021
5320 Clouds -6 1009 92 10000 3.58 350 03:49 11.10.2021
5321 Clouds -6 1010 92 10000 2.68 350 01:36 11.10.2021
5322 Clouds -6 1009 92 10000 2.68 350 00:44 11.10.2021
5323 Snow -6 1001 100 7000 1.79 360 23:57 10.10.2021
5324 Fog -7 1009 92 10000 2.68 20 21:51 10.10.2021
5325 Snow -7 1009 92 10000 2.68 20 21:29 10.10.2021
5326 Snow -7 1009 100 10000 3 350 20:42 10.10.2021
5327 Snow -7 1009 100 10000 3 350 20:20 10.10.2021
5328 Snow -6 1009 92 8000 0.89 10 19:52 10.10.2021
5329 Snow -6 1009 92 8000 0.89 10 19:33 10.10.2021
5330 Snow -5 1009 92 8000 1.79 360 18:28 10.10.2021
5331 Snow -5 1009 92 6000 0.89 20 15:59 10.10.2021
5332 Snow -5 1009 92 6000 0.89 20 15:40 10.10.2021
5333 Snow -5 1009 92 4400 0.89 10 13:42 10.10.2021
5334 Snow -5 1009 92 6000 0.89 10 12:48 10.10.2021
5335 Snow -5 1009 92 6000 0.89 10 12:30 10.10.2021
5336 Snow -4 1009 92 6000 1 60 10:37 10.10.2021
5337 Snow -4 1009 92 3900 0.89 20 09:29 10.10.2021
5338 Snow -4 1009 92 4200 1.79 360 08:52 10.10.2021
5339 Snow -4 1009 92 5000 1.79 350 06:36 10.10.2021
5340 Snow -4 1008 92 10000 1.79 360 02:28 10.10.2021
5341 Snow -4 1008 92 9000 0.89 340 00:54 10.10.2021
5342 Snow -4 1007 92 9000 0.89 360 23:52 09.10.2021
5343 Snow -4 1007 92 9000 0.89 360 23:52 09.10.2021
5344 Snow -4 1007 92 10000 0.89 30 22:39 09.10.2021
5345 Snow -5 1007 100 9000 1.79 50 21:31 09.10.2021
5346 Snow -5 1006 92 3600 1.79 10 20:59 09.10.2021
5347 Snow -5 1006 92 3600 1.79 10 20:59 09.10.2021
5348 Snow -5 1006 92 10000 1.79 40 19:42 09.10.2021
5349 Snow -5 1006 100 10000 1.79 30 18:57 09.10.2021
5350 Snow -5 1006 100 10000 1.79 30 18:32 09.10.2021
5351 Snow -4 1005 92 9000 0.89 30 16:28 09.10.2021
5352 Snow -3 1005 92 10000 1.79 350 14:57 09.10.2021
5353 Snow -3 1004 92 10000 2.68 340 13:41 09.10.2021
5354 Mist -3 1004 100 8000 3.58 340 12:38 09.10.2021
5355 Snow -3 1003 100 9000 2.68 350 11:33 09.10.2021
5356 Snow -3 1003 100 5000 2.68 330 10:38 09.10.2021
5357 Snow -2 1003 92 9000 1.79 340 09:35 09.10.2021
5358 Fog -2 1002 92 10000 4.92 350 08:28 09.10.2021
5359 Clouds -1 1001 86 10000 6.71 350 06:54 09.10.2021
5360 Snow -1 1001 86 10000 5.81 350 05:28 09.10.2021
5361 Snow -1 1000 93 10000 3.58 360 02:49 09.10.2021
5362 Snow -1 999 93 10000 4 350 00:58 09.10.2021
5363 Snow -2 999 100 10000 2.68 340 23:36 08.10.2021
5364 Snow -2 998 100 10000 4.92 350 22:53 08.10.2021
5365 Snow -2 998 92 10000 3.58 350 21:48 08.10.2021
5366 Snow -2 997 92 10000 3.58 360 20:31 08.10.2021
5367 Snow -2 997 100 10000 2.68 360 18:50 08.10.2021
5368 Snow -2 996 100 7000 4.92 10 17:27 08.10.2021
5369 Snow -2 996 100 4100 3.58 360 16:48 08.10.2021
5370 Mist -2 996 100 4100 3.58 360 16:22 08.10.2021
5371 Snow -1 996 93 10000 4.92 20 13:50 08.10.2021
5372 Snow -1 995 93 5000 4.92 10 12:41 08.10.2021
5373 Snow -1 995 93 9000 6.71 20 10:59 08.10.2021
5374 Snow -1 995 93 9000 6.71 20 10:32 08.10.2021
5375 Snow -1 995 93 10000 6.71 20 06:53 08.10.2021
5376 Snow -1 998 100 7000 0.89 10 23:31 07.10.2021
5377 Snow -1 998 100 8000 0.89 360 22:57 07.10.2021
5378 Snow -1 999 100 2300 0 0 21:33 07.10.2021
5379 Snow -1 999 100 1300 0 0 20:56 07.10.2021
5380 Snow -1 999 100 4900 0.89 340 19:40 07.10.2021
5381 Snow -1 999 100 4900 0.89 340 19:22 07.10.2021
5382 Snow 0 999 86 10000 1.79 130 17:38 07.10.2021
5383 Snow 0 1000 86 10000 2.68 90 16:42 07.10.2021
5384 Snow 0 1000 93 10000 1.79 130 14:58 07.10.2021
5385 Snow 2 1000 87 10000 1 0 13:44 07.10.2021
5386 Rain 2 1000 87 10000 1 0 13:20 07.10.2021
5387 Snow -1 1000 100 10000 0.89 30 12:36 07.10.2021
5388 Snow -1 999 100 10000 2.68 340 10:48 07.10.2021
5389 Snow -1 999 100 10000 2.68 340 10:19 07.10.2021
5390 Snow 0 999 93 10000 1.79 330 08:56 07.10.2021
5391 Snow 0 999 93 10000 2.68 320 08:25 07.10.2021
5392 Clouds 0 998 93 10000 3 340 07:40 07.10.2021
5393 Clouds 0 998 93 10000 2.68 350 06:48 07.10.2021
5394 Clouds 1 997 87 10000 3.58 330 02:21 07.10.2021
5395 Clouds -1 995 93 10000 2.68 340 23:36 06.10.2021
5396 Clouds -1 994 100 10000 3.58 340 22:41 06.10.2021
5397 Snow -1 994 100 10000 4.92 340 21:45 06.10.2021
5398 Snow -1 993 100 10000 5.81 350 20:34 06.10.2021
5399 Snow -1 993 100 10000 3.58 340 19:46 06.10.2021
5400 Snow -1 992 100 10000 3.58 350 18:33 06.10.2021
5401 Snow -1 1006 100 10000 1.79 10 16:52 06.10.2021
5402 Snow -1 991 100 10000 2.68 360 15:25 06.10.2021
5403 Fog -1 1008 100 650 5.81 350 13:32 06.10.2021
5404 Snow -1 991 100 1700 4.92 350 12:54 06.10.2021
5405 Snow -1 991 100 1700 4.92 350 12:30 06.10.2021
5406 Snow -1 991 100 1800 3.58 350 11:46 06.10.2021
5407 Snow -1 990 100 800 3.58 360 09:57 06.10.2021
5408 Snow -1 990 100 800 3.58 360 09:38 06.10.2021
5409 Snow 0 990 100 2600 4.92 350 08:40 06.10.2021
5410 Mist 0 990 100 2800 5.81 360 06:47 06.10.2021
5411 Mist 1 990 93 5000 5.81 10 05:19 06.10.2021
5412 Snow -1 991 100 2700 5.81 360 00:26 06.10.2021
5413 Snow -1 991 100 2400 5.81 360 23:52 05.10.2021
5414 Snow -1 991 100 2400 5.81 360 23:52 05.10.2021
5415 Snow -1 991 100 1600 4.92 360 23:32 05.10.2021
5416 Snow -1 990 100 1500 5.81 360 22:44 05.10.2021
5417 Snow -1 990 100 900 3.58 20 21:58 05.10.2021
5418 Snow -1 990 100 900 3.58 20 21:35 05.10.2021
5419 Snow -1 990 100 2300 3.58 20 20:38 05.10.2021
5420 Snow -1 990 100 2300 3.58 20 20:19 05.10.2021
5421 Snow -1 990 100 2500 5.81 10 19:26 05.10.2021
5422 Snow -1 990 100 2900 5.81 10 18:45 05.10.2021
5423 Snow -1 990 100 3200 6.71 10 16:18 05.10.2021
5424 Snow -1 990 100 4900 7.6 10 14:29 05.10.2021
5425 Snow -1 990 100 6000 7.6 10 13:29 05.10.2021
5426 Snow -1 990 100 4400 6.71 10 12:36 05.10.2021
5427 Snow -1 990 100 5000 5.81 360 11:58 05.10.2021
5428 Mist 0 990 93 9000 12.96 30 10:39 05.10.2021
5429 Snow 0 990 93 10000 9.83 30 08:39 05.10.2021
5430 Clouds 2 992 81 10000 5.81 50 03:38 05.10.2021
5431 Rain 2 993 86 10000 9.83 80 23:52 04.10.2021
5432 Drizzle 2 994 86 10000 7.6 40 21:58 04.10.2021
5433 Rain 2 995 93 9000 9.83 40 18:55 04.10.2021
5434 Rain 2 996 93 4000 9.83 80 17:59 04.10.2021
5435 Mist 2 996 93 2700 9.83 80 16:22 04.10.2021
5436 Rain 2 997 93 6000 8.94 80 15:31 04.10.2021
5437 Rain 2 998 93 4000 8.94 90 14:42 04.10.2021
5438 Mist 2 998 93 1700 8.94 90 13:48 04.10.2021
5439 Rain 2 998 93 1700 8.94 90 13:23 04.10.2021
5440 Rain 2 1000 93 2900 9.83 90 11:35 04.10.2021
5441 Rain 2 1001 93 2400 9.83 100 10:48 04.10.2021
5442 Rain 2 1002 100 7000 8 100 09:51 04.10.2021
5443 Rain 2 1003 93 9000 7.6 100 08:33 04.10.2021
5444 Rain 2 1003 93 7000 9.83 110 06:51 04.10.2021
5445 Drizzle 2 1010 93 4500 7.6 110 00:28 04.10.2021
5446 Mist 1 1012 100 10000 4.92 110 22:33 03.10.2021
5447 Clouds 1 1012 93 10000 5.81 110 21:37 03.10.2021
5448 Clouds 2 1013 86 10000 3.58 90 20:54 03.10.2021
5449 Fog 1 1013 93 10000 5.81 90 19:56 03.10.2021
5450 Clouds 1 1014 93 10000 3.58 100 18:33 03.10.2021
5451 Clear 1 1014 93 10000 0 0 17:43 03.10.2021
5452 Clouds 2 1015 81 10000 1.79 130 15:51 03.10.2021
5453 Clouds 2 1015 81 10000 1 0 14:45 03.10.2021
5454 Rain 1 1015 87 10000 2.68 80 13:57 03.10.2021
5455 Rain 1 1015 87 10000 2.68 80 13:20 03.10.2021
5456 Rain 2 1016 81 10000 2.68 140 12:28 03.10.2021
5457 Snow 1 1016 80 10000 2.68 130 10:36 03.10.2021
5458 Clouds 1 1016 80 10000 2.68 130 08:36 03.10.2021
5459 Snow -1 1004 93 1600 7.6 130 00:41 03.10.2021
5460 Snow -1 1003 86 8000 6.71 130 22:34 02.10.2021
5461 Clouds -2 1018 68 10000 5.81 130 20:55 02.10.2021
5462 Clouds -2 1018 68 10000 4.92 120 19:40 02.10.2021
5463 Clouds -3 1018 74 10000 4.92 120 18:51 02.10.2021
5464 Clouds -4 1019 73 10000 2.68 110 17:41 02.10.2021
5465 Clouds -4 1019 73 10000 2.68 110 17:19 02.10.2021
5466 Clouds -6 1020 79 10000 1.79 90 14:49 02.10.2021
5467 Clouds -3 1013 86 10000 3.58 20 15:49 30.09.2021
5468 Clouds -2 1012 80 10000 1.79 50 14:48 30.09.2021
5469 Snow -2 1008 86 10000 9.83 360 12:36 30.09.2021
5470 Snow -2 1006 86 9000 10.73 360 11:34 30.09.2021
5471 Clouds -2 1004 86 7000 10.73 20 10:41 30.09.2021
5472 Snow -3 999 100 900 12.96 20 08:56 30.09.2021
5473 Snow -3 999 100 900 12.96 20 08:27 30.09.2021
5474 Snow -3 995 92 300 14.75 10 06:59 30.09.2021
5475 Snow -5 992 100 150 17.88 360 04:42 30.09.2021
5476 Snow -9 995 92 2300 8 360 00:46 30.09.2021
5477 Clear -11 996 85 10000 7.6 10 23:30 29.09.2021
5478 Fog -12 996 92 10000 5.81 330 21:55 29.09.2021
5479 Clouds -11 997 92 10000 3.58 350 20:57 29.09.2021
5480 Clouds -11 997 92 10000 3.58 350 20:23 29.09.2021
5481 Clouds -10 997 92 10000 3.58 10 19:43 29.09.2021
5482 Clouds -11 998 92 10000 3 10 18:25 29.09.2021
5483 Clouds -11 998 92 10000 3 350 17:26 29.09.2021
5484 Clear -9 999 85 10000 2.68 350 16:43 29.09.2021
5485 Clear -11 1000 92 10000 3 20 15:45 29.09.2021
5486 Clear -11 1000 92 10000 3 20 15:45 29.09.2021
5487 Clear -9 1001 85 10000 2.68 360 14:38 29.09.2021
5488 Clear -10 1001 85 10000 4 40 13:40 29.09.2021
5489 Clear -8 1002 86 10000 3 10 12:46 29.09.2021
5490 Clear -7 1002 73 10000 2 350 11:26 29.09.2021
5491 Clear -5 1002 62 10000 5 310 10:38 29.09.2021
5492 Clear -5 1003 62 10000 4 330 09:47 29.09.2021
5493 Clear -4 1003 58 10000 5 300 08:44 29.09.2021
5494 Clear -3 1003 58 10000 4 300 06:53 29.09.2021
5495 Clear -4 1003 68 10000 8 310 00:51 29.09.2021
5496 Clear -5 1004 73 10000 6 310 23:21 28.09.2021
5497 Clear -6 1004 79 10000 5 320 22:22 28.09.2021
5498 Clear -6 1004 86 10000 4 320 21:25 28.09.2021
5499 Clouds -7 1004 86 10000 4 330 20:26 28.09.2021
5500 Clear -6 1004 85 10000 5 340 19:41 28.09.2021
5501 Clear -5 1003 79 10000 5 320 18:44 28.09.2021
5502 Clear -5 1003 85 10000 6 300 17:31 28.09.2021
5503 Clear -5 1003 85 10000 6 300 17:30 28.09.2021
5504 Clouds -4 1004 92 10000 4.92 320 15:21 28.09.2021
5505 Clouds -3 1003 92 10000 3.58 330 13:28 28.09.2021
5506 Clouds -2 1003 100 10000 6 310 12:27 28.09.2021
5507 Clouds -1 1003 93 10000 5.81 300 11:55 28.09.2021
5508 Clouds -1 1003 93 10000 6 300 11:35 28.09.2021
5509 Snow -1 1002 100 10000 6 300 10:33 28.09.2021
5510 Snow -1 1002 100 10000 3 310 09:45 28.09.2021
5511 Snow -1 1002 100 8000 2 300 08:44 28.09.2021
5512 Snow -1 1002 100 8000 2 300 08:25 28.09.2021
5513 Snow -1 1002 100 1700 1 0 06:47 28.09.2021
5514 Snow 0 1002 93 9000 3 170 04:48 28.09.2021
5515 Clouds 2 1003 81 10000 4 150 01:22 28.09.2021
5516 Clouds 1 1003 87 10000 5 140 00:20 28.09.2021
5517 Clouds 1 1003 80 10000 5.81 140 23:30 27.09.2021
5518 Clouds 1 1003 80 10000 6 130 22:45 27.09.2021
5519 Clouds 2 1004 69 10000 3.58 150 21:41 27.09.2021
5520 Clouds 1 1004 80 10000 3.58 130 20:38 27.09.2021
5521 Clouds 1 1004 80 10000 2.68 150 19:43 27.09.2021
5522 Clouds 1 1004 80 10000 2.68 150 19:23 27.09.2021
5523 Clouds 1 1004 80 10000 3 140 18:31 27.09.2021
5524 Clouds 1 1005 80 10000 2.68 140 17:28 27.09.2021
5525 Clouds 1 1005 80 10000 3.58 160 16:41 27.09.2021
5526 Clouds 1 1005 80 10000 3.58 150 15:43 27.09.2021
5527 Clouds 1 1006 80 10000 3.58 150 14:43 27.09.2021
5528 Clouds 1 1006 87 10000 3.58 150 13:31 27.09.2021
5529 Clear 1 1007 80 10000 3 140 11:23 27.09.2021
5530 Clear 0 1007 80 10000 2 160 09:54 27.09.2021
5531 Clear -1 1008 86 10000 0 0 08:40 27.09.2021
5532 Clear 1 1009 80 10000 0 0 05:21 27.09.2021
5533 Clouds 1 1010 80 10000 1 0 02:59 27.09.2021
5534 Clouds -3 1011 92 10000 0.89 60 22:32 26.09.2021
5535 Clear -3 1012 100 10000 1.79 60 21:50 26.09.2021
5536 Clear -3 1012 92 10000 1.79 40 20:52 26.09.2021
5537 Clear -3 1012 92 10000 1.79 40 20:21 26.09.2021
5538 Clear -5 1012 100 10000 1 70 19:42 26.09.2021
5539 Fog -7 1012 100 10000 2 30 18:45 26.09.2021
5540 Fog -4 1012 100 150 2 60 17:54 26.09.2021
5541 Fog -4 1012 100 150 2 60 17:22 26.09.2021
5542 Fog -4 1012 93 50 2 60 16:37 26.09.2021
5543 Fog -3 1012 93 400 2 60 15:58 26.09.2021
5544 Clear -3 1012 92 10000 2.68 320 14:46 26.09.2021
5545 Clear -1 1011 93 10000 3.58 300 13:54 26.09.2021
5546 Clear -1 1011 93 10000 1.79 320 12:56 26.09.2021
5547 Clear -1 1011 93 10000 2 320 12:20 26.09.2021
5548 Clouds 0 1011 93 10000 2.68 300 11:37 26.09.2021
5549 Clouds 1 1011 80 10000 1.79 240 10:23 26.09.2021
5550 Clouds 1 1011 80 10000 1.79 150 08:56 26.09.2021
5551 Clouds 1 1011 74 10000 0.89 180 06:32 26.09.2021
5552 Clouds -2 1012 74 10000 1.79 260 00:21 26.09.2021
5553 Clouds -3 1013 79 10000 1.79 260 23:24 25.09.2021
5554 Clouds -3 1013 79 10000 1.79 280 22:38 25.09.2021
5555 Clouds -3 1013 80 10000 1 0 21:55 25.09.2021
5556 Clouds -4 1013 79 10000 1 0 21:31 25.09.2021
5557 Clouds -6 1013 86 10000 2 360 20:45 25.09.2021
5558 Clear -10 1013 92 10000 3 50 18:55 25.09.2021
5559 Clear -10 1013 92 10000 3 40 17:55 25.09.2021
5560 Clear -9 1014 92 10000 4 20 15:48 25.09.2021
5561 Clouds -7 1014 93 10000 4 10 13:57 25.09.2021
5562 Clouds -7 1014 93 10000 4 10 13:31 25.09.2021
5563 Clouds -9 1014 92 10000 4 20 12:27 25.09.2021
5564 Clouds -6 1014 86 10000 3 20 10:34 25.09.2021
5565 Clouds -5 1014 86 10000 3 40 09:32 25.09.2021
5566 Clouds -4 1013 80 10000 2 30 07:56 25.09.2021
5567 Clouds -2 1013 74 10000 3 360 05:51 25.09.2021
5568 Snow -3 1013 79 10000 3.58 350 23:51 24.09.2021
5569 Snow -4 1012 86 10000 4.92 360 21:42 24.09.2021
5570 Snow -4 1011 86 10000 4.92 10 20:34 24.09.2021
5571 Snow -4 1011 86 10000 5.81 30 19:47 24.09.2021
5572 Snow -4 1010 79 10000 4.92 360 18:33 24.09.2021
5573 Clouds -6 1010 85 10000 3.58 30 17:54 24.09.2021
5574 Clouds -6 1010 85 10000 3.58 30 17:36 24.09.2021
5575 Clouds -6 1010 85 10000 3.58 30 17:18 24.09.2021
5576 Clouds -4 1009 86 10000 6.71 350 13:57 24.09.2021
5577 Clouds -3 1009 79 10000 8 350 12:58 24.09.2021
5578 Clouds -3 1009 79 10000 8 350 12:39 24.09.2021
5579 Clouds -3 1009 79 10000 8 350 12:20 24.09.2021
5580 Snow -3 1009 93 10000 4 350 10:25 24.09.2021
5581 Snow -2 1009 93 10000 2 10 08:54 24.09.2021
5582 Snow -1 1008 93 6000 5 350 07:34 24.09.2021
5583 Snow -1 1008 93 3200 4 350 06:45 24.09.2021
5584 Snow -1 1008 93 1000 6 350 04:54 24.09.2021
5585 Snow 0 1007 100 2300 6 10 23:57 23.09.2021
5586 Snow 0 1008 100 1800 1 0 22:30 23.09.2021
5587 Snow 0 1008 100 1500 1 10 21:52 23.09.2021
5588 Snow 0 1009 100 900 1 360 20:34 23.09.2021
5589 Mist 0 1010 100 1200 1 330 19:31 23.09.2021
5590 Snow 0 1011 100 1200 1 330 17:46 23.09.2021
5591 Snow 1 1012 93 8000 1 120 15:30 23.09.2021
5592 Rain 2 1013 87 10000 3 120 14:59 23.09.2021
5593 Rain 2 1014 87 10000 3 130 13:45 23.09.2021
5594 Rain 2 1014 87 10000 3 130 13:19 23.09.2021
5595 Rain 2 1014 87 10000 3 100 12:50 23.09.2021
5596 Clouds 2 1014 87 10000 3 100 12:22 23.09.2021
5597 Clouds 2 1015 87 10000 4 120 11:32 23.09.2021
5598 Snow 1 1015 93 10000 4 110 10:20 23.09.2021
5599 Snow 1 1016 93 10000 5 110 09:51 23.09.2021
5600 Snow 1 1017 93 10000 6 110 07:54 23.09.2021
5601 Snow 1 1020 80 10000 6 120 03:31 23.09.2021
5602 Clouds 0 1023 74 10000 4 120 22:58 22.09.2021
5603 Clouds 0 1023 74 10000 4 110 22:29 22.09.2021
5604 Clouds -1 1023 80 10000 4 90 21:53 22.09.2021
5605 Clouds -1 1023 80 10000 4 90 21:33 22.09.2021
5606 Clouds -1 1024 80 10000 4 100 20:52 22.09.2021
5607 Clouds -1 1024 80 10000 2 90 19:29 22.09.2021
5608 Clouds -1 1024 80 10000 2 40 18:39 22.09.2021
5609 Clouds 1 1025 69 10000 4.27 142 17:43 22.09.2021
5610 Clouds 1 1025 68 10000 3.83 145 16:37 22.09.2021
5611 Clouds 1 1026 70 10000 3.43 157 15:19 22.09.2021
5612 Snow -1 1025 93 6000 2 50 13:48 22.09.2021
5613 Clouds -1 1025 100 10000 0 0 11:57 22.09.2021
5614 Snow 0 1025 93 10000 1 0 10:45 22.09.2021
5615 Clouds 0 1025 93 10000 1 0 09:24 22.09.2021
5616 Snow 0 1025 93 10000 1 140 08:28 22.09.2021
5617 Clouds 2 1024 75 10000 2 200 06:59 22.09.2021
5618 Clouds 2 1024 75 10000 2 230 05:53 22.09.2021
5619 Clouds 2 1024 75 10000 2 210 05:34 22.09.2021
5620 Clouds 2 1024 75 10000 1 0 03:48 22.09.2021
5621 Rain 2 1023 93 10000 1 0 00:21 22.09.2021
5622 Fog 0 1023 100 10000 0 0 22:54 21.09.2021
5623 Mist 0 1022 100 4700 1 10 21:36 21.09.2021
5624 Snow 1 1022 99 43 0.84 35 20:26 21.09.2021
5625 Snow 1 1022 99 38 1.48 15 19:20 21.09.2021
5626 Snow 1 1021 99 36 0.97 3 17:36 21.09.2021
5627 Snow 1 1020 93 2400 3 10 16:35 21.09.2021
5628 Snow 0 1020 100 7000 2 10 15:39 21.09.2021
5629 Snow 0 1020 100 6000 2 360 14:57 21.09.2021
5630 Snow 1 1019 93 10000 2 310 13:56 21.09.2021
5631 Snow 1 1019 93 10000 2 310 13:36 21.09.2021
5632 Snow 1 1018 100 10000 1 0 12:35 21.09.2021
5633 Mist 1 1017 100 10000 3 10 10:26 21.09.2021
5634 Snow 1 1016 93 6000 5 340 08:28 21.09.2021
5635 Rain 2 1016 87 10000 7 350 06:41 21.09.2021
5636 Rain 1 1015 100 10000 4 360 23:59 20.09.2021
5637 Rain 0 1014 100 10000 3 350 22:25 20.09.2021
5638 Snow 0 1014 93 10000 4 360 21:38 20.09.2021
5639 Snow 0 1014 93 10000 4 360 20:31 20.09.2021
5640 Snow 0 1014 93 10000 3 10 19:31 20.09.2021
5641 Snow 1 1015 93 10000 2 20 17:47 20.09.2021
5642 Snow 2 1015 87 10000 2 50 16:43 20.09.2021
5643 Snow 1 1016 93 10000 1 40 15:50 20.09.2021
5644 Snow 1 1016 93 10000 1 40 15:32 20.09.2021
5645 Snow 1 1016 86 10000 2 80 14:24 20.09.2021
5646 Snow 2 1017 64 10000 1 0 12:35 20.09.2021
5647 Snow 2 1017 60 10000 2 130 11:26 20.09.2021
5648 Clear 2 1017 55 10000 2 150 10:18 20.09.2021
5649 Clear 1 1017 60 10000 1 110 09:36 20.09.2021
5650 Clear 1 1017 60 10000 1 110 09:18 20.09.2021
5651 Clear 2 1017 55 10000 0 0 07:50 20.09.2021
5652 Clouds 1 1017 64 10000 2 300 00:36 20.09.2021
5653 Fog -2 1016 93 10000 3 10 22:26 19.09.2021
5654 Fog -3 1016 93 10000 3 20 21:43 19.09.2021
5655 Fog -3 1016 100 500 4 350 20:51 19.09.2021
5656 Clouds -3 1015 100 10000 3 50 19:32 19.09.2021
5657 Clouds -1 1015 93 10000 4 350 18:29 19.09.2021
5658 Clouds -2 1014 100 10000 3 10 17:23 19.09.2021
5659 Clouds -2 1014 100 10000 3 10 17:23 19.09.2021
5660 Clear -1 1013 80 10000 3 340 15:59 19.09.2021
5661 Clear -1 1013 80 10000 3 340 15:30 19.09.2021
5662 Clouds 1 1012 69 10000 5 340 14:48 19.09.2021
5663 Clouds 2 1012 64 10000 4 340 13:29 19.09.2021
5664 Clouds 2 1011 69 10000 4 360 12:51 19.09.2021
5665 Rain 3 1010 65 10000 6 350 11:28 19.09.2021
5666 Rain 4 1009 70 10000 5 350 10:53 19.09.2021
5667 Clouds 4 1009 75 10000 6 350 09:49 19.09.2021
5668 Clouds 5 1008 81 10000 6 350 08:35 19.09.2021
5669 Clouds 8 1006 76 10000 6 330 06:42 19.09.2021
5670 Clouds 8 1006 76 10000 4 290 23:53 18.09.2021
5671 Clear 7 1005 76 10000 2 360 22:31 18.09.2021
5672 Clear 3 1005 93 10000 1 160 20:58 18.09.2021
5673 Clear 3 1005 93 10000 1 160 20:38 18.09.2021
5674 Clear 2 1005 93 10000 2 130 19:40 18.09.2021
5675 Clear 2 1005 93 10000 2 130 19:21 18.09.2021
5676 Clear 0 1005 93 10000 0 0 18:37 18.09.2021
5677 Clear 2 1005 93 10000 1 0 17:45 18.09.2021
5678 Clear 0 1006 86 10000 0 0 16:24 18.09.2021
5679 Clear 2 1006 93 10000 1 0 13:49 18.09.2021
5680 Clear 2 1006 93 10000 1 0 13:29 18.09.2021
5681 Clear 6 1006 81 10000 1 0 12:49 18.09.2021
5682 Clear 3 1006 87 10000 0 0 11:41 18.09.2021
5683 Clear 3 1006 87 10000 0 0 10:32 18.09.2021
5684 Clear 4 1006 87 10000 1 80 09:35 18.09.2021
5685 Clear 4 1006 87 10000 1 80 09:35 18.09.2021
5686 Clear 8 1006 71 10000 1 0 08:59 18.09.2021
5687 Clear 10 1007 62 10000 1 0 05:51 18.09.2021
5688 Clouds 7 1009 72 10000 3.95 256 00:42 18.09.2021
5689 Clouds 6 1010 72 10000 4.58 242 23:50 17.09.2021
5690 Clouds 6 1010 71 10000 5.64 235 22:38 17.09.2021
5691 Clouds 4 1010 72 10000 6.14 228 22:19 17.09.2021
5692 Clear 1 1011 93 10000 2 140 20:51 17.09.2021
5693 Clear 1 1011 86 10000 2 140 19:23 17.09.2021
5694 Clear 1 1012 86 10000 2 200 17:25 17.09.2021
5695 Clear 1 1013 80 10000 3 230 16:27 17.09.2021
5696 Clear 0 1014 93 10000 4 280 13:29 17.09.2021
5697 Clouds 1 1014 86 10000 2 280 10:53 17.09.2021
5698 Clouds 3 1013 81 10000 4 10 08:46 17.09.2021
5699 Clouds 4 1013 81 10000 5 360 07:19 17.09.2021
5700 Clouds 6 1011 65 10000 9 320 03:54 17.09.2021
5701 Rain 2 1009 80 10000 8 310 23:25 16.09.2021
5702 Snow 1 1008 93 10000 8 300 22:25 16.09.2021
5703 Snow 1 1008 93 10000 9 290 21:51 16.09.2021
5704 Snow 1 1008 93 10000 9 290 21:24 16.09.2021
5705 Rain 2 1007 93 10000 7 290 20:18 16.09.2021
5706 Rain 2 1006 93 10000 5 280 18:20 16.09.2021
5707 Rain 2 1006 100 8000 5 280 17:33 16.09.2021
5708 Rain 4 1007 87 10000 3 170 14:58 16.09.2021
5709 Rain 4 1007 87 10000 3 170 14:24 16.09.2021
5710 Rain 6 1006 70 10000 6 150 12:51 16.09.2021
5711 Rain 6 1006 70 10000 6 150 12:28 16.09.2021
5712 Clouds 6 1007 75 10000 6 160 11:26 16.09.2021
5713 Clear 6 1006 70 10000 5 140 10:33 16.09.2021
5714 Clear 6 1007 75 10000 4 140 09:57 16.09.2021
5715 Clear 7 1006 65 10000 4 150 08:42 16.09.2021
5716 Clear 7 1006 65 10000 4 150 08:42 16.09.2021
5717 Clear 7 1007 65 10000 4 160 07:36 16.09.2021
5718 Clear 7 1007 65 10000 4 160 06:46 16.09.2021
5719 Clear 7 1007 70 10000 4 160 05:26 16.09.2021
5720 Clear 5 1008 75 10000 4 180 01:40 16.09.2021
5721 Clear 5 1008 75 10000 3 160 23:47 15.09.2021
5722 Clear 4 1008 87 10000 3 160 22:47 15.09.2021
5723 Clear 3 1008 93 10000 3 150 21:48 15.09.2021
5724 Clear 3 1008 93 10000 3 150 21:28 15.09.2021
5725 Clear -1 1008 93 10000 2 110 19:58 15.09.2021
5726 Clear -1 1008 93 10000 2 110 19:21 15.09.2021
5727 Clear -2 1008 93 10000 2 110 18:19 15.09.2021
5728 Clouds -1 1008 93 10000 1 140 16:59 15.09.2021
5729 Clouds -2 1008 93 10000 1 110 15:46 15.09.2021
5730 Clouds 2 1009 87 10000 2 120 14:45 15.09.2021
5731 Clouds 3 1009 87 10000 2 150 13:52 15.09.2021
5732 Clouds 3 1009 87 10000 2 150 13:30 15.09.2021
5733 Clear 5 1009 75 10000 2 160 12:48 15.09.2021
5734 Clear 5 1009 75 10000 3 140 11:52 15.09.2021
5735 Clear 5 1009 75 10000 3 140 11:52 15.09.2021
5736 Clear 5 1009 75 10000 3 140 11:31 15.09.2021
5737 Clouds 4 1009 81 10000 2 110 10:55 15.09.2021
5738 Clouds 4 1008 81 10000 3 120 09:29 15.09.2021
5739 Clouds 6 1008 75 10000 2 140 07:48 15.09.2021
5740 Clear 8 1008 57 10000 3 360 04:55 15.09.2021
5741 Clear 2 1009 80 10000 4 340 23:45 14.09.2021
5742 Clear -1 1009 93 10000 2 340 21:41 14.09.2021
5743 Clear -3 1009 93 10000 3 20 20:39 14.09.2021
5744 Clear -2 1008 93 10000 3 20 19:42 14.09.2021
5745 Clear -2 1009 93 10000 2 30 17:40 14.09.2021
5746 Clear -1 1009 93 10000 1 0 16:59 14.09.2021
5747 Clear 0 1008 93 10000 3 340 15:33 14.09.2021
5748 Clear 0 1008 93 10000 3 330 14:31 14.09.2021
5749 Clear 3 1009 81 10000 2 350 12:39 14.09.2021
5750 Clear 4 1008 81 10000 3 330 10:54 14.09.2021
5751 Clear 3 1008 75 10000 2 360 09:50 14.09.2021
5752 Clear 5 1008 65 10000 3 330 08:39 14.09.2021
5753 Clouds 5 1008 60 10000 6 320 06:24 14.09.2021
5754 Clear 0 1008 74 10000 6 340 00:31 14.09.2021
5755 Clear -2 1008 80 10000 5 360 22:48 13.09.2021
5756 Clear -2 1008 80 10000 5 360 22:24 13.09.2021
5757 Clear -4 1008 86 10000 5 360 21:45 13.09.2021
5758 Clear -5 1008 86 10000 4 360 20:50 13.09.2021
5759 Clear -4 1008 80 10000 5 10 18:57 13.09.2021
5760 Clear -4 1008 80 10000 5 10 18:39 13.09.2021
5761 Clouds -3 1009 80 10000 5 10 16:50 13.09.2021
5762 Clouds -3 1009 80 10000 4 10 15:30 13.09.2021
5763 Clear -3 1009 86 10000 3 10 12:26 13.09.2021
5764 Clouds -2 1009 93 10000 3 340 10:58 13.09.2021
5765 Clouds 0 1009 86 10000 3 330 09:36 13.09.2021
5766 Clouds 4 1009 60 10000 8 330 04:57 13.09.2021
5767 Clouds 1 1009 86 10000 5 360 23:41 12.09.2021
5768 Clouds 0 1009 86 10000 4 360 22:25 12.09.2021
5769 Clear 0 1008 86 10000 4 360 21:37 12.09.2021
5770 Clear -1 1008 93 10000 4 350 20:29 12.09.2021
5771 Snow 0 1007 86 10000 5 10 19:51 12.09.2021
5772 Snow 0 1007 86 10000 5 10 19:19 12.09.2021
5773 Clouds 0 1006 86 10000 6 360 18:20 12.09.2021
5774 Clouds 0 1006 86 10000 4 350 16:31 12.09.2021
5775 Clouds 0 1005 80 10000 3 350 14:54 12.09.2021
5776 Clouds 1 1005 75 10000 7 350 13:20 12.09.2021
5777 Snow 0 1004 86 10000 3 30 11:31 12.09.2021
5778 Snow 2 1003 75 10000 6 10 09:00 12.09.2021
5779 Clouds 2 1003 75 10000 8 10 08:37 12.09.2021
5780 Snow 1 1002 93 10000 6 10 01:49 12.09.2021
5781 Snow 0 1002 100 2100 6 360 23:20 11.09.2021
5782 Snow 0 1001 100 2300 6 350 21:41 11.09.2021
5783 Snow 0 1001 100 2800 7 360 20:21 11.09.2021
5784 Snow 0 1001 100 3500 7 360 19:20 11.09.2021
5785 Snow 0 1000 100 3100 9 10 17:29 11.09.2021
5786 Snow 0 1000 100 2300 8 10 15:44 11.09.2021
5787 Snow 1 1001 86 10000 5 10 13:30 11.09.2021
5788 Rain 2 1000 80 10000 10 360 12:30 11.09.2021
5789 Snow 2 1001 87 10000 2 20 11:18 11.09.2021
5790 Snow 0 1002 100 5000 6 20 09:35 11.09.2021
5791 Rain 4 1001 70 10000 6 360 07:44 11.09.2021
5792 Rain 5 1001 70 10000 6 360 06:47 11.09.2021
5793 Clouds 4 1000 81 10000 12 30 22:48 10.09.2021
5794 Clouds 4 1000 81 10000 12 30 22:48 10.09.2021
5795 Rain 4 1000 81 10000 12 30 22:23 10.09.2021
5796 Rain 4 1000 87 10000 9 40 21:48 10.09.2021
5797 Rain 4 999 87 10000 8 40 19:49 10.09.2021
5798 Rain 5 999 81 10000 6 60 18:20 10.09.2021
5799 Rain 4 998 93 10000 8 20 16:40 10.09.2021
5800 Rain 4 999 93 10000 0 0 13:54 10.09.2021
5801 Clouds 5 999 100 10000 1 0 11:46 10.09.2021
5802 Rain 6 998 93 9000 3 350 08:29 10.09.2021
5803 Rain 5 998 100 6000 4 10 07:45 10.09.2021
5804 Clouds 7 998 70 10000 0 0 00:42 10.09.2021
5805 Clouds 4 998 100 10000 2 20 22:24 09.09.2021
5806 Rain 3 998 100 10000 1 0 21:28 09.09.2021
5807 Fog 2 997 100 700 3 20 20:42 09.09.2021
5808 Clouds 2 997 100 10000 2 340 18:58 09.09.2021
5809 Clouds 3 997 93 10000 2 30 17:56 09.09.2021
5810 Clouds 3 997 93 10000 3 10 16:40 09.09.2021
5811 Clouds 3 997 93 10000 2 20 15:27 09.09.2021
5812 Clouds 5 996 81 10000 1 0 12:48 09.09.2021
5813 Clouds 5 996 87 10000 4 80 11:33 09.09.2021
5814 Rain 5 995 93 10000 5 100 09:39 09.09.2021
5815 Clouds 5 994 87 10000 5 100 08:32 09.09.2021
5816 Clouds 6 993 81 10000 8 110 06:24 09.09.2021
5817 Rain 5 990 93 10000 7 130 01:31 09.09.2021
5818 Rain 5 990 93 10000 7 130 01:31 09.09.2021
5819 Rain 7 989 93 10000 3 130 22:34 08.09.2021
5820 Rain 7 989 93 10000 3 100 20:57 08.09.2021
5821 Rain 5 988 100 10000 1 0 19:48 08.09.2021
5822 Rain 7 988 93 10000 4 120 18:50 08.09.2021
5823 Rain 7 988 93 10000 4 120 18:27 08.09.2021
5824 Rain 7 988 93 10000 5 120 17:54 08.09.2021
5825 Rain 5 989 87 10000 8 30 16:27 08.09.2021
5826 Rain 6 993 87 9000 6 70 13:56 08.09.2021
5827 Rain 6 993 87 10000 7 70 12:42 08.09.2021
5828 Rain 6 993 87 10000 7 70 12:24 08.09.2021
5829 Rain 6 994 87 10000 7 80 11:28 08.09.2021
5830 Rain 6 994 81 10000 3 30 10:32 08.09.2021
5831 Rain 6 995 81 10000 4 50 09:58 08.09.2021
5832 Rain 7 995 81 10000 5 90 07:55 08.09.2021
5833 Rain 7 995 81 10000 5 90 07:55 08.09.2021
5834 Rain 7 995 81 10000 5 90 07:55 08.09.2021
5835 Rain 7 995 81 10000 5 90 07:55 08.09.2021
5836 Rain 7 995 81 10000 4 110 07:30 08.09.2021
5837 Clouds 7 995 81 10000 3 140 03:41 08.09.2021
5838 Clouds 5 995 87 10000 4 110 22:35 07.09.2021
5839 Clouds 4 995 93 10000 4 110 21:46 07.09.2021
5840 Rain 4 995 93 10000 4 110 19:47 07.09.2021
5841 Rain 4 995 93 10000 3 100 18:39 07.09.2021
5842 Rain 4 995 93 10000 2 100 17:47 07.09.2021
5843 Rain 5 995 87 10000 3 120 15:59 07.09.2021
5844 Rain 5 995 87 10000 3 120 15:35 07.09.2021
5845 Rain 5 995 81 10000 3 120 14:38 07.09.2021
5846 Rain 4 995 87 10000 4 110 12:38 07.09.2021
5847 Rain 5 995 81 10000 4 140 11:33 07.09.2021
5848 Rain 5 995 81 10000 3 120 10:40 07.09.2021
5849 Rain 5 995 81 10000 3 140 08:18 07.09.2021
5850 Clouds 5 995 81 10000 4 160 06:43 07.09.2021
5851 Rain 5 995 75 10000 5 170 04:47 07.09.2021
5852 Clouds 5 997 65 10000 5 190 02:28 07.09.2021
5853 Clear 3 998 81 10000 5 180 00:23 07.09.2021
5854 Clear 3 998 75 10000 4 180 23:31 06.09.2021
5855 Clear 2 998 80 10000 4 190 22:53 06.09.2021
5856 Clear 2 999 80 10000 2 210 22:28 06.09.2021
5857 Clear -3 1000 93 10000 0 0 20:37 06.09.2021
5858 Clear -4 1000 86 10000 1 0 19:22 06.09.2021
5859 Clear -4 1000 86 10000 1 0 19:22 06.09.2021
5860 Clear -1 1001 86 10000 1 280 18:37 06.09.2021
5861 Clear -1 1001 86 10000 1 280 18:18 06.09.2021
5862 Clear -1 1001 80 10000 0 0 17:24 06.09.2021
5863 Clouds 0 1003 93 10000 2 330 15:37 06.09.2021
5864 Clouds 1 1004 93 10000 2 80 13:46 06.09.2021
5865 Rain 2 1004 93 10000 1 0 12:46 06.09.2021
5866 Rain 3 1005 93 10000 2 10 10:44 06.09.2021
5867 Clouds 5 1006 87 10000 2 360 07:58 06.09.2021
5868 Rain 4 1007 87 10000 4 10 04:43 06.09.2021
5869 Clouds 4 1008 81 10000 2 340 23:27 05.09.2021
5870 Clouds 3 1008 87 10000 2 360 22:46 05.09.2021
5871 Clouds 2 1008 93 10000 2 360 21:57 05.09.2021
5872 Clouds 2 1008 93 10000 2 360 21:29 05.09.2021
5873 Clouds 1 1007 93 10000 3 350 19:50 05.09.2021
5874 Clouds 1 1007 93 10000 3 350 18:38 05.09.2021
5875 Clouds 2 1008 87 10000 2 50 17:29 05.09.2021
5876 Clear 2 1007 87 10000 3 350 15:27 05.09.2021
5877 Clear 3 1007 87 10000 1 0 13:54 05.09.2021
5878 Clouds 5 1006 81 10000 0 0 11:57 05.09.2021
5879 Clouds 6 1006 87 10000 4 350 10:47 05.09.2021
5880 Clouds 6 1006 87 10000 4 350 10:22 05.09.2021
5881 Clouds 10 1005 66 10000 5 310 08:37 05.09.2021
5882 Clouds 11 1005 66 10000 5 310 07:31 05.09.2021
5883 Clouds 13 1004 67 10000 8 310 00:46 05.09.2021
5884 Clouds 12 1004 76 10000 8 300 00:21 05.09.2021
5885 Clouds 11 1004 87 10000 8 290 23:29 04.09.2021
5886 Clouds 9 1004 87 10000 2 230 22:35 04.09.2021
5887 Rain 8 1005 81 10000 2 170 21:44 04.09.2021
5888 Rain 9 1005 66 10000 4 150 19:40 04.09.2021
5889 Clear 8 1006 71 10000 4 150 17:43 04.09.2021
5890 Clouds 7 1007 76 10000 2 170 15:52 04.09.2021
5891 Clear 2 1008 80 10000 2 110 12:22 04.09.2021
5892 Clear 2 1009 75 10000 1 120 11:18 04.09.2021
5893 Clear 9 1009 53 10000 2 360 08:46 04.09.2021
5894 Clear 8 1009 61 10000 7 320 01:59 04.09.2021
5895 Clouds 6 1010 75 10000 5 300 00:23 04.09.2021
5896 Clouds 5 1010 81 10000 5 310 23:23 03.09.2021
5897 Clouds 3 1010 87 10000 3 350 21:43 03.09.2021
5898 Clouds 3 1010 87 10000 3 350 21:24 03.09.2021
5899 Clouds 2 1010 93 10000 4 320 20:35 03.09.2021
5900 Clouds 2 1009 93 10000 4 340 19:45 03.09.2021
5901 Clouds 2 1009 100 10000 3 330 18:52 03.09.2021
5902 Clouds 2 1009 93 10000 2 330 17:32 03.09.2021
5903 Clouds 4 1009 81 10000 5 300 16:22 03.09.2021
5904 Clouds 6 1009 81 10000 5 300 14:47 03.09.2021
5905 Clouds 8 1009 93 10000 5 300 11:47 03.09.2021
5906 Rain 8 1009 93 10000 6 300 10:21 03.09.2021
5907 Clouds 8 1008 100 10000 4 330 08:22 03.09.2021
5908 Mist 8 1008 93 3100 4 340 07:34 03.09.2021
5909 Rain 8 1008 93 10000 2 340 23:59 02.09.2021
5910 Rain 9 1008 87 10000 2 50 22:43 02.09.2021
5911 Rain 8 1008 87 10000 2 40 21:18 02.09.2021
5912 Rain 7 1008 93 10000 1 0 18:57 02.09.2021
5913 Clear 7 1008 87 10000 1 0 17:22 02.09.2021
5914 Clear 7 1008 93 10000 2 80 15:43 02.09.2021
5915 Clear 8 1009 81 10000 2 90 13:43 02.09.2021
5916 Clear 8 1009 81 10000 2 110 11:46 02.09.2021
5917 Clear 8 1009 81 10000 2 110 11:27 02.09.2021
5918 Clouds 8 1009 87 10000 4 120 09:21 02.09.2021
5919 Clouds 10 1009 76 10000 4 120 07:45 02.09.2021
5920 Clear 11 1009 71 10000 7 100 06:47 02.09.2021
5921 Clear 11 1011 76 10000 4 110 02:38 02.09.2021
5922 Clear 12 1011 66 10000 3 120 01:53 02.09.2021
5923 Clear 11 1011 71 10000 5 80 00:24 02.09.2021
5924 Clear 11 1011 71 10000 4 100 23:28 01.09.2021
5925 Clouds 11 1011 76 10000 6 100 22:31 01.09.2021
5926 Clouds 8 1011 100 10000 2 250 21:33 01.09.2021
5927 Fog 4 1011 100 10000 2 360 19:55 01.09.2021
5928 Clear 5 1011 100 10000 2 20 17:58 01.09.2021
5929 Clear 5 1011 100 10000 2 20 17:18 01.09.2021
5930 Fog 7 1011 100 150 2 50 16:46 01.09.2021
5931 Fog 8 1011 100 400 2 50 15:23 01.09.2021
5932 Mist 8 1011 100 3100 4 150 11:48 01.09.2021
5933 Fog 8 1011 100 250 2 170 10:42 01.09.2021
5934 Fog 9 1010 93 550 5 170 08:46 01.09.2021
5935 Mist 9 1010 93 10000 5 180 07:50 01.09.2021
5936 Fog 10 1011 93 10000 3 140 23:41 31.08.2021
5937 Clouds 10 1010 93 10000 1 150 22:29 31.08.2021
5938 Fog 9 1010 93 10000 1 300 20:56 31.08.2021
5939 Fog 8 1010 100 10000 1 210 19:44 31.08.2021
5940 Clouds 8 1010 93 10000 1 360 17:53 31.08.2021
5941 Clouds 8 1010 93 10000 1 360 17:27 31.08.2021
5942 Clouds 7 1010 100 10000 1 10 16:41 31.08.2021
5943 Clouds 6 1011 100 10000 0 0 15:56 31.08.2021
5944 Clouds 7 1010 100 10000 1 0 12:54 31.08.2021
5945 Fog 7 1011 100 10000 2 150 11:25 31.08.2021
5946 Fog 8 1011 100 10000 2 120 10:45 31.08.2021
5947 Fog 8 1010 100 10000 2 100 09:43 31.08.2021
5948 Mist 9 1010 93 2300 5 170 08:23 31.08.2021
5949 Clear 11 1010 82 10000 4 140 05:57 31.08.2021
5950 Clouds 11 1011 82 10000 4 140 23:37 30.08.2021
5951 Clouds 12 1011 76 10000 2 140 22:54 30.08.2021
5952 Fog 9 1011 93 10000 0 0 21:41 30.08.2021
5953 Fog 6 1011 100 10000 1 0 20:42 30.08.2021
5954 Fog 3 1011 100 10000 1 40 19:55 30.08.2021
5955 Fog 3 1011 100 10000 1 40 19:28 30.08.2021
5956 Fog 3 1011 100 10000 1 60 18:18 30.08.2021
5957 Clear 4 1011 100 10000 1 0 16:32 30.08.2021
5958 Clouds 5 1011 100 10000 2 330 15:50 30.08.2021
5959 Clouds 4 1011 93 10000 0 0 14:37 30.08.2021
5960 Fog 5 1011 100 10000 0 0 13:22 30.08.2021
5961 Fog 5 1011 93 10000 1 0 11:48 30.08.2021
5962 Clouds 12 1010 76 10000 2 270 08:22 30.08.2021
5963 Fog 10 1007 100 750 5 300 22:18 29.08.2021
5964 Fog 10 1007 100 1100 4 290 21:19 29.08.2021
5965 Mist 9 1006 100 1500 1 240 19:31 29.08.2021
5966 Clouds 10 1005 93 10000 2 160 18:30 29.08.2021
5967 Rain 10 1004 93 10000 4 180 16:25 29.08.2021
5968 Rain 10 1004 93 10000 4 180 16:25 29.08.2021
5969 Rain 11 1004 87 8000 6 140 14:34 29.08.2021
5970 Rain 11 1004 87 5000 4 140 13:57 29.08.2021
5971 Rain 11 1004 87 10000 5 130 12:58 29.08.2021
5972 Rain 11 1004 87 10000 5 130 12:19 29.08.2021
5973 Rain 13 1004 82 10000 5 140 11:41 29.08.2021
5974 Rain 12 1004 82 10000 8 140 10:49 29.08.2021
5975 Rain 12 1004 82 10000 8 140 10:30 29.08.2021
5976 Rain 12 1004 87 10000 5 130 09:35 29.08.2021
5977 Clouds 10 1006 87 10000 8 140 04:21 29.08.2021
5978 Clouds 11 1005 93 10000 3 310 22:58 28.08.2021
5979 Clouds 11 1004 93 10000 1 320 20:34 28.08.2021
5980 Clouds 11 1003 93 10000 5 290 19:30 28.08.2021
5981 Clouds 12 1003 94 10000 6 290 18:26 28.08.2021
5982 Clouds 12 1003 94 10000 2 300 17:46 28.08.2021
5983 Clouds 12 1002 94 10000 1 0 16:44 28.08.2021
5984 Clouds 12 1002 94 10000 1 270 15:20 28.08.2021
5985 Clouds 13 1001 94 10000 2 240 13:59 28.08.2021
5986 Clouds 13 1001 94 10000 2 240 13:40 28.08.2021
5987 Rain 12 1001 100 10000 1 0 12:34 28.08.2021
5988 Rain 13 1001 94 10000 2 250 11:34 28.08.2021
5989 Rain 13 1000 94 10000 5 260 09:48 28.08.2021
5990 Rain 13 1000 88 10000 3 290 07:56 28.08.2021
5991 Clear 12 1002 82 10000 6 180 23:49 27.08.2021
5992 Clear 11 1004 82 10000 6 160 21:29 27.08.2021
5993 Clouds 11 1004 82 10000 8 170 20:52 27.08.2021
5994 Clouds 10 1004 87 10000 7 150 19:34 27.08.2021
5995 Rain 10 1005 87 10000 7 160 18:39 27.08.2021
5996 Rain 9 1006 93 10000 6 150 17:54 27.08.2021
5997 Rain 10 1007 87 10000 5 150 16:35 27.08.2021
5998 Rain 10 1008 81 10000 6 150 14:46 27.08.2021
5999 Rain 11 1008 66 10000 6 140 13:30 27.08.2021
6000 Clear 10 1009 66 10000 8 130 11:58 27.08.2021
6001 Clear 10 1010 66 10000 7 130 10:50 27.08.2021
6002 Clear 10 1010 66 10000 7 130 10:23 27.08.2021
6003 Clear 10 1010 71 10000 5 160 08:57 27.08.2021
6004 Clear 10 1010 71 10000 5 160 08:35 27.08.2021
6005 Clouds 13 1011 54 10000 2 240 05:36 27.08.2021
6006 Clear 10 1012 62 10000 2 290 00:47 27.08.2021
6007 Clear 9 1012 57 10000 3 330 00:28 27.08.2021
6008 Clear 7 1011 70 10000 3 340 22:26 26.08.2021
6009 Clear 5 1011 81 10000 3 10 21:47 26.08.2021
6010 Clear 2 1010 87 10000 3 40 19:33 26.08.2021
6011 Clear 1 1009 93 10000 2 360 17:52 26.08.2021
6012 Clear 1 1009 93 10000 2 360 17:25 26.08.2021
6013 Clear 2 1008 87 10000 3 50 16:27 26.08.2021
6014 Clear 3 1007 87 10000 2 350 14:21 26.08.2021
6015 Clear 2 1007 87 10000 3 330 13:20 26.08.2021
6016 Clear 6 1006 75 10000 5 310 12:33 26.08.2021
6017 Clear 6 1006 75 10000 3 350 11:38 26.08.2021
6018 Clear 11 1004 58 10000 9 320 08:50 26.08.2021
6019 Clear 11 1003 58 10000 9 320 08:19 26.08.2021
6020 Rain 10 998 100 10000 7 270 23:39 25.08.2021
6021 Rain 9 998 93 6000 5 220 22:39 25.08.2021
6022 Rain 9 998 93 6000 5 220 22:19 25.08.2021
6023 Rain 8 999 93 8000 6 210 20:57 25.08.2021
6024 Rain 8 999 93 8000 6 210 20:29 25.08.2021
6025 Rain 7 1001 93 9000 6 160 18:58 25.08.2021
6026 Rain 7 1002 87 10000 6 160 17:53 25.08.2021
6027 Rain 7 1002 87 10000 6 160 17:53 25.08.2021
6028 Rain 7 1005 81 10000 7 150 15:53 25.08.2021
6029 Rain 7 1005 81 10000 7 150 15:32 25.08.2021
6030 Clouds 6 1006 87 10000 6 150 14:46 25.08.2021
6031 Clouds 6 1007 87 10000 6 150 13:53 25.08.2021
6032 Clouds 7 1009 70 10000 8 170 11:37 25.08.2021
6033 Clouds 7 1009 70 10000 8 170 11:18 25.08.2021
6034 Clear 7 1010 70 10000 4 170 09:59 25.08.2021
6035 Clear 7 1011 70 10000 5 160 09:31 25.08.2021
6036 Clear 9 1011 57 10000 7 180 08:34 25.08.2021
6037 Clear 7 1013 70 10000 5 160 06:23 25.08.2021
6038 Clouds 7 1017 61 10000 2 230 00:56 25.08.2021
6039 Clear 6 1018 65 10000 0 0 22:52 24.08.2021
6040 Clear -1 1018 93 10000 2 10 20:57 24.08.2021
6041 Clear -1 1018 93 10000 2 10 19:55 24.08.2021
6042 Clear -1 1018 93 10000 2 10 19:23 24.08.2021
6043 Clear 0 1017 93 10000 3 10 17:53 24.08.2021
6044 Clear 0 1017 93 10000 3 10 17:21 24.08.2021
6045 Clouds 2 1016 80 10000 6 10 14:56 24.08.2021
6046 Clouds 3 1015 81 10000 6 10 13:38 24.08.2021
6047 Clouds 4 1015 75 10000 7 30 12:41 24.08.2021
6048 Clouds 5 1014 70 10000 8 50 11:19 24.08.2021
6049 Clouds 4 1013 81 10000 7 30 10:46 24.08.2021
6050 Rain 4 1012 87 10000 8 20 09:24 24.08.2021
6051 Rain 5 1009 87 10000 9 30 07:35 24.08.2021
6052 Rain 9 1007 81 10000 7 30 05:37 24.08.2021
6053 Rain 11 1005 93 10000 3 360 02:44 24.08.2021
6054 Rain 10 1003 93 7000 2 350 23:31 23.08.2021
6055 Rain 10 1002 87 9000 6 50 22:43 23.08.2021
6056 Rain 10 1002 87 10000 1 0 20:59 23.08.2021
6057 Rain 10 1002 93 10000 1 0 19:30 23.08.2021
6058 Rain 10 1003 93 10000 1 330 17:45 23.08.2021
6059 Rain 10 1004 87 10000 2 30 15:37 23.08.2021
6060 Rain 12 1005 71 10000 4 190 13:53 23.08.2021
6061 Rain 12 1005 71 10000 4 90 12:31 23.08.2021
6062 Clear 12 1005 71 10000 8 100 10:47 23.08.2021
6063 Clear 13 1006 67 10000 8 110 09:54 23.08.2021
6064 Clear 15 1006 67 10000 5 110 08:35 23.08.2021
6065 Clear 15 1006 63 10000 4 130 06:59 23.08.2021
6066 Clear 14 1007 67 10000 5 170 06:39 23.08.2021
6067 Fog 10 1009 87 10000 5 190 00:59 23.08.2021
6068 Fog 9 1010 93 10000 5 180 23:39 22.08.2021
6069 Fog 8 1011 93 10000 4 160 22:42 22.08.2021
6070 Fog 6 1011 100 10000 4 160 20:58 22.08.2021
6071 Fog 6 1011 100 10000 4 160 20:19 22.08.2021
6072 Fog 6 1011 100 10000 4 160 20:19 22.08.2021
6073 Fog 6 1011 93 10000 3 160 18:29 22.08.2021
6074 Fog 9 1013 87 10000 5 160 15:48 22.08.2021
6075 Clear 9 1013 87 10000 2 150 14:53 22.08.2021
6076 Clear 10 1013 81 10000 2 140 13:38 22.08.2021
6077 Clear 10 1013 81 10000 2 140 13:19 22.08.2021
6078 Clear 10 1013 81 10000 2 140 13:19 22.08.2021
6079 Fog 10 1013 81 10000 3 130 12:40 22.08.2021
6080 Fog 10 1014 87 10000 4 140 11:44 22.08.2021
6081 Fog 10 1014 87 10000 4 140 11:19 22.08.2021
6082 Fog 11 1014 82 10000 4 160 08:41 22.08.2021
6083 Fog 12 1014 82 10000 6 160 06:59 22.08.2021
6084 Fog 12 1016 82 10000 5 160 02:30 22.08.2021
6085 Fog 11 1016 82 10000 0 0 22:36 21.08.2021
6086 Fog 8 1017 93 10000 0 0 21:34 21.08.2021
6087 Fog 4 1017 100 10000 1 0 18:47 21.08.2021
6088 Fog 4 1017 100 10000 1 0 18:21 21.08.2021
6089 Clear 5 1017 93 10000 0 0 16:58 21.08.2021
6090 Clear 5 1017 93 10000 0 0 16:29 21.08.2021
6091 Clear 7 1017 93 10000 1 0 15:38 21.08.2021
6092 Clear 7 1017 93 10000 1 0 15:38 21.08.2021
6093 Clear 7 1017 93 10000 1 0 15:20 21.08.2021
6094 Clear 6 1017 93 10000 1 0 13:35 21.08.2021
6095 Fog 6 1017 100 10000 2 300 12:39 21.08.2021
6096 Clear 10 1017 81 10000 3 130 10:39 21.08.2021
6097 Clear 12 1016 82 10000 6 150 07:50 21.08.2021
6098 Clear 12 1016 82 10000 6 150 07:50 21.08.2021
6099 Clear 11 1016 82 10000 5 170 23:51 20.08.2021
6100 Clear 11 1016 82 10000 4 150 21:54 20.08.2021
6101 Clear 9 1015 93 10000 5 150 19:31 20.08.2021
6102 Clear 10 1015 81 10000 3 160 16:29 20.08.2021
6103 Clear 11 1014 82 10000 4 140 14:27 20.08.2021
6104 Clear 11 1013 71 10000 3 120 11:54 20.08.2021
6105 Clear 11 1013 71 10000 3 120 11:26 20.08.2021
6106 Clear 11 1013 66 10000 5 100 09:45 20.08.2021
6107 Clear 13 1013 62 10000 6 110 08:54 20.08.2021
6108 Clear 13 1013 62 10000 6 120 08:35 20.08.2021
6109 Clear 13 1013 62 10000 4 160 04:38 20.08.2021
6110 Clear 13 1013 62 10000 4 170 04:19 20.08.2021
6111 Clouds 9 1014 76 10000 5 170 23:26 19.08.2021
6112 Clouds 8 1014 87 10000 4 160 22:37 19.08.2021
6113 Clouds 7 1015 93 10000 2 170 21:33 19.08.2021
6114 Clouds 3 1015 100 10000 1 160 19:55 19.08.2021
6115 Fog 4 1015 93 10000 1 170 17:37 19.08.2021
6116 Clouds 5 1015 93 10000 2 190 16:41 19.08.2021
6117 Clouds 2 1015 93 10000 2 140 14:25 19.08.2021
6118 Clear 6 1015 87 10000 2 150 12:40 19.08.2021
6119 Clear 6 1015 87 10000 2 150 12:18 19.08.2021
6120 Clouds 7 1015 81 10000 2 150 10:47 19.08.2021
6121 Clouds 8 1015 76 10000 3 150 09:48 19.08.2021
6122 Clouds 8 1015 76 10000 3 150 09:26 19.08.2021
6123 Clouds 8 1014 81 10000 4 140 08:24 19.08.2021
6124 Clouds 8 1014 81 10000 5 120 02:53 19.08.2021
6125 Rain 8 1014 81 10000 5 110 01:58 19.08.2021
6126 Rain 8 1013 87 10000 5 100 23:21 18.08.2021
6127 Rain 8 1013 87 10000 5 110 22:25 18.08.2021
6128 Rain 7 1012 93 10000 4 100 20:39 18.08.2021
6129 Rain 7 1012 93 10000 4 100 20:18 18.08.2021
6130 Rain 7 1012 93 10000 4 100 20:18 18.08.2021
6131 Rain 7 1011 93 10000 4 100 18:57 18.08.2021
6132 Rain 7 1011 93 10000 4 100 18:33 18.08.2021
6133 Rain 7 1011 93 10000 4 110 16:41 18.08.2021
6134 Rain 7 1011 100 9000 4 120 15:40 18.08.2021
6135 Rain 7 1011 100 9000 4 120 15:21 18.08.2021
6136 Rain 7 1010 100 2800 4 100 12:44 18.08.2021
6137 Mist 7 1010 100 2800 4 100 12:26 18.08.2021
6138 Rain 7 1010 100 9000 5 110 11:22 18.08.2021
6139 Rain 9 1009 87 10000 6 140 07:53 18.08.2021
6140 Rain 9 1009 87 10000 6 140 07:53 18.08.2021
6141 Rain 9 1009 93 7000 5 150 00:59 18.08.2021
6142 Rain 9 1009 93 10000 5 160 22:38 17.08.2021
6143 Rain 8 1010 93 4600 6 130 21:46 17.08.2021
6144 Rain 8 1010 93 8000 7 120 20:47 17.08.2021
6145 Rain 8 1010 87 10000 7 110 19:20 17.08.2021
6146 Rain 8 1010 93 10000 7 100 17:47 17.08.2021
6147 Rain 8 1010 93 10000 7 100 17:21 17.08.2021
6148 Clouds 8 1010 87 10000 6 90 15:41 17.08.2021
6149 Clouds 8 1011 87 10000 4 100 14:47 17.08.2021
6150 Clouds 8 1011 81 10000 6 110 12:37 17.08.2021
6151 Clouds 8 1011 81 10000 5 100 09:27 17.08.2021
6152 Clouds 9 1011 81 10000 8 110 08:36 17.08.2021
6153 Clouds 10 1010 81 10000 6 120 06:55 17.08.2021
6154 Clear 10 1011 62 10000 2 10 23:24 16.08.2021
6155 Clear 9 1011 66 10000 1 0 22:53 16.08.2021
6156 Clear 8 1011 76 10000 2 20 22:34 16.08.2021
6157 Clear 7 1011 87 10000 2 20 21:38 16.08.2021
6158 Clear 4 1011 87 10000 2 50 20:51 16.08.2021
6159 Clear 1 1010 93 10000 1 30 19:29 16.08.2021
6160 Clear -1 1010 93 10000 2 40 18:25 16.08.2021
6161 Clear -1 1010 93 10000 2 40 18:25 16.08.2021
6162 Clear -1 1010 93 10000 2 40 18:25 16.08.2021
6163 Clear -1 1010 93 10000 2 50 17:53 16.08.2021
6164 Clear 1 1010 86 10000 2 40 16:29 16.08.2021
6165 Clear 6 1010 81 10000 1 330 15:22 16.08.2021
6166 Clear 4 1010 87 10000 3 30 13:43 16.08.2021
6167 Clear 5 1010 87 10000 3 20 12:59 16.08.2021
6168 Clear 8 1009 71 10000 3 340 11:31 16.08.2021
6169 Clear 11 1009 66 10000 4 320 09:33 16.08.2021
6170 Clear 13 1008 58 10000 5 320 08:42 16.08.2021
6171 Clear 13 1008 50 10000 5 320 07:30 16.08.2021
6172 Clouds 14 1008 47 10000 8 300 05:54 16.08.2021
6173 Clear 11 1008 66 10000 7 340 00:23 16.08.2021
6174 Clear 7 1008 87 10000 2 330 21:33 15.08.2021
6175 Clear 7 1008 93 10000 3 20 19:35 15.08.2021
6176 Clouds 7 1007 93 10000 1 50 18:41 15.08.2021
6177 Clouds 7 1007 93 10000 2 30 17:48 15.08.2021
6178 Clear 8 1007 93 10000 2 320 16:38 15.08.2021
6179 Rain 8 1007 93 10000 2 20 15:34 15.08.2021
6180 Rain 9 1007 93 10000 4 10 14:32 15.08.2021
6181 Rain 9 1007 93 10000 2 360 13:34 15.08.2021
6182 Clouds 11 1005 93 10000 3 350 09:57 15.08.2021
6183 Clouds 12 1005 94 10000 4 340 06:53 15.08.2021
6184 Rain 14 1004 82 10000 7 300 01:21 15.08.2021
6185 Clouds 14 1004 82 10000 8 290 00:28 15.08.2021
6186 Clouds 14 1003 82 10000 6 290 21:22 14.08.2021
6187 Clouds 11 1003 93 10000 3 270 19:45 14.08.2021
6188 Clouds 11 1003 93 10000 3 270 19:26 14.08.2021
6189 Clear 13 1003 88 10000 1 0 17:33 14.08.2021
6190 Clear 12 1003 87 10000 3 270 16:39 14.08.2021
6191 Clear 12 1003 87 10000 2 270 15:33 14.08.2021
6192 Clear 13 1003 88 10000 1 250 13:32 14.08.2021
6193 Clouds 15 1003 82 10000 2 260 10:56 14.08.2021
6194 Clear 16 1002 77 10000 4 300 08:53 14.08.2021
6195 Clear 13 1003 82 10000 0 0 23:56 13.08.2021
6196 Clear 12 1003 82 10000 2 160 23:38 13.08.2021
6197 Clear 11 1004 82 10000 1 150 21:49 13.08.2021
6198 Clear 11 1004 82 10000 3 160 19:29 13.08.2021
6199 Clear 11 1004 76 10000 3 150 18:45 13.08.2021
6200 Clouds 11 1005 82 10000 5 150 16:51 13.08.2021
6201 Rain 11 1005 82 10000 5 150 15:41 13.08.2021
6202 Clear 11 1008 76 10000 4 140 11:21 13.08.2021
6203 Clouds 11 1008 76 10000 5 140 10:39 13.08.2021
6204 Clouds 11 1009 71 10000 5 130 08:39 13.08.2021
6205 Clouds 11 1009 71 10000 5 140 07:48 13.08.2021
6206 Clear 11 1010 71 10000 6 120 06:31 13.08.2021
6207 Clouds 8 1014 81 10000 5 170 00:18 13.08.2021
6208 Clouds 7 1014 81 10000 3 150 21:48 12.08.2021
6209 Clouds 6 1014 87 10000 3 150 20:27 12.08.2021
6210 Clouds 6 1015 87 10000 2 140 19:50 12.08.2021
6211 Clouds 6 1015 81 10000 2 140 18:29 12.08.2021
6212 Clear 3 1015 87 10000 2 110 16:50 12.08.2021
6213 Clouds 3 1015 93 10000 2 120 15:39 12.08.2021
6214 Clouds 5 1015 87 10000 2 120 13:51 12.08.2021
6215 Clouds 6 1015 87 10000 2 110 11:37 12.08.2021
6216 Clouds 6 1015 87 10000 2 110 08:57 12.08.2021
6217 Clouds 6 1015 81 10000 4 110 07:21 12.08.2021
6218 Rain 6 1014 87 10000 7 100 23:21 11.08.2021
6219 Clouds 7 1013 76 10000 8 90 21:44 11.08.2021
6220 Clouds 7 1011 76 10000 7 90 18:55 11.08.2021
6221 Clouds 7 1011 76 10000 7 90 18:24 11.08.2021
6222 Clear 8 1011 71 10000 7 110 15:22 11.08.2021
6223 Clear 8 1011 71 10000 7 100 14:54 11.08.2021
6224 Clear 9 1010 71 10000 7 80 12:47 11.08.2021
6225 Clear 9 1010 71 10000 7 80 12:29 11.08.2021
6226 Clouds 9 1010 71 10000 6 90 11:40 11.08.2021
6227 Clouds 9 1010 71 10000 6 90 11:21 11.08.2021
6228 Clouds 15 1009 67 10000 5 110 08:53 11.08.2021
6229 Clear 17 1008 55 10000 2 210 03:29 11.08.2021
6230 Clear 12 1007 76 10000 1 0 22:33 10.08.2021
6231 Clear 11 1006 82 10000 1 50 21:44 10.08.2021
6232 Clear 7 1006 93 10000 3 40 20:51 10.08.2021
6233 Clear 4 1006 93 10000 2 40 19:25 10.08.2021
6234 Clear 4 1006 93 10000 2 60 17:30 10.08.2021
6235 Clear 5 1007 93 10000 1 120 15:22 10.08.2021
6236 Clear 9 1007 81 10000 2 140 14:40 10.08.2021
6237 Clouds 12 1007 76 10000 1 140 10:53 10.08.2021
6238 Clouds 13 1008 71 10000 2 170 09:26 10.08.2021
6239 Clouds 14 1009 58 10000 3 300 05:27 10.08.2021
6240 Clouds 11 1011 76 10000 3 320 00:38 10.08.2021
6241 Clear 10 1012 81 10000 2 320 23:25 09.08.2021
6242 Clear 9 1012 81 10000 0 0 21:53 09.08.2021
6243 Clear 9 1012 81 10000 0 0 21:25 09.08.2021
6244 Clear 3 1013 93 10000 2 90 18:47 09.08.2021
6245 Clear 4 1013 87 10000 2 30 16:36 09.08.2021
6246 Clear 6 1012 93 10000 1 0 14:37 09.08.2021
6247 Clear 6 1013 93 10000 2 100 13:30 09.08.2021
6248 Clear 10 1013 81 10000 1 0 11:48 09.08.2021
6249 Clear 10 1013 81 10000 1 0 11:48 09.08.2021
6250 Clouds 12 1013 76 10000 3 320 09:41 09.08.2021
6251 Clouds 12 1013 76 10000 1 0 08:22 09.08.2021
6252 Clear 8 1014 71 10000 5 10 21:32 08.08.2021
6253 Clear 7 1015 70 10000 5 10 20:54 08.08.2021
6254 Clear 2 1015 93 10000 2 250 17:43 08.08.2021
6255 Clear 4 1015 87 10000 4 10 16:38 08.08.2021
6256 Clear 5 1015 81 10000 7 20 15:29 08.08.2021
6257 Clouds 9 1015 71 10000 9 40 12:47 08.08.2021
6258 Clear 10 1015 66 10000 6 30 10:37 08.08.2021
6259 Clouds 11 1015 71 10000 3 220 06:42 08.08.2021
6260 Clouds 10 1016 71 10000 4 170 03:40 08.08.2021
6261 Clouds 11 1016 66 10000 5 20 00:25 08.08.2021
6262 Clouds 8 1017 81 10000 5 10 22:18 07.08.2021
6263 Clouds 5 1017 87 10000 6 350 21:36 07.08.2021
6264 Clear 3 1018 93 10000 4 10 18:29 07.08.2021
6265 Clouds 4 1018 87 10000 2 280 16:52 07.08.2021
6266 Clear 4 1018 87 10000 1 0 15:37 07.08.2021
6267 Clear 6 1019 75 10000 1 0 13:54 07.08.2021
6268 Clear 8 1018 71 10000 5 20 11:41 07.08.2021
6269 Clear 12 1018 62 10000 5 20 09:35 07.08.2021
6270 Clouds 13 1017 58 10000 5 30 04:56 07.08.2021
6271 Clouds 9 1016 81 10000 3.58 360 23:21 06.08.2021
6272 Clouds 9 1015 93 10000 1.79 280 20:39 06.08.2021
6273 Clouds 9 1015 93 10000 2 280 20:18 06.08.2021
6274 Rain 9 1015 93 10000 0 0 19:45 06.08.2021
6275 Rain 8 1015 100 10000 1 0 17:51 06.08.2021
6276 Rain 10 1014 87 10000 2.68 10 13:33 06.08.2021
6277 Clear 11 1014 76 10000 2 270 09:57 06.08.2021
6278 Clear 12 1014 71 10000 2 260 08:29 06.08.2021
6279 Clouds 10 1014 81 10000 4 210 00:33 06.08.2021
6280 Clouds 9 1014 81 10000 2.68 120 23:18 05.08.2021
6281 Clouds 7 1013 93 10000 1.79 140 20:48 05.08.2021
6282 Clouds 7 1012 93 10000 2.68 110 19:49 05.08.2021
6283 Clouds 7 1011 87 10000 5.81 110 18:25 05.08.2021
6284 Clouds 7 1008 81 10000 4.92 100 15:35 05.08.2021
6285 Clouds 8 1005 81 10000 8 120 12:48 05.08.2021
6286 Clouds 11 999 81 10000 11 110 08:52 05.08.2021
6287 Clouds 14 999 67 10000 10 80 07:38 05.08.2021
6288 Clear 19 999 60 10000 14 80 00:55 05.08.2021
6289 Clear 17 1001 67 10000 9 50 22:21 04.08.2021
6290 Rain 13 1003 82 10000 4.92 50 21:25 04.08.2021
6291 Rain 10 1004 93 10000 7.6 80 19:19 04.08.2021
6292 Rain 6 1006 100 5000 1.79 330 16:59 04.08.2021
6293 Rain 7 1007 93 10000 1 10 14:45 04.08.2021
6294 Clouds 7 1008 87 10000 2.68 70 12:21 04.08.2021
6295 Clouds 8 1008 81 10000 9.83 110 06:23 04.08.2021
6296 Rain 6 1000 100 10000 8.94 130 20:53 03.08.2021
6297 Rain 6 1000 100 10000 8.94 130 20:25 03.08.2021
6298 Fog 6 999 100 10000 6.71 120 18:37 03.08.2021
6299 Rain 7 998 93 1000 6.71 120 16:47 03.08.2021
6300 Drizzle 7 998 100 3600 6.71 110 13:56 03.08.2021
6301 Rain 8 997 93 4400 2.68 90 10:57 03.08.2021
6302 Rain 8 997 93 8000 3.58 100 09:30 03.08.2021
6303 Rain 2 1002 93 6000 8.94 20 19:24 02.08.2021
6304 Rain 4 1004 93 10000 4.92 10 16:39 02.08.2021
6305 Clouds 5 1005 81 10000 5.81 20 15:30 02.08.2021
6306 Clouds 7 1007 81 10000 1 0 12:29 02.08.2021
6307 Clouds 7 1007 81 10000 1 0 11:57 02.08.2021
6308 Clouds 8 1007 76 10000 2.68 170 09:50 02.08.2021
6309 Clouds 11 1008 58 10000 6 30 04:26 02.08.2021
6310 Clouds 4 1009 86 10000 1 0 18:26 01.08.2021
6311 Clear 6 1008 81 10000 2.68 120 15:31 01.08.2021
6312 Clouds 7 1007 81 10000 3 120 11:38 01.08.2021
6313 Clear 9 1006 71 10000 4 160 09:36 01.08.2021
6314 Clouds 10 1004 62 10000 3.58 270 03:48 01.08.2021
6315 Clouds 7 1003 61 10000 2.68 320 22:52 31.07.2021
6316 Clouds 4 1002 86 10000 1.79 350 20:54 31.07.2021
6317 Clouds 4 1002 86 10000 1 0 17:49 31.07.2021
6318 Clouds 4 1002 86 10000 0.89 310 16:36 31.07.2021
6319 Clouds 6 1001 87 10000 2.68 350 12:50 31.07.2021
6320 Clouds 8 1001 66 10000 4.92 30 08:57 31.07.2021
6321 Clouds 7 1003 65 10000 4.92 310 02:29 31.07.2021
6322 Rain 4 1003 86 10000 3.58 320 20:36 30.07.2021
6323 Clouds 4 1003 86 10000 3.58 320 20:18 30.07.2021
6324 Rain 5 1003 86 10000 5.81 240 09:38 30.07.2021
6325 Rain 3 999 93 10000 7.6 280 18:19 29.07.2021
6326 Clouds 10 996 53 10000 11 290 06:59 29.07.2021
6327 Clouds 12 995 62 10000 10 280 04:34 29.07.2021
6328 Rain 7 993 87 10000 6.71 290 21:22 28.07.2021
6329 Rain 9 991 93 10000 8 290 17:47 28.07.2021
6330 Rain 8 991 93 9000 3.58 290 16:54 28.07.2021
6331 Rain 8 989 93 10000 5.81 350 08:26 28.07.2021
6332 Rain 9 987 99 5000 4.92 20 23:31 27.07.2021
6333 Rain 9 1023 99 3300 1.79 260 21:29 27.07.2021
6334 Rain 11 988 93 10000 3.58 70 14:53 27.07.2021
6335 Rain 13 989 88 9000 5 30 11:52 27.07.2021
6336 Rain 11 989 87 10000 6.71 50 10:19 27.07.2021
6337 Rain 9 999 93 10000 7.6 100 18:48 26.07.2021
6338 Rain 11 1001 81 10000 4.92 80 15:32 26.07.2021
6339 Rain 12 1004 87 10000 5.81 100 07:49 26.07.2021
6340 Fog 10 1006 93 10000 2.68 170 20:57 25.07.2021
6341 Fog 10 1006 93 2200 1.79 160 18:31 25.07.2021
6342 Fog 10 1005 100 900 1 0 16:20 25.07.2021
6343 Fog 14 1004 94 10000 2 150 10:57 25.07.2021
6344 Clouds 17 1004 82 10000 2 40 08:20 25.07.2021
6345 Rain 13 1005 100 4200 1.79 180 01:43 25.07.2021
6346 Rain 12 1006 100 7000 2.68 160 20:19 24.07.2021
6347 Rain 13 1008 93 10000 2.68 160 15:49 24.07.2021
6348 Rain 12 1010 87 10000 4.92 130 04:20 24.07.2021
6349 Rain 12 1012 71 10000 3.58 140 14:40 23.07.2021
6350 Rain 11 1013 76 9000 2.68 130 12:42 23.07.2021
6351 Clear 15 1012 63 10000 7 110 07:25 23.07.2021
6352 Clouds 10 1012 66 10000 1.79 150 20:33 22.07.2021
6353 Rain 9 1008 81 10000 2.68 90 11:29 22.07.2021
6354 Clouds 11 1008 71 10000 3.58 100 09:23 22.07.2021
6355 Clouds 12 1007 71 10000 3.58 130 07:38 22.07.2021
6356 Clear 12 1006 62 10000 4 140 21:46 21.07.2021
6357 Clear 12 1006 62 10000 4 140 21:28 21.07.2021
6358 Clear 6 1005 93 10000 1 120 14:54 21.07.2021
6359 Clear 14 1005 62 10000 3 280 09:49 21.07.2021
6360 Clear 14 1005 62 10000 3 270 08:21 21.07.2021
6361 Clouds 8 1007 76 10000 2.68 340 23:47 20.07.2021
6362 Clouds 8 1007 76 10000 2.68 340 23:47 20.07.2021
6363 Rain 5 1008 86 10000 4.92 20 17:43 20.07.2021
6364 Rain 5 1007 86 10000 5.81 20 16:25 20.07.2021
6365 Rain 5 1007 86 10000 5.81 10 15:26 20.07.2021
6366 Rain 7 1007 93 10000 4.92 30 10:22 20.07.2021
6367 Rain 8 1006 93 10000 2.68 10 04:48 20.07.2021
6368 Rain 8 1005 93 10000 2 360 22:25 19.07.2021
6369 Rain 8 1005 93 10000 2 360 22:25 19.07.2021
6370 Rain 9 1006 87 9000 5.81 80 13:36 19.07.2021
6371 Rain 9 1007 87 7000 4.92 90 10:29 19.07.2021
6372 Clear 8 1008 93 10000 1.79 320 19:42 18.07.2021
6373 Clear 11 1007 82 10000 6 70 15:20 18.07.2021
6374 Clear 17 1007 59 10000 5 80 10:18 18.07.2021
6375 Clear 15 1008 67 10000 6 160 22:25 17.07.2021
6376 Clouds 13 1008 71 10000 5.81 150 21:53 17.07.2021
6377 Clouds 14 1008 72 10000 6 150 21:35 17.07.2021
6378 Fog 12 1007 87 10000 3 140 12:30 17.07.2021
6379 Clouds 14 1007 82 10000 3 150 10:20 17.07.2021
6380 Rain 11 1006 93 10000 4.92 140 04:46 17.07.2021
6381 Clouds 11 1009 76 10000 6 140 14:23 16.07.2021
6382 Clear 17 1009 59 10000 9 110 08:47 16.07.2021
6383 Clouds 18 1011 63 10000 7 140 02:18 16.07.2021
6384 Clear 16 1008 67 10000 2 140 13:53 15.07.2021
6385 Clear 15 1008 72 10000 4 90 12:53 15.07.2021
6386 Clear 20 1008 56 10000 7 110 07:30 15.07.2021
6387 Clear 11 1009 87 10000 1.79 360 21:33 14.07.2021
6388 Clear 9 1008 93 10000 3 300 15:56 14.07.2021
6389 Clear 15 1007 72 10000 4 160 09:52 14.07.2021
6390 Clear 16 1008 67 10000 1.79 200 23:20 13.07.2021
6391 Clear 12 1007 94 10000 1 350 19:57 13.07.2021
6392 Clear 12 1007 94 10000 1 350 19:37 13.07.2021
6393 Clear 12 1007 94 10000 1 350 19:18 13.07.2021
6394 Clear 12 1008 94 10000 0 0 18:42 13.07.2021
6395 Clear 12 1008 94 10000 0 0 18:23 13.07.2021
6396 Clear 15 1007 77 10000 1.79 170 13:21 13.07.2021
6397 Clear 17 1007 67 10000 1 190 09:23 13.07.2021
6398 Clear 14 1007 82 10000 2.68 150 20:24 12.07.2021
6399 Clear 17 1007 67 10000 3 140 16:46 12.07.2021
6400 Clear 22 1007 56 10000 4 140 12:21 12.07.2021
6401 Clear 22 1007 56 10000 4 140 12:21 12.07.2021
6402 Clear 12 1010 76 10000 2 220 23:21 11.07.2021
6403 Clear 9 1010 93 10000 1.79 10 19:57 11.07.2021
6404 Clear 16 1008 77 10000 1 0 12:41 11.07.2021
6405 Clear 20 1005 56 10000 1 0 23:48 10.07.2021
6406 Clear 8 1003 87 10000 0 0 14:28 10.07.2021
6407 Clear 12 1005 50 10000 7 140 07:49 10.07.2021
6408 Clouds 8 1007 70 10000 6.71 150 01:27 10.07.2021
6409 Clear 9 1007 66 10000 3.58 100 18:20 09.07.2021
6410 Clear 9 1006 66 10000 2 100 14:49 09.07.2021
6411 Clouds 17 1001 52 10000 8 320 08:41 09.07.2021
6412 Clouds 16 998 77 10000 7.6 290 23:51 08.07.2021
6413 Clouds 15 998 82 10000 7.6 300 22:48 08.07.2021
6414 Rain 11 998 81 10000 2.68 160 18:57 08.07.2021
6415 Rain 13 998 82 10000 1 0 17:42 08.07.2021
6416 Clouds 14 1001 67 10000 5 160 13:31 08.07.2021
6417 Clouds 13 1002 71 10000 7 150 12:43 08.07.2021
6418 Clouds 12 1003 71 10000 7 140 11:32 08.07.2021
6419 Clouds 11 1004 71 10000 8 130 09:52 08.07.2021
6420 Clear 13 1008 71 10000 4 170 04:42 08.07.2021
6421 Clouds 12 1009 66 10000 2.68 180 00:47 08.07.2021
6422 Clouds 11 1009 76 10000 1 0 22:56 07.07.2021
6423 Clouds 11 1009 76 10000 1 0 22:18 07.07.2021
6424 Clouds 9 1008 81 10000 2 350 21:41 07.07.2021
6425 Clouds 9 1008 81 10000 2 350 21:22 07.07.2021
6426 Clouds 7 1007 93 10000 6.71 330 19:56 07.07.2021
6427 Clouds 7 1007 93 10000 6.71 330 19:28 07.07.2021
6428 Clear 7 1006 93 10000 5.81 340 17:36 07.07.2021
6429 Fog 10 1005 93 10000 4.92 330 15:30 07.07.2021
6430 Clouds 10 1005 93 10000 1.79 240 12:25 07.07.2021
6431 Rain 11 1004 93 10000 1 0 07:56 07.07.2021
6432 Rain 9 1004 93 10000 0.89 140 06:43 07.07.2021
6433 Rain 12 1004 76 10000 2 210 05:42 07.07.2021
6434 Fog 5 1004 93 10000 4.92 170 21:29 06.07.2021
6435 Fog 3 1004 100 200 3.58 160 19:29 06.07.2021
6436 Fog 2 1004 100 750 3.58 160 18:47 06.07.2021
6437 Fog 3 1004 93 750 3.58 150 18:27 06.07.2021
6438 Fog 3 1004 100 10000 3.58 150 13:45 06.07.2021
6439 Clouds 6 1003 87 10000 2.68 130 10:57 06.07.2021
6440 Clouds 7 1003 81 10000 5.81 100 09:41 06.07.2021
6441 Clouds 7 1003 81 10000 4.92 110 08:33 06.07.2021
6442 Clouds 8 1003 76 10000 5.81 110 06:30 06.07.2021
6443 Clouds 8 1003 76 10000 5.81 110 06:30 06.07.2021
6444 Clouds 8 1004 81 10000 4.92 140 00:59 06.07.2021
6445 Clouds 7 1004 81 10000 3.58 90 22:39 05.07.2021
6446 Clouds 4 1004 93 10000 2.68 120 18:35 05.07.2021
6447 Clouds 5 1005 87 10000 5 90 14:29 05.07.2021
6448 Clouds 6 1007 87 10000 3.58 120 07:21 05.07.2021
6449 Clouds 6 1007 87 10000 4.92 140 05:45 05.07.2021
6450 Rain 6 1007 93 10000 5.81 110 04:40 05.07.2021
6451 Rain 6 1008 93 10000 1 0 23:18 04.07.2021
6452 Rain 5 1009 93 10000 0 0 19:24 04.07.2021
6453 Rain 4 1009 100 10000 1.79 360 16:51 04.07.2021
6454 Rain 5 1010 86 10000 0.89 80 12:58 04.07.2021
6455 Rain 6 1010 81 10000 1.79 140 09:24 04.07.2021
6456 Rain 6 1011 87 10000 2.68 360 23:33 03.07.2021
6457 Rain 5 1011 86 10000 2.68 350 22:40 03.07.2021
6458 Rain 5 1012 81 10000 0 0 14:57 03.07.2021
6459 Rain 6 1012 81 10000 2.68 20 12:38 03.07.2021
6460 Rain 11 1012 54 10000 4 50 09:30 03.07.2021
6461 Rain 11 1012 54 10000 4 50 09:30 03.07.2021
6462 Rain 11 1012 50 10000 5 60 08:46 03.07.2021
6463 Clear 11 1012 46 10000 5 50 07:29 03.07.2021
6464 Rain 4 1014 60 10000 3.58 20 17:21 02.07.2021
6465 Rain 4 1016 75 10000 5.81 50 07:41 02.07.2021
6466 Rain 5 1015 75 10000 8.94 30 05:44 02.07.2021
6467 Snow 2 1016 69 10000 10.73 40 22:57 01.07.2021
6468 Clouds 2 1016 64 10000 9.83 30 21:56 01.07.2021
6469 Clouds 2 1016 64 10000 9.83 30 21:20 01.07.2021
6470 Rain 1 1016 69 10000 8.94 40 19:36 01.07.2021
6471 Clouds 1 1016 69 10000 8.94 40 19:18 01.07.2021
6472 Clouds 2 1016 69 10000 9.83 40 18:35 01.07.2021
6473 Clouds 2 1016 69 10000 9.83 40 17:19 01.07.2021
6474 Clouds 2 1016 74 10000 8.94 40 15:31 01.07.2021
6475 Clouds 2 1015 74 10000 6.71 30 14:24 01.07.2021
6476 Rain 3 1014 86 10000 4.92 40 10:56 01.07.2021
6477 Rain 4 1012 86 10000 5.81 20 07:39 01.07.2021
6478 Drizzle 5 1006 100 4800 0 0 23:23 30.06.2021
6479 Drizzle 5 1006 100 4700 0 0 22:20 30.06.2021
6480 Drizzle 5 1005 100 6000 1.79 270 21:23 30.06.2021
6481 Drizzle 6 1005 93 9000 1 0 20:28 30.06.2021
6482 Rain 5 1004 93 10000 2.68 60 19:19 30.06.2021
6483 Rain 9 1004 76 10000 8 50 14:31 30.06.2021
6484 Rain 8 1004 76 10000 7 80 13:24 30.06.2021
6485 Rain 12 1002 62 10000 10 100 08:24 30.06.2021
6486 Clear 13 1004 67 10000 7.6 160 21:50 29.06.2021
6487 Clear 12 1005 71 10000 6.71 150 19:28 29.06.2021
6488 Clear 14 1005 62 10000 5 150 17:44 29.06.2021
6489 Clear 14 1005 62 10000 5 150 17:22 29.06.2021
6490 Clear 17 1006 55 10000 6 160 15:50 29.06.2021
6491 Clear 18 1006 52 10000 7 160 14:54 29.06.2021
6492 Clear 18 1006 52 10000 6 150 13:20 29.06.2021
6493 Clear 18 1011 55 10000 6 160 01:24 29.06.2021
6494 Clear 18 1011 55 10000 6 160 01:24 29.06.2021
6495 Clear 14 1012 62 10000 5 170 21:59 28.06.2021
6496 Clear 13 1012 62 10000 5 160 20:25 28.06.2021
6497 Clear 12 1012 62 10000 4 160 17:32 28.06.2021
6498 Clear 13 1012 58 10000 4 140 15:23 28.06.2021
6499 Clear 12 1012 58 10000 5 140 14:24 28.06.2021
6500 Clear 14 1012 54 10000 3 120 10:50 28.06.2021
6501 Clouds 8 1013 76 10000 5.81 190 23:47 27.06.2021
6502 Fog 6 1013 87 10000 6.71 160 22:31 27.06.2021
6503 Fog 4 1012 86 10000 7.6 150 19:43 27.06.2021
6504 Fog 3 1011 93 10000 3.58 140 16:55 27.06.2021
6505 Fog 5 1011 86 10000 2.68 150 14:30 27.06.2021
6506 Clear 7 1009 75 10000 6 140 09:33 27.06.2021
6507 Clear 10 1009 62 10000 4 170 00:27 27.06.2021
6508 Clouds 10 1008 57 10000 1 0 21:26 26.06.2021
6509 Clouds 10 1008 57 10000 1 0 20:47 26.06.2021
6510 Clouds 5 1008 70 10000 2.68 150 19:26 26.06.2021
6511 Clouds 1 1008 86 10000 2 100 15:39 26.06.2021
6512 Clouds 6 1008 61 10000 2 140 13:52 26.06.2021
6513 Clouds 8 1008 57 10000 4 150 10:39 26.06.2021
6514 Clear 8 1008 66 10000 4 180 06:23 26.06.2021
6515 Clear 10 1008 62 10000 2.68 240 21:24 25.06.2021
6516 Clear 10 1008 62 10000 2.68 210 20:34 25.06.2021
6517 Clear 7 1007 75 10000 2.68 40 18:48 25.06.2021
6518 Clear 9 1007 57 10000 1.79 30 17:30 25.06.2021
6519 Clear 9 1007 57 10000 1.79 30 17:30 25.06.2021
6520 Clear 11 1006 62 10000 2 20 15:59 25.06.2021
6521 Clear 12 1005 58 10000 5 80 13:42 25.06.2021
6522 Clear 18 1003 42 10000 6 120 09:56 25.06.2021
6523 Clear 18 1002 45 10000 4 140 07:23 25.06.2021
6524 Clear 17 1001 48 10000 6 180 03:59 25.06.2021
6525 Clear 16 1000 59 10000 5 190 23:48 24.06.2021
6526 Clear 16 1000 55 10000 4 170 21:48 24.06.2021
6527 Clear 14 999 67 10000 0.89 360 20:41 24.06.2021
6528 Clear 12 999 82 10000 1.79 10 19:47 24.06.2021
6529 Clear 11 999 81 10000 1.79 340 18:20 24.06.2021
6530 Clear 7 999 87 10000 0 0 15:23 24.06.2021
6531 Clear 9 999 87 10000 2 290 14:51 24.06.2021
6532 Clear 14 999 72 10000 0 0 13:18 24.06.2021
6533 Clear 20 1000 49 10000 2 260 09:51 24.06.2021
6534 Clear 20 1000 45 10000 5 280 08:28 24.06.2021
6535 Clear 19 1001 48 10000 5 280 06:39 24.06.2021
6536 Clouds 16 1004 59 10000 4 270 23:57 23.06.2021
6537 Clear 15 1005 58 10000 2 350 22:25 23.06.2021
6538 Clear 11 1005 71 10000 3 350 21:20 23.06.2021
6539 Clear 8 1006 81 10000 2.68 360 19:55 23.06.2021
6540 Clear 6 1006 93 10000 2 340 18:29 23.06.2021
6541 Clouds 3 1006 100 10000 2 360 16:52 23.06.2021
6542 Clouds 8 1007 87 10000 2 40 14:31 23.06.2021
6543 Clouds 8 1008 87 10000 1.79 40 12:47 23.06.2021
6544 Clouds 9 1008 81 10000 1 270 11:22 23.06.2021
6545 Clouds 9 1008 81 10000 1.79 200 09:26 23.06.2021
6546 Clouds 10 1008 81 10000 3 170 08:38 23.06.2021
6547 Clouds 10 1008 76 10000 1.79 220 07:49 23.06.2021
6548 Rain 11 1009 66 10000 1.79 270 05:33 23.06.2021
6549 Clouds 12 1009 62 10000 3 160 01:54 23.06.2021
6550 Clear 10 1009 66 10000 1.79 210 23:59 22.06.2021
6551 Clouds 10 1010 66 10000 2.68 190 23:41 22.06.2021
6552 Clear 10 1010 62 10000 3.58 160 22:38 22.06.2021
6553 Clear 12 1010 62 10000 2 350 21:39 22.06.2021
6554 Clear 10 1010 76 10000 2 350 20:36 22.06.2021
6555 Clear 8 1010 76 10000 0.89 350 19:18 22.06.2021
6556 Clear 7 1011 87 10000 1.79 10 18:31 22.06.2021
6557 Clear 6 1011 87 10000 2.68 10 17:29 22.06.2021
6558 Clear 5 1011 86 10000 0.89 70 16:52 22.06.2021
6559 Clear 4 1012 86 10000 1 50 14:59 22.06.2021
6560 Clear 4 1012 86 10000 1 50 14:25 22.06.2021
6561 Clear 8 1012 70 10000 2 180 13:38 22.06.2021
6562 Clear 10 1013 66 10000 3 160 11:55 22.06.2021
6563 Clear 11 1013 62 10000 6 170 10:42 22.06.2021
6564 Clear 11 1013 66 10000 6 170 08:42 22.06.2021
6565 Clear 15 1016 44 10000 3 240 00:54 22.06.2021
6566 Clear 15 1016 44 10000 1 0 23:41 21.06.2021
6567 Clear 12 1016 47 10000 1 0 22:40 21.06.2021
6568 Clear 12 1016 50 10000 1 0 21:29 21.06.2021
6569 Clear 10 1016 62 10000 4 240 20:49 21.06.2021
6570 Clear 8 1016 57 10000 1.79 100 19:55 21.06.2021
6571 Clear 8 1016 53 10000 1.79 190 18:59 21.06.2021
6572 Clear 7 1016 57 10000 5 60 17:47 21.06.2021
6573 Clear 6 1016 61 10000 3 50 16:49 21.06.2021
6574 Clear 6 1016 61 10000 3 50 16:26 21.06.2021
6575 Clear 8 1016 57 10000 1 0 15:46 21.06.2021
6576 Clear 11 1016 50 10000 2 60 14:24 21.06.2021
6577 Clear 11 1016 50 10000 4 30 13:36 21.06.2021
6578 Clear 13 1016 44 10000 3 100 12:50 21.06.2021
6579 Clear 13 1016 44 10000 3 100 12:19 21.06.2021
6580 Clear 17 1016 45 10000 0 0 10:32 21.06.2021
6581 Clear 17 1016 45 10000 2 250 09:40 21.06.2021
6582 Clear 18 1016 42 10000 4 210 08:24 21.06.2021
6583 Clear 18 1016 42 10000 4 200 07:44 21.06.2021
6584 Rain 18 1017 55 10000 6 360 00:46 21.06.2021
6585 Clouds 13 1018 76 10000 3.58 10 23:37 20.06.2021
6586 Clouds 14 1018 67 10000 5 20 22:59 20.06.2021
6587 Clear 12 1018 66 10000 5.81 350 22:20 20.06.2021
6588 Clear 14 1018 62 10000 4 340 21:34 20.06.2021
6589 Clear 7 1019 93 10000 2.68 10 19:55 20.06.2021
6590 Clear 7 1019 93 10000 2.68 10 19:33 20.06.2021
6591 Clear 5 1019 93 10000 2.68 30 18:34 20.06.2021
6592 Clear 4 1019 100 10000 0 0 16:58 20.06.2021
6593 Clear 6 1019 87 10000 0.89 310 16:28 20.06.2021
6594 Clear 6 1019 87 10000 0.89 310 15:34 20.06.2021
6595 Clear 7 1019 75 10000 1.79 150 14:55 20.06.2021
6596 Clear 7 1019 81 10000 1 0 13:52 20.06.2021
6597 Clear 11 1019 71 10000 1 0 12:58 20.06.2021
6598 Clear 8 1019 76 10000 1.79 150 11:47 20.06.2021
6599 Clear 12 1019 62 10000 4 130 10:48 20.06.2021
6600 Clear 9 1019 71 10000 5 150 09:47 20.06.2021
6601 Clear 10 1019 66 10000 7 150 08:22 20.06.2021
6602 Clouds 4 1020 80 10000 9 150 00:31 20.06.2021
6603 Clouds 7 1020 70 10000 3.58 90 23:23 19.06.2021
6604 Clouds 5 1021 75 10000 4.92 140 22:20 19.06.2021
6605 Fog 6 1020 65 10000 1.79 140 21:43 19.06.2021
6606 Clear 4 1019 75 10000 4.92 40 18:56 19.06.2021
6607 Clear 4 1019 75 10000 4.92 40 18:31 19.06.2021
6608 Clouds 1 1019 87 10000 5.81 50 17:27 19.06.2021
6609 Fog 1 1018 87 10000 4.92 50 16:51 19.06.2021
6610 Fog 3 1018 75 10000 3.58 50 15:45 19.06.2021
6611 Clear 5 1017 70 10000 1 0 13:45 19.06.2021
6612 Clear 10 1017 53 10000 4 90 12:40 19.06.2021
6613 Clear 9 1016 57 10000 3 50 10:49 19.06.2021
6614 Clear 9 1016 57 10000 3 50 10:49 19.06.2021
6615 Clear 9 1016 57 10000 3 50 10:49 19.06.2021
6616 Clear 9 1016 57 10000 3 50 10:49 19.06.2021
6617 Clear 9 1016 57 10000 3 50 10:49 19.06.2021
6618 Clear 9 1016 57 10000 3 50 10:49 19.06.2021
6619 Clear 8 1016 57 10000 2.68 50 10:27 19.06.2021
6620 Clear 10 1016 53 10000 3 70 09:59 19.06.2021
6621 Clear 7 1016 70 10000 7 90 08:32 19.06.2021
6622 Clear 8 1016 61 10000 6 80 07:37 19.06.2021
6623 Clear 10 1015 62 10000 8 100 04:27 19.06.2021
6624 Clear 9 1015 66 10000 6 110 00:24 19.06.2021
6625 Clear 9 1014 66 10000 2 100 23:49 18.06.2021
6626 Clear 9 1014 61 10000 5 60 22:56 18.06.2021
6627 Clear 9 1014 61 10000 5 60 22:36 18.06.2021
6628 Clear 7 1014 61 10000 4.92 50 21:51 18.06.2021
6629 Clear 5 1014 75 10000 1.79 230 21:27 18.06.2021
6630 Fog 6 1014 75 10000 2 230 20:28 18.06.2021
6631 Fog 4 1013 75 10000 1 0 18:46 18.06.2021
6632 Fog 1 1013 87 10000 2.68 250 17:55 18.06.2021
6633 Fog 4 1013 70 10000 2.68 80 16:39 18.06.2021
6634 Fog 3 1013 75 10000 6 140 15:48 18.06.2021
6635 Fog 9 1013 61 10000 6 130 14:51 18.06.2021
6636 Fog 5 1013 70 10000 3.58 30 13:56 18.06.2021
6637 Fog 5 1013 70 10000 3.58 30 13:20 18.06.2021
6638 Fog 6 1013 61 10000 1.79 80 12:42 18.06.2021
6639 Fog 5 1013 70 10000 6.71 70 11:48 18.06.2021
6640 Fog 6 1013 70 10000 4.92 60 10:59 18.06.2021
6641 Fog 6 1013 70 10000 4.92 60 10:36 18.06.2021
6642 Fog 6 1013 70 10000 4.92 60 10:18 18.06.2021
6643 Fog 8 1012 66 10000 3.58 70 09:22 18.06.2021
6644 Clear 13 1012 44 10000 2 80 08:34 18.06.2021
6645 Clear 13 1012 47 10000 4 120 07:38 18.06.2021
6646 Clear 13 1012 47 10000 10 100 05:51 18.06.2021
6647 Fog 9 1012 66 10000 6 60 00:36 18.06.2021
6648 Fog 6 1012 70 10000 6.71 70 23:31 17.06.2021
6649 Fog 5 1012 75 10000 5.81 70 22:41 17.06.2021
6650 Fog 5 1012 75 10000 5.81 70 22:22 17.06.2021
6651 Fog 4 1012 75 10000 6.71 70 21:25 17.06.2021
6652 Fog 3 1012 80 10000 5.81 50 20:45 17.06.2021
6653 Fog 4 1011 75 10000 1.79 50 20:19 17.06.2021
6654 Fog 4 1011 75 10000 1.79 50 19:32 17.06.2021
6655 Fog 2 1011 86 10000 4.92 60 17:50 17.06.2021
6656 Fog 2 1011 86 10000 4.92 60 17:24 17.06.2021
6657 Fog 2 1011 86 10000 4.92 60 17:24 17.06.2021
6658 Fog 1 1011 93 10000 5.81 50 16:57 17.06.2021
6659 Fog 1 1011 93 10000 5.81 50 16:23 17.06.2021
6660 Fog 3 1011 75 10000 1.79 140 14:53 17.06.2021
6661 Fog 4 1010 70 10000 2.68 90 13:56 17.06.2021
6662 Fog 2 1010 86 10000 6.71 60 12:34 17.06.2021
6663 Fog 3 1010 80 10000 5.81 40 11:52 17.06.2021
6664 Fog 6 1010 65 10000 3.58 340 10:46 17.06.2021
6665 Fog 6 1010 65 10000 3.58 340 10:24 17.06.2021
6666 Fog 6 1010 65 10000 2.68 60 09:42 17.06.2021
6667 Fog 6 1010 65 10000 2.68 60 09:42 17.06.2021
6668 Fog 7 1010 65 10000 3 60 09:21 17.06.2021
6669 Fog 7 1010 65 10000 3.58 100 07:58 17.06.2021
6670 Fog 8 1010 61 10000 5.81 100 06:48 17.06.2021
6671 Fog 8 1010 61 10000 5.81 100 06:48 17.06.2021
6672 Clouds 7 1010 70 10000 5.81 90 03:24 17.06.2021
6673 Clouds 7 1011 65 10000 3.58 90 23:46 16.06.2021
6674 Clouds 6 1011 70 10000 4.92 80 23:22 16.06.2021
6675 Clouds 5 1010 75 10000 8.94 60 22:35 16.06.2021
6676 Clouds 4 1010 80 10000 9.83 50 21:46 16.06.2021
6677 Clouds 4 1010 80 10000 9.83 50 21:22 16.06.2021
6678 Clouds 7 1010 70 10000 3 60 20:44 16.06.2021
6679 Clouds 3 1009 80 10000 7.6 40 19:59 16.06.2021
6680 Clouds 3 1009 80 10000 7.6 40 19:37 16.06.2021
6681 Clouds 2 1009 86 10000 8.94 40 18:56 16.06.2021
6682 Clouds 2 1009 86 10000 8.94 40 18:28 16.06.2021
6683 Clear 3 1009 86 10000 8.94 40 17:44 16.06.2021
6684 Clear 3 1009 86 10000 8.94 40 17:26 16.06.2021
6685 Clear 4 1008 75 10000 5.81 70 16:44 16.06.2021
6686 Clear 4 1008 75 10000 5.81 70 16:18 16.06.2021
6687 Clear 9 1008 61 10000 4 50 15:37 16.06.2021
6688 Clear 6 1008 70 10000 4 10 14:50 16.06.2021
6689 Clear 7 1008 70 10000 4 10 14:32 16.06.2021
6690 Clear 9 1007 61 10000 2 170 13:57 16.06.2021
6691 Clear 7 1007 70 10000 2 170 13:23 16.06.2021
6692 Clear 7 1007 70 10000 6 360 12:55 16.06.2021
6693 Clear 7 1007 70 10000 6 360 12:33 16.06.2021
6694 Clear 7 1007 65 10000 5 90 11:46 16.06.2021
6695 Fog 12 1006 50 10000 2 200 10:53 16.06.2021
6696 Fog 12 1006 50 10000 2 200 10:34 16.06.2021
6697 Fog 13 1006 50 10000 3 260 09:39 16.06.2021
6698 Fog 15 1006 44 10000 7 100 08:34 16.06.2021
6699 Fog 15 1006 44 10000 7 100 08:34 16.06.2021
6700 Clear 15 1006 41 10000 7 110 07:48 16.06.2021
6701 Clear 15 1006 44 10000 8 100 07:25 16.06.2021
6702 Clear 15 1006 44 10000 8 100 07:25 16.06.2021
6703 Clear 16 1005 51 10000 10 90 02:48 16.06.2021
6704 Clear 16 1004 44 10000 6 150 23:49 15.06.2021
6705 Clear 16 1004 41 10000 6 140 23:23 15.06.2021
6706 Clear 15 1004 44 10000 6 140 22:50 15.06.2021
6707 Clear 15 1004 44 10000 6 150 22:32 15.06.2021
6708 Clear 15 1004 44 10000 6 150 22:32 15.06.2021
6709 Clear 13 1003 54 10000 5 150 21:27 15.06.2021
6710 Clear 12 1003 58 10000 6 140 20:21 15.06.2021
6711 Clear 12 1002 58 10000 6 140 19:33 15.06.2021
6712 Clear 11 1001 62 10000 6 140 18:25 15.06.2021
6713 Clear 9 1001 71 10000 5 140 16:52 15.06.2021
6714 Clear 10 1000 71 10000 4 140 15:46 15.06.2021
6715 Clear 10 1000 71 10000 4 140 15:27 15.06.2021
6716 Clear 10 1000 66 10000 4 130 14:44 15.06.2021
6717 Clear 10 1000 66 10000 4 140 13:41 15.06.2021
6718 Clear 10 999 62 10000 5 130 12:59 15.06.2021
6719 Clear 10 999 62 10000 5 130 12:38 15.06.2021
6720 Clear 11 999 58 10000 7 140 11:46 15.06.2021
6721 Clear 11 999 58 10000 7 140 11:19 15.06.2021
6722 Clear 11 998 58 10000 6 140 10:44 15.06.2021
6723 Clear 11 998 58 10000 6 140 10:22 15.06.2021
6724 Clear 10 998 66 10000 8 140 09:28 15.06.2021
6725 Clouds 10 998 71 10000 8 160 08:26 15.06.2021
6726 Clear 11 997 62 10000 6 170 07:37 15.06.2021
6727 Clouds 12 998 58 10000 5 180 06:22 15.06.2021
6728 Clouds 12 998 58 10000 4 180 04:30 15.06.2021
6729 Clouds 10 998 66 10000 2 300 00:46 15.06.2021
6730 Clouds 9 998 71 10000 3 290 23:41 14.06.2021
6731 Clouds 9 998 71 10000 3 290 23:22 14.06.2021
6732 Clouds 6 999 81 10000 1.79 310 22:42 14.06.2021
6733 Clouds 6 999 81 10000 1.79 310 22:19 14.06.2021
6734 Clouds 5 999 86 10000 1.79 280 21:40 14.06.2021
6735 Clouds 5 999 86 10000 2.68 300 21:21 14.06.2021
6736 Clouds 6 999 87 10000 3 300 20:47 14.06.2021
6737 Clouds 4 999 93 10000 2.68 290 19:54 14.06.2021
6738 Clouds 4 999 93 10000 2.68 290 19:35 14.06.2021
6739 Clouds 3 1000 93 10000 1.79 290 18:58 14.06.2021
6740 Clouds 3 1000 93 10000 1.79 290 18:23 14.06.2021
6741 Clouds 3 1000 93 10000 1 0 17:49 14.06.2021
6742 Clouds 3 1000 93 10000 1 0 17:49 14.06.2021
6743 Clouds 3 1000 93 10000 1 0 17:28 14.06.2021
6744 Rain 3 1000 93 10000 1 0 16:20 14.06.2021
6745 Rain 3 1001 93 10000 0.89 340 15:48 14.06.2021
6746 Clouds 4 1001 86 10000 1.79 300 15:19 14.06.2021
6747 Clouds 4 1001 86 10000 1.79 300 14:43 14.06.2021
6748 Rain 4 1001 86 10000 1.79 20 13:34 14.06.2021
6749 Clouds 5 1002 81 10000 2.68 10 12:54 14.06.2021
6750 Clouds 5 1002 81 10000 2.68 10 12:27 14.06.2021
6751 Clouds 5 1002 81 10000 2.68 30 11:46 14.06.2021
6752 Clouds 6 1002 70 10000 6 30 10:54 14.06.2021
6753 Clouds 8 1002 71 10000 7 40 09:40 14.06.2021
6754 Clouds 8 1002 71 10000 7 40 09:21 14.06.2021
6755 Clouds 8 1002 61 10000 5 40 08:41 14.06.2021
6756 Clouds 7 1002 65 10000 8 40 07:43 14.06.2021
6757 Clouds 7 1003 70 10000 7.6 40 06:23 14.06.2021
6758 Clouds 8 1004 61 10000 5 40 04:53 14.06.2021
6759 Clouds 7 1006 70 10000 8.94 10 00:45 14.06.2021
6760 Clouds 5 1007 81 10000 5.81 10 23:42 13.06.2021
6761 Clouds 5 1007 81 10000 5.81 10 23:19 13.06.2021
6762 Clouds 4 1008 80 10000 5.81 360 22:40 13.06.2021
6763 Clouds 4 1008 80 10000 5.81 360 22:18 13.06.2021
6764 Rain 4 1008 80 10000 5.81 360 21:44 13.06.2021
6765 Rain 4 1008 80 10000 5.81 360 21:24 13.06.2021
6766 Rain 3 1008 86 10000 5.81 40 20:45 13.06.2021
6767 Rain 3 1008 86 10000 5.8